<?xml version='1.0' encoding='UTF-8'?><gpx version="1.1" creator="JPX - https://github.com/jenetics/jpx" xmlns="http://www.topografix.com/GPX/1/1"><trk><trkseg><trkpt lat="39.67301595923583" lon="-3.967382633572064"><ele>757.0</ele><time>2026-04-09T14:51:59.999Z</time></trkpt><trkpt lat="39.6729432640219" lon="-3.9673395834915692"><ele>757.0</ele><time>2026-04-09T14:52:00.999Z</time></trkpt><trkpt lat="39.67285802350157" lon="-3.9672796478011674"><ele>757.0</ele><time>2026-04-09T14:52:01.999Z</time></trkpt><trkpt lat="39.672781169766814" lon="-3.967228871786538"><ele>757.0</ele><time>2026-04-09T14:52:02.999Z</time></trkpt><trkpt lat="39.67270749228231" lon="-3.967188208806076"><ele>757.0</ele><time>2026-04-09T14:52:03.999Z</time></trkpt><trkpt lat="39.672620706995225" lon="-3.9671429114233527"><ele>757.0</ele><time>2026-04-09T14:52:04.999Z</time></trkpt><trkpt lat="39.672544685913614" lon="-3.9670694200974244"><ele>757.25</ele><time>2026-04-09T14:52:05.999Z</time></trkpt><trkpt lat="39.67246426628449" lon="-3.9669632219439936"><ele>757.5</ele><time>2026-04-09T14:52:06.999Z</time></trkpt><trkpt lat="39.672388240738194" lon="-3.966856155342815"><ele>757.75</ele><time>2026-04-09T14:52:07.999Z</time></trkpt><trkpt lat="39.672278346719445" lon="-3.9667779597118376"><ele>758.0</ele><time>2026-04-09T14:52:08.999Z</time></trkpt><trkpt lat="39.67218783268598" lon="-3.9666823802326414"><ele>758.2</ele><time>2026-04-09T14:52:09.999Z</time></trkpt><trkpt lat="39.67209625455117" lon="-3.966586299443369"><ele>758.4</ele><time>2026-04-09T14:52:10.999Z</time></trkpt><trkpt lat="39.67200507863734" lon="-3.966505299384735"><ele>758.6</ele><time>2026-04-09T14:52:11.999Z</time></trkpt><trkpt lat="39.671913412648294" lon="-3.966441179832834"><ele>758.8000000000001</ele><time>2026-04-09T14:52:12.999Z</time></trkpt><trkpt lat="39.671816129196756" lon="-3.966395452812717"><ele>759.0</ele><time>2026-04-09T14:52:13.999Z</time></trkpt><trkpt lat="39.67171722312341" lon="-3.9663448728356503"><ele>759.5</ele><time>2026-04-09T14:52:14.999Z</time></trkpt><trkpt lat="39.67161286488006" lon="-3.9662921831530666"><ele>760.0</ele><time>2026-04-09T14:52:15.999Z</time></trkpt><trkpt lat="39.67150802507349" lon="-3.966234864974392"><ele>760.5</ele><time>2026-04-09T14:52:16.999Z</time></trkpt><trkpt lat="39.67139788984033" lon="-3.9661568509628387"><ele>761.0</ele><time>2026-04-09T14:52:17.999Z</time></trkpt><trkpt lat="39.67129445683992" lon="-3.9660726320690105"><ele>761.0</ele><time>2026-04-09T14:52:18.999Z</time></trkpt><trkpt lat="39.67120307765919" lon="-3.9659926301388775"><ele>761.0</ele><time>2026-04-09T14:52:19.999Z</time></trkpt><trkpt lat="39.671110873671026" lon="-3.9659045426811623"><ele>761.0</ele><time>2026-04-09T14:52:20.999Z</time></trkpt><trkpt lat="39.671001942546376" lon="-3.965788856736324"><ele>761.0</ele><time>2026-04-09T14:52:21.999Z</time></trkpt><trkpt lat="39.67090373441938" lon="-3.9656693370339267"><ele>761.25</ele><time>2026-04-09T14:52:22.999Z</time></trkpt><trkpt lat="39.67081807337389" lon="-3.9655542744617764"><ele>761.5</ele><time>2026-04-09T14:52:23.999Z</time></trkpt><trkpt lat="39.67073314218561" lon="-3.9654279144343896"><ele>761.75</ele><time>2026-04-09T14:52:24.999Z</time></trkpt><trkpt lat="39.67065481563516" lon="-3.965280476659575"><ele>762.0</ele><time>2026-04-09T14:52:25.999Z</time></trkpt><trkpt lat="39.67056762188848" lon="-3.965149588140915"><ele>762.0</ele><time>2026-04-09T14:52:26.999Z</time></trkpt><trkpt lat="39.67046487113862" lon="-3.965038870339137"><ele>762.0</ele><time>2026-04-09T14:52:27.999Z</time></trkpt><trkpt lat="39.67037574756889" lon="-3.9649252137559947"><ele>762.0</ele><time>2026-04-09T14:52:28.999Z</time></trkpt><trkpt lat="39.67027697208724" lon="-3.964808253905758"><ele>762.0</ele><time>2026-04-09T14:52:29.999Z</time></trkpt><trkpt lat="39.670171210399175" lon="-3.9646867320929164"><ele>762.0</ele><time>2026-04-09T14:52:30.999Z</time></trkpt><trkpt lat="39.670069222296235" lon="-3.9645660367385465"><ele>762.0</ele><time>2026-04-09T14:52:31.999Z</time></trkpt><trkpt lat="39.66997557950473" lon="-3.9644458390921993"><ele>762.0</ele><time>2026-04-09T14:52:32.999Z</time></trkpt><trkpt lat="39.66989063084323" lon="-3.9643064302239144"><ele>762.0</ele><time>2026-04-09T14:52:33.999Z</time></trkpt><trkpt lat="39.66978750824542" lon="-3.964183939987195"><ele>762.0</ele><time>2026-04-09T14:52:34.999Z</time></trkpt><trkpt lat="39.66969356553348" lon="-3.964075352252594"><ele>762.0</ele><time>2026-04-09T14:52:35.999Z</time></trkpt><trkpt lat="39.669595434740316" lon="-3.9639623597977875"><ele>762.0</ele><time>2026-04-09T14:52:36.999Z</time></trkpt><trkpt lat="39.669500568683794" lon="-3.9638451827904233"><ele>762.0</ele><time>2026-04-09T14:52:37.999Z</time></trkpt><trkpt lat="39.66940403211976" lon="-3.9637202343981803"><ele>762.5</ele><time>2026-04-09T14:52:38.999Z</time></trkpt><trkpt lat="39.6693034978528" lon="-3.963588140891996"><ele>763.0</ele><time>2026-04-09T14:52:39.999Z</time></trkpt><trkpt lat="39.66919730059512" lon="-3.963455878900122"><ele>763.5</ele><time>2026-04-09T14:52:40.998Z</time></trkpt><trkpt lat="39.66908877199167" lon="-3.963334630920036"><ele>764.0</ele><time>2026-04-09T14:52:41.998Z</time></trkpt><trkpt lat="39.66898530568386" lon="-3.963206404312161"><ele>764.3333333333333</ele><time>2026-04-09T14:52:42.998Z</time></trkpt><trkpt lat="39.668878768963204" lon="-3.9630693024459616"><ele>764.6666666666666</ele><time>2026-04-09T14:52:43.998Z</time></trkpt><trkpt lat="39.66875573554037" lon="-3.9629389746356427"><ele>765.0</ele><time>2026-04-09T14:52:44.998Z</time></trkpt><trkpt lat="39.668630413494796" lon="-3.9628164062676876"><ele>765.3333333333334</ele><time>2026-04-09T14:52:45.998Z</time></trkpt><trkpt lat="39.66850346876954" lon="-3.9627017635663977"><ele>765.6666666666667</ele><time>2026-04-09T14:52:46.998Z</time></trkpt><trkpt lat="39.668380264317044" lon="-3.9625884483564064"><ele>766.0</ele><time>2026-04-09T14:52:47.998Z</time></trkpt><trkpt lat="39.668267942011475" lon="-3.962467960899025"><ele>766.0</ele><time>2026-04-09T14:52:48.998Z</time></trkpt><trkpt lat="39.66815101927784" lon="-3.962356461210869"><ele>766.0</ele><time>2026-04-09T14:52:49.998Z</time></trkpt><trkpt lat="39.66806166015251" lon="-3.962202183502386"><ele>766.0</ele><time>2026-04-09T14:52:50.998Z</time></trkpt><trkpt lat="39.66796112209716" lon="-3.962070451120314"><ele>766.0</ele><time>2026-04-09T14:52:51.998Z</time></trkpt><trkpt lat="39.66787382177356" lon="-3.961931966146002"><ele>766.0</ele><time>2026-04-09T14:52:52.998Z</time></trkpt><trkpt lat="39.66775170938317" lon="-3.961861929351018"><ele>766.0</ele><time>2026-04-09T14:52:53.998Z</time></trkpt><trkpt lat="39.66763067118955" lon="-3.9617653425602892"><ele>766.0</ele><time>2026-04-09T14:52:54.998Z</time></trkpt><trkpt lat="39.667491617704655" lon="-3.961648923742279"><ele>766.0</ele><time>2026-04-09T14:52:55.998Z</time></trkpt><trkpt lat="39.66735402035153" lon="-3.961524445874289"><ele>766.0</ele><time>2026-04-09T14:52:56.998Z</time></trkpt><trkpt lat="39.66722969278104" lon="-3.961421912248544"><ele>766.0</ele><time>2026-04-09T14:52:57.998Z</time></trkpt><trkpt lat="39.66710756150476" lon="-3.961345446106955"><ele>766.0</ele><time>2026-04-09T14:52:58.998Z</time></trkpt><trkpt lat="39.666977837398846" lon="-3.961271974341313"><ele>766.0</ele><time>2026-04-09T14:52:59.998Z</time></trkpt><trkpt lat="39.666852807225354" lon="-3.9611988199577706"><ele>766.75</ele><time>2026-04-09T14:53:00.998Z</time></trkpt><trkpt lat="39.66672937986013" lon="-3.961134091640557"><ele>767.5</ele><time>2026-04-09T14:53:01.998Z</time></trkpt><trkpt lat="39.66659258980242" lon="-3.9610826062268063"><ele>768.25</ele><time>2026-04-09T14:53:02.998Z</time></trkpt><trkpt lat="39.6664434798607" lon="-3.9610403315875096"><ele>769.0</ele><time>2026-04-09T14:53:03.998Z</time></trkpt><trkpt lat="39.666286983886486" lon="-3.9609994095746965"><ele>769.0</ele><time>2026-04-09T14:53:04.998Z</time></trkpt><trkpt lat="39.666137707499814" lon="-3.9609603753653033"><ele>769.0</ele><time>2026-04-09T14:53:05.998Z</time></trkpt><trkpt lat="39.66598641483839" lon="-3.9609111833562154"><ele>769.0</ele><time>2026-04-09T14:53:06.998Z</time></trkpt><trkpt lat="39.66583284705773" lon="-3.9608533995618527"><ele>769.5</ele><time>2026-04-09T14:53:07.998Z</time></trkpt><trkpt lat="39.66567756144797" lon="-3.960792049836688"><ele>770.0</ele><time>2026-04-09T14:53:08.998Z</time></trkpt><trkpt lat="39.665538470634964" lon="-3.960740979291805"><ele>770.5</ele><time>2026-04-09T14:53:09.998Z</time></trkpt><trkpt lat="39.665412343297916" lon="-3.9606752693620244"><ele>771.0</ele><time>2026-04-09T14:53:10.998Z</time></trkpt><trkpt lat="39.66526875325351" lon="-3.960633201907592"><ele>771.0</ele><time>2026-04-09T14:53:11.998Z</time></trkpt><trkpt lat="39.66513359055283" lon="-3.960597459294763"><ele>771.0</ele><time>2026-04-09T14:53:12.998Z</time></trkpt><trkpt lat="39.66502552178763" lon="-3.9605772673019892"><ele>771.0</ele><time>2026-04-09T14:53:13.998Z</time></trkpt><trkpt lat="39.66491723539586" lon="-3.9605416335546706"><ele>771.0</ele><time>2026-04-09T14:53:14.998Z</time></trkpt><trkpt lat="39.664792546638175" lon="-3.960524234754401"><ele>771.0</ele><time>2026-04-09T14:53:15.998Z</time></trkpt><trkpt lat="39.66467093136272" lon="-3.9604944941164564"><ele>771.0</ele><time>2026-04-09T14:53:16.998Z</time></trkpt><trkpt lat="39.66453975747069" lon="-3.9604558047722476"><ele>771.0</ele><time>2026-04-09T14:53:17.998Z</time></trkpt><trkpt lat="39.664409939916325" lon="-3.9604084341823924"><ele>771.0</ele><time>2026-04-09T14:53:18.998Z</time></trkpt><trkpt lat="39.66429272048573" lon="-3.960336970448076"><ele>770.75</ele><time>2026-04-09T14:53:19.998Z</time></trkpt><trkpt lat="39.66415767356249" lon="-3.9603065192862754"><ele>770.5</ele><time>2026-04-09T14:53:20.998Z</time></trkpt><trkpt lat="39.66402044576829" lon="-3.9602597683302707"><ele>770.25</ele><time>2026-04-09T14:53:21.998Z</time></trkpt><trkpt lat="39.663875285160834" lon="-3.9602137358569673"><ele>770.0</ele><time>2026-04-09T14:53:22.998Z</time></trkpt><trkpt lat="39.663740821533686" lon="-3.960177298275697"><ele>770.5</ele><time>2026-04-09T14:53:24Z</time></trkpt><trkpt lat="39.663611386400554" lon="-3.9601472695745645"><ele>771.0</ele><time>2026-04-09T14:53:25Z</time></trkpt><trkpt lat="39.66346996861554" lon="-3.96011729890764"><ele>771.5</ele><time>2026-04-09T14:53:26Z</time></trkpt><trkpt lat="39.66330582495971" lon="-3.9600779982825998"><ele>772.0</ele><time>2026-04-09T14:53:27Z</time></trkpt><trkpt lat="39.663150962859135" lon="-3.9600428127343923"><ele>772.0</ele><time>2026-04-09T14:53:28Z</time></trkpt><trkpt lat="39.66300109498211" lon="-3.9600269407049513"><ele>772.0</ele><time>2026-04-09T14:53:29Z</time></trkpt><trkpt lat="39.66285653194962" lon="-3.96000844926649"><ele>772.0</ele><time>2026-04-09T14:53:30Z</time></trkpt><trkpt lat="39.662716575100596" lon="-3.9599854447575504"><ele>772.0</ele><time>2026-04-09T14:53:31Z</time></trkpt><trkpt lat="39.66257842968024" lon="-3.9599539325194653"><ele>772.0</ele><time>2026-04-09T14:53:32Z</time></trkpt><trkpt lat="39.662436335586705" lon="-3.9599122967947578"><ele>772.0</ele><time>2026-04-09T14:53:33Z</time></trkpt><trkpt lat="39.662301850546996" lon="-3.9598678247691"><ele>772.0</ele><time>2026-04-09T14:53:34Z</time></trkpt><trkpt lat="39.66217139727813" lon="-3.9598217935717277"><ele>772.0</ele><time>2026-04-09T14:53:35Z</time></trkpt><trkpt lat="39.662043636956064" lon="-3.959762877321679"><ele>771.5</ele><time>2026-04-09T14:53:36Z</time></trkpt><trkpt lat="39.661922398869216" lon="-3.959678770782261"><ele>771.0</ele><time>2026-04-09T14:53:37Z</time></trkpt><trkpt lat="39.66180745846783" lon="-3.95959306359252"><ele>770.5</ele><time>2026-04-09T14:53:38Z</time></trkpt><trkpt lat="39.66168798779056" lon="-3.9595157348502292"><ele>770.0</ele><time>2026-04-09T14:53:39Z</time></trkpt><trkpt lat="39.66155423748542" lon="-3.9594531899009477"><ele>770.0</ele><time>2026-04-09T14:53:40Z</time></trkpt><trkpt lat="39.66143382764918" lon="-3.9593802150024198"><ele>770.0</ele><time>2026-04-09T14:53:41Z</time></trkpt><trkpt lat="39.66131125311995" lon="-3.9593192870267386"><ele>770.0</ele><time>2026-04-09T14:53:42Z</time></trkpt><trkpt lat="39.66118425212193" lon="-3.959264609748088"><ele>770.0</ele><time>2026-04-09T14:53:43Z</time></trkpt><trkpt lat="39.66105357797215" lon="-3.9592102031808905"><ele>769.3333333333334</ele><time>2026-04-09T14:53:44Z</time></trkpt><trkpt lat="39.66091304467725" lon="-3.9591520227355366"><ele>768.6666666666667</ele><time>2026-04-09T14:53:45Z</time></trkpt><trkpt lat="39.66077298197258" lon="-3.9590660513070333"><ele>768.0</ele><time>2026-04-09T14:53:46Z</time></trkpt><trkpt lat="39.660633620475956" lon="-3.9590044694719904"><ele>768.0</ele><time>2026-04-09T14:53:47Z</time></trkpt><trkpt lat="39.660495575577514" lon="-3.958969838892454"><ele>768.0</ele><time>2026-04-09T14:53:48Z</time></trkpt><trkpt lat="39.66036387140627" lon="-3.9589215127474833"><ele>768.0</ele><time>2026-04-09T14:53:49Z</time></trkpt><trkpt lat="39.66022862348927" lon="-3.958871886287638"><ele>768.0</ele><time>2026-04-09T14:53:50Z</time></trkpt><trkpt lat="39.66008743319597" lon="-3.9588183683749882"><ele>767.0</ele><time>2026-04-09T14:53:51Z</time></trkpt><trkpt lat="39.659952686521876" lon="-3.9587572053072373"><ele>766.0</ele><time>2026-04-09T14:53:52Z</time></trkpt><trkpt lat="39.659809070823236" lon="-3.9586869208526543"><ele>765.0</ele><time>2026-04-09T14:53:53Z</time></trkpt><trkpt lat="39.65966722441947" lon="-3.9586142808002647"><ele>764.0</ele><time>2026-04-09T14:53:54Z</time></trkpt><trkpt lat="39.6595043026475" lon="-3.9585304853791414"><ele>764.3333333333333</ele><time>2026-04-09T14:53:55Z</time></trkpt><trkpt lat="39.659359764299175" lon="-3.9584519016658843"><ele>764.6666666666666</ele><time>2026-04-09T14:53:56Z</time></trkpt><trkpt lat="39.659219798152016" lon="-3.9583681662206507"><ele>765.0</ele><time>2026-04-09T14:53:57Z</time></trkpt><trkpt lat="39.65906134652895" lon="-3.958266797583832"><ele>765.0</ele><time>2026-04-09T14:53:58Z</time></trkpt><trkpt lat="39.65891707712041" lon="-3.9581654773704176"><ele>765.0</ele><time>2026-04-09T14:53:59Z</time></trkpt><trkpt lat="39.65878652237195" lon="-3.958071471669043"><ele>765.0</ele><time>2026-04-09T14:54:00Z</time></trkpt><trkpt lat="39.65864149239677" lon="-3.9579629145525304"><ele>764.6666666666666</ele><time>2026-04-09T14:54:01Z</time></trkpt><trkpt lat="39.658508780729086" lon="-3.9578454814176496"><ele>764.3333333333333</ele><time>2026-04-09T14:54:02Z</time></trkpt><trkpt lat="39.658359522248915" lon="-3.9577466876324032"><ele>764.0</ele><time>2026-04-09T14:54:02.999Z</time></trkpt><trkpt lat="39.658200101104846" lon="-3.957634588918109"><ele>763.6666666666666</ele><time>2026-04-09T14:54:03.999Z</time></trkpt><trkpt lat="39.65801100300382" lon="-3.957525526230903"><ele>763.3333333333334</ele><time>2026-04-09T14:54:04.999Z</time></trkpt><trkpt lat="39.65781621145936" lon="-3.9573496756404487"><ele>763.0</ele><time>2026-04-09T14:54:05.999Z</time></trkpt><trkpt lat="39.657625461192204" lon="-3.9571889749168725"><ele>763.6666666666667</ele><time>2026-04-09T14:54:06.999Z</time></trkpt><trkpt lat="39.65745607354035" lon="-3.9570316295761323"><ele>764.3333333333334</ele><time>2026-04-09T14:54:07.999Z</time></trkpt><trkpt lat="39.65731884582193" lon="-3.956868775728556"><ele>765.0</ele><time>2026-04-09T14:54:08.999Z</time></trkpt><trkpt lat="39.65721402883066" lon="-3.9566931833424444"><ele>765.0</ele><time>2026-04-09T14:54:09.999Z</time></trkpt><trkpt lat="39.65714079581403" lon="-3.9565186365463916"><ele>765.0</ele><time>2026-04-09T14:54:10.999Z</time></trkpt><trkpt lat="39.657085433866186" lon="-3.95636133384672"><ele>765.0</ele><time>2026-04-09T14:54:11.999Z</time></trkpt><trkpt lat="39.6569861511461" lon="-3.956258646610861"><ele>765.0</ele><time>2026-04-09T14:54:12.999Z</time></trkpt><trkpt lat="39.65688882888208" lon="-3.9561405260085003"><ele>764.3333333333334</ele><time>2026-04-09T14:54:13.999Z</time></trkpt><trkpt lat="39.65680731046247" lon="-3.9559747887839594"><ele>763.6666666666667</ele><time>2026-04-09T14:54:14.999Z</time></trkpt><trkpt lat="39.656739495984574" lon="-3.9557842201358993"><ele>763.0</ele><time>2026-04-09T14:54:15.999Z</time></trkpt><trkpt lat="39.656689120519744" lon="-3.955583195406234"><ele>763.0</ele><time>2026-04-09T14:54:16.999Z</time></trkpt><trkpt lat="39.656658070903575" lon="-3.9553904314109825"><ele>763.0</ele><time>2026-04-09T14:54:17.999Z</time></trkpt><trkpt lat="39.65663327883079" lon="-3.955220341565551"><ele>763.0</ele><time>2026-04-09T14:54:18.999Z</time></trkpt><trkpt lat="39.65660610800401" lon="-3.9550391691854387"><ele>763.0</ele><time>2026-04-09T14:54:19.999Z</time></trkpt><trkpt lat="39.65657642320327" lon="-3.954853955198808"><ele>761.6666666666667</ele><time>2026-04-09T14:54:20.999Z</time></trkpt><trkpt lat="39.65654784189918" lon="-3.954656486056153"><ele>760.3333333333334</ele><time>2026-04-09T14:54:21.999Z</time></trkpt><trkpt lat="39.656487405611486" lon="-3.954449227585676"><ele>759.0</ele><time>2026-04-09T14:54:22.999Z</time></trkpt><trkpt lat="39.65641813353681" lon="-3.954233347538904"><ele>758.6666666666666</ele><time>2026-04-09T14:54:23.999Z</time></trkpt><trkpt lat="39.65634516940607" lon="-3.9540304633074306"><ele>758.3333333333333</ele><time>2026-04-09T14:54:24.999Z</time></trkpt><trkpt lat="39.65626491879675" lon="-3.953825074831342"><ele>758.0</ele><time>2026-04-09T14:54:25.999Z</time></trkpt><trkpt lat="39.65616818437427" lon="-3.9536389237939327"><ele>757.6666666666666</ele><time>2026-04-09T14:54:26.999Z</time></trkpt><trkpt lat="39.65608740091112" lon="-3.953443844363618"><ele>757.3333333333334</ele><time>2026-04-09T14:54:27.999Z</time></trkpt><trkpt lat="39.655990700961674" lon="-3.953267343437946"><ele>757.0</ele><time>2026-04-09T14:54:28.999Z</time></trkpt><trkpt lat="39.65589443170459" lon="-3.9530838302403084"><ele>757.0</ele><time>2026-04-09T14:54:29.999Z</time></trkpt><trkpt lat="39.65579821230056" lon="-3.9528979430418985"><ele>757.0</ele><time>2026-04-09T14:54:30.999Z</time></trkpt><trkpt lat="39.65569535988555" lon="-3.952717621450453"><ele>757.0</ele><time>2026-04-09T14:54:31.999Z</time></trkpt><trkpt lat="39.65557966358649" lon="-3.9525419847265"><ele>756.6666666666667</ele><time>2026-04-09T14:54:32.999Z</time></trkpt><trkpt lat="39.65544578950014" lon="-3.9523892579760576"><ele>756.3333333333334</ele><time>2026-04-09T14:54:33.999Z</time></trkpt><trkpt lat="39.65533694032196" lon="-3.9522226714297495"><ele>756.0</ele><time>2026-04-09T14:54:34.999Z</time></trkpt><trkpt lat="39.65520157412906" lon="-3.952107144810114"><ele>755.6666666666666</ele><time>2026-04-09T14:54:35.999Z</time></trkpt><trkpt lat="39.65507362817911" lon="-3.9519802364937027"><ele>755.3333333333333</ele><time>2026-04-09T14:54:36.999Z</time></trkpt><trkpt lat="39.65495310402367" lon="-3.9518289619196425"><ele>755.0</ele><time>2026-04-09T14:54:37.999Z</time></trkpt><trkpt lat="39.65486012453992" lon="-3.951653936883658"><ele>755.0</ele><time>2026-04-09T14:54:38.999Z</time></trkpt><trkpt lat="39.65477114706285" lon="-3.951474128646533"><ele>755.0</ele><time>2026-04-09T14:54:39.999Z</time></trkpt><trkpt lat="39.65468636713347" lon="-3.951279290364313"><ele>755.0</ele><time>2026-04-09T14:54:40.999Z</time></trkpt><trkpt lat="39.654595406291264" lon="-3.9510855427249165"><ele>755.0</ele><time>2026-04-09T14:54:41.999Z</time></trkpt><trkpt lat="39.654482333473275" lon="-3.950948925996832"><ele>755.0</ele><time>2026-04-09T14:54:42.999Z</time></trkpt><trkpt lat="39.65436283663564" lon="-3.9508156260109244"><ele>755.0</ele><time>2026-04-09T14:54:43.999Z</time></trkpt><trkpt lat="39.65423116967144" lon="-3.9506802995374164"><ele>754.3333333333333</ele><time>2026-04-09T14:54:44.999Z</time></trkpt><trkpt lat="39.654089244592605" lon="-3.9505459711602926"><ele>753.6666666666666</ele><time>2026-04-09T14:54:45.999Z</time></trkpt><trkpt lat="39.653950736049005" lon="-3.950431568965055"><ele>753.0</ele><time>2026-04-09T14:54:46.999Z</time></trkpt><trkpt lat="39.65380298964954" lon="-3.950346114413763"><ele>753.0</ele><time>2026-04-09T14:54:47.998Z</time></trkpt><trkpt lat="39.65365232686006" lon="-3.9502704476813695"><ele>753.0</ele><time>2026-04-09T14:54:48.998Z</time></trkpt><trkpt lat="39.653489068507554" lon="-3.9501973791287064"><ele>753.0</ele><time>2026-04-09T14:54:49.998Z</time></trkpt><trkpt lat="39.65332333540461" lon="-3.9501347518146805"><ele>753.0</ele><time>2026-04-09T14:54:50.998Z</time></trkpt><trkpt lat="39.65315793655379" lon="-3.950077898572005"><ele>753.0</ele><time>2026-04-09T14:54:51.998Z</time></trkpt><trkpt lat="39.65298732802131" lon="-3.9500204553240272"><ele>753.0</ele><time>2026-04-09T14:54:52.998Z</time></trkpt><trkpt lat="39.652807459302785" lon="-3.9499507346411113"><ele>753.6666666666666</ele><time>2026-04-09T14:54:53.998Z</time></trkpt><trkpt lat="39.652636149899095" lon="-3.9499121793599863"><ele>754.3333333333333</ele><time>2026-04-09T14:54:54.998Z</time></trkpt><trkpt lat="39.652472931623905" lon="-3.9498908577586724"><ele>755.0</ele><time>2026-04-09T14:54:55.998Z</time></trkpt><trkpt lat="39.65233047384633" lon="-3.9498518853667437"><ele>755.0</ele><time>2026-04-09T14:54:56.998Z</time></trkpt><trkpt lat="39.652202630806066" lon="-3.949792925731887"><ele>755.0</ele><time>2026-04-09T14:54:57.998Z</time></trkpt><trkpt lat="39.65208013807992" lon="-3.949706021001184"><ele>755.0</ele><time>2026-04-09T14:54:58.998Z</time></trkpt><trkpt lat="39.65197784686899" lon="-3.9495802699548985"><ele>755.0</ele><time>2026-04-09T14:54:59.998Z</time></trkpt><trkpt lat="39.65185872859512" lon="-3.9494607141580476"><ele>754.6666666666666</ele><time>2026-04-09T14:55:00.998Z</time></trkpt><trkpt lat="39.65171724874105" lon="-3.9493843056543025"><ele>754.3333333333334</ele><time>2026-04-09T14:55:01.998Z</time></trkpt><trkpt lat="39.65157248525185" lon="-3.949292511855798"><ele>754.0</ele><time>2026-04-09T14:55:02.998Z</time></trkpt><trkpt lat="39.651416959784925" lon="-3.949205150233888"><ele>754.0</ele><time>2026-04-09T14:55:03.998Z</time></trkpt><trkpt lat="39.65124289877748" lon="-3.9491177723769613"><ele>754.0</ele><time>2026-04-09T14:55:04.998Z</time></trkpt><trkpt lat="39.65106970567578" lon="-3.949034991210237"><ele>754.0</ele><time>2026-04-09T14:55:05.998Z</time></trkpt><trkpt lat="39.65090368790169" lon="-3.9489568886953488"><ele>753.25</ele><time>2026-04-09T14:55:06.998Z</time></trkpt><trkpt lat="39.65075301542245" lon="-3.9488860052949404"><ele>752.5</ele><time>2026-04-09T14:55:07.998Z</time></trkpt><trkpt lat="39.65061881463146" lon="-3.9488228706334354"><ele>751.75</ele><time>2026-04-09T14:55:08.998Z</time></trkpt><trkpt lat="39.65049670117511" lon="-3.9487515819841685"><ele>751.0</ele><time>2026-04-09T14:55:09.998Z</time></trkpt><trkpt lat="39.650371830324794" lon="-3.9486721237973774"><ele>750.8</ele><time>2026-04-09T14:55:10.998Z</time></trkpt><trkpt lat="39.650257945410246" lon="-3.9485933574555987"><ele>750.5999999999999</ele><time>2026-04-09T14:55:11.998Z</time></trkpt><trkpt lat="39.65015216656487" lon="-3.9485147995611563"><ele>750.4</ele><time>2026-04-09T14:55:12.998Z</time></trkpt><trkpt lat="39.65009291202295" lon="-3.948469981442724"><ele>750.2</ele><time>2026-04-09T14:55:13.998Z</time></trkpt><trkpt lat="39.6500279257807" lon="-3.9484208281187083"><ele>750.0</ele><time>2026-04-09T14:55:14.998Z</time></trkpt><trkpt lat="39.649960833185155" lon="-3.9483688076719585"><ele>749.6</ele><time>2026-04-09T14:55:15.998Z</time></trkpt><trkpt lat="39.649873816336985" lon="-3.9482977267988186"><ele>749.2</ele><time>2026-04-09T14:55:16.998Z</time></trkpt><trkpt lat="39.649788942159915" lon="-3.9482184349231733"><ele>748.8</ele><time>2026-04-09T14:55:17.998Z</time></trkpt><trkpt lat="39.64970436790845" lon="-3.94816960878107"><ele>748.4</ele><time>2026-04-09T14:55:18.998Z</time></trkpt><trkpt lat="39.649637448336414" lon="-3.9481057287994865"><ele>748.0</ele><time>2026-04-09T14:55:19.998Z</time></trkpt><trkpt lat="39.64956369803086" lon="-3.9480079248415523"><ele>748.0</ele><time>2026-04-09T14:55:20.998Z</time></trkpt><trkpt lat="39.64948374045924" lon="-3.9479059452787983"><ele>748.0</ele><time>2026-04-09T14:55:21.998Z</time></trkpt><trkpt lat="39.64940840785033" lon="-3.947818412208119"><ele>748.0</ele><time>2026-04-09T14:55:22.998Z</time></trkpt><trkpt lat="39.64933217152847" lon="-3.9477345697656614"><ele>748.0</ele><time>2026-04-09T14:55:23.998Z</time></trkpt><trkpt lat="39.64925871277507" lon="-3.947659751162164"><ele>748.0</ele><time>2026-04-09T14:55:24.998Z</time></trkpt><trkpt lat="39.649181550306885" lon="-3.94758601660659"><ele>748.75</ele><time>2026-04-09T14:55:25.998Z</time></trkpt><trkpt lat="39.649097151781326" lon="-3.94750550043811"><ele>749.5</ele><time>2026-04-09T14:55:26.998Z</time></trkpt><trkpt lat="39.64900482544121" lon="-3.947416569389797"><ele>750.25</ele><time>2026-04-09T14:55:27.998Z</time></trkpt><trkpt lat="39.64890265208301" lon="-3.9473208618820497"><ele>751.0</ele><time>2026-04-09T14:55:28.998Z</time></trkpt><trkpt lat="39.64879552076119" lon="-3.9472202114344412"><ele>751.0</ele><time>2026-04-09T14:55:30Z</time></trkpt><trkpt lat="39.648680617233865" lon="-3.9471107120333406"><ele>751.0</ele><time>2026-04-09T14:55:31Z</time></trkpt><trkpt lat="39.648565892793094" lon="-3.94700484290728"><ele>751.0</ele><time>2026-04-09T14:55:32Z</time></trkpt><trkpt lat="39.64845921581737" lon="-3.946900712494496"><ele>751.0</ele><time>2026-04-09T14:55:33Z</time></trkpt><trkpt lat="39.64834933818438" lon="-3.9468003068661197"><ele>751.0</ele><time>2026-04-09T14:55:34Z</time></trkpt><trkpt lat="39.64822894270437" lon="-3.946713957714476"><ele>751.0</ele><time>2026-04-09T14:55:35Z</time></trkpt><trkpt lat="39.648098267898675" lon="-3.9466469145798713"><ele>751.0</ele><time>2026-04-09T14:55:36Z</time></trkpt><trkpt lat="39.64797515192819" lon="-3.946603555849513"><ele>751.0</ele><time>2026-04-09T14:55:37Z</time></trkpt><trkpt lat="39.64783548759405" lon="-3.946552881051065"><ele>751.5</ele><time>2026-04-09T14:55:38Z</time></trkpt><trkpt lat="39.64769762987575" lon="-3.9464982070397037"><ele>752.0</ele><time>2026-04-09T14:55:39Z</time></trkpt><trkpt lat="39.64756395991759" lon="-3.946437949549812"><ele>752.5</ele><time>2026-04-09T14:55:40Z</time></trkpt><trkpt lat="39.64743055614159" lon="-3.94636338225798"><ele>753.0</ele><time>2026-04-09T14:55:41Z</time></trkpt><trkpt lat="39.64729783843861" lon="-3.946271504778049"><ele>753.0</ele><time>2026-04-09T14:55:42Z</time></trkpt><trkpt lat="39.64717190901255" lon="-3.946166046098606"><ele>753.0</ele><time>2026-04-09T14:55:43Z</time></trkpt><trkpt lat="39.64704957794538" lon="-3.94605995923152"><ele>753.0</ele><time>2026-04-09T14:55:44Z</time></trkpt><trkpt lat="39.646919638999236" lon="-3.9459654676019125"><ele>753.0</ele><time>2026-04-09T14:55:45Z</time></trkpt><trkpt lat="39.64678368599963" lon="-3.945877853785759"><ele>753.3333333333334</ele><time>2026-04-09T14:55:46Z</time></trkpt><trkpt lat="39.64664277589191" lon="-3.9458050752875957"><ele>753.6666666666667</ele><time>2026-04-09T14:55:47Z</time></trkpt><trkpt lat="39.64650265234871" lon="-3.9457267960881204"><ele>754.0</ele><time>2026-04-09T14:55:48Z</time></trkpt><trkpt lat="39.64636513800636" lon="-3.9456487797907904"><ele>754.0</ele><time>2026-04-09T14:55:49Z</time></trkpt><trkpt lat="39.646226292602734" lon="-3.9455709911621075"><ele>754.0</ele><time>2026-04-09T14:55:50Z</time></trkpt><trkpt lat="39.646090443429316" lon="-3.9454882428838163"><ele>754.0</ele><time>2026-04-09T14:55:51Z</time></trkpt><trkpt lat="39.64594154887216" lon="-3.9454042525158557"><ele>754.6666666666667</ele><time>2026-04-09T14:55:52Z</time></trkpt><trkpt lat="39.645800061561374" lon="-3.945323814297321"><ele>755.3333333333334</ele><time>2026-04-09T14:55:53Z</time></trkpt><trkpt lat="39.64566004454636" lon="-3.945246361253189"><ele>756.0</ele><time>2026-04-09T14:55:54Z</time></trkpt><trkpt lat="39.64551592486851" lon="-3.94516015283698"><ele>756.0</ele><time>2026-04-09T14:55:55Z</time></trkpt><trkpt lat="39.64537435949302" lon="-3.9450689264797454"><ele>756.0</ele><time>2026-04-09T14:55:56Z</time></trkpt><trkpt lat="39.645222315425336" lon="-3.9450074501802415"><ele>756.0</ele><time>2026-04-09T14:55:57Z</time></trkpt><trkpt lat="39.64507722532619" lon="-3.94494771598281"><ele>755.3333333333334</ele><time>2026-04-09T14:55:58Z</time></trkpt><trkpt lat="39.64493190669071" lon="-3.9449017714583"><ele>754.6666666666667</ele><time>2026-04-09T14:55:59Z</time></trkpt><trkpt lat="39.64478133626409" lon="-3.944839677140864"><ele>754.0</ele><time>2026-04-09T14:56:00Z</time></trkpt><trkpt lat="39.644627924525516" lon="-3.9448020418827254"><ele>754.0</ele><time>2026-04-09T14:56:01Z</time></trkpt><trkpt lat="39.64447382274463" lon="-3.944762311562631"><ele>754.0</ele><time>2026-04-09T14:56:02Z</time></trkpt><trkpt lat="39.644319867433865" lon="-3.9447157528182624"><ele>754.0</ele><time>2026-04-09T14:56:03Z</time></trkpt><trkpt lat="39.6441713094831" lon="-3.944675364892904"><ele>754.6666666666667</ele><time>2026-04-09T14:56:04Z</time></trkpt><trkpt lat="39.64402146809739" lon="-3.9446401894576826"><ele>755.3333333333334</ele><time>2026-04-09T14:56:05Z</time></trkpt><trkpt lat="39.64386787339403" lon="-3.9446418593269743"><ele>756.0</ele><time>2026-04-09T14:56:06Z</time></trkpt><trkpt lat="39.64370975689167" lon="-3.9446333623793293"><ele>756.6666666666666</ele><time>2026-04-09T14:56:07Z</time></trkpt><trkpt lat="39.64354921591291" lon="-3.9446079060441566"><ele>757.3333333333333</ele><time>2026-04-09T14:56:08Z</time></trkpt><trkpt lat="39.64339248810887" lon="-3.9446093978343773"><ele>758.0</ele><time>2026-04-09T14:56:08.999Z</time></trkpt><trkpt lat="39.643235737114495" lon="-3.944600866523692"><ele>758.0</ele><time>2026-04-09T14:56:09.999Z</time></trkpt><trkpt lat="39.643080560013104" lon="-3.9446007865574173"><ele>758.0</ele><time>2026-04-09T14:56:10.999Z</time></trkpt><trkpt lat="39.64292503853402" lon="-3.9446081047480175"><ele>758.0</ele><time>2026-04-09T14:56:11.999Z</time></trkpt><trkpt lat="39.64276276487598" lon="-3.9446300864560215"><ele>759.0</ele><time>2026-04-09T14:56:12.999Z</time></trkpt><trkpt lat="39.64259617333469" lon="-3.9446176371682573"><ele>760.0</ele><time>2026-04-09T14:56:13.999Z</time></trkpt><trkpt lat="39.642441224333375" lon="-3.94462789542744"><ele>761.0</ele><time>2026-04-09T14:56:14.999Z</time></trkpt><trkpt lat="39.64229313430664" lon="-3.9446251196335615"><ele>761.0</ele><time>2026-04-09T14:56:15.999Z</time></trkpt><trkpt lat="39.642147889293334" lon="-3.9446027908555235"><ele>761.0</ele><time>2026-04-09T14:56:16.999Z</time></trkpt><trkpt lat="39.64199457710195" lon="-3.9445699549104876"><ele>761.0</ele><time>2026-04-09T14:56:17.999Z</time></trkpt><trkpt lat="39.641834727058395" lon="-3.944525766308971"><ele>761.6666666666666</ele><time>2026-04-09T14:56:18.999Z</time></trkpt><trkpt lat="39.64167662224184" lon="-3.9444759218401226"><ele>762.3333333333334</ele><time>2026-04-09T14:56:19.999Z</time></trkpt><trkpt lat="39.641524966098714" lon="-3.944416893279264"><ele>763.0</ele><time>2026-04-09T14:56:20.999Z</time></trkpt><trkpt lat="39.641377359897845" lon="-3.9443384301354523"><ele>763.0</ele><time>2026-04-09T14:56:21.999Z</time></trkpt><trkpt lat="39.64122554749317" lon="-3.944245351507759"><ele>763.0</ele><time>2026-04-09T14:56:22.999Z</time></trkpt><trkpt lat="39.64106460257958" lon="-3.9441870799586143"><ele>763.0</ele><time>2026-04-09T14:56:23.999Z</time></trkpt><trkpt lat="39.640926217191605" lon="-3.9440996601758163"><ele>762.6666666666667</ele><time>2026-04-09T14:56:24.999Z</time></trkpt><trkpt lat="39.64077880542647" lon="-3.944050255103442"><ele>762.3333333333334</ele><time>2026-04-09T14:56:25.999Z</time></trkpt><trkpt lat="39.64063301013218" lon="-3.9439917966591684"><ele>762.0</ele><time>2026-04-09T14:56:26.999Z</time></trkpt><trkpt lat="39.64049138972837" lon="-3.9439223326247523"><ele>762.0</ele><time>2026-04-09T14:56:27.999Z</time></trkpt><trkpt lat="39.640349068363406" lon="-3.943841489910305"><ele>762.0</ele><time>2026-04-09T14:56:28.999Z</time></trkpt><trkpt lat="39.64020493642079" lon="-3.943756989300938"><ele>762.0</ele><time>2026-04-09T14:56:29.999Z</time></trkpt><trkpt lat="39.6400493068439" lon="-3.943667265149564"><ele>762.0</ele><time>2026-04-09T14:56:30.999Z</time></trkpt><trkpt lat="39.63988079506545" lon="-3.9435768083265677"><ele>762.0</ele><time>2026-04-09T14:56:31.999Z</time></trkpt><trkpt lat="39.63971411104501" lon="-3.943493647642868"><ele>762.0</ele><time>2026-04-09T14:56:32.999Z</time></trkpt><trkpt lat="39.63954643022035" lon="-3.943412849546016"><ele>762.6666666666666</ele><time>2026-04-09T14:56:33.999Z</time></trkpt><trkpt lat="39.63938738858984" lon="-3.9433301616217165"><ele>763.3333333333333</ele><time>2026-04-09T14:56:34.999Z</time></trkpt><trkpt lat="39.63923721357674" lon="-3.943248158605286"><ele>764.0</ele><time>2026-04-09T14:56:35.999Z</time></trkpt><trkpt lat="39.63908653562608" lon="-3.943156917729435"><ele>764.0</ele><time>2026-04-09T14:56:36.999Z</time></trkpt><trkpt lat="39.6389298846478" lon="-3.943057483141426"><ele>764.0</ele><time>2026-04-09T14:56:37.999Z</time></trkpt><trkpt lat="39.63877425961291" lon="-3.942958845976686"><ele>764.0</ele><time>2026-04-09T14:56:38.999Z</time></trkpt><trkpt lat="39.63861750357308" lon="-3.9428640920816154"><ele>764.3333333333333</ele><time>2026-04-09T14:56:39.999Z</time></trkpt><trkpt lat="39.63846976191138" lon="-3.9427774948310454"><ele>764.6666666666666</ele><time>2026-04-09T14:56:40.999Z</time></trkpt><trkpt lat="39.638323222591836" lon="-3.9426861615258733"><ele>765.0</ele><time>2026-04-09T14:56:41.999Z</time></trkpt><trkpt lat="39.638173813166716" lon="-3.942601546892737"><ele>765.3333333333334</ele><time>2026-04-09T14:56:42.999Z</time></trkpt><trkpt lat="39.63802262676956" lon="-3.942540062493956"><ele>765.6666666666667</ele><time>2026-04-09T14:56:43.999Z</time></trkpt><trkpt lat="39.63786682742851" lon="-3.9424667730661738"><ele>766.0</ele><time>2026-04-09T14:56:44.999Z</time></trkpt><trkpt lat="39.637712229443686" lon="-3.9423967378297387"><ele>766.0</ele><time>2026-04-09T14:56:45.999Z</time></trkpt><trkpt lat="39.63755892426903" lon="-3.94234024126004"><ele>766.0</ele><time>2026-04-09T14:56:46.999Z</time></trkpt><trkpt lat="39.63740262894334" lon="-3.9422830267741333"><ele>766.0</ele><time>2026-04-09T14:56:47.999Z</time></trkpt><trkpt lat="39.63724978008548" lon="-3.9422369056021433"><ele>766.0</ele><time>2026-04-09T14:56:48.999Z</time></trkpt><trkpt lat="39.637113546742526" lon="-3.9421864090510383"><ele>766.0</ele><time>2026-04-09T14:56:49.999Z</time></trkpt><trkpt lat="39.63697067516109" lon="-3.942113070278016"><ele>766.0</ele><time>2026-04-09T14:56:50.999Z</time></trkpt><trkpt lat="39.63680913862946" lon="-3.942032396001601"><ele>766.6666666666667</ele><time>2026-04-09T14:56:51.999Z</time></trkpt><trkpt lat="39.6366556758493" lon="-3.9419647189543774"><ele>767.3333333333334</ele><time>2026-04-09T14:56:52.999Z</time></trkpt><trkpt lat="39.63650198993976" lon="-3.941893058542484"><ele>768.0</ele><time>2026-04-09T14:56:53.998Z</time></trkpt><trkpt lat="39.63635302632535" lon="-3.941804928694395"><ele>768.0</ele><time>2026-04-09T14:56:54.998Z</time></trkpt><trkpt lat="39.63620521320041" lon="-3.9417166445392375"><ele>768.0</ele><time>2026-04-09T14:56:55.998Z</time></trkpt><trkpt lat="39.636057092719234" lon="-3.9416354351750997"><ele>768.0</ele><time>2026-04-09T14:56:56.998Z</time></trkpt><trkpt lat="39.635916304140494" lon="-3.9415618503880303"><ele>767.6666666666666</ele><time>2026-04-09T14:56:57.998Z</time></trkpt><trkpt lat="39.6357756707134" lon="-3.9414888778615604"><ele>767.3333333333333</ele><time>2026-04-09T14:56:58.998Z</time></trkpt><trkpt lat="39.635627573381306" lon="-3.9414108039539246"><ele>767.0</ele><time>2026-04-09T14:56:59.998Z</time></trkpt><trkpt lat="39.63547888565724" lon="-3.9413307533546567"><ele>767.0</ele><time>2026-04-09T14:57:00.998Z</time></trkpt><trkpt lat="39.635324444041885" lon="-3.9412532406118785"><ele>767.0</ele><time>2026-04-09T14:57:01.998Z</time></trkpt><trkpt lat="39.635174094406004" lon="-3.941182256279448"><ele>767.0</ele><time>2026-04-09T14:57:02.998Z</time></trkpt><trkpt lat="39.63502101953462" lon="-3.941113465567143"><ele>766.0</ele><time>2026-04-09T14:57:03.998Z</time></trkpt><trkpt lat="39.63487015653552" lon="-3.941044265479054"><ele>765.0</ele><time>2026-04-09T14:57:04.998Z</time></trkpt><trkpt lat="39.634726447526035" lon="-3.9409835668104165"><ele>764.0</ele><time>2026-04-09T14:57:05.998Z</time></trkpt><trkpt lat="39.634568194830166" lon="-3.9409155995552365"><ele>765.3333333333333</ele><time>2026-04-09T14:57:06.998Z</time></trkpt><trkpt lat="39.634411893170615" lon="-3.9408507176761853"><ele>766.6666666666666</ele><time>2026-04-09T14:57:07.998Z</time></trkpt><trkpt lat="39.63426273138747" lon="-3.940790823360008"><ele>768.0</ele><time>2026-04-09T14:57:08.998Z</time></trkpt><trkpt lat="39.6341146704548" lon="-3.94072844532735"><ele>768.0</ele><time>2026-04-09T14:57:09.998Z</time></trkpt><trkpt lat="39.633963464224394" lon="-3.940670133496992"><ele>768.0</ele><time>2026-04-09T14:57:10.998Z</time></trkpt><trkpt lat="39.633810786021606" lon="-3.9406173327159917"><ele>768.0</ele><time>2026-04-09T14:57:11.998Z</time></trkpt><trkpt lat="39.63366054680486" lon="-3.940570001606709"><ele>769.0</ele><time>2026-04-09T14:57:12.998Z</time></trkpt><trkpt lat="39.633509647636224" lon="-3.9405338701264507"><ele>770.0</ele><time>2026-04-09T14:57:13.998Z</time></trkpt><trkpt lat="39.633350345037954" lon="-3.9405071507135716"><ele>771.0</ele><time>2026-04-09T14:57:14.998Z</time></trkpt><trkpt lat="39.63318177297374" lon="-3.9404829578971543"><ele>771.0</ele><time>2026-04-09T14:57:15.998Z</time></trkpt><trkpt lat="39.63301999947285" lon="-3.9404550886984846"><ele>771.0</ele><time>2026-04-09T14:57:16.998Z</time></trkpt><trkpt lat="39.63286838973874" lon="-3.9404345334081117"><ele>771.0</ele><time>2026-04-09T14:57:17.998Z</time></trkpt><trkpt lat="39.63271616256973" lon="-3.9404215406465712"><ele>771.0</ele><time>2026-04-09T14:57:18.998Z</time></trkpt><trkpt lat="39.63255460825353" lon="-3.940408839067797"><ele>771.0</ele><time>2026-04-09T14:57:19.998Z</time></trkpt><trkpt lat="39.632379858501565" lon="-3.9403878836762143"><ele>771.0</ele><time>2026-04-09T14:57:20.998Z</time></trkpt><trkpt lat="39.63221027467758" lon="-3.9403704669878263"><ele>771.0</ele><time>2026-04-09T14:57:21.998Z</time></trkpt><trkpt lat="39.63204229823429" lon="-3.9403595073133255"><ele>771.0</ele><time>2026-04-09T14:57:22.998Z</time></trkpt><trkpt lat="39.63188067231844" lon="-3.9403510470537584"><ele>771.0</ele><time>2026-04-09T14:57:23.998Z</time></trkpt><trkpt lat="39.63171810047062" lon="-3.940349497563507"><ele>771.6666666666667</ele><time>2026-04-09T14:57:24.998Z</time></trkpt><trkpt lat="39.631550768463" lon="-3.940337550346883"><ele>772.3333333333334</ele><time>2026-04-09T14:57:25.998Z</time></trkpt><trkpt lat="39.63137662063242" lon="-3.940321625271745"><ele>773.0</ele><time>2026-04-09T14:57:26.998Z</time></trkpt><trkpt lat="39.6312021049822" lon="-3.9403204409453862"><ele>774.0</ele><time>2026-04-09T14:57:27.998Z</time></trkpt><trkpt lat="39.631031097508505" lon="-3.94032422450803"><ele>775.0</ele><time>2026-04-09T14:57:28.998Z</time></trkpt><trkpt lat="39.63086328652738" lon="-3.940335879962711"><ele>776.0</ele><time>2026-04-09T14:57:29.998Z</time></trkpt><trkpt lat="39.63070049644915" lon="-3.9403528035395308"><ele>776.0</ele><time>2026-04-09T14:57:30.998Z</time></trkpt><trkpt lat="39.630536122292725" lon="-3.9404022770074727"><ele>776.0</ele><time>2026-04-09T14:57:31.998Z</time></trkpt><trkpt lat="39.630366571859525" lon="-3.940430597527606"><ele>776.0</ele><time>2026-04-09T14:57:32.998Z</time></trkpt><trkpt lat="39.63021085413219" lon="-3.940484100654693"><ele>776.6666666666667</ele><time>2026-04-09T14:57:33.998Z</time></trkpt><trkpt lat="39.630044992807825" lon="-3.940529369917013"><ele>777.3333333333333</ele><time>2026-04-09T14:57:34.998Z</time></trkpt><trkpt lat="39.62988672366134" lon="-3.9405585492337174"><ele>778.0</ele><time>2026-04-09T14:57:36Z</time></trkpt><trkpt lat="39.62971986734419" lon="-3.9405729417464763"><ele>778.0</ele><time>2026-04-09T14:57:37Z</time></trkpt><trkpt lat="39.62955624351486" lon="-3.9405707429193093"><ele>778.0</ele><time>2026-04-09T14:57:38Z</time></trkpt><trkpt lat="39.62938926162252" lon="-3.940561210122066"><ele>778.0</ele><time>2026-04-09T14:57:39Z</time></trkpt><trkpt lat="39.62924368776223" lon="-3.9405547732852235"><ele>778.0</ele><time>2026-04-09T14:57:40Z</time></trkpt><trkpt lat="39.629097630833854" lon="-3.9405549164970077"><ele>778.0</ele><time>2026-04-09T14:57:41Z</time></trkpt><trkpt lat="39.62896013654678" lon="-3.9405578891815534"><ele>778.0</ele><time>2026-04-09T14:57:42Z</time></trkpt><trkpt lat="39.62881086789967" lon="-3.9405572359495964"><ele>778.0</ele><time>2026-04-09T14:57:43Z</time></trkpt><trkpt lat="39.62865943813721" lon="-3.940550507939701"><ele>778.0</ele><time>2026-04-09T14:57:44Z</time></trkpt><trkpt lat="39.62851881819454" lon="-3.9405407920977127"><ele>778.0</ele><time>2026-04-09T14:57:45Z</time></trkpt><trkpt lat="39.628372295427724" lon="-3.94053208604296"><ele>778.0</ele><time>2026-04-09T14:57:46Z</time></trkpt><trkpt lat="39.6282266824253" lon="-3.9405143977160924"><ele>778.0</ele><time>2026-04-09T14:57:47Z</time></trkpt><trkpt lat="39.62809757324029" lon="-3.9405122441262717"><ele>778.0</ele><time>2026-04-09T14:57:48Z</time></trkpt><trkpt lat="39.62796387323088" lon="-3.94055516775738"><ele>778.0</ele><time>2026-04-09T14:57:49Z</time></trkpt><trkpt lat="39.62781150921657" lon="-3.9406109585874503"><ele>778.0</ele><time>2026-04-09T14:57:50Z</time></trkpt><trkpt lat="39.62765873877141" lon="-3.9406661730070556"><ele>778.5</ele><time>2026-04-09T14:57:51Z</time></trkpt><trkpt lat="39.627513366519764" lon="-3.9407098375029275"><ele>779.0</ele><time>2026-04-09T14:57:52Z</time></trkpt><trkpt lat="39.62737410188534" lon="-3.940747763610601"><ele>779.5</ele><time>2026-04-09T14:57:53Z</time></trkpt><trkpt lat="39.62723684797454" lon="-3.94080119938539"><ele>780.0</ele><time>2026-04-09T14:57:54Z</time></trkpt><trkpt lat="39.627091100726496" lon="-3.9408606343363055"><ele>781.3333333333333</ele><time>2026-04-09T14:57:55Z</time></trkpt><trkpt lat="39.62692756885312" lon="-3.9409112159863557"><ele>782.6666666666666</ele><time>2026-04-09T14:57:56Z</time></trkpt><trkpt lat="39.626767086957635" lon="-3.940959449419042"><ele>784.0</ele><time>2026-04-09T14:57:57Z</time></trkpt><trkpt lat="39.62663824277092" lon="-3.9409986318539167"><ele>784.0</ele><time>2026-04-09T14:57:58Z</time></trkpt><trkpt lat="39.6265047573772" lon="-3.9410247803832332"><ele>784.0</ele><time>2026-04-09T14:57:59Z</time></trkpt><trkpt lat="39.62637883633063" lon="-3.9410449736765814"><ele>784.0</ele><time>2026-04-09T14:58:00Z</time></trkpt><trkpt lat="39.626274503759504" lon="-3.941065762977533"><ele>784.0</ele><time>2026-04-09T14:58:01Z</time></trkpt><trkpt lat="39.62618691401816" lon="-3.9410989966367445"><ele>784.5</ele><time>2026-04-09T14:58:02Z</time></trkpt><trkpt lat="39.62609704410945" lon="-3.9411602738049125"><ele>785.0</ele><time>2026-04-09T14:58:03Z</time></trkpt><trkpt lat="39.62601469897428" lon="-3.941158548390123"><ele>785.5</ele><time>2026-04-09T14:58:04Z</time></trkpt><trkpt lat="39.62598379538439" lon="-3.9413796205693488"><ele>786.0</ele><time>2026-04-09T14:58:05Z</time></trkpt><trkpt lat="39.62589775535398" lon="-3.9414591889850805"><ele>786.0</ele><time>2026-04-09T14:58:06Z</time></trkpt><trkpt lat="39.62582922135205" lon="-3.941564553386108"><ele>786.0</ele><time>2026-04-09T14:58:07Z</time></trkpt><trkpt lat="39.625746977722805" lon="-3.941660072337442"><ele>786.0</ele><time>2026-04-09T14:58:08Z</time></trkpt><trkpt lat="39.62566589630103" lon="-3.941746307951763"><ele>786.0</ele><time>2026-04-09T14:58:09Z</time></trkpt><trkpt lat="39.62558924144928" lon="-3.9418218370262417"><ele>786.0</ele><time>2026-04-09T14:58:10Z</time></trkpt><trkpt lat="39.625506955547486" lon="-3.941904877834915"><ele>785.8333333333334</ele><time>2026-04-09T14:58:11Z</time></trkpt><trkpt lat="39.625441150144" lon="-3.9419798776504273"><ele>785.6666666666667</ele><time>2026-04-09T14:58:12Z</time></trkpt><trkpt lat="39.62537795066699" lon="-3.9420648017171325"><ele>785.5</ele><time>2026-04-09T14:58:13Z</time></trkpt><trkpt lat="39.62531110539351" lon="-3.942136754339164"><ele>785.3333333333334</ele><time>2026-04-09T14:58:13.999Z</time></trkpt><trkpt lat="39.62528001390592" lon="-3.94224161952084"><ele>785.1666666666667</ele><time>2026-04-09T14:58:14.999Z</time></trkpt><trkpt lat="39.62530383311624" lon="-3.9423568281165697"><ele>785.0</ele><time>2026-04-09T14:58:15.999Z</time></trkpt><trkpt lat="39.625267450097624" lon="-3.9424523458171308"><ele>785.0</ele><time>2026-04-09T14:58:16.999Z</time></trkpt><trkpt lat="39.625199163355205" lon="-3.9425459425617118"><ele>785.0</ele><time>2026-04-09T14:58:17.999Z</time></trkpt><trkpt lat="39.62512747624816" lon="-3.942640848851041"><ele>785.0</ele><time>2026-04-09T14:58:18.999Z</time></trkpt><trkpt lat="39.62503901350373" lon="-3.9427360116655183"><ele>785.0</ele><time>2026-04-09T14:58:19.999Z</time></trkpt><trkpt lat="39.62493279131002" lon="-3.942831183700161"><ele>785.0</ele><time>2026-04-09T14:58:20.999Z</time></trkpt><trkpt lat="39.62483123357211" lon="-3.942921121743425"><ele>785.0</ele><time>2026-04-09T14:58:21.999Z</time></trkpt><trkpt lat="39.624729290960595" lon="-3.943011399357479"><ele>785.0</ele><time>2026-04-09T14:58:22.999Z</time></trkpt><trkpt lat="39.624644793271905" lon="-3.943088143004915"><ele>785.0</ele><time>2026-04-09T14:58:23.999Z</time></trkpt><trkpt lat="39.624552319673484" lon="-3.943174522275165"><ele>785.0</ele><time>2026-04-09T14:58:24.999Z</time></trkpt><trkpt lat="39.624437702146984" lon="-3.9432584717788677"><ele>786.6666666666667</ele><time>2026-04-09T14:58:25.999Z</time></trkpt><trkpt lat="39.624332803813495" lon="-3.9433883216583197"><ele>788.3333333333333</ele><time>2026-04-09T14:58:26.999Z</time></trkpt><trkpt lat="39.62421240556308" lon="-3.9435125193713336"><ele>790.0</ele><time>2026-04-09T14:58:27.999Z</time></trkpt><trkpt lat="39.624092388013864" lon="-3.9436427068831206"><ele>790.0</ele><time>2026-04-09T14:58:28.999Z</time></trkpt><trkpt lat="39.623970869287604" lon="-3.943773419717798"><ele>790.0</ele><time>2026-04-09T14:58:29.999Z</time></trkpt><trkpt lat="39.623853920594065" lon="-3.943897217874069"><ele>790.0</ele><time>2026-04-09T14:58:30.999Z</time></trkpt><trkpt lat="39.62374121703613" lon="-3.9440105616551153"><ele>790.25</ele><time>2026-04-09T14:58:31.999Z</time></trkpt><trkpt lat="39.62363088923792" lon="-3.944116171558412"><ele>790.5</ele><time>2026-04-09T14:58:32.999Z</time></trkpt><trkpt lat="39.62351739204373" lon="-3.9441901130030983"><ele>790.75</ele><time>2026-04-09T14:58:33.999Z</time></trkpt><trkpt lat="39.62342495928418" lon="-3.9442669454012638"><ele>791.0</ele><time>2026-04-09T14:58:34.999Z</time></trkpt><trkpt lat="39.623327305542105" lon="-3.944341223605408"><ele>791.75</ele><time>2026-04-09T14:58:35.999Z</time></trkpt><trkpt lat="39.623222289730876" lon="-3.9444289897759024"><ele>792.5</ele><time>2026-04-09T14:58:36.999Z</time></trkpt><trkpt lat="39.62311996734877" lon="-3.9445160704954483"><ele>793.25</ele><time>2026-04-09T14:58:37.999Z</time></trkpt><trkpt lat="39.62304351584377" lon="-3.94462266310081"><ele>794.0</ele><time>2026-04-09T14:58:38.999Z</time></trkpt><trkpt lat="39.62295731022416" lon="-3.9447257835077134"><ele>794.0</ele><time>2026-04-09T14:58:39.999Z</time></trkpt><trkpt lat="39.62285534705641" lon="-3.9448238842557335"><ele>794.0</ele><time>2026-04-09T14:58:40.999Z</time></trkpt><trkpt lat="39.62275812380984" lon="-3.9449379833953038"><ele>794.0</ele><time>2026-04-09T14:58:41.999Z</time></trkpt><trkpt lat="39.6226649748209" lon="-3.945033922877757"><ele>794.0</ele><time>2026-04-09T14:58:42.999Z</time></trkpt><trkpt lat="39.62257272565641" lon="-3.945149890005863"><ele>795.6666666666667</ele><time>2026-04-09T14:58:43.999Z</time></trkpt><trkpt lat="39.62245388687089" lon="-3.9452659588043124"><ele>797.3333333333333</ele><time>2026-04-09T14:58:44.999Z</time></trkpt><trkpt lat="39.62231207918808" lon="-3.9454045173912524"><ele>799.0</ele><time>2026-04-09T14:58:45.999Z</time></trkpt><trkpt lat="39.62218673979879" lon="-3.945528692799846"><ele>799.0</ele><time>2026-04-09T14:58:46.999Z</time></trkpt><trkpt lat="39.62206927599893" lon="-3.945620148873129"><ele>799.0</ele><time>2026-04-09T14:58:47.999Z</time></trkpt><trkpt lat="39.62196734534465" lon="-3.945728200062154"><ele>799.0</ele><time>2026-04-09T14:58:48.999Z</time></trkpt><trkpt lat="39.62187292346086" lon="-3.945821678245732"><ele>799.0</ele><time>2026-04-09T14:58:49.999Z</time></trkpt><trkpt lat="39.62179053417638" lon="-3.945895492106057"><ele>799.4999999999999</ele><time>2026-04-09T14:58:50.999Z</time></trkpt><trkpt lat="39.621710801584726" lon="-3.9459740480062053"><ele>800.0</ele><time>2026-04-09T14:58:51.999Z</time></trkpt><trkpt lat="39.62163518434614" lon="-3.9460557099745204"><ele>800.5</ele><time>2026-04-09T14:58:52.999Z</time></trkpt><trkpt lat="39.62156466444635" lon="-3.9461275554477404"><ele>801.0</ele><time>2026-04-09T14:58:53.999Z</time></trkpt><trkpt lat="39.62149987098213" lon="-3.946189485593796"><ele>801.4999999999999</ele><time>2026-04-09T14:58:54.999Z</time></trkpt><trkpt lat="39.621449033773374" lon="-3.9462395545777076"><ele>802.0</ele><time>2026-04-09T14:58:55.999Z</time></trkpt><trkpt lat="39.62139431815946" lon="-3.9462948221096372"><ele>802.0</ele><time>2026-04-09T14:58:56.999Z</time></trkpt><trkpt lat="39.62131384742317" lon="-3.9463963949581404"><ele>802.0</ele><time>2026-04-09T14:58:57.998Z</time></trkpt><trkpt lat="39.621160594842095" lon="-3.9465007050468484"><ele>802.0</ele><time>2026-04-09T14:58:58.998Z</time></trkpt><trkpt lat="39.62100834512471" lon="-3.9466219128270725"><ele>802.5</ele><time>2026-04-09T14:58:59.998Z</time></trkpt><trkpt lat="39.62087060919412" lon="-3.946719677076252"><ele>803.0</ele><time>2026-04-09T14:59:00.998Z</time></trkpt><trkpt lat="39.62075759143484" lon="-3.946796571127839"><ele>803.5</ele><time>2026-04-09T14:59:01.998Z</time></trkpt><trkpt lat="39.620665209687154" lon="-3.9468624658242635"><ele>804.0</ele><time>2026-04-09T14:59:02.998Z</time></trkpt><trkpt lat="39.62058315988556" lon="-3.9469244299902817"><ele>804.0</ele><time>2026-04-09T14:59:03.998Z</time></trkpt><trkpt lat="39.62051106305938" lon="-3.9469773057217417"><ele>804.0</ele><time>2026-04-09T14:59:04.998Z</time></trkpt><trkpt lat="39.620444597734064" lon="-3.9470294459124307"><ele>804.0</ele><time>2026-04-09T14:59:05.998Z</time></trkpt><trkpt lat="39.62035159558077" lon="-3.947096653816019"><ele>804.0</ele><time>2026-04-09T14:59:06.998Z</time></trkpt><trkpt lat="39.62024581799612" lon="-3.9471718687309156"><ele>804.0</ele><time>2026-04-09T14:59:07.998Z</time></trkpt><trkpt lat="39.62014207754189" lon="-3.947248799877254"><ele>804.25</ele><time>2026-04-09T14:59:08.998Z</time></trkpt><trkpt lat="39.62003938039168" lon="-3.947328421697294"><ele>804.5</ele><time>2026-04-09T14:59:09.998Z</time></trkpt><trkpt lat="39.6199378358672" lon="-3.947410101624379"><ele>804.75</ele><time>2026-04-09T14:59:10.998Z</time></trkpt><trkpt lat="39.61983640301009" lon="-3.9474956901312757"><ele>805.0</ele><time>2026-04-09T14:59:11.998Z</time></trkpt><trkpt lat="39.61973843256043" lon="-3.9475674411379904"><ele>805.2</ele><time>2026-04-09T14:59:12.998Z</time></trkpt><trkpt lat="39.61965614270083" lon="-3.94763202590155"><ele>805.4</ele><time>2026-04-09T14:59:13.998Z</time></trkpt><trkpt lat="39.61958566611374" lon="-3.947691683053729"><ele>805.5999999999999</ele><time>2026-04-09T14:59:14.998Z</time></trkpt><trkpt lat="39.61950201056016" lon="-3.9477887446331783"><ele>805.8</ele><time>2026-04-09T14:59:15.998Z</time></trkpt><trkpt lat="39.6193871132014" lon="-3.9479005873779"><ele>806.0</ele><time>2026-04-09T14:59:16.998Z</time></trkpt><trkpt lat="39.61926374901079" lon="-3.94802337653381"><ele>806.1999999999999</ele><time>2026-04-09T14:59:17.998Z</time></trkpt><trkpt lat="39.619160090841724" lon="-3.948126725556157"><ele>806.4</ele><time>2026-04-09T14:59:18.998Z</time></trkpt><trkpt lat="39.61906790139248" lon="-3.9481962948480707"><ele>806.6</ele><time>2026-04-09T14:59:19.998Z</time></trkpt><trkpt lat="39.61899586663138" lon="-3.9482725190348935"><ele>806.8</ele><time>2026-04-09T14:59:20.998Z</time></trkpt><trkpt lat="39.61893275452884" lon="-3.948339447563963"><ele>807.0</ele><time>2026-04-09T14:59:21.998Z</time></trkpt><trkpt lat="39.618863833934526" lon="-3.9484135906409747"><ele>807.0</ele><time>2026-04-09T14:59:22.998Z</time></trkpt><trkpt lat="39.61876056618228" lon="-3.9485165669288715"><ele>807.0</ele><time>2026-04-09T14:59:23.998Z</time></trkpt><trkpt lat="39.61863586826903" lon="-3.9486454585720647"><ele>807.0</ele><time>2026-04-09T14:59:24.998Z</time></trkpt><trkpt lat="39.61852932920226" lon="-3.9487657752068497"><ele>807.0</ele><time>2026-04-09T14:59:25.998Z</time></trkpt><trkpt lat="39.6184542052571" lon="-3.9488836745432305"><ele>807.0</ele><time>2026-04-09T14:59:26.998Z</time></trkpt><trkpt lat="39.61837491408564" lon="-3.94897750867672"><ele>807.0</ele><time>2026-04-09T14:59:27.998Z</time></trkpt><trkpt lat="39.6182948887113" lon="-3.9490650600581727"><ele>807.0</ele><time>2026-04-09T14:59:28.998Z</time></trkpt><trkpt lat="39.61821992297398" lon="-3.94913334615297"><ele>807.0</ele><time>2026-04-09T14:59:29.998Z</time></trkpt><trkpt lat="39.618150530268274" lon="-3.949194729417074"><ele>807.0</ele><time>2026-04-09T14:59:30.998Z</time></trkpt><trkpt lat="39.61807227446785" lon="-3.949237371414453"><ele>806.5</ele><time>2026-04-09T14:59:31.998Z</time></trkpt><trkpt lat="39.61798338812982" lon="-3.9493350066387416"><ele>806.0</ele><time>2026-04-09T14:59:32.998Z</time></trkpt><trkpt lat="39.617892681545804" lon="-3.949409915335644"><ele>805.5</ele><time>2026-04-09T14:59:33.998Z</time></trkpt><trkpt lat="39.617805518124634" lon="-3.9494967954790132"><ele>805.0</ele><time>2026-04-09T14:59:34.998Z</time></trkpt><trkpt lat="39.617702464442104" lon="-3.9496218940863073"><ele>804.5</ele><time>2026-04-09T14:59:35.998Z</time></trkpt><trkpt lat="39.61760296266832" lon="-3.9497541049505385"><ele>804.0</ele><time>2026-04-09T14:59:36.998Z</time></trkpt><trkpt lat="39.61751614822652" lon="-3.9498936078681277"><ele>803.5</ele><time>2026-04-09T14:59:37.998Z</time></trkpt><trkpt lat="39.61743826338932" lon="-3.9500442069468034"><ele>803.0</ele><time>2026-04-09T14:59:38.998Z</time></trkpt><trkpt lat="39.617362408386434" lon="-3.950208493144156"><ele>802.75</ele><time>2026-04-09T14:59:39.998Z</time></trkpt><trkpt lat="39.6172904389466" lon="-3.950374419336515"><ele>802.5</ele><time>2026-04-09T14:59:40.998Z</time></trkpt><trkpt lat="39.61721881961711" lon="-3.9505106748092613"><ele>802.25</ele><time>2026-04-09T14:59:42Z</time></trkpt><trkpt lat="39.617168607648104" lon="-3.9506546654722228"><ele>802.0</ele><time>2026-04-09T14:59:43Z</time></trkpt><trkpt lat="39.6171362021458" lon="-3.9508193640803477"><ele>802.0</ele><time>2026-04-09T14:59:44Z</time></trkpt><trkpt lat="39.61707935654243" lon="-3.9509616757727772"><ele>802.0</ele><time>2026-04-09T14:59:45Z</time></trkpt><trkpt lat="39.61705758461718" lon="-3.951111453340041"><ele>802.0</ele><time>2026-04-09T14:59:46Z</time></trkpt><trkpt lat="39.61702603183768" lon="-3.951236498892284"><ele>802.0</ele><time>2026-04-09T14:59:47Z</time></trkpt><trkpt lat="39.61699200948704" lon="-3.951370447216324"><ele>802.5</ele><time>2026-04-09T14:59:48Z</time></trkpt><trkpt lat="39.61694720186349" lon="-3.9515236705668633"><ele>803.0</ele><time>2026-04-09T14:59:49Z</time></trkpt><trkpt lat="39.61687485459195" lon="-3.951681220692548"><ele>803.5</ele><time>2026-04-09T14:59:50Z</time></trkpt><trkpt lat="39.61681049687242" lon="-3.9518458681164534"><ele>804.0</ele><time>2026-04-09T14:59:51Z</time></trkpt><trkpt lat="39.6167289468185" lon="-3.9520068021625163"><ele>804.0</ele><time>2026-04-09T14:59:52Z</time></trkpt><trkpt lat="39.61665728595859" lon="-3.9521722501579952"><ele>804.0</ele><time>2026-04-09T14:59:53Z</time></trkpt><trkpt lat="39.616563603397" lon="-3.952326965931527"><ele>804.0</ele><time>2026-04-09T14:59:54Z</time></trkpt><trkpt lat="39.61646639191781" lon="-3.9524774148245747"><ele>804.0</ele><time>2026-04-09T14:59:55Z</time></trkpt><trkpt lat="39.61637060575118" lon="-3.9526187859800714"><ele>803.75</ele><time>2026-04-09T14:59:56Z</time></trkpt><trkpt lat="39.616273493152185" lon="-3.952754493412821"><ele>803.5</ele><time>2026-04-09T14:59:57Z</time></trkpt><trkpt lat="39.61618312135709" lon="-3.9528735630614786"><ele>803.25</ele><time>2026-04-09T14:59:58Z</time></trkpt><trkpt lat="39.6160893804864" lon="-3.9529970838623854"><ele>803.0</ele><time>2026-04-09T14:59:59Z</time></trkpt><trkpt lat="39.61599590845366" lon="-3.953120188828262"><ele>804.0</ele><time>2026-04-09T15:00:00Z</time></trkpt><trkpt lat="39.6159033462368" lon="-3.953239292117488"><ele>805.0</ele><time>2026-04-09T15:00:01Z</time></trkpt><trkpt lat="39.61581557910997" lon="-3.95334959152599"><ele>806.0</ele><time>2026-04-09T15:00:02Z</time></trkpt><trkpt lat="39.61573389793649" lon="-3.95345223283523"><ele>807.0</ele><time>2026-04-09T15:00:03Z</time></trkpt><trkpt lat="39.61565160956558" lon="-3.9535489961049075"><ele>807.0</ele><time>2026-04-09T15:00:04Z</time></trkpt><trkpt lat="39.61554943519241" lon="-3.9536400705873005"><ele>807.0</ele><time>2026-04-09T15:00:05Z</time></trkpt><trkpt lat="39.61545109621815" lon="-3.9537274641938853"><ele>807.0</ele><time>2026-04-09T15:00:06Z</time></trkpt><trkpt lat="39.61534845773677" lon="-3.953835860977857"><ele>807.0</ele><time>2026-04-09T15:00:07Z</time></trkpt><trkpt lat="39.615223994219754" lon="-3.953931503585038"><ele>807.0</ele><time>2026-04-09T15:00:08Z</time></trkpt><trkpt lat="39.615094674176326" lon="-3.9540107574234473"><ele>807.0</ele><time>2026-04-09T15:00:09Z</time></trkpt><trkpt lat="39.614981674048174" lon="-3.954130185495605"><ele>807.0</ele><time>2026-04-09T15:00:10Z</time></trkpt><trkpt lat="39.61486124987338" lon="-3.9542377872632564"><ele>807.0</ele><time>2026-04-09T15:00:11Z</time></trkpt><trkpt lat="39.61472851804439" lon="-3.9543329809211825"><ele>806.6666666666667</ele><time>2026-04-09T15:00:12Z</time></trkpt><trkpt lat="39.61460145633686" lon="-3.9544442991729674"><ele>806.3333333333334</ele><time>2026-04-09T15:00:13Z</time></trkpt><trkpt lat="39.61446836798323" lon="-3.9545507681276937"><ele>806.0</ele><time>2026-04-09T15:00:14Z</time></trkpt><trkpt lat="39.61434499657499" lon="-3.954661715941105"><ele>806.0</ele><time>2026-04-09T15:00:15Z</time></trkpt><trkpt lat="39.614230894699006" lon="-3.9547846982284063"><ele>806.0</ele><time>2026-04-09T15:00:16Z</time></trkpt><trkpt lat="39.614119644846134" lon="-3.9549102662289397"><ele>806.0</ele><time>2026-04-09T15:00:17Z</time></trkpt><trkpt lat="39.614012406218535" lon="-3.9550393153362955"><ele>806.0</ele><time>2026-04-09T15:00:18Z</time></trkpt><trkpt lat="39.61391425760978" lon="-3.9551822014586233"><ele>807.6666666666667</ele><time>2026-04-09T15:00:18.999Z</time></trkpt><trkpt lat="39.61382225763151" lon="-3.955342453298698"><ele>809.3333333333333</ele><time>2026-04-09T15:00:19.999Z</time></trkpt><trkpt lat="39.61373706312887" lon="-3.955510282544841"><ele>811.0</ele><time>2026-04-09T15:00:20.999Z</time></trkpt><trkpt lat="39.613665852749634" lon="-3.955686494536022"><ele>810.75</ele><time>2026-04-09T15:00:21.999Z</time></trkpt><trkpt lat="39.61360298204928" lon="-3.9558622480581658"><ele>810.5</ele><time>2026-04-09T15:00:22.999Z</time></trkpt><trkpt lat="39.61353743922554" lon="-3.956030197384076"><ele>810.25</ele><time>2026-04-09T15:00:23.999Z</time></trkpt><trkpt lat="39.613468863116225" lon="-3.9561983149097375"><ele>810.0</ele><time>2026-04-09T15:00:24.999Z</time></trkpt><trkpt lat="39.61340404685847" lon="-3.9563670347989355"><ele>810.0</ele><time>2026-04-09T15:00:25.999Z</time></trkpt><trkpt lat="39.613338211653" lon="-3.956536397736551"><ele>810.0</ele><time>2026-04-09T15:00:26.999Z</time></trkpt><trkpt lat="39.61326510967608" lon="-3.956707800341966"><ele>810.0</ele><time>2026-04-09T15:00:27.999Z</time></trkpt><trkpt lat="39.61319896427474" lon="-3.9568891152396635"><ele>811.5</ele><time>2026-04-09T15:00:28.999Z</time></trkpt><trkpt lat="39.61311454489796" lon="-3.957063280630416"><ele>813.0</ele><time>2026-04-09T15:00:29.999Z</time></trkpt><trkpt lat="39.61302502208549" lon="-3.957224979341619"><ele>814.5</ele><time>2026-04-09T15:00:30.999Z</time></trkpt><trkpt lat="39.61294602460722" lon="-3.9573564724019903"><ele>816.0</ele><time>2026-04-09T15:00:31.999Z</time></trkpt><trkpt lat="39.61286824375262" lon="-3.957453088672191"><ele>816.0</ele><time>2026-04-09T15:00:32.999Z</time></trkpt><trkpt lat="39.612792714191265" lon="-3.9575250606549295"><ele>816.0</ele><time>2026-04-09T15:00:33.999Z</time></trkpt><trkpt lat="39.61269761901418" lon="-3.957594397520823"><ele>816.0</ele><time>2026-04-09T15:00:34.999Z</time></trkpt><trkpt lat="39.61257987119565" lon="-3.9576665043253856"><ele>816.0</ele><time>2026-04-09T15:00:35.999Z</time></trkpt><trkpt lat="39.6124619176906" lon="-3.957742921957104"><ele>816.0</ele><time>2026-04-09T15:00:36.999Z</time></trkpt><trkpt lat="39.61234659778886" lon="-3.957834913897443"><ele>816.0</ele><time>2026-04-09T15:00:37.999Z</time></trkpt><trkpt lat="39.61225017715492" lon="-3.9579630171910627"><ele>816.0</ele><time>2026-04-09T15:00:38.999Z</time></trkpt><trkpt lat="39.61215388940134" lon="-3.9580981703805387"><ele>816.0</ele><time>2026-04-09T15:00:39.999Z</time></trkpt><trkpt lat="39.61208385937375" lon="-3.958263748557698"><ele>818.0</ele><time>2026-04-09T15:00:40.999Z</time></trkpt><trkpt lat="39.6119946895205" lon="-3.9584347360054366"><ele>820.0</ele><time>2026-04-09T15:00:41.999Z</time></trkpt><trkpt lat="39.61190001245393" lon="-3.9585974505409007"><ele>822.0</ele><time>2026-04-09T15:00:42.999Z</time></trkpt><trkpt lat="39.61179128441684" lon="-3.9587539752580163"><ele>817.6666666666667</ele><time>2026-04-09T15:00:43.999Z</time></trkpt><trkpt lat="39.6116717029251" lon="-3.9589105257809236"><ele>813.3333333333334</ele><time>2026-04-09T15:00:44.999Z</time></trkpt><trkpt lat="39.61156005146127" lon="-3.959055403712582"><ele>809.0</ele><time>2026-04-09T15:00:45.999Z</time></trkpt><trkpt lat="39.611461986611495" lon="-3.9591826516039466"><ele>810.5</ele><time>2026-04-09T15:00:46.999Z</time></trkpt><trkpt lat="39.611361391440624" lon="-3.95931690434044"><ele>812.0</ele><time>2026-04-09T15:00:47.999Z</time></trkpt><trkpt lat="39.61126950786738" lon="-3.959442220315723"><ele>813.5</ele><time>2026-04-09T15:00:48.999Z</time></trkpt><trkpt lat="39.61119454683957" lon="-3.9595444565934557"><ele>815.0</ele><time>2026-04-09T15:00:49.999Z</time></trkpt><trkpt lat="39.61112503275536" lon="-3.959638905149933"><ele>815.0</ele><time>2026-04-09T15:00:50.999Z</time></trkpt><trkpt lat="39.61104117145411" lon="-3.959746263820849"><ele>815.0</ele><time>2026-04-09T15:00:51.999Z</time></trkpt><trkpt lat="39.61093805101318" lon="-3.9598745268743945"><ele>815.0</ele><time>2026-04-09T15:00:52.999Z</time></trkpt><trkpt lat="39.61082393505761" lon="-3.960020117826677"><ele>815.0</ele><time>2026-04-09T15:00:53.999Z</time></trkpt><trkpt lat="39.61070594319129" lon="-3.960168789024509"><ele>815.6666666666667</ele><time>2026-04-09T15:00:54.999Z</time></trkpt><trkpt lat="39.61058504161039" lon="-3.9603153957748134"><ele>816.3333333333333</ele><time>2026-04-09T15:00:55.999Z</time></trkpt><trkpt lat="39.610461964813595" lon="-3.960459455399255"><ele>817.0</ele><time>2026-04-09T15:00:56.999Z</time></trkpt><trkpt lat="39.610336610411096" lon="-3.9606009148906494"><ele>816.6666666666666</ele><time>2026-04-09T15:00:57.999Z</time></trkpt><trkpt lat="39.6102096557596" lon="-3.9607441800817136"><ele>816.3333333333333</ele><time>2026-04-09T15:00:58.999Z</time></trkpt><trkpt lat="39.610084265509556" lon="-3.9608895400653643"><ele>816.0</ele><time>2026-04-09T15:00:59.999Z</time></trkpt><trkpt lat="39.60995877953879" lon="-3.9610404365015897"><ele>816.0</ele><time>2026-04-09T15:01:00.999Z</time></trkpt><trkpt lat="39.60983146134616" lon="-3.9611983305831955"><ele>816.0</ele><time>2026-04-09T15:01:01.999Z</time></trkpt><trkpt lat="39.609706794070796" lon="-3.9613502043299476"><ele>816.0</ele><time>2026-04-09T15:01:02.998Z</time></trkpt><trkpt lat="39.60958418880228" lon="-3.961498154849832"><ele>816.3333333333333</ele><time>2026-04-09T15:01:03.998Z</time></trkpt><trkpt lat="39.6094617667578" lon="-3.9616522047259624"><ele>816.6666666666666</ele><time>2026-04-09T15:01:04.998Z</time></trkpt><trkpt lat="39.60933875472676" lon="-3.9618079295676027"><ele>817.0</ele><time>2026-04-09T15:01:05.998Z</time></trkpt><trkpt lat="39.60921107048917" lon="-3.9619658449665645"><ele>817.0</ele><time>2026-04-09T15:01:06.998Z</time></trkpt><trkpt lat="39.60908968816134" lon="-3.9621127751349827"><ele>817.0</ele><time>2026-04-09T15:01:07.998Z</time></trkpt><trkpt lat="39.60898382222571" lon="-3.9622421728051327"><ele>817.0</ele><time>2026-04-09T15:01:08.998Z</time></trkpt><trkpt lat="39.608884602444526" lon="-3.962366747565666"><ele>817.0</ele><time>2026-04-09T15:01:09.998Z</time></trkpt><trkpt lat="39.608782949606756" lon="-3.9625151842661555"><ele>817.0</ele><time>2026-04-09T15:01:10.998Z</time></trkpt><trkpt lat="39.60869430681783" lon="-3.9626619998745687"><ele>817.0</ele><time>2026-04-09T15:01:11.998Z</time></trkpt><trkpt lat="39.60861884887134" lon="-3.9628055630869987"><ele>817.0</ele><time>2026-04-09T15:01:12.998Z</time></trkpt><trkpt lat="39.608547224808426" lon="-3.962941929051293"><ele>817.0</ele><time>2026-04-09T15:01:13.998Z</time></trkpt><trkpt lat="39.608479343166294" lon="-3.963069761624418"><ele>817.0</ele><time>2026-04-09T15:01:14.998Z</time></trkpt><trkpt lat="39.6084046197983" lon="-3.9632132909473765"><ele>817.0</ele><time>2026-04-09T15:01:15.998Z</time></trkpt><trkpt lat="39.60832775983042" lon="-3.963363964547751"><ele>817.0</ele><time>2026-04-09T15:01:16.998Z</time></trkpt><trkpt lat="39.60827368130509" lon="-3.9635020633988365"><ele>817.0</ele><time>2026-04-09T15:01:17.998Z</time></trkpt><trkpt lat="39.60823987883019" lon="-3.963642738763442"><ele>818.0</ele><time>2026-04-09T15:01:18.998Z</time></trkpt><trkpt lat="39.60820728618696" lon="-3.9638193017879826"><ele>819.0</ele><time>2026-04-09T15:01:19.998Z</time></trkpt><trkpt lat="39.60815139724191" lon="-3.964008332694984"><ele>820.0</ele><time>2026-04-09T15:01:20.998Z</time></trkpt><trkpt lat="39.608112449394525" lon="-3.9641886660284897"><ele>821.0</ele><time>2026-04-09T15:01:21.998Z</time></trkpt><trkpt lat="39.60807521279292" lon="-3.9643281846231107"><ele>821.4</ele><time>2026-04-09T15:01:22.998Z</time></trkpt><trkpt lat="39.6080586726742" lon="-3.9644382527106496"><ele>821.8</ele><time>2026-04-09T15:01:23.998Z</time></trkpt><trkpt lat="39.608011597362996" lon="-3.9645246326616133"><ele>822.1999999999999</ele><time>2026-04-09T15:01:24.998Z</time></trkpt><trkpt lat="39.607969350240474" lon="-3.964631562538859"><ele>822.5999999999999</ele><time>2026-04-09T15:01:25.998Z</time></trkpt><trkpt lat="39.60791476204007" lon="-3.964743593935782"><ele>823.0</ele><time>2026-04-09T15:01:26.998Z</time></trkpt><trkpt lat="39.60783776639085" lon="-3.964883061071807"><ele>823.3333333333333</ele><time>2026-04-09T15:01:27.998Z</time></trkpt><trkpt lat="39.60773848780259" lon="-3.965037511284581"><ele>823.6666666666667</ele><time>2026-04-09T15:01:28.998Z</time></trkpt><trkpt lat="39.60763374788429" lon="-3.965191147295236"><ele>824.0</ele><time>2026-04-09T15:01:29.998Z</time></trkpt><trkpt lat="39.60754250396613" lon="-3.965331120426168"><ele>824.0</ele><time>2026-04-09T15:01:30.998Z</time></trkpt><trkpt lat="39.60747081433517" lon="-3.9654473376421"><ele>824.0</ele><time>2026-04-09T15:01:31.998Z</time></trkpt><trkpt lat="39.60740833386958" lon="-3.9655473212065915"><ele>824.0</ele><time>2026-04-09T15:01:32.998Z</time></trkpt><trkpt lat="39.6073512942176" lon="-3.965633245250809"><ele>824.0</ele><time>2026-04-09T15:01:33.998Z</time></trkpt><trkpt lat="39.60728706533002" lon="-3.9657165803938335"><ele>824.0</ele><time>2026-04-09T15:01:34.998Z</time></trkpt><trkpt lat="39.607232660109986" lon="-3.965811008771471"><ele>824.0000000000001</ele><time>2026-04-09T15:01:35.998Z</time></trkpt><trkpt lat="39.60717913339024" lon="-3.9658769250967505"><ele>824.0</ele><time>2026-04-09T15:01:36.998Z</time></trkpt><trkpt lat="39.6071328684484" lon="-3.9659427140698433"><ele>824.0</ele><time>2026-04-09T15:01:39.998Z</time></trkpt><trkpt lat="39.60706792280609" lon="-3.965924843424143"><ele>824.0</ele><time>2026-04-09T15:02:11Z</time></trkpt><trkpt lat="39.606950502341924" lon="-3.9659138162250147"><ele>824.0000000000001</ele><time>2026-04-09T15:02:22Z</time></trkpt><trkpt lat="39.606887989472355" lon="-3.965896621206969"><ele>824.0</ele><time>2026-04-09T15:02:23Z</time></trkpt><trkpt lat="39.60681124645709" lon="-3.965872076880918"><ele>824.0000000000001</ele><time>2026-04-09T15:02:24.999Z</time></trkpt><trkpt lat="39.60673464410252" lon="-3.9658506891462357"><ele>824.0</ele><time>2026-04-09T15:02:27.999Z</time></trkpt><trkpt lat="39.60666164262225" lon="-3.965849007529803"><ele>824.0</ele><time>2026-04-09T15:02:29.999Z</time></trkpt><trkpt lat="39.606565891060164" lon="-3.9659123856026386"><ele>824.0</ele><time>2026-04-09T15:02:31.999Z</time></trkpt><trkpt lat="39.606490253982756" lon="-3.9659378699181125"><ele>824.0000000000001</ele><time>2026-04-09T15:02:32.999Z</time></trkpt><trkpt lat="39.606399842340544" lon="-3.965922112595637"><ele>824.0</ele><time>2026-04-09T15:02:33.999Z</time></trkpt><trkpt lat="39.606331420452584" lon="-3.9659098388327205"><ele>824.0000000000001</ele><time>2026-04-09T15:02:34.999Z</time></trkpt><trkpt lat="39.606261201112545" lon="-3.965885067553711"><ele>824.0</ele><time>2026-04-09T15:02:35.999Z</time></trkpt><trkpt lat="39.60618616942572" lon="-3.965895643195411"><ele>824.0</ele><time>2026-04-09T15:02:36.999Z</time></trkpt><trkpt lat="39.60610392064665" lon="-3.9658958229602623"><ele>824.0</ele><time>2026-04-09T15:02:37.999Z</time></trkpt><trkpt lat="39.60601179647228" lon="-3.965900804328978"><ele>824.0000000000001</ele><time>2026-04-09T15:02:38.999Z</time></trkpt><trkpt lat="39.60591482053946" lon="-3.9659168425543823"><ele>824.0</ele><time>2026-04-09T15:02:39.999Z</time></trkpt><trkpt lat="39.605821513804926" lon="-3.965937457440516"><ele>824.8000000000001</ele><time>2026-04-09T15:02:40.999Z</time></trkpt><trkpt lat="39.605728594652184" lon="-3.965945119266801"><ele>825.6</ele><time>2026-04-09T15:02:41.999Z</time></trkpt><trkpt lat="39.605638495143324" lon="-3.965973221032601"><ele>826.4</ele><time>2026-04-09T15:02:42.999Z</time></trkpt><trkpt lat="39.60554639163995" lon="-3.966000210577637"><ele>827.2</ele><time>2026-04-09T15:02:43.999Z</time></trkpt><trkpt lat="39.60545921052894" lon="-3.9660122949121113"><ele>828.0</ele><time>2026-04-09T15:02:44.999Z</time></trkpt><trkpt lat="39.60536742599067" lon="-3.966010785486438"><ele>828.4</ele><time>2026-04-09T15:02:45.999Z</time></trkpt><trkpt lat="39.60527352607458" lon="-3.9659900603686196"><ele>828.8</ele><time>2026-04-09T15:02:46.999Z</time></trkpt><trkpt lat="39.6051719923678" lon="-3.9659438718931113"><ele>829.2</ele><time>2026-04-09T15:02:47.999Z</time></trkpt><trkpt lat="39.60505409102915" lon="-3.9659128188817134"><ele>829.6</ele><time>2026-04-09T15:02:48.999Z</time></trkpt><trkpt lat="39.604937482683724" lon="-3.965867106890721"><ele>830.0</ele><time>2026-04-09T15:02:49.999Z</time></trkpt><trkpt lat="39.604822275718874" lon="-3.9658226994868264"><ele>830.0</ele><time>2026-04-09T15:02:50.999Z</time></trkpt><trkpt lat="39.604709093910614" lon="-3.9657790726600894"><ele>830.0</ele><time>2026-04-09T15:02:51.999Z</time></trkpt><trkpt lat="39.604590757679325" lon="-3.9657334590549924"><ele>830.0</ele><time>2026-04-09T15:02:52.999Z</time></trkpt><trkpt lat="39.60446621899342" lon="-3.9656658017007307"><ele>830.0</ele><time>2026-04-09T15:02:53.999Z</time></trkpt><trkpt lat="39.60433056540827" lon="-3.9656090443194567"><ele>830.75</ele><time>2026-04-09T15:02:54.999Z</time></trkpt><trkpt lat="39.604200347496274" lon="-3.9655422298794694"><ele>831.5</ele><time>2026-04-09T15:02:55.999Z</time></trkpt><trkpt lat="39.60406968294468" lon="-3.9655097762651983"><ele>832.25</ele><time>2026-04-09T15:02:56.999Z</time></trkpt><trkpt lat="39.603963811116046" lon="-3.965468275016161"><ele>833.0</ele><time>2026-04-09T15:02:57.999Z</time></trkpt><trkpt lat="39.60387270036749" lon="-3.965432560073659"><ele>833.0</ele><time>2026-04-09T15:02:58.999Z</time></trkpt><trkpt lat="39.60379648945483" lon="-3.96538139053641"><ele>833.0</ele><time>2026-04-09T15:02:59.999Z</time></trkpt><trkpt lat="39.60370632205783" lon="-3.965369015762416"><ele>833.0</ele><time>2026-04-09T15:03:00.999Z</time></trkpt><trkpt lat="39.603589302983295" lon="-3.9653510394486693"><ele>833.0</ele><time>2026-04-09T15:03:01.999Z</time></trkpt><trkpt lat="39.6034473741781" lon="-3.9653279254102194"><ele>833.0</ele><time>2026-04-09T15:03:02.999Z</time></trkpt><trkpt lat="39.60330067555151" lon="-3.9652659976894755"><ele>833.0</ele><time>2026-04-09T15:03:03.999Z</time></trkpt><trkpt lat="39.603154816622066" lon="-3.9652223475149375"><ele>833.0</ele><time>2026-04-09T15:03:04.999Z</time></trkpt><trkpt lat="39.603016151869326" lon="-3.965175721530652"><ele>833.0</ele><time>2026-04-09T15:03:05.999Z</time></trkpt><trkpt lat="39.602895624920926" lon="-3.9651358205029794"><ele>833.0</ele><time>2026-04-09T15:03:06.999Z</time></trkpt><trkpt lat="39.60279478466631" lon="-3.96509829109874"><ele>833.0000000000001</ele><time>2026-04-09T15:03:07.998Z</time></trkpt><trkpt lat="39.60272018373783" lon="-3.965075690329248"><ele>833.0</ele><time>2026-04-09T15:03:08.998Z</time></trkpt><trkpt lat="39.602617826343156" lon="-3.9650245237078092"><ele>833.0</ele><time>2026-04-09T15:03:10.998Z</time></trkpt><trkpt lat="39.60255450461555" lon="-3.964963940508595"><ele>833.0</ele><time>2026-04-09T15:03:11.998Z</time></trkpt><trkpt lat="39.602482072542294" lon="-3.9649348699252682"><ele>833.0000000000001</ele><time>2026-04-09T15:03:12.998Z</time></trkpt><trkpt lat="39.60239834146459" lon="-3.9649065982579135"><ele>833.0</ele><time>2026-04-09T15:03:13.998Z</time></trkpt><trkpt lat="39.60231299943312" lon="-3.9648368133450544"><ele>832.5999999999999</ele><time>2026-04-09T15:03:14.998Z</time></trkpt><trkpt lat="39.60222880437857" lon="-3.9647944557236254"><ele>832.1999999999999</ele><time>2026-04-09T15:03:15.998Z</time></trkpt><trkpt lat="39.60212823688745" lon="-3.964721389260173"><ele>831.8</ele><time>2026-04-09T15:03:16.998Z</time></trkpt><trkpt lat="39.602018121965784" lon="-3.9646606651662806"><ele>831.4</ele><time>2026-04-09T15:03:17.998Z</time></trkpt><trkpt lat="39.60190186183803" lon="-3.964616742595555"><ele>831.0</ele><time>2026-04-09T15:03:18.998Z</time></trkpt><trkpt lat="39.601789231818756" lon="-3.9645633332743864"><ele>832.1999999999999</ele><time>2026-04-09T15:03:19.998Z</time></trkpt><trkpt lat="39.601678735820016" lon="-3.9645020697753988"><ele>833.4</ele><time>2026-04-09T15:03:20.998Z</time></trkpt><trkpt lat="39.60156240652381" lon="-3.964520244959406"><ele>834.6</ele><time>2026-04-09T15:03:21.998Z</time></trkpt><trkpt lat="39.60146785023085" lon="-3.96455216553877"><ele>835.8</ele><time>2026-04-09T15:03:22.998Z</time></trkpt><trkpt lat="39.601435842088414" lon="-3.9646491875141074"><ele>837.0</ele><time>2026-04-09T15:03:23.998Z</time></trkpt><trkpt lat="39.601326831654426" lon="-3.964656210034154"><ele>837.0</ele><time>2026-04-09T15:03:25.998Z</time></trkpt><trkpt lat="39.60121025738434" lon="-3.9647245919402363"><ele>837.0</ele><time>2026-04-09T15:03:27.998Z</time></trkpt><trkpt lat="39.601068705957424" lon="-3.964385845608347"><ele>837.0</ele><time>2026-04-09T15:03:28.998Z</time></trkpt><trkpt lat="39.60098732870956" lon="-3.964371506493144"><ele>839.2</ele><time>2026-04-09T15:03:29.998Z</time></trkpt><trkpt lat="39.60089379462257" lon="-3.9643313720920093"><ele>841.4000000000001</ele><time>2026-04-09T15:03:30.998Z</time></trkpt><trkpt lat="39.600787950886755" lon="-3.9642987062876425"><ele>843.5999999999999</ele><time>2026-04-09T15:03:31.998Z</time></trkpt><trkpt lat="39.600682338114524" lon="-3.9642749539408366"><ele>845.8</ele><time>2026-04-09T15:03:32.998Z</time></trkpt><trkpt lat="39.600576132759485" lon="-3.964240529993119"><ele>848.0</ele><time>2026-04-09T15:03:33.998Z</time></trkpt><trkpt lat="39.60050045007498" lon="-3.964180553741833"><ele>848.8</ele><time>2026-04-09T15:03:34.998Z</time></trkpt><trkpt lat="39.600410615417644" lon="-3.9641065380834104"><ele>849.5999999999999</ele><time>2026-04-09T15:03:35.998Z</time></trkpt><trkpt lat="39.600316034428715" lon="-3.9640499520518206"><ele>850.4000000000001</ele><time>2026-04-09T15:03:36.998Z</time></trkpt><trkpt lat="39.60023015522032" lon="-3.964013706312116"><ele>851.2</ele><time>2026-04-09T15:03:37.998Z</time></trkpt><trkpt lat="39.60013496665712" lon="-3.963980845893274"><ele>852.0</ele><time>2026-04-09T15:03:38.998Z</time></trkpt><trkpt lat="39.60003444544436" lon="-3.963958669063447"><ele>853.0</ele><time>2026-04-09T15:03:39.998Z</time></trkpt><trkpt lat="39.59993606608159" lon="-3.9639381381491092"><ele>854.0</ele><time>2026-04-09T15:03:40.998Z</time></trkpt><trkpt lat="39.59983570378491" lon="-3.963909638297724"><ele>855.0</ele><time>2026-04-09T15:03:41.998Z</time></trkpt><trkpt lat="39.599740090630405" lon="-3.9638559531530024"><ele>856.0</ele><time>2026-04-09T15:03:42.998Z</time></trkpt><trkpt lat="39.59963988692209" lon="-3.9638038666734405"><ele>857.0</ele><time>2026-04-09T15:03:43.998Z</time></trkpt><trkpt lat="39.5995329219202" lon="-3.9637680649092073"><ele>858.5</ele><time>2026-04-09T15:03:44.998Z</time></trkpt><trkpt lat="39.5994163762073" lon="-3.9637446304659028"><ele>860.0</ele><time>2026-04-09T15:03:45.998Z</time></trkpt><trkpt lat="39.599292659664215" lon="-3.963727471299772"><ele>861.5</ele><time>2026-04-09T15:03:46.998Z</time></trkpt><trkpt lat="39.59916483156564" lon="-3.963719626148356"><ele>863.0</ele><time>2026-04-09T15:03:47.998Z</time></trkpt><trkpt lat="39.59905391418411" lon="-3.963718315091528"><ele>863.0</ele><time>2026-04-09T15:03:48.998Z</time></trkpt><trkpt lat="39.598951149361284" lon="-3.9637054925936717"><ele>863.0</ele><time>2026-04-09T15:03:49.998Z</time></trkpt><trkpt lat="39.5988611057404" lon="-3.9636778107695987"><ele>863.0</ele><time>2026-04-09T15:03:50.997Z</time></trkpt><trkpt lat="39.598769789212795" lon="-3.9636237693297924"><ele>863.0</ele><time>2026-04-09T15:03:51.997Z</time></trkpt><trkpt lat="39.59866443578906" lon="-3.963561030613033"><ele>863.0</ele><time>2026-04-09T15:03:52.997Z</time></trkpt><trkpt lat="39.598549423599486" lon="-3.9635040376214064"><ele>863.5999999999999</ele><time>2026-04-09T15:03:54Z</time></trkpt><trkpt lat="39.59843540395595" lon="-3.9634553179927714"><ele>864.1999999999999</ele><time>2026-04-09T15:03:55Z</time></trkpt><trkpt lat="39.59833129384262" lon="-3.9634400309360087"><ele>864.8</ele><time>2026-04-09T15:03:56Z</time></trkpt><trkpt lat="39.59821752032849" lon="-3.9634419913530254"><ele>865.4</ele><time>2026-04-09T15:03:57Z</time></trkpt><trkpt lat="39.59811191485126" lon="-3.9634397962967767"><ele>866.0</ele><time>2026-04-09T15:03:58Z</time></trkpt><trkpt lat="39.597994401366805" lon="-3.9634242787333576"><ele>866.0</ele><time>2026-04-09T15:03:59Z</time></trkpt><trkpt lat="39.597884151868904" lon="-3.963397323547399"><ele>865.9999999999999</ele><time>2026-04-09T15:04:00Z</time></trkpt><trkpt lat="39.597776068616795" lon="-3.9633617612140277"><ele>865.9999999999999</ele><time>2026-04-09T15:04:01Z</time></trkpt><trkpt lat="39.597673511327216" lon="-3.963325028692092"><ele>866.0</ele><time>2026-04-09T15:04:02Z</time></trkpt><trkpt lat="39.59756469269168" lon="-3.9632903545061127"><ele>866.0</ele><time>2026-04-09T15:04:03Z</time></trkpt><trkpt lat="39.597450866604554" lon="-3.9632534522409824"><ele>867.5</ele><time>2026-04-09T15:04:04Z</time></trkpt><trkpt lat="39.59733715537962" lon="-3.9632100008787003"><ele>869.0</ele><time>2026-04-09T15:04:05Z</time></trkpt><trkpt lat="39.597233673264206" lon="-3.9631739321572854"><ele>870.5</ele><time>2026-04-09T15:04:06Z</time></trkpt><trkpt lat="39.59712276614006" lon="-3.963161154172076"><ele>872.0</ele><time>2026-04-09T15:04:07Z</time></trkpt><trkpt lat="39.59699934431623" lon="-3.9631680721968943"><ele>873.25</ele><time>2026-04-09T15:04:08Z</time></trkpt><trkpt lat="39.59687084944974" lon="-3.963167578884841"><ele>874.5</ele><time>2026-04-09T15:04:09Z</time></trkpt><trkpt lat="39.596749661993265" lon="-3.9631622038330354"><ele>875.75</ele><time>2026-04-09T15:04:10Z</time></trkpt><trkpt lat="39.59664202473865" lon="-3.9631656076850237"><ele>877.0</ele><time>2026-04-09T15:04:11Z</time></trkpt><trkpt lat="39.59652638911848" lon="-3.9631645099305173"><ele>877.0</ele><time>2026-04-09T15:04:12Z</time></trkpt><trkpt lat="39.5964030364522" lon="-3.9631634396880364"><ele>877.0</ele><time>2026-04-09T15:04:13Z</time></trkpt><trkpt lat="39.5962809856019" lon="-3.963183668622603"><ele>877.0</ele><time>2026-04-09T15:04:14Z</time></trkpt><trkpt lat="39.5961657214892" lon="-3.9632281611944316"><ele>877.0</ele><time>2026-04-09T15:04:15Z</time></trkpt><trkpt lat="39.59605496130976" lon="-3.9632715915432524"><ele>877.0</ele><time>2026-04-09T15:04:16Z</time></trkpt><trkpt lat="39.5959592912388" lon="-3.963288536247764"><ele>877.0</ele><time>2026-04-09T15:04:17Z</time></trkpt><trkpt lat="39.59586649319898" lon="-3.9632863275913257"><ele>877.0</ele><time>2026-04-09T15:04:18Z</time></trkpt><trkpt lat="39.59576813467491" lon="-3.9632777282495377"><ele>877.0</ele><time>2026-04-09T15:04:19Z</time></trkpt><trkpt lat="39.595668049321915" lon="-3.963268806914518"><ele>877.0</ele><time>2026-04-09T15:04:20Z</time></trkpt><trkpt lat="39.595571706993226" lon="-3.9632615700395193"><ele>877.0</ele><time>2026-04-09T15:04:21Z</time></trkpt><trkpt lat="39.595478605589605" lon="-3.963252940686821"><ele>877.0</ele><time>2026-04-09T15:04:22Z</time></trkpt><trkpt lat="39.59537610661913" lon="-3.963243442034831"><ele>877.0</ele><time>2026-04-09T15:04:23Z</time></trkpt><trkpt lat="39.59528059608362" lon="-3.9632044788302894"><ele>877.0</ele><time>2026-04-09T15:04:24Z</time></trkpt><trkpt lat="39.595180827418666" lon="-3.96314800395318"><ele>877.0</ele><time>2026-04-09T15:04:25Z</time></trkpt><trkpt lat="39.59508394692" lon="-3.9630951323338444"><ele>877.6</ele><time>2026-04-09T15:04:26Z</time></trkpt><trkpt lat="39.594984986956334" lon="-3.963029952111307"><ele>878.2</ele><time>2026-04-09T15:04:27Z</time></trkpt><trkpt lat="39.594879214533364" lon="-3.962983184152475"><ele>878.8</ele><time>2026-04-09T15:04:28Z</time></trkpt><trkpt lat="39.59477436392118" lon="-3.9629622281526227"><ele>879.4</ele><time>2026-04-09T15:04:28.999Z</time></trkpt><trkpt lat="39.59467588329194" lon="-3.9629501089337027"><ele>880.0</ele><time>2026-04-09T15:04:29.999Z</time></trkpt><trkpt lat="39.59458621194599" lon="-3.9629391661799245"><ele>880.0</ele><time>2026-04-09T15:04:30.999Z</time></trkpt><trkpt lat="39.59451050079607" lon="-3.962925384925926"><ele>880.0</ele><time>2026-04-09T15:04:31.999Z</time></trkpt><trkpt lat="39.59439592925479" lon="-3.9628507464420806"><ele>880.0</ele><time>2026-04-09T15:04:33.999Z</time></trkpt><trkpt lat="39.59433002459627" lon="-3.9627817682884654"><ele>880.0</ele><time>2026-04-09T15:04:34.999Z</time></trkpt><trkpt lat="39.59426023762196" lon="-3.9626849860569533"><ele>880.0</ele><time>2026-04-09T15:04:35.999Z</time></trkpt><trkpt lat="39.59419209897701" lon="-3.962581654411176"><ele>880.4</ele><time>2026-04-09T15:04:36.999Z</time></trkpt><trkpt lat="39.59412570606555" lon="-3.9625314082294953"><ele>880.8</ele><time>2026-04-09T15:04:37.999Z</time></trkpt><trkpt lat="39.59404073622123" lon="-3.9625240919321243"><ele>881.2</ele><time>2026-04-09T15:04:39.999Z</time></trkpt><trkpt lat="39.593946367606755" lon="-3.9625219380200543"><ele>881.6</ele><time>2026-04-09T15:04:41.999Z</time></trkpt><trkpt lat="39.593857919755095" lon="-3.962488750889261"><ele>882.0</ele><time>2026-04-09T15:04:42.999Z</time></trkpt><trkpt lat="39.59375788777691" lon="-3.9624510432439117"><ele>884.5</ele><time>2026-04-09T15:04:43.999Z</time></trkpt><trkpt lat="39.593651209977544" lon="-3.962436136832267"><ele>887.0</ele><time>2026-04-09T15:04:44.999Z</time></trkpt><trkpt lat="39.59352808295989" lon="-3.9624348694082463"><ele>889.5</ele><time>2026-04-09T15:04:45.999Z</time></trkpt><trkpt lat="39.59339290780402" lon="-3.9624330406269497"><ele>892.0</ele><time>2026-04-09T15:04:46.999Z</time></trkpt><trkpt lat="39.5932598085735" lon="-3.9624593646365938"><ele>892.0</ele><time>2026-04-09T15:04:47.999Z</time></trkpt><trkpt lat="39.59311439106812" lon="-3.9625024035125245"><ele>892.0</ele><time>2026-04-09T15:04:48.999Z</time></trkpt><trkpt lat="39.592972694703334" lon="-3.9625358344811548"><ele>892.0</ele><time>2026-04-09T15:04:49.999Z</time></trkpt><trkpt lat="39.59284357891272" lon="-3.9625540369319476"><ele>892.0</ele><time>2026-04-09T15:04:50.999Z</time></trkpt><trkpt lat="39.59272652677356" lon="-3.962549116109194"><ele>893.5</ele><time>2026-04-09T15:04:51.999Z</time></trkpt><trkpt lat="39.592609865963084" lon="-3.9625317201837666"><ele>895.0</ele><time>2026-04-09T15:04:52.999Z</time></trkpt><trkpt lat="39.59247564870709" lon="-3.9625144061102717"><ele>896.5</ele><time>2026-04-09T15:04:53.999Z</time></trkpt><trkpt lat="39.592333366591234" lon="-3.962492541007151"><ele>898.0</ele><time>2026-04-09T15:04:54.999Z</time></trkpt><trkpt lat="39.592204083281366" lon="-3.9624603640473657"><ele>899.0</ele><time>2026-04-09T15:04:55.999Z</time></trkpt><trkpt lat="39.59207566236415" lon="-3.9624234969720065"><ele>900.0</ele><time>2026-04-09T15:04:56.999Z</time></trkpt><trkpt lat="39.59194467254247" lon="-3.962386298979709"><ele>901.0</ele><time>2026-04-09T15:04:57.999Z</time></trkpt><trkpt lat="39.591830355775286" lon="-3.9623427582525728"><ele>902.0</ele><time>2026-04-09T15:04:58.999Z</time></trkpt><trkpt lat="39.59174133442603" lon="-3.9622990467354438"><ele>903.2</ele><time>2026-04-09T15:04:59.999Z</time></trkpt><trkpt lat="39.59165379360658" lon="-3.9622558297177854"><ele>904.4000000000001</ele><time>2026-04-09T15:05:00.999Z</time></trkpt><trkpt lat="39.59156377768741" lon="-3.962208819038272"><ele>905.5999999999999</ele><time>2026-04-09T15:05:01.999Z</time></trkpt><trkpt lat="39.59149449908364" lon="-3.9621651266563016"><ele>906.8</ele><time>2026-04-09T15:05:02.999Z</time></trkpt><trkpt lat="39.591392098864965" lon="-3.9621357479246075"><ele>908.0</ele><time>2026-04-09T15:05:04.999Z</time></trkpt><trkpt lat="39.59132072651549" lon="-3.9620625551978708"><ele>908.0000000000001</ele><time>2026-04-09T15:06:18Z</time></trkpt><trkpt lat="39.59130172980256" lon="-3.9619814947504746"><ele>908.0</ele><time>2026-04-09T15:06:19Z</time></trkpt><trkpt lat="39.591296277363654" lon="-3.9618612298508338"><ele>908.0</ele><time>2026-04-09T15:06:20Z</time></trkpt><trkpt lat="39.59129437809037" lon="-3.961741928489347"><ele>908.0</ele><time>2026-04-09T15:06:21Z</time></trkpt><trkpt lat="39.59129376795703" lon="-3.961619893123549"><ele>908.0000000000001</ele><time>2026-04-09T15:06:22Z</time></trkpt><trkpt lat="39.59128319335244" lon="-3.961523280238203"><ele>908.0</ele><time>2026-04-09T15:06:23Z</time></trkpt><trkpt lat="39.59126902241483" lon="-3.961428970881099"><ele>907.8333333333334</ele><time>2026-04-09T15:06:24Z</time></trkpt><trkpt lat="39.59125271400785" lon="-3.961320805568563"><ele>907.6666666666667</ele><time>2026-04-09T15:06:25Z</time></trkpt><trkpt lat="39.591237074993344" lon="-3.961223632848536"><ele>907.5</ele><time>2026-04-09T15:06:26Z</time></trkpt><trkpt lat="39.591225731547524" lon="-3.9611328800037384"><ele>907.3333333333333</ele><time>2026-04-09T15:06:27Z</time></trkpt><trkpt lat="39.59121332551534" lon="-3.961042154362397"><ele>907.1666666666666</ele><time>2026-04-09T15:06:28Z</time></trkpt><trkpt lat="39.5911962837992" lon="-3.9609304289996725"><ele>907.0</ele><time>2026-04-09T15:06:29Z</time></trkpt><trkpt lat="39.59118750049577" lon="-3.9607981334712874"><ele>905.5</ele><time>2026-04-09T15:06:30Z</time></trkpt><trkpt lat="39.59118946546726" lon="-3.960644469061382"><ele>904.0</ele><time>2026-04-09T15:06:31Z</time></trkpt><trkpt lat="39.59119370841346" lon="-3.960496316572416"><ele>902.5</ele><time>2026-04-09T15:06:32Z</time></trkpt><trkpt lat="39.59118928394899" lon="-3.960355628285709"><ele>901.0</ele><time>2026-04-09T15:06:33Z</time></trkpt><trkpt lat="39.59118394425744" lon="-3.960214162134229"><ele>901.0</ele><time>2026-04-09T15:06:34Z</time></trkpt><trkpt lat="39.59118242225652" lon="-3.960050742019306"><ele>901.0</ele><time>2026-04-09T15:06:35Z</time></trkpt><trkpt lat="39.591177770409594" lon="-3.959867234712861"><ele>901.0</ele><time>2026-04-09T15:06:35.999Z</time></trkpt><trkpt lat="39.591170127733754" lon="-3.9596807652950923"><ele>901.0</ele><time>2026-04-09T15:06:36.999Z</time></trkpt><trkpt lat="39.59116335099052" lon="-3.9594880445427503"><ele>903.5</ele><time>2026-04-09T15:06:37.999Z</time></trkpt><trkpt lat="39.591158336717584" lon="-3.959303681773317"><ele>906.0</ele><time>2026-04-09T15:06:38.999Z</time></trkpt><trkpt lat="39.591155251529436" lon="-3.9591424247664775"><ele>908.5</ele><time>2026-04-09T15:06:39.999Z</time></trkpt><trkpt lat="39.591152454165005" lon="-3.9590020563307493"><ele>911.0</ele><time>2026-04-09T15:06:40.999Z</time></trkpt><trkpt lat="39.59113791172515" lon="-3.9588305073869634"><ele>912.6666666666667</ele><time>2026-04-09T15:06:41.999Z</time></trkpt><trkpt lat="39.59111682967578" lon="-3.9586252223653045"><ele>914.3333333333333</ele><time>2026-04-09T15:06:42.999Z</time></trkpt><trkpt lat="39.591088107765025" lon="-3.95842967555434"><ele>916.0</ele><time>2026-04-09T15:06:43.999Z</time></trkpt><trkpt lat="39.59107822202169" lon="-3.9582373040358156"><ele>916.25</ele><time>2026-04-09T15:06:44.999Z</time></trkpt><trkpt lat="39.5910640662969" lon="-3.9580677035052108"><ele>916.5</ele><time>2026-04-09T15:06:45.999Z</time></trkpt><trkpt lat="39.59106298618852" lon="-3.9579028975462833"><ele>916.75</ele><time>2026-04-09T15:06:46.999Z</time></trkpt><trkpt lat="39.59106677854166" lon="-3.957719905004656"><ele>917.0</ele><time>2026-04-09T15:06:47.999Z</time></trkpt><trkpt lat="39.59105382698149" lon="-3.9575334144973393"><ele>917.75</ele><time>2026-04-09T15:06:48.999Z</time></trkpt><trkpt lat="39.591039479399434" lon="-3.95735114170335"><ele>918.5</ele><time>2026-04-09T15:06:49.999Z</time></trkpt><trkpt lat="39.591028510322715" lon="-3.9571749044178453"><ele>919.25</ele><time>2026-04-09T15:06:50.999Z</time></trkpt><trkpt lat="39.591007982328236" lon="-3.95700941129879"><ele>920.0</ele><time>2026-04-09T15:06:51.999Z</time></trkpt><trkpt lat="39.590979999615676" lon="-3.9568479045272777"><ele>920.0</ele><time>2026-04-09T15:06:52.999Z</time></trkpt><trkpt lat="39.5909601363874" lon="-3.9567021623336323"><ele>920.0</ele><time>2026-04-09T15:06:53.999Z</time></trkpt><trkpt lat="39.59094928216164" lon="-3.956528145728348"><ele>920.0</ele><time>2026-04-09T15:06:54.999Z</time></trkpt><trkpt lat="39.59094829084518" lon="-3.956324851715893"><ele>920.0</ele><time>2026-04-09T15:06:55.999Z</time></trkpt><trkpt lat="39.590947352396384" lon="-3.956129015690191"><ele>920.0</ele><time>2026-04-09T15:06:56.999Z</time></trkpt><trkpt lat="39.590950525399506" lon="-3.955935506425489"><ele>920.0</ele><time>2026-04-09T15:06:57.999Z</time></trkpt><trkpt lat="39.59096450945664" lon="-3.9557584620338377"><ele>920.0</ele><time>2026-04-09T15:06:58.999Z</time></trkpt><trkpt lat="39.590981614714295" lon="-3.955580625516497"><ele>920.0</ele><time>2026-04-09T15:06:59.999Z</time></trkpt><trkpt lat="39.591006065586285" lon="-3.9553711000576186"><ele>918.6666666666667</ele><time>2026-04-09T15:07:00.999Z</time></trkpt><trkpt lat="39.59102312582905" lon="-3.955155307462728"><ele>917.3333333333333</ele><time>2026-04-09T15:07:01.999Z</time></trkpt><trkpt lat="39.591039416803454" lon="-3.954934573179089"><ele>916.0</ele><time>2026-04-09T15:07:02.999Z</time></trkpt><trkpt lat="39.59106458774965" lon="-3.9547148016485973"><ele>913.3333333333333</ele><time>2026-04-09T15:07:03.999Z</time></trkpt><trkpt lat="39.5911004203254" lon="-3.954503273780085"><ele>910.6666666666667</ele><time>2026-04-09T15:07:04.999Z</time></trkpt><trkpt lat="39.591140329981435" lon="-3.954307839483394"><ele>908.0</ele><time>2026-04-09T15:07:05.999Z</time></trkpt><trkpt lat="39.59117652224068" lon="-3.9541285184694246"><ele>903.5</ele><time>2026-04-09T15:07:06.999Z</time></trkpt><trkpt lat="39.59120493691234" lon="-3.953966863333797"><ele>899.0</ele><time>2026-04-09T15:07:07.999Z</time></trkpt><trkpt lat="39.59123535779953" lon="-3.9538179894301324"><ele>894.5</ele><time>2026-04-09T15:07:08.999Z</time></trkpt><trkpt lat="39.591267991601995" lon="-3.953651210769856"><ele>890.0</ele><time>2026-04-09T15:07:09.999Z</time></trkpt><trkpt lat="39.59130425922558" lon="-3.9534856631234843"><ele>891.25</ele><time>2026-04-09T15:07:10.999Z</time></trkpt><trkpt lat="39.59133500267977" lon="-3.953348791885"><ele>892.5</ele><time>2026-04-09T15:07:11.999Z</time></trkpt><trkpt lat="39.591361977116534" lon="-3.953228244481589"><ele>893.75</ele><time>2026-04-09T15:07:12.999Z</time></trkpt><trkpt lat="39.59140161293589" lon="-3.95308895216871"><ele>895.0</ele><time>2026-04-09T15:07:13.999Z</time></trkpt><trkpt lat="39.59144326964855" lon="-3.952926718446119"><ele>895.0</ele><time>2026-04-09T15:07:14.999Z</time></trkpt><trkpt lat="39.591485241808634" lon="-3.9527764847030036"><ele>895.0</ele><time>2026-04-09T15:07:15.999Z</time></trkpt><trkpt lat="39.59151734019655" lon="-3.9526303981350974"><ele>895.0</ele><time>2026-04-09T15:07:16.999Z</time></trkpt><trkpt lat="39.59154726729761" lon="-3.9524793734118298"><ele>895.0</ele><time>2026-04-09T15:07:17.999Z</time></trkpt><trkpt lat="39.59159656016916" lon="-3.952337040383097"><ele>898.0</ele><time>2026-04-09T15:07:18.999Z</time></trkpt><trkpt lat="39.59164605914242" lon="-3.9521927489658855"><ele>901.0</ele><time>2026-04-09T15:07:19.998Z</time></trkpt><trkpt lat="39.59168859269188" lon="-3.952067913312701"><ele>904.0</ele><time>2026-04-09T15:07:20.998Z</time></trkpt><trkpt lat="39.59171588529409" lon="-3.9519520387798397"><ele>907.0</ele><time>2026-04-09T15:07:21.998Z</time></trkpt><trkpt lat="39.59174167480028" lon="-3.9518188193736106"><ele>910.0</ele><time>2026-04-09T15:07:22.998Z</time></trkpt><trkpt lat="39.591767429256805" lon="-3.9516771104394794"><ele>912.4</ele><time>2026-04-09T15:07:23.998Z</time></trkpt><trkpt lat="39.59178112962056" lon="-3.9515253858684884"><ele>914.8</ele><time>2026-04-09T15:07:24.998Z</time></trkpt><trkpt lat="39.59180049196199" lon="-3.951368893993779"><ele>917.2</ele><time>2026-04-09T15:07:25.998Z</time></trkpt><trkpt lat="39.59183537892453" lon="-3.951246795865395"><ele>919.6</ele><time>2026-04-09T15:07:26.998Z</time></trkpt><trkpt lat="39.591863819695575" lon="-3.9511539466265453"><ele>922.0</ele><time>2026-04-09T15:07:27.998Z</time></trkpt><trkpt lat="39.59186843293844" lon="-3.951047938392828"><ele>922.0</ele><time>2026-04-09T15:07:28.998Z</time></trkpt><trkpt lat="39.591870975140324" lon="-3.950917629719687"><ele>922.0</ele><time>2026-04-09T15:07:29.998Z</time></trkpt><trkpt lat="39.59188310024344" lon="-3.9507823281381897"><ele>922.0</ele><time>2026-04-09T15:07:30.998Z</time></trkpt><trkpt lat="39.59189874948249" lon="-3.9506295015638115"><ele>922.0</ele><time>2026-04-09T15:07:31.998Z</time></trkpt><trkpt lat="39.59190730200964" lon="-3.950479658985625"><ele>922.0</ele><time>2026-04-09T15:07:32.998Z</time></trkpt><trkpt lat="39.5919120930647" lon="-3.9503359963881692"><ele>923.6</ele><time>2026-04-09T15:07:33.998Z</time></trkpt><trkpt lat="39.59191855845662" lon="-3.9502029998431847"><ele>925.2</ele><time>2026-04-09T15:07:34.998Z</time></trkpt><trkpt lat="39.59192542015066" lon="-3.950066782857442"><ele>926.8</ele><time>2026-04-09T15:07:35.998Z</time></trkpt><trkpt lat="39.59193396164165" lon="-3.949932201787348"><ele>928.4</ele><time>2026-04-09T15:07:36.998Z</time></trkpt><trkpt lat="39.59194583462975" lon="-3.9498173298473325"><ele>930.0</ele><time>2026-04-09T15:07:37.998Z</time></trkpt><trkpt lat="39.59195529246792" lon="-3.9496880117383735"><ele>930.25</ele><time>2026-04-09T15:07:38.998Z</time></trkpt><trkpt lat="39.59196398264321" lon="-3.9495359537742067"><ele>930.5</ele><time>2026-04-09T15:07:39.998Z</time></trkpt><trkpt lat="39.59197253798414" lon="-3.9493724750423627"><ele>930.75</ele><time>2026-04-09T15:07:40.998Z</time></trkpt><trkpt lat="39.59197499062503" lon="-3.949214376797385"><ele>931.0</ele><time>2026-04-09T15:07:41.998Z</time></trkpt><trkpt lat="39.59197035387028" lon="-3.9490729138960945"><ele>929.75</ele><time>2026-04-09T15:07:42.998Z</time></trkpt><trkpt lat="39.591963598706904" lon="-3.9489277267676566"><ele>928.5</ele><time>2026-04-09T15:07:43.998Z</time></trkpt><trkpt lat="39.59195722302979" lon="-3.948769586760822"><ele>927.25</ele><time>2026-04-09T15:07:44.998Z</time></trkpt><trkpt lat="39.59195223520916" lon="-3.9486122807098516"><ele>926.0</ele><time>2026-04-09T15:07:45.998Z</time></trkpt><trkpt lat="39.59194103690552" lon="-3.9484593104392895"><ele>925.0</ele><time>2026-04-09T15:07:46.998Z</time></trkpt><trkpt lat="39.59192256369334" lon="-3.9483018185949312"><ele>924.0</ele><time>2026-04-09T15:07:47.998Z</time></trkpt><trkpt lat="39.591902755382506" lon="-3.9481448780468202"><ele>923.0</ele><time>2026-04-09T15:07:48.998Z</time></trkpt><trkpt lat="39.591881784101304" lon="-3.947993701492799"><ele>922.0</ele><time>2026-04-09T15:07:49.998Z</time></trkpt><trkpt lat="39.59186016277462" lon="-3.9478557675894796"><ele>921.9999999999999</ele><time>2026-04-09T15:07:50.998Z</time></trkpt><trkpt lat="39.591837263958766" lon="-3.9477101206603415"><ele>922.0</ele><time>2026-04-09T15:07:51.998Z</time></trkpt><trkpt lat="39.59182243127586" lon="-3.9475797986292296"><ele>922.0</ele><time>2026-04-09T15:07:52.998Z</time></trkpt><trkpt lat="39.591813711242374" lon="-3.9474751424878614"><ele>922.0</ele><time>2026-04-09T15:07:53.998Z</time></trkpt><trkpt lat="39.591807367299225" lon="-3.9473883410463997"><ele>921.9999999999999</ele><time>2026-04-09T15:07:54.998Z</time></trkpt><trkpt lat="39.591798123538176" lon="-3.9472943021528346"><ele>922.0</ele><time>2026-04-09T15:07:56.998Z</time></trkpt><trkpt lat="39.591785763928264" lon="-3.9471410231130717"><ele>921.6666666666666</ele><time>2026-04-09T15:08:21Z</time></trkpt><trkpt lat="39.59177811664081" lon="-3.9470400035047204"><ele>921.3333333333333</ele><time>2026-04-09T15:08:22Z</time></trkpt><trkpt lat="39.59177079677772" lon="-3.946929535116117"><ele>921.0</ele><time>2026-04-09T15:08:23Z</time></trkpt><trkpt lat="39.59176586146305" lon="-3.946833133512943"><ele>920.6666666666667</ele><time>2026-04-09T15:08:24Z</time></trkpt><trkpt lat="39.591759568682946" lon="-3.9467134629533236"><ele>920.3333333333334</ele><time>2026-04-09T15:08:25Z</time></trkpt><trkpt lat="39.591757124966" lon="-3.946596511508051"><ele>920.0</ele><time>2026-04-09T15:08:26Z</time></trkpt><trkpt lat="39.591750786136856" lon="-3.9464591752096916"><ele>918.2</ele><time>2026-04-09T15:08:27Z</time></trkpt><trkpt lat="39.591745260605606" lon="-3.946326560292687"><ele>916.4</ele><time>2026-04-09T15:08:28Z</time></trkpt><trkpt lat="39.591743814307414" lon="-3.9461901409025577"><ele>914.5999999999999</ele><time>2026-04-09T15:08:29Z</time></trkpt><trkpt lat="39.59173947487454" lon="-3.9460579145288017"><ele>912.8</ele><time>2026-04-09T15:08:30Z</time></trkpt><trkpt lat="39.59173812366254" lon="-3.9459294746600664"><ele>911.0</ele><time>2026-04-09T15:08:31Z</time></trkpt><trkpt lat="39.59173573061617" lon="-3.945784271773718"><ele>908.0</ele><time>2026-04-09T15:08:32Z</time></trkpt><trkpt lat="39.591731567189775" lon="-3.945633724170457"><ele>905.0</ele><time>2026-04-09T15:08:33Z</time></trkpt><trkpt lat="39.591730462885664" lon="-3.945485550628236"><ele>902.0</ele><time>2026-04-09T15:08:34Z</time></trkpt><trkpt lat="39.591731649799804" lon="-3.945350560864704"><ele>899.0</ele><time>2026-04-09T15:08:35Z</time></trkpt><trkpt lat="39.59173081408231" lon="-3.945197295691569"><ele>896.5</ele><time>2026-04-09T15:08:36Z</time></trkpt><trkpt lat="39.59172848209417" lon="-3.9450197635481903"><ele>894.0</ele><time>2026-04-09T15:08:37Z</time></trkpt><trkpt lat="39.59172001675156" lon="-3.944834769955433"><ele>891.5</ele><time>2026-04-09T15:08:38Z</time></trkpt><trkpt lat="39.59171564579294" lon="-3.9446532099309244"><ele>889.0</ele><time>2026-04-09T15:08:39Z</time></trkpt><trkpt lat="39.59171015059905" lon="-3.94448607377285"><ele>889.0</ele><time>2026-04-09T15:08:39.999Z</time></trkpt><trkpt lat="39.59170241427742" lon="-3.944314977329061"><ele>889.0</ele><time>2026-04-09T15:08:40.999Z</time></trkpt><trkpt lat="39.591694786255324" lon="-3.944140019267039"><ele>889.0</ele><time>2026-04-09T15:08:41.999Z</time></trkpt><trkpt lat="39.5916882485952" lon="-3.94395888598866"><ele>889.0</ele><time>2026-04-09T15:08:42.999Z</time></trkpt><trkpt lat="39.59168065689178" lon="-3.943775357609507"><ele>886.75</ele><time>2026-04-09T15:08:43.999Z</time></trkpt><trkpt lat="39.5916754033929" lon="-3.9435975178384273"><ele>884.5</ele><time>2026-04-09T15:08:44.999Z</time></trkpt><trkpt lat="39.59166770274399" lon="-3.9434347492092616"><ele>882.25</ele><time>2026-04-09T15:08:45.999Z</time></trkpt><trkpt lat="39.59166590154707" lon="-3.9432883818342668"><ele>880.0</ele><time>2026-04-09T15:08:46.999Z</time></trkpt><trkpt lat="39.59166661534129" lon="-3.9431585534388396"><ele>878.4999999999999</ele><time>2026-04-09T15:08:47.999Z</time></trkpt><trkpt lat="39.59166379125584" lon="-3.943035665746568"><ele>877.0</ele><time>2026-04-09T15:08:48.999Z</time></trkpt><trkpt lat="39.5916611013878" lon="-3.942916716801877"><ele>875.5</ele><time>2026-04-09T15:08:49.999Z</time></trkpt><trkpt lat="39.591660470767636" lon="-3.9427956641494797"><ele>874.0</ele><time>2026-04-09T15:08:50.999Z</time></trkpt><trkpt lat="39.591658955590276" lon="-3.942689351542389"><ele>872.4999999999999</ele><time>2026-04-09T15:08:51.999Z</time></trkpt><trkpt lat="39.59165406337368" lon="-3.94260026592639"><ele>871.0</ele><time>2026-04-09T15:08:52.999Z</time></trkpt><trkpt lat="39.591621370415666" lon="-3.942460098620921"><ele>869.9999999999999</ele><time>2026-04-09T15:08:54.999Z</time></trkpt><trkpt lat="39.5915715155033" lon="-3.9423534337677277"><ele>869.0</ele><time>2026-04-09T15:08:56.999Z</time></trkpt><trkpt lat="39.591501556897505" lon="-3.9423520868164004"><ele>868.0</ele><time>2026-04-09T15:09:03.999Z</time></trkpt><trkpt lat="39.59144251766009" lon="-3.9423859392426754"><ele>867.0</ele><time>2026-04-09T15:09:08.999Z</time></trkpt><trkpt lat="39.591376934834535" lon="-3.942318047886877"><ele>865.9999999999999</ele><time>2026-04-09T15:09:10.999Z</time></trkpt><trkpt lat="39.59133160361457" lon="-3.942244153861756"><ele>865.0</ele><time>2026-04-09T15:09:11.999Z</time></trkpt><trkpt lat="39.59126903158937" lon="-3.9421570584081818"><ele>865.0</ele><time>2026-04-09T15:09:13.999Z</time></trkpt><trkpt lat="39.59120191161325" lon="-3.9420891570978194"><ele>865.0</ele><time>2026-04-09T15:10:41Z</time></trkpt><trkpt lat="39.5911474420311" lon="-3.941982751717263"><ele>865.0</ele><time>2026-04-09T15:10:43Z</time></trkpt><trkpt lat="39.59108342807236" lon="-3.941892183666504"><ele>865.0</ele><time>2026-04-09T15:10:45Z</time></trkpt><trkpt lat="39.5910122618592" lon="-3.941798694205737"><ele>865.0</ele><time>2026-04-09T15:10:46.999Z</time></trkpt><trkpt lat="39.59095763450407" lon="-3.941694554498547"><ele>866.6666666666666</ele><time>2026-04-09T15:10:48.999Z</time></trkpt><trkpt lat="39.59093097590821" lon="-3.9415826244630345"><ele>868.3333333333333</ele><time>2026-04-09T15:10:50.999Z</time></trkpt><trkpt lat="39.59085227291086" lon="-3.941562935356888"><ele>870.0</ele><time>2026-04-09T15:10:52.999Z</time></trkpt><trkpt lat="39.590776689085516" lon="-3.9415279381035755"><ele>871.6666666666667</ele><time>2026-04-09T15:10:54.999Z</time></trkpt><trkpt lat="39.59071958183524" lon="-3.941474513618972"><ele>873.3333333333334</ele><time>2026-04-09T15:10:57.999Z</time></trkpt><trkpt lat="39.59064582838129" lon="-3.941466645491957"><ele>875.0</ele><time>2026-04-09T15:10:59.999Z</time></trkpt><trkpt lat="39.5906490860957" lon="-3.941366784665649"><ele>875.0</ele><time>2026-04-09T15:11:11.999Z</time></trkpt><trkpt lat="39.59068994161153" lon="-3.9412970235847014"><ele>875.0</ele><time>2026-04-09T15:11:16.999Z</time></trkpt><trkpt lat="39.59068804796877" lon="-3.9412084116516297"><ele>875.0</ele><time>2026-04-09T15:11:20.999Z</time></trkpt><trkpt lat="39.59065530324979" lon="-3.9411186574428987"><ele>875.0</ele><time>2026-04-09T15:11:24.999Z</time></trkpt><trkpt lat="39.59066997179433" lon="-3.9410024466357365"><ele>875.0</ele><time>2026-04-09T15:11:28.999Z</time></trkpt><trkpt lat="39.59064890789496" lon="-3.940910771049311"><ele>875.0</ele><time>2026-04-09T15:11:31.998Z</time></trkpt><trkpt lat="39.59065099047618" lon="-3.9408210976683655"><ele>875.0</ele><time>2026-04-09T15:11:38.998Z</time></trkpt><trkpt lat="39.59062268617453" lon="-3.9407292073038285"><ele>877.5714285714286</ele><time>2026-04-09T15:11:40.998Z</time></trkpt><trkpt lat="39.59065144110774" lon="-3.9406506626983364"><ele>880.1428571428571</ele><time>2026-04-09T15:11:43.998Z</time></trkpt><trkpt lat="39.59067067129257" lon="-3.9405562398638696"><ele>882.7142857142858</ele><time>2026-04-09T15:11:51.998Z</time></trkpt><trkpt lat="39.59069282400538" lon="-3.9404684898810043"><ele>885.2857142857142</ele><time>2026-04-09T15:11:57.998Z</time></trkpt><trkpt lat="39.59068508968818" lon="-3.9403873930517492"><ele>887.8571428571429</ele><time>2026-04-09T15:12:19Z</time></trkpt><trkpt lat="39.59068562370365" lon="-3.9402639161398203"><ele>890.4285714285714</ele><time>2026-04-09T15:12:32Z</time></trkpt><trkpt lat="39.590707089400816" lon="-3.940171381597142"><ele>893.0</ele><time>2026-04-09T15:12:35Z</time></trkpt><trkpt lat="39.590716938887255" lon="-3.9400579037053296"><ele>895.2857142857143</ele><time>2026-04-09T15:12:38Z</time></trkpt><trkpt lat="39.590737513492044" lon="-3.9399704149500594"><ele>897.5714285714287</ele><time>2026-04-09T15:12:51Z</time></trkpt><trkpt lat="39.59077248708918" lon="-3.9398974279750685"><ele>899.8571428571429</ele><time>2026-04-09T15:15:38.999Z</time></trkpt><trkpt lat="39.59075868733713" lon="-3.9398039713549537"><ele>902.1428571428571</ele><time>2026-04-09T15:15:42.999Z</time></trkpt><trkpt lat="39.590745076345264" lon="-3.9397126337629955"><ele>904.4285714285714</ele><time>2026-04-09T15:15:46.998Z</time></trkpt><trkpt lat="39.59071757940696" lon="-3.93963674383485"><ele>906.7142857142857</ele><time>2026-04-09T15:15:50.998Z</time></trkpt><trkpt lat="39.59071647451348" lon="-3.939546793118388"><ele>909.0</ele><time>2026-04-09T15:16:02.998Z</time></trkpt><trkpt lat="39.590768521773974" lon="-3.9394444667167097"><ele>909.0</ele><time>2026-04-09T15:16:06.998Z</time></trkpt><trkpt lat="39.59082038939144" lon="-3.939378159735719"><ele>909.0</ele><time>2026-04-09T15:16:10.998Z</time></trkpt><trkpt lat="39.590839946517214" lon="-3.9392955779252863"><ele>909.0</ele><time>2026-04-09T15:16:13.998Z</time></trkpt><trkpt lat="39.590843697726555" lon="-3.9392068301685486"><ele>909.0</ele><time>2026-04-09T15:16:18.998Z</time></trkpt><trkpt lat="39.590823180459964" lon="-3.9391230434321534"><ele>909.0</ele><time>2026-04-09T15:16:34Z</time></trkpt><trkpt lat="39.590881084395754" lon="-3.939045655248523"><ele>909.0</ele><time>2026-04-09T15:16:37Z</time></trkpt><trkpt lat="39.59088468655054" lon="-3.9389301014017795"><ele>909.0</ele><time>2026-04-09T15:16:44Z</time></trkpt><trkpt lat="39.59091827629872" lon="-3.9388498829630954"><ele>911.8333333333334</ele><time>2026-04-09T15:16:46Z</time></trkpt><trkpt lat="39.59094048539171" lon="-3.9387368996629246"><ele>914.6666666666667</ele><time>2026-04-09T15:17:34.999Z</time></trkpt><trkpt lat="39.590999878283085" lon="-3.9386938639804545"><ele>917.5</ele><time>2026-04-09T15:17:41.999Z</time></trkpt><trkpt lat="39.59108645133286" lon="-3.938682776870305"><ele>920.3333333333334</ele><time>2026-04-09T15:17:45.999Z</time></trkpt><trkpt lat="39.591109715087285" lon="-3.9385727208237853"><ele>923.1666666666667</ele><time>2026-04-09T15:17:53.998Z</time></trkpt><trkpt lat="39.591121943190146" lon="-3.9384716541427283"><ele>926.0</ele><time>2026-04-09T15:17:55.998Z</time></trkpt><trkpt lat="39.59114979301715" lon="-3.938395459362511"><ele>926.5714285714286</ele><time>2026-04-09T15:18:21.998Z</time></trkpt><trkpt lat="39.59119338020022" lon="-3.9383267573246092"><ele>927.1428571428571</ele><time>2026-04-09T15:18:24.998Z</time></trkpt><trkpt lat="39.591213925875394" lon="-3.938226985096832"><ele>927.7142857142857</ele><time>2026-04-09T15:18:30.998Z</time></trkpt><trkpt lat="39.59118141023963" lon="-3.938132111248584"><ele>928.2857142857142</ele><time>2026-04-09T15:18:36Z</time></trkpt><trkpt lat="39.59121667822951" lon="-3.9380389989665927"><ele>928.8571428571429</ele><time>2026-04-09T15:18:39Z</time></trkpt><trkpt lat="39.591183192186584" lon="-3.9379560223559715"><ele>929.4285714285713</ele><time>2026-04-09T15:18:43Z</time></trkpt><trkpt lat="39.59120357311603" lon="-3.9378714534046897"><ele>930.0</ele><time>2026-04-09T15:18:46Z</time></trkpt><trkpt lat="39.591223517127496" lon="-3.9377813880743133"><ele>930.0</ele><time>2026-04-09T15:18:53Z</time></trkpt><trkpt lat="39.5912350406741" lon="-3.937695976386792"><ele>930.0</ele><time>2026-04-09T15:18:56Z</time></trkpt><trkpt lat="39.59119831104765" lon="-3.9376024908691147"><ele>930.0</ele><time>2026-04-09T15:18:59Z</time></trkpt><trkpt lat="39.5911908958972" lon="-3.937469000628597"><ele>930.0</ele><time>2026-04-09T15:19:01Z</time></trkpt><trkpt lat="39.591185213713345" lon="-3.937377572795151"><ele>930.0</ele><time>2026-04-09T15:19:02Z</time></trkpt><trkpt lat="39.59116112096386" lon="-3.93726722439826"><ele>930.0</ele><time>2026-04-09T15:19:05Z</time></trkpt><trkpt lat="39.591121169913265" lon="-3.937180796203407"><ele>932.0</ele><time>2026-04-09T15:20:53Z</time></trkpt><trkpt lat="39.59105861427252" lon="-3.9371038010261654"><ele>934.0</ele><time>2026-04-09T15:20:56Z</time></trkpt><trkpt lat="39.5910128018621" lon="-3.9370000563430847"><ele>936.0</ele><time>2026-04-09T15:20:59Z</time></trkpt><trkpt lat="39.59098679142278" lon="-3.9369180320006563"><ele>938.0</ele><time>2026-04-09T15:21:01Z</time></trkpt><trkpt lat="39.59090701325689" lon="-3.9368951413475726"><ele>940.0</ele><time>2026-04-09T15:21:05Z</time></trkpt><trkpt lat="39.590864439922655" lon="-3.9369616013321878"><ele>942.0</ele><time>2026-04-09T15:21:07Z</time></trkpt><trkpt lat="39.59081491296638" lon="-3.937054596551668"><ele>942.0</ele><time>2026-04-09T15:21:10Z</time></trkpt><trkpt lat="39.590745323071104" lon="-3.9370152164196366"><ele>942.0</ele><time>2026-04-09T15:21:13Z</time></trkpt><trkpt lat="39.59074959154918" lon="-3.9369256003923727"><ele>942.0</ele><time>2026-04-09T15:21:15Z</time></trkpt><trkpt lat="39.590760579788316" lon="-3.9367781926771865"><ele>942.0</ele><time>2026-04-09T15:21:17Z</time></trkpt><trkpt lat="39.59075889389084" lon="-3.9366620262177965"><ele>942.0</ele><time>2026-04-09T15:21:18.999Z</time></trkpt><trkpt lat="39.590759498709936" lon="-3.936541173324245"><ele>942.0</ele><time>2026-04-09T15:21:20.999Z</time></trkpt><trkpt lat="39.590761530903094" lon="-3.936435977329652"><ele>941.1666666666666</ele><time>2026-04-09T15:21:22.999Z</time></trkpt><trkpt lat="39.59075897965499" lon="-3.936349592678022"><ele>940.3333333333333</ele><time>2026-04-09T15:21:23.999Z</time></trkpt><trkpt lat="39.59075976785029" lon="-3.936250810039912"><ele>939.5</ele><time>2026-04-09T15:21:24.999Z</time></trkpt><trkpt lat="39.590762779925534" lon="-3.936157000287255"><ele>938.6666666666666</ele><time>2026-04-09T15:21:25.999Z</time></trkpt><trkpt lat="39.59076751959514" lon="-3.9360114764185448"><ele>937.8333333333333</ele><time>2026-04-09T15:21:27.999Z</time></trkpt><trkpt lat="39.590757986263924" lon="-3.9358980180797967"><ele>937.0</ele><time>2026-04-09T15:21:29.999Z</time></trkpt><trkpt lat="39.59075542051516" lon="-3.935780973756267"><ele>935.1666666666666</ele><time>2026-04-09T15:21:31.999Z</time></trkpt><trkpt lat="39.59075408815809" lon="-3.935656792647234"><ele>933.3333333333333</ele><time>2026-04-09T15:21:33.999Z</time></trkpt><trkpt lat="39.59071346980728" lon="-3.935590337803307"><ele>931.5</ele><time>2026-04-09T15:21:35.999Z</time></trkpt><trkpt lat="39.59064093872128" lon="-3.9356276650259185"><ele>929.6666666666667</ele><time>2026-04-09T15:21:37.999Z</time></trkpt><trkpt lat="39.59053301208384" lon="-3.9356820333667923"><ele>927.8333333333334</ele><time>2026-04-09T15:21:39.999Z</time></trkpt><trkpt lat="39.5904689896486" lon="-3.9357516816935125"><ele>926.0</ele><time>2026-04-09T15:21:40.999Z</time></trkpt><trkpt lat="39.590411636621404" lon="-3.9358045739419105"><ele>924.3333333333334</ele><time>2026-04-09T15:21:41.999Z</time></trkpt><trkpt lat="39.59030920250311" lon="-3.935908268815431"><ele>922.6666666666667</ele><time>2026-04-09T15:21:43.999Z</time></trkpt><trkpt lat="39.590254685062604" lon="-3.935978350996143"><ele>921.0</ele><time>2026-04-09T15:21:44.999Z</time></trkpt><trkpt lat="39.590198479993695" lon="-3.936054722181653"><ele>919.3333333333333</ele><time>2026-04-09T15:21:45.999Z</time></trkpt><trkpt lat="39.590145144499616" lon="-3.9361272626860857"><ele>917.6666666666666</ele><time>2026-04-09T15:21:46.999Z</time></trkpt><trkpt lat="39.59009547543445" lon="-3.9361927338353353"><ele>916.0</ele><time>2026-04-09T15:21:47.999Z</time></trkpt><trkpt lat="39.59004755904941" lon="-3.9362569225422415"><ele>915.9999999999999</ele><time>2026-04-09T15:21:48.999Z</time></trkpt><trkpt lat="39.589985915590866" lon="-3.936325604800556"><ele>916.0</ele><time>2026-04-09T15:21:49.999Z</time></trkpt><trkpt lat="39.58992406819691" lon="-3.9363823983928903"><ele>916.0</ele><time>2026-04-09T15:21:50.999Z</time></trkpt><trkpt lat="39.58987093199211" lon="-3.936433801736665"><ele>916.0</ele><time>2026-04-09T15:21:51.999Z</time></trkpt><trkpt lat="39.58981614691338" lon="-3.936497871287908"><ele>915.9999999999999</ele><time>2026-04-09T15:21:52.999Z</time></trkpt><trkpt lat="39.589756245639634" lon="-3.9365681041660636"><ele>916.0</ele><time>2026-04-09T15:21:53.999Z</time></trkpt><trkpt lat="39.58970203420457" lon="-3.9366323260287337"><ele>915.9999999999999</ele><time>2026-04-09T15:21:54.999Z</time></trkpt><trkpt lat="39.58965123867137" lon="-3.9366892072888"><ele>916.0</ele><time>2026-04-09T15:21:55.999Z</time></trkpt><trkpt lat="39.58959294635452" lon="-3.9367471356651467"><ele>916.0</ele><time>2026-04-09T15:21:56.999Z</time></trkpt><trkpt lat="39.589530181472185" lon="-3.936821464466209"><ele>916.0</ele><time>2026-04-09T15:21:57.999Z</time></trkpt><trkpt lat="39.5894776009846" lon="-3.9368922019675843"><ele>915.9999999999999</ele><time>2026-04-09T15:21:58.999Z</time></trkpt><trkpt lat="39.589424715316596" lon="-3.9369713024353103"><ele>916.0</ele><time>2026-04-09T15:21:59.999Z</time></trkpt><trkpt lat="39.58936708170295" lon="-3.93705171171258"><ele>913.4999999999999</ele><time>2026-04-09T15:22:00.999Z</time></trkpt><trkpt lat="39.58931835910923" lon="-3.9371257906989143"><ele>911.0</ele><time>2026-04-09T15:22:01.998Z</time></trkpt><trkpt lat="39.58926673135782" lon="-3.9371819148772436"><ele>908.5</ele><time>2026-04-09T15:22:02.998Z</time></trkpt><trkpt lat="39.58920350957728" lon="-3.937225496631805"><ele>906.0</ele><time>2026-04-09T15:22:03.998Z</time></trkpt><trkpt lat="39.589129222572865" lon="-3.9372699451716877"><ele>903.4999999999999</ele><time>2026-04-09T15:22:04.998Z</time></trkpt><trkpt lat="39.58904853030831" lon="-3.937329930983349"><ele>901.0</ele><time>2026-04-09T15:22:05.998Z</time></trkpt><trkpt lat="39.58898259773136" lon="-3.9373996983340795"><ele>900.9999999999999</ele><time>2026-04-09T15:22:06.998Z</time></trkpt><trkpt lat="39.588935771185" lon="-3.93747363655792"><ele>901.0</ele><time>2026-04-09T15:22:07.998Z</time></trkpt><trkpt lat="39.58888296014467" lon="-3.937521215324283"><ele>901.0</ele><time>2026-04-09T15:22:08.998Z</time></trkpt><trkpt lat="39.588799253717944" lon="-3.937546730003634"><ele>901.0</ele><time>2026-04-09T15:22:09.998Z</time></trkpt><trkpt lat="39.58870676343992" lon="-3.9375686205759544"><ele>900.9999999999999</ele><time>2026-04-09T15:22:10.998Z</time></trkpt><trkpt lat="39.588626010405115" lon="-3.937596725382336"><ele>901.0</ele><time>2026-04-09T15:22:11.998Z</time></trkpt><trkpt lat="39.58854968157992" lon="-3.9376573069511536"><ele>900.1666666666666</ele><time>2026-04-09T15:22:12.998Z</time></trkpt><trkpt lat="39.58846008682423" lon="-3.9377170927153653"><ele>899.3333333333333</ele><time>2026-04-09T15:22:13.998Z</time></trkpt><trkpt lat="39.58837234800652" lon="-3.937765410633157"><ele>898.5</ele><time>2026-04-09T15:22:14.998Z</time></trkpt><trkpt lat="39.588299392873374" lon="-3.9378099518386214"><ele>897.6666666666667</ele><time>2026-04-09T15:22:15.998Z</time></trkpt><trkpt lat="39.5882341973725" lon="-3.937846678660028"><ele>896.8333333333334</ele><time>2026-04-09T15:22:16.998Z</time></trkpt><trkpt lat="39.58816696516257" lon="-3.9378760060747218"><ele>896.0</ele><time>2026-04-09T15:22:18.998Z</time></trkpt><trkpt lat="39.58816260078399" lon="-3.9377123347071805"><ele>896.0000000000001</ele><time>2026-04-09T15:22:21.998Z</time></trkpt><trkpt lat="39.588187202745154" lon="-3.9375918056127883"><ele>896.0</ele><time>2026-04-09T15:22:22.998Z</time></trkpt><trkpt lat="39.58819084650173" lon="-3.9374916676864893"><ele>896.0</ele><time>2026-04-09T15:22:23.998Z</time></trkpt><trkpt lat="39.588171260958745" lon="-3.9373886369452036"><ele>896.0</ele><time>2026-04-09T15:22:24.998Z</time></trkpt><trkpt lat="39.588183568024085" lon="-3.937280023607731"><ele>896.0000000000001</ele><time>2026-04-09T15:22:25.998Z</time></trkpt><trkpt lat="39.588199178329695" lon="-3.9371652123323226"><ele>896.0</ele><time>2026-04-09T15:22:26.998Z</time></trkpt><trkpt lat="39.588230215920646" lon="-3.9370378126773815"><ele>895.8</ele><time>2026-04-09T15:22:27.998Z</time></trkpt><trkpt lat="39.588239340265595" lon="-3.936907237966149"><ele>895.5999999999999</ele><time>2026-04-09T15:22:28.998Z</time></trkpt><trkpt lat="39.58825896257044" lon="-3.9367822311128"><ele>895.4</ele><time>2026-04-09T15:22:29.998Z</time></trkpt><trkpt lat="39.58827920541968" lon="-3.9366532709685313"><ele>895.2</ele><time>2026-04-09T15:22:30.998Z</time></trkpt><trkpt lat="39.58830097346579" lon="-3.936518177888293"><ele>895.0</ele><time>2026-04-09T15:22:31.998Z</time></trkpt><trkpt lat="39.588339032267235" lon="-3.9363835702260057"><ele>894.25</ele><time>2026-04-09T15:22:32.998Z</time></trkpt><trkpt lat="39.58837172583327" lon="-3.9362473638070523"><ele>893.5</ele><time>2026-04-09T15:22:33.998Z</time></trkpt><trkpt lat="39.58840851670727" lon="-3.9360953389647575"><ele>892.75</ele><time>2026-04-09T15:22:34.998Z</time></trkpt><trkpt lat="39.588455345970914" lon="-3.9359507242908687"><ele>892.0</ele><time>2026-04-09T15:22:35.998Z</time></trkpt><trkpt lat="39.58849657819256" lon="-3.93581145537376"><ele>891.8</ele><time>2026-04-09T15:22:36.998Z</time></trkpt><trkpt lat="39.58853190157999" lon="-3.935683885430547"><ele>891.6</ele><time>2026-04-09T15:22:37.998Z</time></trkpt><trkpt lat="39.58854636403469" lon="-3.9355601527571755"><ele>891.3999999999999</ele><time>2026-04-09T15:22:38.998Z</time></trkpt><trkpt lat="39.58858722329907" lon="-3.935456722746733"><ele>891.1999999999999</ele><time>2026-04-09T15:22:39.998Z</time></trkpt><trkpt lat="39.588622622814114" lon="-3.9353318635843224"><ele>891.0</ele><time>2026-04-09T15:22:40.998Z</time></trkpt><trkpt lat="39.5886614583943" lon="-3.9351991233501717"><ele>890.5999999999999</ele><time>2026-04-09T15:22:41.998Z</time></trkpt><trkpt lat="39.58869144933399" lon="-3.93505466816931"><ele>890.1999999999999</ele><time>2026-04-09T15:22:42.998Z</time></trkpt><trkpt lat="39.588731566375536" lon="-3.9349295203995642"><ele>889.8000000000001</ele><time>2026-04-09T15:22:43.998Z</time></trkpt><trkpt lat="39.58878297554672" lon="-3.9348196969045572"><ele>889.4000000000001</ele><time>2026-04-09T15:22:44.998Z</time></trkpt><trkpt lat="39.58881663721425" lon="-3.9347089991121895"><ele>889.0</ele><time>2026-04-09T15:22:45.997Z</time></trkpt><trkpt lat="39.58884791230042" lon="-3.934604636380889"><ele>889.0</ele><time>2026-04-09T15:22:46.997Z</time></trkpt><trkpt lat="39.58887985330547" lon="-3.934506439277484"><ele>889.0</ele><time>2026-04-09T15:22:48Z</time></trkpt><trkpt lat="39.58891126578047" lon="-3.934422659571327"><ele>889.0</ele><time>2026-04-09T15:22:49Z</time></trkpt><trkpt lat="39.58894639724291" lon="-3.934340602818136"><ele>889.0</ele><time>2026-04-09T15:22:50Z</time></trkpt><trkpt lat="39.58896289327005" lon="-3.934256433611618"><ele>889.0</ele><time>2026-04-09T15:22:51Z</time></trkpt><trkpt lat="39.58899790703456" lon="-3.9341715786141593"><ele>889.0</ele><time>2026-04-09T15:22:52Z</time></trkpt><trkpt lat="39.589028410257654" lon="-3.9340976548085713"><ele>889.0</ele><time>2026-04-09T15:22:53Z</time></trkpt><trkpt lat="39.589067422495916" lon="-3.934009350502536"><ele>888.4000000000001</ele><time>2026-04-09T15:22:54Z</time></trkpt><trkpt lat="39.58912731789598" lon="-3.9338754583438034"><ele>887.8000000000001</ele><time>2026-04-09T15:22:56Z</time></trkpt><trkpt lat="39.58915544364504" lon="-3.9337961541064286"><ele>887.1999999999999</ele><time>2026-04-09T15:22:58Z</time></trkpt><trkpt lat="39.58919563704836" lon="-3.9337095043359267"><ele>886.5999999999999</ele><time>2026-04-09T15:23:01Z</time></trkpt><trkpt lat="39.589111811251115" lon="-3.933701424957379"><ele>886.0</ele><time>2026-04-09T15:23:18Z</time></trkpt><trkpt lat="39.589011723471216" lon="-3.933751704549263"><ele>886.0</ele><time>2026-04-09T15:23:20Z</time></trkpt><trkpt lat="39.58892343000551" lon="-3.9338384742460892"><ele>885.9999999999999</ele><time>2026-04-09T15:23:22Z</time></trkpt><trkpt lat="39.58883580101202" lon="-3.933945558324858"><ele>885.9999999999999</ele><time>2026-04-09T15:23:23.999Z</time></trkpt><trkpt lat="39.588743553780674" lon="-3.9339902554244257"><ele>886.0</ele><time>2026-04-09T15:23:25.999Z</time></trkpt><trkpt lat="39.58867910876834" lon="-3.933977464819119"><ele>886.0</ele><time>2026-04-09T15:23:26.999Z</time></trkpt><trkpt lat="39.58861448424938" lon="-3.933974219533952"><ele>886.1428571428571</ele><time>2026-04-09T15:23:27.999Z</time></trkpt><trkpt lat="39.588543015890046" lon="-3.933980143581394"><ele>886.2857142857143</ele><time>2026-04-09T15:23:28.999Z</time></trkpt><trkpt lat="39.58846734182101" lon="-3.933991247155933"><ele>886.4285714285713</ele><time>2026-04-09T15:23:29.999Z</time></trkpt><trkpt lat="39.588392393943" lon="-3.9340208849321523"><ele>886.5714285714286</ele><time>2026-04-09T15:23:30.999Z</time></trkpt><trkpt lat="39.58832728378019" lon="-3.9340421089410342"><ele>886.7142857142857</ele><time>2026-04-09T15:23:31.999Z</time></trkpt><trkpt lat="39.58825696107249" lon="-3.9340394211871956"><ele>886.8571428571428</ele><time>2026-04-09T15:23:32.999Z</time></trkpt><trkpt lat="39.58817658509487" lon="-3.9340268402524297"><ele>887.0</ele><time>2026-04-09T15:23:33.999Z</time></trkpt><trkpt lat="39.58810010376647" lon="-3.934004913607713"><ele>887.0000000000001</ele><time>2026-04-09T15:23:34.999Z</time></trkpt><trkpt lat="39.588028051294394" lon="-3.9339929993968386"><ele>887.0</ele><time>2026-04-09T15:23:35.999Z</time></trkpt><trkpt lat="39.58796470983107" lon="-3.9340040609266493"><ele>887.0</ele><time>2026-04-09T15:23:36.999Z</time></trkpt><trkpt lat="39.58786322523007" lon="-3.9339934877666627"><ele>887.0</ele><time>2026-04-09T15:23:38.999Z</time></trkpt><trkpt lat="39.587800315246014" lon="-3.933966989081339"><ele>887.0000000000001</ele><time>2026-04-09T15:23:39.999Z</time></trkpt><trkpt lat="39.587729943804455" lon="-3.9339478322975516"><ele>887.0</ele><time>2026-04-09T15:23:40.999Z</time></trkpt><trkpt lat="39.58763467057465" lon="-3.9339812012634505"><ele>887.8333333333334</ele><time>2026-04-09T15:23:42.999Z</time></trkpt><trkpt lat="39.58757015948666" lon="-3.9340783274740887"><ele>888.6666666666667</ele><time>2026-04-09T15:23:44.999Z</time></trkpt><trkpt lat="39.58746684159224" lon="-3.934116533613513"><ele>889.5</ele><time>2026-04-09T15:23:46.999Z</time></trkpt><trkpt lat="39.58740692750714" lon="-3.934142568159557"><ele>890.3333333333333</ele><time>2026-04-09T15:23:47.999Z</time></trkpt><trkpt lat="39.587330394032534" lon="-3.9341574602572944"><ele>891.1666666666666</ele><time>2026-04-09T15:23:48.999Z</time></trkpt><trkpt lat="39.587261318708386" lon="-3.934178398721231"><ele>892.0</ele><time>2026-04-09T15:23:49.999Z</time></trkpt><trkpt lat="39.587194565937374" lon="-3.934197740221134"><ele>892.8333333333333</ele><time>2026-04-09T15:23:50.999Z</time></trkpt><trkpt lat="39.58713626067053" lon="-3.9342722064262188"><ele>893.6666666666666</ele><time>2026-04-09T15:23:52.999Z</time></trkpt><trkpt lat="39.587051618696734" lon="-3.9342628061542846"><ele>894.5</ele><time>2026-04-09T15:23:54.999Z</time></trkpt><trkpt lat="39.58692989447238" lon="-3.9342761066001013"><ele>895.3333333333333</ele><time>2026-04-09T15:23:56.999Z</time></trkpt><trkpt lat="39.586853130289285" lon="-3.934283786873225"><ele>896.1666666666666</ele><time>2026-04-09T15:23:57.999Z</time></trkpt><trkpt lat="39.586780749874904" lon="-3.9342885040994457"><ele>897.0</ele><time>2026-04-09T15:23:58.999Z</time></trkpt><trkpt lat="39.58670467175918" lon="-3.934275276185964"><ele>898.3333333333334</ele><time>2026-04-09T15:23:59.999Z</time></trkpt><trkpt lat="39.586633421256295" lon="-3.9342837192897"><ele>899.6666666666667</ele><time>2026-04-09T15:24:00.999Z</time></trkpt><trkpt lat="39.58656776739546" lon="-3.934298525144634"><ele>901.0</ele><time>2026-04-09T15:24:01.999Z</time></trkpt><trkpt lat="39.586489019162286" lon="-3.9343045385653164"><ele>902.3333333333334</ele><time>2026-04-09T15:24:02.999Z</time></trkpt><trkpt lat="39.58640400328745" lon="-3.9343131981362025"><ele>903.6666666666667</ele><time>2026-04-09T15:24:03.999Z</time></trkpt><trkpt lat="39.58633394948864" lon="-3.9343211292450486"><ele>905.0</ele><time>2026-04-09T15:24:04.999Z</time></trkpt><trkpt lat="39.58623467083525" lon="-3.934282106487355"><ele>907.4</ele><time>2026-04-09T15:24:06.998Z</time></trkpt><trkpt lat="39.58611794672593" lon="-3.9342660753156724"><ele>909.8</ele><time>2026-04-09T15:24:08.998Z</time></trkpt><trkpt lat="39.58605020531461" lon="-3.934257376662821"><ele>912.2</ele><time>2026-04-09T15:24:09.998Z</time></trkpt><trkpt lat="39.58593863537452" lon="-3.9342456047816574"><ele>914.6</ele><time>2026-04-09T15:24:11.998Z</time></trkpt><trkpt lat="39.585831682947045" lon="-3.9342572073320246"><ele>917.0</ele><time>2026-04-09T15:24:13.998Z</time></trkpt><trkpt lat="39.58574249435195" lon="-3.934216360928251"><ele>917.0</ele><time>2026-04-09T15:24:15.998Z</time></trkpt><trkpt lat="39.585663934928306" lon="-3.9342284679749757"><ele>917.0</ele><time>2026-04-09T15:24:17.998Z</time></trkpt><trkpt lat="39.58560401091642" lon="-3.934179684000316"><ele>917.0</ele><time>2026-04-09T15:24:19.998Z</time></trkpt><trkpt lat="39.58560283788609" lon="-3.9340472058091875"><ele>917.0</ele><time>2026-04-09T15:24:21.998Z</time></trkpt><trkpt lat="39.5855679251703" lon="-3.9339232676638765"><ele>917.0</ele><time>2026-04-09T15:24:23.998Z</time></trkpt><trkpt lat="39.58548934965492" lon="-3.93382539180355"><ele>917.0000000000001</ele><time>2026-04-09T15:24:25.998Z</time></trkpt><trkpt lat="39.585422737666235" lon="-3.933734121804519"><ele>917.0</ele><time>2026-04-09T15:24:27.998Z</time></trkpt><trkpt lat="39.58540345260972" lon="-3.933612342649639"><ele>917.0</ele><time>2026-04-09T15:24:29.998Z</time></trkpt><trkpt lat="39.585380416440465" lon="-3.933522691022585"><ele>917.0</ele><time>2026-04-09T15:24:30.998Z</time></trkpt><trkpt lat="39.585353431145585" lon="-3.9334262075766757"><ele>917.0000000000001</ele><time>2026-04-09T15:24:31.998Z</time></trkpt><trkpt lat="39.58532969092904" lon="-3.933341944088538"><ele>917.0</ele><time>2026-04-09T15:24:32.998Z</time></trkpt><trkpt lat="39.58529409161693" lon="-3.9332105935530426"><ele>921.2</ele><time>2026-04-09T15:24:34.998Z</time></trkpt><trkpt lat="39.58522258097269" lon="-3.933115878817778"><ele>925.4000000000001</ele><time>2026-04-09T15:24:36.998Z</time></trkpt><trkpt lat="39.58514591319192" lon="-3.933012492759635"><ele>929.5999999999999</ele><time>2026-04-09T15:24:38.998Z</time></trkpt><trkpt lat="39.58510179139538" lon="-3.9329523917005034"><ele>933.8</ele><time>2026-04-09T15:24:40.998Z</time></trkpt><trkpt lat="39.58504646562061" lon="-3.9330208429826374"><ele>938.0</ele><time>2026-04-09T15:24:48.998Z</time></trkpt><trkpt lat="39.58499665577328" lon="-3.933152695976982"><ele>938.0</ele><time>2026-04-09T15:24:51.997Z</time></trkpt><trkpt lat="39.58495098598317" lon="-3.9332773387065267"><ele>938.0</ele><time>2026-04-09T15:24:54Z</time></trkpt><trkpt lat="39.58489235025565" lon="-3.9333214076073095"><ele>938.0</ele><time>2026-04-09T15:24:56Z</time></trkpt><trkpt lat="39.584831526573204" lon="-3.933299207295466"><ele>938.0</ele><time>2026-04-09T15:24:58Z</time></trkpt><trkpt lat="39.58478476447347" lon="-3.933358544912854"><ele>938.0</ele><time>2026-04-09T15:25:02Z</time></trkpt><trkpt lat="39.584715047028816" lon="-3.9333876189249435"><ele>938.0</ele><time>2026-04-09T15:25:04Z</time></trkpt><trkpt lat="39.58465121317523" lon="-3.933344920286438"><ele>938.0</ele><time>2026-04-09T15:25:06Z</time></trkpt><trkpt lat="39.58456875871521" lon="-3.9333302933037775"><ele>941.5000000000001</ele><time>2026-04-09T15:25:15Z</time></trkpt><trkpt lat="39.584505171925855" lon="-3.933318365409431"><ele>945.0</ele><time>2026-04-09T15:25:17Z</time></trkpt><trkpt lat="39.58443587252964" lon="-3.933380284098123"><ele>948.5</ele><time>2026-04-09T15:26:12.998Z</time></trkpt><trkpt lat="39.58436331080857" lon="-3.9333491166453767"><ele>952.0</ele><time>2026-04-09T15:26:14.998Z</time></trkpt><trkpt lat="39.584320008728454" lon="-3.933247681055934"><ele>955.5000000000001</ele><time>2026-04-09T15:26:18.998Z</time></trkpt><trkpt lat="39.58430159101143" lon="-3.9331521416153077"><ele>959.0</ele><time>2026-04-09T15:26:20.998Z</time></trkpt><trkpt lat="39.5842684980591" lon="-3.9330559488307832"><ele>959.0000000000001</ele><time>2026-04-09T15:26:22.998Z</time></trkpt><trkpt lat="39.58421121452485" lon="-3.9329871198618687"><ele>959.0</ele><time>2026-04-09T15:26:25.998Z</time></trkpt><trkpt lat="39.58415828955071" lon="-3.9330398683295895"><ele>959.0</ele><time>2026-04-09T15:26:28.998Z</time></trkpt><trkpt lat="39.584081554479575" lon="-3.933055021253832"><ele>959.0</ele><time>2026-04-09T15:26:30.998Z</time></trkpt><trkpt lat="39.58399361494832" lon="-3.9330570128846967"><ele>959.0000000000001</ele><time>2026-04-09T15:26:32.998Z</time></trkpt><trkpt lat="39.583935555555676" lon="-3.933148943349359"><ele>959.0</ele><time>2026-04-09T15:26:34.998Z</time></trkpt><trkpt lat="39.58386954522904" lon="-3.933160664196358"><ele>959.0000000000001</ele><time>2026-04-09T15:26:39.998Z</time></trkpt><trkpt lat="39.58383746628077" lon="-3.93306547461977"><ele>959.0</ele><time>2026-04-09T15:26:42.998Z</time></trkpt><trkpt lat="39.5837933788504" lon="-3.9329381683557565"><ele>959.0</ele><time>2026-04-09T15:26:44.998Z</time></trkpt><trkpt lat="39.58373849650598" lon="-3.932881392022245"><ele>959.0</ele><time>2026-04-09T15:26:46.998Z</time></trkpt><trkpt lat="39.583672079288355" lon="-3.9328704912967156"><ele>959.0000000000001</ele><time>2026-04-09T15:26:49.998Z</time></trkpt><trkpt lat="39.58360712628647" lon="-3.9328125632324036"><ele>959.0</ele><time>2026-04-09T15:26:52.998Z</time></trkpt><trkpt lat="39.58351366511598" lon="-3.932775319722234"><ele>963.8333333333334</ele><time>2026-04-09T15:26:55.997Z</time></trkpt><trkpt lat="39.58348523314477" lon="-3.932694814406427"><ele>968.6666666666667</ele><time>2026-04-09T15:26:57.997Z</time></trkpt><trkpt lat="39.58346779440874" lon="-3.9326070553746955"><ele>973.5</ele><time>2026-04-09T15:27:00Z</time></trkpt><trkpt lat="39.583409225390874" lon="-3.932524572857622"><ele>978.3333333333333</ele><time>2026-04-09T15:27:03Z</time></trkpt><trkpt lat="39.583359900284016" lon="-3.932468517838942"><ele>983.1666666666666</ele><time>2026-04-09T15:27:06Z</time></trkpt><trkpt lat="39.5833568049657" lon="-3.932359641795817"><ele>988.0</ele><time>2026-04-09T15:27:08Z</time></trkpt><trkpt lat="39.58330589346712" lon="-3.932264008791196"><ele>987.9999999999999</ele><time>2026-04-09T15:27:11Z</time></trkpt><trkpt lat="39.58329690763753" lon="-3.9321799578523238"><ele>988.0</ele><time>2026-04-09T15:27:13Z</time></trkpt><trkpt lat="39.58326428170238" lon="-3.9320887166554055"><ele>988.0</ele><time>2026-04-09T15:27:17Z</time></trkpt><trkpt lat="39.58323526785104" lon="-3.9320073602078076"><ele>988.0</ele><time>2026-04-09T15:27:19Z</time></trkpt><trkpt lat="39.583158593293994" lon="-3.931972069771669"><ele>987.9999999999999</ele><time>2026-04-09T15:27:25Z</time></trkpt><trkpt lat="39.583078708247946" lon="-3.932006151946253"><ele>988.0</ele><time>2026-04-09T15:29:07Z</time></trkpt><trkpt lat="39.58300383842742" lon="-3.93207597498057"><ele>987.9999999999999</ele><time>2026-04-09T15:29:10Z</time></trkpt><trkpt lat="39.582939612406626" lon="-3.9321412386841117"><ele>988.0</ele><time>2026-04-09T15:29:12Z</time></trkpt><trkpt lat="39.58286365737093" lon="-3.9321933384191508"><ele>988.0</ele><time>2026-04-09T15:29:15Z</time></trkpt><trkpt lat="39.582779236798366" lon="-3.932219736093374"><ele>988.0</ele><time>2026-04-09T15:29:19Z</time></trkpt><trkpt lat="39.582725276753756" lon="-3.932153809479936"><ele>987.9999999999999</ele><time>2026-04-09T15:29:23Z</time></trkpt><trkpt lat="39.58266136514763" lon="-3.932113768809809"><ele>988.0</ele><time>2026-04-09T15:29:26Z</time></trkpt><trkpt lat="39.58257071822443" lon="-3.932169141539096"><ele>992.4999999999999</ele><time>2026-04-09T15:29:29Z</time></trkpt><trkpt lat="39.582501601992796" lon="-3.9322180324795344"><ele>997.0</ele><time>2026-04-09T15:29:31Z</time></trkpt><trkpt lat="39.58243976260161" lon="-3.932164707620511"><ele>1001.5</ele><time>2026-04-09T15:29:34Z</time></trkpt><trkpt lat="39.58237246668163" lon="-3.9321939406423017"><ele>1006.0</ele><time>2026-04-09T15:29:36Z</time></trkpt><trkpt lat="39.58230616618096" lon="-3.9321741666531316"><ele>1010.4999999999999</ele><time>2026-04-09T15:29:38Z</time></trkpt><trkpt lat="39.582244436053216" lon="-3.932104359533105"><ele>1015.0</ele><time>2026-04-09T15:29:40Z</time></trkpt><trkpt lat="39.58214831744585" lon="-3.932064367690125"><ele>1014.9999999999999</ele><time>2026-04-09T15:29:42.999Z</time></trkpt><trkpt lat="39.58205185766334" lon="-3.932065418553416"><ele>1015.0</ele><time>2026-04-09T15:29:44.999Z</time></trkpt><trkpt lat="39.58200675123849" lon="-3.931988744799041"><ele>1015.0</ele><time>2026-04-09T15:29:46.999Z</time></trkpt><trkpt lat="39.58197633267563" lon="-3.9318645885486676"><ele>1015.0</ele><time>2026-04-09T15:29:48.999Z</time></trkpt><trkpt lat="39.5819094961089" lon="-3.931831788549744"><ele>1014.9999999999999</ele><time>2026-04-09T15:29:50.999Z</time></trkpt><trkpt lat="39.5818309880338" lon="-3.9318130351051583"><ele>1015.0</ele><time>2026-04-09T15:29:52.999Z</time></trkpt><trkpt lat="39.581801385242834" lon="-3.9317404031177285"><ele>1017.9999999999999</ele><time>2026-04-09T15:31:33Z</time></trkpt><trkpt lat="39.58174019288068" lon="-3.931776513358851"><ele>1021.0</ele><time>2026-04-09T15:31:35Z</time></trkpt><trkpt lat="39.581651367988854" lon="-3.9319078518755615"><ele>1024.0</ele><time>2026-04-09T15:31:37Z</time></trkpt><trkpt lat="39.581597092466104" lon="-3.931980254043943"><ele>1027.0</ele><time>2026-04-09T15:31:38Z</time></trkpt><trkpt lat="39.581540193586164" lon="-3.9320429011694076"><ele>1030.0</ele><time>2026-04-09T15:31:39Z</time></trkpt><trkpt lat="39.58148269609802" lon="-3.9321047292118445"><ele>1033.0</ele><time>2026-04-09T15:31:40Z</time></trkpt><trkpt lat="39.581418354539174" lon="-3.9321695417221654"><ele>1033.0</ele><time>2026-04-09T15:31:41Z</time></trkpt><trkpt lat="39.58135102874926" lon="-3.9322336475894053"><ele>1033.0</ele><time>2026-04-09T15:31:42Z</time></trkpt><trkpt lat="39.58128438285211" lon="-3.9322872585673547"><ele>1033.0</ele><time>2026-04-09T15:31:43Z</time></trkpt><trkpt lat="39.581211406964734" lon="-3.9323328087077165"><ele>1033.0</ele><time>2026-04-09T15:31:44Z</time></trkpt><trkpt lat="39.58112452449765" lon="-3.932393708922827"><ele>1033.0</ele><time>2026-04-09T15:31:45Z</time></trkpt><trkpt lat="39.58102970539234" lon="-3.9324618504797084"><ele>1034.4</ele><time>2026-04-09T15:31:46Z</time></trkpt><trkpt lat="39.58093780174637" lon="-3.9325281589408427"><ele>1035.8</ele><time>2026-04-09T15:31:46.999Z</time></trkpt><trkpt lat="39.58085397406816" lon="-3.9325936493127784"><ele>1037.2</ele><time>2026-04-09T15:31:47.999Z</time></trkpt><trkpt lat="39.58077875097718" lon="-3.932654700332762"><ele>1038.6</ele><time>2026-04-09T15:31:48.999Z</time></trkpt><trkpt lat="39.580724361033674" lon="-3.9327101973706946"><ele>1040.0</ele><time>2026-04-09T15:31:49.999Z</time></trkpt><trkpt lat="39.58064671552373" lon="-3.9328588212045092"><ele>1043.3333333333335</ele><time>2026-04-09T15:31:51.999Z</time></trkpt><trkpt lat="39.58059268119712" lon="-3.9329444735359034"><ele>1046.6666666666667</ele><time>2026-04-09T15:31:52.999Z</time></trkpt><trkpt lat="39.58053206340596" lon="-3.933014116844816"><ele>1050.0</ele><time>2026-04-09T15:31:53.999Z</time></trkpt><trkpt lat="39.58046872455724" lon="-3.9330716072865495"><ele>1053.3333333333333</ele><time>2026-04-09T15:31:54.999Z</time></trkpt><trkpt lat="39.58040339946461" lon="-3.933115397290601"><ele>1056.6666666666665</ele><time>2026-04-09T15:31:55.999Z</time></trkpt><trkpt lat="39.58032968031443" lon="-3.933165168573843"><ele>1060.0</ele><time>2026-04-09T15:31:56.999Z</time></trkpt><trkpt lat="39.58026148230875" lon="-3.9332278126197475"><ele>1060.4</ele><time>2026-04-09T15:31:57.999Z</time></trkpt><trkpt lat="39.580197368683805" lon="-3.933302358137146"><ele>1060.8</ele><time>2026-04-09T15:31:58.999Z</time></trkpt><trkpt lat="39.58012306742423" lon="-3.9333772402050164"><ele>1061.2</ele><time>2026-04-09T15:31:59.999Z</time></trkpt><trkpt lat="39.58003320853799" lon="-3.9334475879440545"><ele>1061.6</ele><time>2026-04-09T15:32:00.999Z</time></trkpt><trkpt lat="39.57993028000323" lon="-3.9335137218454386"><ele>1062.0</ele><time>2026-04-09T15:32:01.999Z</time></trkpt><trkpt lat="39.57980557065759" lon="-3.933588482705262"><ele>1065.0</ele><time>2026-04-09T15:32:02.999Z</time></trkpt><trkpt lat="39.57967860010065" lon="-3.933670430607664"><ele>1068.0</ele><time>2026-04-09T15:32:03.999Z</time></trkpt><trkpt lat="39.57955889917216" lon="-3.933749768248849"><ele>1071.0</ele><time>2026-04-09T15:32:04.999Z</time></trkpt><trkpt lat="39.579439948872306" lon="-3.9338260523152377"><ele>1074.0</ele><time>2026-04-09T15:32:05.999Z</time></trkpt><trkpt lat="39.579321009762964" lon="-3.933896738924632"><ele>1074.0</ele><time>2026-04-09T15:32:06.999Z</time></trkpt><trkpt lat="39.579224563155755" lon="-3.9339569340313"><ele>1074.0</ele><time>2026-04-09T15:32:07.999Z</time></trkpt><trkpt lat="39.57914792693703" lon="-3.934009809386847"><ele>1074.0</ele><time>2026-04-09T15:32:08.999Z</time></trkpt><trkpt lat="39.57908352600311" lon="-3.9340423542936134"><ele>1074.0</ele><time>2026-04-09T15:32:09.999Z</time></trkpt><trkpt lat="39.578992489424714" lon="-3.9340674964944577"><ele>1074.0</ele><time>2026-04-09T15:32:11.999Z</time></trkpt><trkpt lat="39.578927694963625" lon="-3.934005401764294"><ele>1074.0</ele><time>2026-04-09T15:33:00.998Z</time></trkpt><trkpt lat="39.578926200509756" lon="-3.9338991092130744"><ele>1074.0</ele><time>2026-04-09T15:33:02.998Z</time></trkpt><trkpt lat="39.57888166827998" lon="-3.9338280613301477"><ele>1074.0</ele><time>2026-04-09T15:33:04.998Z</time></trkpt><trkpt lat="39.57884540023365" lon="-3.9337606690818823"><ele>1074.0</ele><time>2026-04-09T15:33:06.998Z</time></trkpt><trkpt lat="39.57882131763045" lon="-3.93364189352922"><ele>1074.0</ele><time>2026-04-09T15:33:08.998Z</time></trkpt><trkpt lat="39.57876801749665" lon="-3.9335184284768077"><ele>1074.0</ele><time>2026-04-09T15:33:10.998Z</time></trkpt><trkpt lat="39.578737996964975" lon="-3.9333804704380193"><ele>1074.0</ele><time>2026-04-09T15:33:12.998Z</time></trkpt><trkpt lat="39.578753559067216" lon="-3.933298881703926"><ele>1073.0</ele><time>2026-04-09T15:33:14.997Z</time></trkpt><trkpt lat="39.578780096416295" lon="-3.9332168363392546"><ele>1072.0</ele><time>2026-04-09T15:33:16.997Z</time></trkpt><trkpt lat="39.57877997812476" lon="-3.9330905380771966"><ele>1071.0</ele><time>2026-04-09T15:33:19Z</time></trkpt><trkpt lat="39.57876330705497" lon="-3.9330046220428976"><ele>1070.0</ele><time>2026-04-09T15:33:20Z</time></trkpt><trkpt lat="39.57875112696781" lon="-3.932911755458806"><ele>1069.0</ele><time>2026-04-09T15:33:21Z</time></trkpt><trkpt lat="39.57873736478362" lon="-3.9328204956650796"><ele>1068.0</ele><time>2026-04-09T15:33:22Z</time></trkpt><trkpt lat="39.5787298958671" lon="-3.9326871879573235"><ele>1068.0</ele><time>2026-04-09T15:33:24Z</time></trkpt><trkpt lat="39.578693745582505" lon="-3.932575106486826"><ele>1068.0</ele><time>2026-04-09T15:33:26Z</time></trkpt><trkpt lat="39.57864591728012" lon="-3.9324749453332344"><ele>1068.0</ele><time>2026-04-09T15:33:28Z</time></trkpt><trkpt lat="39.57858746929609" lon="-3.9324083115205135"><ele>1068.0</ele><time>2026-04-09T15:33:30Z</time></trkpt><trkpt lat="39.57853722504828" lon="-3.932307251928608"><ele>1068.0</ele><time>2026-04-09T15:33:32Z</time></trkpt><trkpt lat="39.57851512448245" lon="-3.932177252551311"><ele>1067.8333333333333</ele><time>2026-04-09T15:33:34Z</time></trkpt><trkpt lat="39.57849041124231" lon="-3.93207489849096"><ele>1067.6666666666667</ele><time>2026-04-09T15:33:36Z</time></trkpt><trkpt lat="39.578444513865364" lon="-3.931991077843563"><ele>1067.5</ele><time>2026-04-09T15:33:39Z</time></trkpt><trkpt lat="39.57837984263095" lon="-3.9319230509846337"><ele>1067.3333333333335</ele><time>2026-04-09T15:33:42Z</time></trkpt><trkpt lat="39.578355299653815" lon="-3.9318473374166745"><ele>1067.1666666666667</ele><time>2026-04-09T15:33:44Z</time></trkpt><trkpt lat="39.57829034625244" lon="-3.9318102272160633"><ele>1067.0</ele><time>2026-04-09T15:33:47Z</time></trkpt><trkpt lat="39.57825557323302" lon="-3.931679576431641"><ele>1067.4</ele><time>2026-04-09T15:33:50Z</time></trkpt><trkpt lat="39.57820832881717" lon="-3.931605542822994"><ele>1067.8000000000002</ele><time>2026-04-09T15:33:52Z</time></trkpt><trkpt lat="39.578159245139645" lon="-3.931454101280878"><ele>1068.2</ele><time>2026-04-09T15:33:53.999Z</time></trkpt><trkpt lat="39.578128914905236" lon="-3.9313519279397457"><ele>1068.6000000000001</ele><time>2026-04-09T15:33:55.999Z</time></trkpt><trkpt lat="39.57809749234715" lon="-3.9312609126209925"><ele>1069.0</ele><time>2026-04-09T15:33:58.999Z</time></trkpt><trkpt lat="39.57809294471905" lon="-3.93114701564717"><ele>1069.0</ele><time>2026-04-09T15:34:00.999Z</time></trkpt><trkpt lat="39.578054546866205" lon="-3.9310654273669243"><ele>1069.0</ele><time>2026-04-09T15:34:02.999Z</time></trkpt><trkpt lat="39.578014485375576" lon="-3.930943406095661"><ele>1069.0</ele><time>2026-04-09T15:34:05.999Z</time></trkpt><trkpt lat="39.577952327442254" lon="-3.930864717117907"><ele>1069.0</ele><time>2026-04-09T15:34:09.999Z</time></trkpt><trkpt lat="39.577896279178724" lon="-3.9307346225208506"><ele>1069.0</ele><time>2026-04-09T15:34:12.999Z</time></trkpt><trkpt lat="39.57785819193521" lon="-3.930609099376066"><ele>1065.8</ele><time>2026-04-09T15:34:14.999Z</time></trkpt><trkpt lat="39.577826209313585" lon="-3.93047463307121"><ele>1062.6000000000001</ele><time>2026-04-09T15:34:17.999Z</time></trkpt><trkpt lat="39.577786490685845" lon="-3.9303444843235855"><ele>1059.4</ele><time>2026-04-09T15:34:19.999Z</time></trkpt><trkpt lat="39.57778064333952" lon="-3.9302144212929515"><ele>1056.2</ele><time>2026-04-09T15:34:21.999Z</time></trkpt><trkpt lat="39.57777075112118" lon="-3.9301113173647235"><ele>1053.0</ele><time>2026-04-09T15:34:24.999Z</time></trkpt><trkpt lat="39.57769474178452" lon="-3.93004745677512"><ele>1052.9999999999998</ele><time>2026-04-09T15:34:27.999Z</time></trkpt><trkpt lat="39.57765119854082" lon="-3.929965552310791"><ele>1053.0</ele><time>2026-04-09T15:34:30.999Z</time></trkpt><trkpt lat="39.57761312804439" lon="-3.9298928184519872"><ele>1053.0</ele><time>2026-04-09T15:34:32.999Z</time></trkpt><trkpt lat="39.57757130320134" lon="-3.929819945292996"><ele>1053.0</ele><time>2026-04-09T15:34:35.999Z</time></trkpt><trkpt lat="39.577544020218006" lon="-3.929742574829641"><ele>1053.0</ele><time>2026-04-09T15:34:37.998Z</time></trkpt><trkpt lat="39.577495346303344" lon="-3.9296612415803147"><ele>1052.9999999999998</ele><time>2026-04-09T15:34:39.998Z</time></trkpt><trkpt lat="39.577466455610555" lon="-3.929588266939211"><ele>1053.0</ele><time>2026-04-09T15:34:42.998Z</time></trkpt><trkpt lat="39.57743155747138" lon="-3.929436003384732"><ele>1053.0</ele><time>2026-04-09T15:34:45.998Z</time></trkpt><trkpt lat="39.577428677137874" lon="-3.9293229319156175"><ele>1053.0</ele><time>2026-04-09T15:34:47.998Z</time></trkpt><trkpt lat="39.57740749744022" lon="-3.9292290611707466"><ele>1053.0</ele><time>2026-04-09T15:34:50.998Z</time></trkpt><trkpt lat="39.57736976293304" lon="-3.9291253789698373"><ele>1053.0</ele><time>2026-04-09T15:34:53.998Z</time></trkpt><trkpt lat="39.577361054295004" lon="-3.9289984026043663"><ele>1053.0</ele><time>2026-04-09T15:34:56.998Z</time></trkpt><trkpt lat="39.57734528843398" lon="-3.928918000723084"><ele>1053.0</ele><time>2026-04-09T15:34:57.998Z</time></trkpt><trkpt lat="39.57729449974698" lon="-3.9288412031940303"><ele>1054.0</ele><time>2026-04-09T15:34:59.998Z</time></trkpt><trkpt lat="39.577283889727696" lon="-3.9287504468624963"><ele>1055.0</ele><time>2026-04-09T15:35:02.998Z</time></trkpt><trkpt lat="39.57726063137615" lon="-3.9286614005459155"><ele>1056.0</ele><time>2026-04-09T15:35:04.998Z</time></trkpt><trkpt lat="39.57721756704111" lon="-3.9285858505628726"><ele>1057.0</ele><time>2026-04-09T15:35:06.998Z</time></trkpt><trkpt lat="39.57720029522832" lon="-3.9285045881136416"><ele>1058.0</ele><time>2026-04-09T15:35:08.998Z</time></trkpt><trkpt lat="39.577149096457575" lon="-3.9283519118237664"><ele>1059.0</ele><time>2026-04-09T15:35:10.998Z</time></trkpt><trkpt lat="39.57715215867641" lon="-3.928251883897556"><ele>1059.3333333333333</ele><time>2026-04-09T15:35:12.998Z</time></trkpt><trkpt lat="39.577126562170335" lon="-3.9281410514452566"><ele>1059.6666666666667</ele><time>2026-04-09T15:35:15.998Z</time></trkpt><trkpt lat="39.577082090571615" lon="-3.9280446479837035"><ele>1060.0</ele><time>2026-04-09T15:35:17.998Z</time></trkpt><trkpt lat="39.577063364663864" lon="-3.927957191736741"><ele>1060.3333333333335</ele><time>2026-04-09T15:35:19.998Z</time></trkpt><trkpt lat="39.57703406281677" lon="-3.9278799466558056"><ele>1060.6666666666667</ele><time>2026-04-09T15:35:21.997Z</time></trkpt><trkpt lat="39.57698995130762" lon="-3.9277727556677724"><ele>1061.0</ele><time>2026-04-09T15:35:25Z</time></trkpt><trkpt lat="39.57695619875367" lon="-3.927681648692339"><ele>1056.5</ele><time>2026-04-09T15:35:28Z</time></trkpt><trkpt lat="39.57695000468796" lon="-3.927592136290498"><ele>1052.0</ele><time>2026-04-09T15:35:29Z</time></trkpt><trkpt lat="39.57693159519711" lon="-3.927487431824496"><ele>1047.5</ele><time>2026-04-09T15:35:32Z</time></trkpt><trkpt lat="39.57690717825126" lon="-3.9274072739468084"><ele>1043.0</ele><time>2026-04-09T15:35:34Z</time></trkpt><trkpt lat="39.5768970610462" lon="-3.927314740607678"><ele>1038.5</ele><time>2026-04-09T15:35:37Z</time></trkpt><trkpt lat="39.576871218186156" lon="-3.927235397768976"><ele>1034.0</ele><time>2026-04-09T15:35:40Z</time></trkpt><trkpt lat="39.57685356495744" lon="-3.9271004893320534"><ele>1034.0</ele><time>2026-04-09T15:35:43Z</time></trkpt><trkpt lat="39.57683011348172" lon="-3.927008096271495"><ele>1034.0</ele><time>2026-04-09T15:35:45Z</time></trkpt><trkpt lat="39.57681845500647" lon="-3.926919099660175"><ele>1034.0</ele><time>2026-04-09T15:35:47Z</time></trkpt><trkpt lat="39.576807341651396" lon="-3.926819964142213"><ele>1034.0</ele><time>2026-04-09T15:35:50Z</time></trkpt><trkpt lat="39.5767851185745" lon="-3.92673998310444"><ele>1034.0</ele><time>2026-04-09T15:35:52Z</time></trkpt><trkpt lat="39.57676935894363" lon="-3.926618517956842"><ele>1034.0</ele><time>2026-04-09T15:35:54Z</time></trkpt><trkpt lat="39.57677128481318" lon="-3.926464773757199"><ele>1033.8333333333335</ele><time>2026-04-09T15:35:56Z</time></trkpt><trkpt lat="39.57675047000138" lon="-3.9263597669647923"><ele>1033.6666666666667</ele><time>2026-04-09T15:35:58.999Z</time></trkpt><trkpt lat="39.57679034743438" lon="-3.9262384268407704"><ele>1033.5</ele><time>2026-04-09T15:36:01.999Z</time></trkpt><trkpt lat="39.576770903935206" lon="-3.9261299417088336"><ele>1033.3333333333333</ele><time>2026-04-09T15:36:04.999Z</time></trkpt><trkpt lat="39.57679605208033" lon="-3.9260258483870603"><ele>1033.1666666666665</ele><time>2026-04-09T15:36:06.999Z</time></trkpt><trkpt lat="39.576811415012045" lon="-3.92593091210146"><ele>1033.0</ele><time>2026-04-09T15:36:08.999Z</time></trkpt><trkpt lat="39.576826209897796" lon="-3.92583897849618"><ele>1032.1666666666665</ele><time>2026-04-09T15:36:11.999Z</time></trkpt><trkpt lat="39.57683505381136" lon="-3.9257381927847823"><ele>1031.3333333333333</ele><time>2026-04-09T15:36:14.999Z</time></trkpt><trkpt lat="39.57682351712194" lon="-3.925646128547965"><ele>1030.5</ele><time>2026-04-09T15:36:21.999Z</time></trkpt><trkpt lat="39.57683498718615" lon="-3.925539359520201"><ele>1029.6666666666667</ele><time>2026-04-09T15:36:23.999Z</time></trkpt><trkpt lat="39.576831425030946" lon="-3.9254258475969315"><ele>1028.8333333333335</ele><time>2026-04-09T15:36:26.999Z</time></trkpt><trkpt lat="39.57684809664837" lon="-3.9253095743768642"><ele>1028.0</ele><time>2026-04-09T15:36:30.999Z</time></trkpt><trkpt lat="39.57685715035925" lon="-3.9252136817228758"><ele>1026.0</ele><time>2026-04-09T15:36:33.999Z</time></trkpt><trkpt lat="39.57688725972508" lon="-3.9250589015822728"><ele>1024.0</ele><time>2026-04-09T15:36:35.999Z</time></trkpt><trkpt lat="39.57691844802512" lon="-3.924954614000268"><ele>1022.0</ele><time>2026-04-09T15:36:37.999Z</time></trkpt><trkpt lat="39.576955678235564" lon="-3.924858400480202"><ele>1020.0</ele><time>2026-04-09T15:36:40.999Z</time></trkpt><trkpt lat="39.576961450585564" lon="-3.924774337967781"><ele>1018.0000000000001</ele><time>2026-04-09T15:36:43.998Z</time></trkpt><trkpt lat="39.57698004628465" lon="-3.9246742192815876"><ele>1016.0</ele><time>2026-04-09T15:36:46.998Z</time></trkpt><trkpt lat="39.57698952190273" lon="-3.9245858863570313"><ele>1016.0000000000001</ele><time>2026-04-09T15:36:48.998Z</time></trkpt><trkpt lat="39.57701051423853" lon="-3.9244961659414344"><ele>1016.0</ele><time>2026-04-09T15:36:51.998Z</time></trkpt><trkpt lat="39.57704038897511" lon="-3.924420028259963"><ele>1016.0</ele><time>2026-04-09T15:36:53.998Z</time></trkpt><trkpt lat="39.57707604267179" lon="-3.9243398907845224"><ele>1016.0</ele><time>2026-04-09T15:36:56.998Z</time></trkpt><trkpt lat="39.57710020474892" lon="-3.924241152750495"><ele>1016.0000000000001</ele><time>2026-04-09T15:37:00.998Z</time></trkpt><trkpt lat="39.57711825049583" lon="-3.9241419510040294"><ele>1016.0</ele><time>2026-04-09T15:37:03.998Z</time></trkpt><trkpt lat="39.57715109730065" lon="-3.9240346713345327"><ele>1019.1666666666667</ele><time>2026-04-09T15:37:06.998Z</time></trkpt><trkpt lat="39.57718506060761" lon="-3.92394760732255"><ele>1022.3333333333334</ele><time>2026-04-09T15:37:09.998Z</time></trkpt><trkpt lat="39.577200609284795" lon="-3.9238521034840317"><ele>1025.5</ele><time>2026-04-09T15:37:12.998Z</time></trkpt><trkpt lat="39.57725179723061" lon="-3.9237599787095148"><ele>1028.6666666666667</ele><time>2026-04-09T15:37:15.998Z</time></trkpt><trkpt lat="39.577272098158716" lon="-3.9236598896871957"><ele>1031.8333333333333</ele><time>2026-04-09T15:37:18.998Z</time></trkpt><trkpt lat="39.577292742671546" lon="-3.9235592766204226"><ele>1035.0</ele><time>2026-04-09T15:37:21.998Z</time></trkpt><trkpt lat="39.5773306833088" lon="-3.9234783988713584"><ele>1032.25</ele><time>2026-04-09T15:37:24.998Z</time></trkpt><trkpt lat="39.57737895977936" lon="-3.92334625350073"><ele>1029.5</ele><time>2026-04-09T15:37:26.997Z</time></trkpt><trkpt lat="39.577415636355404" lon="-3.9232400631854127"><ele>1026.75</ele><time>2026-04-09T15:37:28.997Z</time></trkpt><trkpt lat="39.57748595705627" lon="-3.9231611076370783"><ele>1024.0</ele><time>2026-04-09T15:37:31Z</time></trkpt><trkpt lat="39.57737467334319" lon="-3.9228373154150304"><ele>1023.9999999999999</ele><time>2026-04-09T15:37:32Z</time></trkpt><trkpt lat="39.57742899975703" lon="-3.9227866291620113"><ele>1024.0</ele><time>2026-04-09T15:37:36Z</time></trkpt><trkpt lat="39.57749185009789" lon="-3.922731346972718"><ele>1024.0</ele><time>2026-04-09T15:37:39Z</time></trkpt><trkpt lat="39.57755200153291" lon="-3.922678579361969"><ele>1024.0</ele><time>2026-04-09T15:37:42Z</time></trkpt><trkpt lat="39.5776281241638" lon="-3.922614586958586"><ele>1023.9999999999999</ele><time>2026-04-09T15:37:45Z</time></trkpt><trkpt lat="39.57770685329269" lon="-3.9225481155508914"><ele>1024.0</ele><time>2026-04-09T15:37:48Z</time></trkpt><trkpt lat="39.57777442281819" lon="-3.9224928486785053"><ele>1024.0</ele><time>2026-04-09T15:37:50Z</time></trkpt><trkpt lat="39.577854563092" lon="-3.9224277405191033"><ele>1024.0</ele><time>2026-04-09T15:37:53Z</time></trkpt><trkpt lat="39.57792703881562" lon="-3.9223688592954455"><ele>1024.0</ele><time>2026-04-09T15:37:56Z</time></trkpt><trkpt lat="39.578042172266024" lon="-3.9225494813938724"><ele>1024.0</ele><time>2026-04-09T15:37:57Z</time></trkpt><trkpt lat="39.57811262373412" lon="-3.9225783346139624"><ele>1024.0</ele><time>2026-04-09T15:38:00Z</time></trkpt><trkpt lat="39.57821072060199" lon="-3.922523259420393"><ele>1023.9999999999999</ele><time>2026-04-09T15:38:02Z</time></trkpt><trkpt lat="39.578280379171915" lon="-3.922516155418456"><ele>1024.0</ele><time>2026-04-09T15:38:04Z</time></trkpt><trkpt lat="39.578364445481164" lon="-3.9224908761775867"><ele>1024.0</ele><time>2026-04-09T15:38:06.999Z</time></trkpt><trkpt lat="39.578425320237855" lon="-3.9223811470700727"><ele>1024.0</ele><time>2026-04-09T15:38:08.999Z</time></trkpt><trkpt lat="39.57847536494198" lon="-3.9222790153906764"><ele>1023.9999999999999</ele><time>2026-04-09T15:38:10.999Z</time></trkpt><trkpt lat="39.57848171218277" lon="-3.922191559224886"><ele>1024.0</ele><time>2026-04-09T15:38:12.999Z</time></trkpt><trkpt lat="39.57856475757276" lon="-3.922158890066206"><ele>1024.0</ele><time>2026-04-09T15:38:15.999Z</time></trkpt><trkpt lat="39.57864031461133" lon="-3.922197604625999"><ele>1024.0</ele><time>2026-04-09T15:38:18.999Z</time></trkpt><trkpt lat="39.578647912283635" lon="-3.9221145200849374"><ele>1024.0</ele><time>2026-04-09T15:38:23.999Z</time></trkpt><trkpt lat="39.57861947433069" lon="-3.9219821853019594"><ele>1024.0</ele><time>2026-04-09T15:38:25.999Z</time></trkpt><trkpt lat="39.578528597416906" lon="-3.9219832921309683"><ele>1024.0</ele><time>2026-04-09T15:40:44.999Z</time></trkpt><trkpt lat="39.57843313193467" lon="-3.9220483035159326"><ele>1023.9999999999999</ele><time>2026-04-09T15:40:46.999Z</time></trkpt><trkpt lat="39.578371783823094" lon="-3.9220837347173445"><ele>1024.0</ele><time>2026-04-09T15:40:47.999Z</time></trkpt><trkpt lat="39.57831272736949" lon="-3.922118907013222"><ele>1024.0</ele><time>2026-04-09T15:40:48.999Z</time></trkpt><trkpt lat="39.57824454354669" lon="-3.9221625618945706"><ele>1024.0</ele><time>2026-04-09T15:40:49.999Z</time></trkpt><trkpt lat="39.5781698088368" lon="-3.922217788191855"><ele>1023.9999999999999</ele><time>2026-04-09T15:40:50.999Z</time></trkpt><trkpt lat="39.57808873045971" lon="-3.9222871179526755"><ele>1024.0</ele><time>2026-04-09T15:40:51.999Z</time></trkpt><trkpt lat="39.578004081409176" lon="-3.9223659299823024"><ele>1024.0</ele><time>2026-04-09T15:40:52.999Z</time></trkpt><trkpt lat="39.57791467983424" lon="-3.922447237325902"><ele>1024.0</ele><time>2026-04-09T15:40:53.999Z</time></trkpt><trkpt lat="39.577824224989016" lon="-3.9225149139809132"><ele>1024.0</ele><time>2026-04-09T15:40:54.998Z</time></trkpt><trkpt lat="39.57773522838135" lon="-3.922586001949827"><ele>1024.0</ele><time>2026-04-09T15:40:55.998Z</time></trkpt><trkpt lat="39.5776380062044" lon="-3.922668215548206"><ele>1024.0</ele><time>2026-04-09T15:40:56.998Z</time></trkpt><trkpt lat="39.577525257918275" lon="-3.922764982992047"><ele>1024.0</ele><time>2026-04-09T15:40:57.998Z</time></trkpt><trkpt lat="39.57740316654713" lon="-3.9228737339210866"><ele>1024.0</ele><time>2026-04-09T15:40:58.998Z</time></trkpt><trkpt lat="39.57728287670829" lon="-3.9229862742467043"><ele>1024.0</ele><time>2026-04-09T15:40:59.998Z</time></trkpt><trkpt lat="39.57717282295882" lon="-3.9231012675991566"><ele>1024.0</ele><time>2026-04-09T15:41:00.998Z</time></trkpt><trkpt lat="39.57708201341388" lon="-3.923216327453985"><ele>1019.8000000000001</ele><time>2026-04-09T15:41:01.998Z</time></trkpt><trkpt lat="39.57699887097948" lon="-3.923328140242209"><ele>1015.6000000000001</ele><time>2026-04-09T15:41:02.998Z</time></trkpt><trkpt lat="39.576926500253954" lon="-3.9234347808730643"><ele>1011.4</ele><time>2026-04-09T15:41:03.998Z</time></trkpt><trkpt lat="39.57686032937082" lon="-3.9235352644161576"><ele>1007.2</ele><time>2026-04-09T15:41:04.998Z</time></trkpt><trkpt lat="39.57679711778192" lon="-3.923633673555535"><ele>1003.0</ele><time>2026-04-09T15:41:05.998Z</time></trkpt><trkpt lat="39.57673281566294" lon="-3.9237499745463764"><ele>1002.9999999999999</ele><time>2026-04-09T15:41:06.998Z</time></trkpt><trkpt lat="39.57667921895427" lon="-3.923864976092731"><ele>1003.0</ele><time>2026-04-09T15:41:07.998Z</time></trkpt><trkpt lat="39.576632765726735" lon="-3.9239681966471487"><ele>1003.0</ele><time>2026-04-09T15:41:08.998Z</time></trkpt><trkpt lat="39.57658843371707" lon="-3.924065976540597"><ele>1003.0</ele><time>2026-04-09T15:41:09.998Z</time></trkpt><trkpt lat="39.57654428480218" lon="-3.9241515139735315"><ele>1002.9999999999999</ele><time>2026-04-09T15:41:10.998Z</time></trkpt><trkpt lat="39.576497581203455" lon="-3.9242313830202282"><ele>1003.0</ele><time>2026-04-09T15:41:11.998Z</time></trkpt><trkpt lat="39.57645933124082" lon="-3.9243040734184382"><ele>1005.5999999999999</ele><time>2026-04-09T15:41:12.998Z</time></trkpt><trkpt lat="39.5764144756258" lon="-3.9243785407343066"><ele>1008.1999999999999</ele><time>2026-04-09T15:41:13.998Z</time></trkpt><trkpt lat="39.5763770942866" lon="-3.9244495237582653"><ele>1010.8</ele><time>2026-04-09T15:41:14.998Z</time></trkpt><trkpt lat="39.57630612413424" lon="-3.924572857284672"><ele>1013.4</ele><time>2026-04-09T15:41:16.998Z</time></trkpt><trkpt lat="39.576238332058495" lon="-3.9246711159585557"><ele>1016.0</ele><time>2026-04-09T15:41:17.998Z</time></trkpt><trkpt lat="39.576159094555955" lon="-3.924815431672721"><ele>1010.0</ele><time>2026-04-09T15:41:18.998Z</time></trkpt><trkpt lat="39.57604858844913" lon="-3.924976746546043"><ele>1004.0</ele><time>2026-04-09T15:41:19.998Z</time></trkpt><trkpt lat="39.57591307519536" lon="-3.925167044998968"><ele>998.0</ele><time>2026-04-09T15:41:20.998Z</time></trkpt><trkpt lat="39.57578014536045" lon="-3.9253595692040664"><ele>998.0</ele><time>2026-04-09T15:41:21.998Z</time></trkpt><trkpt lat="39.57566246668893" lon="-3.925547016210207"><ele>998.0</ele><time>2026-04-09T15:41:22.998Z</time></trkpt><trkpt lat="39.57556210384782" lon="-3.925735756124811"><ele>998.0</ele><time>2026-04-09T15:41:23.998Z</time></trkpt><trkpt lat="39.575474637169634" lon="-3.9259151437140822"><ele>999.75</ele><time>2026-04-09T15:41:24.998Z</time></trkpt><trkpt lat="39.575432591015186" lon="-3.9260813342135132"><ele>1001.5</ele><time>2026-04-09T15:41:25.998Z</time></trkpt><trkpt lat="39.57539289699376" lon="-3.9262411148246983"><ele>1003.25</ele><time>2026-04-09T15:41:26.998Z</time></trkpt><trkpt lat="39.57535299672757" lon="-3.9264060870627056"><ele>1005.0</ele><time>2026-04-09T15:41:27.998Z</time></trkpt><trkpt lat="39.57530698250918" lon="-3.9265766804268116"><ele>995.25</ele><time>2026-04-09T15:41:28.998Z</time></trkpt><trkpt lat="39.575272913368" lon="-3.926746009759115"><ele>985.5</ele><time>2026-04-09T15:41:29.998Z</time></trkpt><trkpt lat="39.57525680257849" lon="-3.9269275645715136"><ele>975.75</ele><time>2026-04-09T15:41:30.998Z</time></trkpt><trkpt lat="39.575248823810306" lon="-3.9271006076073345"><ele>966.0</ele><time>2026-04-09T15:41:31.998Z</time></trkpt><trkpt lat="39.57524262432167" lon="-3.9272750584330947"><ele>966.0</ele><time>2026-04-09T15:41:32.998Z</time></trkpt><trkpt lat="39.57524715708831" lon="-3.927433520988737"><ele>965.9999999999999</ele><time>2026-04-09T15:41:33.998Z</time></trkpt><trkpt lat="39.57525150972571" lon="-3.9275759464300357"><ele>965.9999999999999</ele><time>2026-04-09T15:41:34.998Z</time></trkpt><trkpt lat="39.57524892447548" lon="-3.9277053997570377"><ele>966.0</ele><time>2026-04-09T15:41:35.998Z</time></trkpt><trkpt lat="39.57524675718239" lon="-3.92782496159372"><ele>966.0</ele><time>2026-04-09T15:41:36.998Z</time></trkpt><trkpt lat="39.57524687047948" lon="-3.927940901057639"><ele>965.5</ele><time>2026-04-09T15:41:37.998Z</time></trkpt><trkpt lat="39.575246582788985" lon="-3.928044702261586"><ele>965.0</ele><time>2026-04-09T15:41:38.997Z</time></trkpt><trkpt lat="39.57524453608252" lon="-3.928145739483682"><ele>964.5</ele><time>2026-04-09T15:41:39.997Z</time></trkpt><trkpt lat="39.57523647265721" lon="-3.928238073702572"><ele>964.0</ele><time>2026-04-09T15:41:40.997Z</time></trkpt><trkpt lat="39.575227740890334" lon="-3.9283248855137636"><ele>963.5</ele><time>2026-04-09T15:41:42Z</time></trkpt><trkpt lat="39.57521908483255" lon="-3.9284088391790086"><ele>963.0</ele><time>2026-04-09T15:41:43Z</time></trkpt><trkpt lat="39.57521805197192" lon="-3.9285283656872427"><ele>961.8</ele><time>2026-04-09T15:41:44Z</time></trkpt><trkpt lat="39.575231814807196" lon="-3.9286801492006713"><ele>960.5999999999999</ele><time>2026-04-09T15:41:45Z</time></trkpt><trkpt lat="39.575247583565854" lon="-3.928835951393396"><ele>959.4000000000001</ele><time>2026-04-09T15:41:46Z</time></trkpt><trkpt lat="39.57525819681701" lon="-3.928965155631923"><ele>958.2</ele><time>2026-04-09T15:41:47Z</time></trkpt><trkpt lat="39.57526867251094" lon="-3.9290871191668284"><ele>957.0</ele><time>2026-04-09T15:41:48Z</time></trkpt><trkpt lat="39.575283513557814" lon="-3.92922656745118"><ele>955.5</ele><time>2026-04-09T15:41:49Z</time></trkpt><trkpt lat="39.5753018363984" lon="-3.9294005124549676"><ele>954.0</ele><time>2026-04-09T15:41:50Z</time></trkpt><trkpt lat="39.57531546436661" lon="-3.929575380259044"><ele>952.5</ele><time>2026-04-09T15:41:51Z</time></trkpt><trkpt lat="39.57531569499842" lon="-3.929752333181754"><ele>951.0</ele><time>2026-04-09T15:41:52Z</time></trkpt><trkpt lat="39.57531054902418" lon="-3.929926512411716"><ele>951.75</ele><time>2026-04-09T15:41:53Z</time></trkpt><trkpt lat="39.57528768677253" lon="-3.9300954867664437"><ele>952.5</ele><time>2026-04-09T15:41:54Z</time></trkpt><trkpt lat="39.575254882591324" lon="-3.930258504047352"><ele>953.25</ele><time>2026-04-09T15:41:55Z</time></trkpt><trkpt lat="39.57522167053057" lon="-3.9304210413573726"><ele>954.0</ele><time>2026-04-09T15:41:56Z</time></trkpt><trkpt lat="39.57519308268364" lon="-3.9305756896995763"><ele>954.0</ele><time>2026-04-09T15:41:57Z</time></trkpt><trkpt lat="39.57516343594771" lon="-3.93072495522908"><ele>954.0000000000001</ele><time>2026-04-09T15:41:58Z</time></trkpt><trkpt lat="39.57513787649186" lon="-3.9308568214535056"><ele>954.0000000000001</ele><time>2026-04-09T15:41:59Z</time></trkpt><trkpt lat="39.57511327933873" lon="-3.930975824668228"><ele>954.0</ele><time>2026-04-09T15:42:00Z</time></trkpt><trkpt lat="39.57509172804319" lon="-3.931097652113538"><ele>954.0</ele><time>2026-04-09T15:42:01Z</time></trkpt><trkpt lat="39.57505810457205" lon="-3.93122865940517"><ele>953.75</ele><time>2026-04-09T15:42:02Z</time></trkpt><trkpt lat="39.57501626308553" lon="-3.9313716927477884"><ele>953.5</ele><time>2026-04-09T15:42:03Z</time></trkpt><trkpt lat="39.57496905171865" lon="-3.9315296953338486"><ele>953.25</ele><time>2026-04-09T15:42:04Z</time></trkpt><trkpt lat="39.574909784212075" lon="-3.9316920317846757"><ele>953.0</ele><time>2026-04-09T15:42:05Z</time></trkpt><trkpt lat="39.57483076097268" lon="-3.9318440890232726"><ele>953.5</ele><time>2026-04-09T15:42:06Z</time></trkpt><trkpt lat="39.57473041202935" lon="-3.9319734550346737"><ele>954.0</ele><time>2026-04-09T15:42:07Z</time></trkpt><trkpt lat="39.574641729691635" lon="-3.9320848676546474"><ele>954.5</ele><time>2026-04-09T15:42:08Z</time></trkpt><trkpt lat="39.574564471364525" lon="-3.932182119606426"><ele>955.0</ele><time>2026-04-09T15:42:09Z</time></trkpt><trkpt lat="39.574473562253736" lon="-3.932234486476491"><ele>955.0</ele><time>2026-04-09T15:42:10Z</time></trkpt><trkpt lat="39.57438844779358" lon="-3.9322298910756652"><ele>955.0</ele><time>2026-04-09T15:42:11Z</time></trkpt><trkpt lat="39.57428867620084" lon="-3.932205682446179"><ele>955.0</ele><time>2026-04-09T15:42:12Z</time></trkpt><trkpt lat="39.57419804188354" lon="-3.932099708225547"><ele>955.0</ele><time>2026-04-09T15:42:13Z</time></trkpt><trkpt lat="39.5741132241092" lon="-3.9319799234454296"><ele>955.0</ele><time>2026-04-09T15:42:14Z</time></trkpt><trkpt lat="39.574023659953475" lon="-3.9318523577231996"><ele>952.75</ele><time>2026-04-09T15:42:15Z</time></trkpt><trkpt lat="39.57393649132235" lon="-3.931702312594875"><ele>950.5</ele><time>2026-04-09T15:42:16Z</time></trkpt><trkpt lat="39.573830430525064" lon="-3.9315775458202546"><ele>948.25</ele><time>2026-04-09T15:42:17Z</time></trkpt><trkpt lat="39.573752386180864" lon="-3.931462942010383"><ele>946.0</ele><time>2026-04-09T15:42:17.999Z</time></trkpt><trkpt lat="39.57368073324764" lon="-3.931361946217886"><ele>946.0</ele><time>2026-04-09T15:42:18.999Z</time></trkpt><trkpt lat="39.57358128908532" lon="-3.9312804076572085"><ele>946.0</ele><time>2026-04-09T15:42:19.999Z</time></trkpt><trkpt lat="39.57347219460172" lon="-3.9311896948084057"><ele>946.0</ele><time>2026-04-09T15:42:20.999Z</time></trkpt><trkpt lat="39.57335077012108" lon="-3.9311050574581965"><ele>946.0</ele><time>2026-04-09T15:42:21.999Z</time></trkpt><trkpt lat="39.573226945157835" lon="-3.9310286521302538"><ele>946.0</ele><time>2026-04-09T15:42:22.999Z</time></trkpt><trkpt lat="39.57310251043309" lon="-3.9309393427524406"><ele>946.0</ele><time>2026-04-09T15:42:23.999Z</time></trkpt><trkpt lat="39.57299252002156" lon="-3.9308135025872364"><ele>946.0</ele><time>2026-04-09T15:42:24.999Z</time></trkpt><trkpt lat="39.57289415454011" lon="-3.930671489992701"><ele>946.0</ele><time>2026-04-09T15:42:25.999Z</time></trkpt><trkpt lat="39.572802849907404" lon="-3.930523756142125"><ele>944.0</ele><time>2026-04-09T15:42:26.999Z</time></trkpt><trkpt lat="39.57271415028393" lon="-3.9303692455137544"><ele>942.0</ele><time>2026-04-09T15:42:27.999Z</time></trkpt><trkpt lat="39.57262035893573" lon="-3.9302188861458944"><ele>940.0</ele><time>2026-04-09T15:42:28.999Z</time></trkpt><trkpt lat="39.57253099892701" lon="-3.9300760332360873"><ele>938.0</ele><time>2026-04-09T15:42:29.999Z</time></trkpt><trkpt lat="39.572448063666364" lon="-3.9299408389435198"><ele>933.5</ele><time>2026-04-09T15:42:30.999Z</time></trkpt><trkpt lat="39.57235488323917" lon="-3.929831346880754"><ele>929.0</ele><time>2026-04-09T15:42:31.999Z</time></trkpt><trkpt lat="39.5722874866527" lon="-3.9297046821465025"><ele>924.5</ele><time>2026-04-09T15:42:32.999Z</time></trkpt><trkpt lat="39.57220329363626" lon="-3.929599164997189"><ele>920.0</ele><time>2026-04-09T15:42:33.999Z</time></trkpt><trkpt lat="39.57212428777671" lon="-3.929503075882203"><ele>920.0</ele><time>2026-04-09T15:42:34.999Z</time></trkpt><trkpt lat="39.57203903029038" lon="-3.9294106793409638"><ele>920.0</ele><time>2026-04-09T15:42:35.999Z</time></trkpt><trkpt lat="39.57193300360221" lon="-3.929345069175948"><ele>920.0</ele><time>2026-04-09T15:42:36.999Z</time></trkpt><trkpt lat="39.571836241883574" lon="-3.929281766724823"><ele>920.0</ele><time>2026-04-09T15:42:37.999Z</time></trkpt><trkpt lat="39.571731831098546" lon="-3.92922390561413"><ele>917.75</ele><time>2026-04-09T15:42:38.999Z</time></trkpt><trkpt lat="39.571625012461354" lon="-3.9291846987130294"><ele>915.5</ele><time>2026-04-09T15:42:39.999Z</time></trkpt><trkpt lat="39.57151352710183" lon="-3.929157735465863"><ele>913.25</ele><time>2026-04-09T15:42:40.999Z</time></trkpt><trkpt lat="39.571395960339544" lon="-3.929150201045863"><ele>911.0</ele><time>2026-04-09T15:42:41.999Z</time></trkpt><trkpt lat="39.57127926288534" lon="-3.929163243350241"><ele>910.25</ele><time>2026-04-09T15:42:42.999Z</time></trkpt><trkpt lat="39.5711659261014" lon="-3.9291732194469704"><ele>909.5</ele><time>2026-04-09T15:42:43.999Z</time></trkpt><trkpt lat="39.571058407189376" lon="-3.929226594899092"><ele>908.75</ele><time>2026-04-09T15:42:44.999Z</time></trkpt><trkpt lat="39.57094601690291" lon="-3.929301421464664"><ele>908.0</ele><time>2026-04-09T15:42:45.999Z</time></trkpt><trkpt lat="39.57084361142082" lon="-3.9293914929562446"><ele>908.0</ele><time>2026-04-09T15:42:46.999Z</time></trkpt><trkpt lat="39.57075345140256" lon="-3.929481160660339"><ele>908.0</ele><time>2026-04-09T15:42:47.999Z</time></trkpt><trkpt lat="39.57067481631498" lon="-3.9295592338434737"><ele>908.0</ele><time>2026-04-09T15:42:48.999Z</time></trkpt><trkpt lat="39.57060881887127" lon="-3.929630312282487"><ele>908.0</ele><time>2026-04-09T15:42:49.999Z</time></trkpt><trkpt lat="39.570554028178904" lon="-3.929703568277718"><ele>908.0</ele><time>2026-04-09T15:42:50.999Z</time></trkpt><trkpt lat="39.57049900583829" lon="-3.9297884510804075"><ele>908.0</ele><time>2026-04-09T15:42:52.999Z</time></trkpt><trkpt lat="39.5704431601525" lon="-3.929866649428055"><ele>908.0</ele><time>2026-04-09T15:42:54.999Z</time></trkpt><trkpt lat="39.57037820905876" lon="-3.929947482737199"><ele>908.0</ele><time>2026-04-09T15:42:56.999Z</time></trkpt><trkpt lat="39.57030881031845" lon="-3.930045307415558"><ele>908.0</ele><time>2026-04-09T15:42:58.999Z</time></trkpt><trkpt lat="39.570217492738024" lon="-3.930160986653084"><ele>908.0</ele><time>2026-04-09T15:43:00.999Z</time></trkpt><trkpt lat="39.57015298386727" lon="-3.930256169836806"><ele>906.1666666666667</ele><time>2026-04-09T15:43:01.998Z</time></trkpt><trkpt lat="39.57010733066504" lon="-3.930326155743042"><ele>904.3333333333334</ele><time>2026-04-09T15:43:02.998Z</time></trkpt><trkpt lat="39.570045257480764" lon="-3.9304164540067834"><ele>902.5</ele><time>2026-04-09T15:43:04.998Z</time></trkpt><trkpt lat="39.56997943676304" lon="-3.9305040521385646"><ele>900.6666666666667</ele><time>2026-04-09T15:43:06.998Z</time></trkpt><trkpt lat="39.56990365350794" lon="-3.930591366823104"><ele>898.8333333333334</ele><time>2026-04-09T15:43:08.998Z</time></trkpt><trkpt lat="39.56985635069343" lon="-3.930660404876224"><ele>897.0</ele><time>2026-04-09T15:43:09.998Z</time></trkpt><trkpt lat="39.56977989143283" lon="-3.9307308754855903"><ele>897.0</ele><time>2026-04-09T15:43:11.998Z</time></trkpt><trkpt lat="39.56966926907264" lon="-3.930701309133054"><ele>897.0</ele><time>2026-04-09T15:43:14.998Z</time></trkpt><trkpt lat="39.569605782271985" lon="-3.9306445049249885"><ele>897.0</ele><time>2026-04-09T15:43:17.998Z</time></trkpt><trkpt lat="39.56955866818611" lon="-3.930559314803143"><ele>897.0</ele><time>2026-04-09T15:43:19.998Z</time></trkpt><trkpt lat="39.56949850129915" lon="-3.930477215629385"><ele>897.0</ele><time>2026-04-09T15:43:21.998Z</time></trkpt><trkpt lat="39.569463291293964" lon="-3.9303838692334505"><ele>897.0</ele><time>2026-04-09T15:43:23.998Z</time></trkpt><trkpt lat="39.569450380953946" lon="-3.930286410493173"><ele>894.5714285714286</ele><time>2026-04-09T15:43:25.998Z</time></trkpt><trkpt lat="39.56940514670538" lon="-3.9302135383707526"><ele>892.1428571428571</ele><time>2026-04-09T15:43:27.998Z</time></trkpt><trkpt lat="39.56934755875559" lon="-3.9301293258907455"><ele>889.7142857142857</ele><time>2026-04-09T15:43:29.998Z</time></trkpt><trkpt lat="39.56930231861593" lon="-3.9300716575740022"><ele>887.2857142857142</ele><time>2026-04-09T15:43:31.998Z</time></trkpt><trkpt lat="39.56924957093528" lon="-3.9301321334690758"><ele>884.8571428571429</ele><time>2026-04-09T15:44:28.999Z</time></trkpt><trkpt lat="39.56927488330712" lon="-3.9300516595892176"><ele>882.4285714285713</ele><time>2026-04-09T15:45:08.999Z</time></trkpt><trkpt lat="39.56927583312601" lon="-3.9299641498648707"><ele>880.0</ele><time>2026-04-09T15:45:16.998Z</time></trkpt><trkpt lat="39.569310208745534" lon="-3.93003642571587"><ele>879.8</ele><time>2026-04-09T15:46:06Z</time></trkpt><trkpt lat="39.56942712520617" lon="-3.929980892665519"><ele>879.6</ele><time>2026-04-09T15:50:22Z</time></trkpt><trkpt lat="39.56949473277495" lon="-3.9299545794135007"><ele>879.4000000000001</ele><time>2026-04-09T15:50:24Z</time></trkpt><trkpt lat="39.5695546527009" lon="-3.929872699605076"><ele>879.2</ele><time>2026-04-09T15:50:26Z</time></trkpt><trkpt lat="39.56957582242508" lon="-3.9297372791901686"><ele>879.0</ele><time>2026-04-09T15:50:28Z</time></trkpt><trkpt lat="39.5695709091937" lon="-3.9296447993299206"><ele>878.4000000000001</ele><time>2026-04-09T15:50:32Z</time></trkpt><trkpt lat="39.569590494823046" lon="-3.9294959479576685"><ele>877.8000000000001</ele><time>2026-04-09T15:50:35Z</time></trkpt><trkpt lat="39.56953896628731" lon="-3.929394665493595"><ele>877.1999999999999</ele><time>2026-04-09T15:50:36Z</time></trkpt><trkpt lat="39.569533718547945" lon="-3.929255742801153"><ele>876.5999999999999</ele><time>2026-04-09T15:50:37Z</time></trkpt><trkpt lat="39.5695249615785" lon="-3.9290964105203563"><ele>876.0</ele><time>2026-04-09T15:50:38Z</time></trkpt><trkpt lat="39.5695280841109" lon="-3.9289504570635705"><ele>876.0</ele><time>2026-04-09T15:50:39Z</time></trkpt><trkpt lat="39.56952286815747" lon="-3.9288263394496408"><ele>875.9999999999999</ele><time>2026-04-09T15:50:40Z</time></trkpt><trkpt lat="39.569503839930235" lon="-3.928740612517462"><ele>875.9999999999999</ele><time>2026-04-09T15:50:41.999Z</time></trkpt><trkpt lat="39.56943530577822" lon="-3.9287125239818406"><ele>876.0</ele><time>2026-04-09T15:50:44.999Z</time></trkpt><trkpt lat="39.56933002410953" lon="-3.9288592697773126"><ele>876.0</ele><time>2026-04-09T15:50:45.999Z</time></trkpt><trkpt lat="39.569233227307585" lon="-3.928899473267314"><ele>876.0</ele><time>2026-04-09T15:50:46.999Z</time></trkpt><trkpt lat="39.56914875128011" lon="-3.9289526374731163"><ele>875.9999999999999</ele><time>2026-04-09T15:50:47.999Z</time></trkpt><trkpt lat="39.56906128275104" lon="-3.929003248652406"><ele>875.9999999999999</ele><time>2026-04-09T15:50:48.999Z</time></trkpt><trkpt lat="39.56897249545563" lon="-3.929054490299274"><ele>876.0</ele><time>2026-04-09T15:50:49.999Z</time></trkpt><trkpt lat="39.56888819883531" lon="-3.9291064422044086"><ele>876.0</ele><time>2026-04-09T15:50:50.999Z</time></trkpt><trkpt lat="39.56878850543661" lon="-3.9291714320816413"><ele>876.0</ele><time>2026-04-09T15:50:51.999Z</time></trkpt><trkpt lat="39.56871175761488" lon="-3.929221056622926"><ele>876.0</ele><time>2026-04-09T15:50:52.999Z</time></trkpt><trkpt lat="39.56864215416641" lon="-3.92925773133477"><ele>876.0</ele><time>2026-04-09T15:50:53.999Z</time></trkpt><trkpt lat="39.56857701044038" lon="-3.929279792080106"><ele>876.0</ele><time>2026-04-09T15:50:54.999Z</time></trkpt><trkpt lat="39.568505878273854" lon="-3.929297821976237"><ele>876.0</ele><time>2026-04-09T15:50:55.999Z</time></trkpt><trkpt lat="39.56843025768861" lon="-3.929233127983838"><ele>876.0</ele><time>2026-04-09T15:50:56.999Z</time></trkpt><trkpt lat="39.56834472897488" lon="-3.929197977156246"><ele>872.75</ele><time>2026-04-09T15:50:58.999Z</time></trkpt><trkpt lat="39.56833960488699" lon="-3.929031539430844"><ele>869.5</ele><time>2026-04-09T15:51:02.999Z</time></trkpt><trkpt lat="39.56838760799322" lon="-3.9289681469481663"><ele>866.25</ele><time>2026-04-09T15:51:06.999Z</time></trkpt><trkpt lat="39.568519073712174" lon="-3.928796630117425"><ele>863.0</ele><time>2026-04-09T15:51:07.999Z</time></trkpt><trkpt lat="39.56861413124563" lon="-3.928672610990734"><ele>863.0</ele><time>2026-04-09T15:51:09.999Z</time></trkpt><trkpt lat="39.56866330286365" lon="-3.92860548980401"><ele>863.0</ele><time>2026-04-09T15:51:10.999Z</time></trkpt><trkpt lat="39.56870557457618" lon="-3.928530648627795"><ele>863.0</ele><time>2026-04-09T15:51:11.999Z</time></trkpt><trkpt lat="39.5687483971842" lon="-3.928378143765489"><ele>863.0</ele><time>2026-04-09T15:51:13.999Z</time></trkpt><trkpt lat="39.568818520034434" lon="-3.9282910549976315"><ele>863.0</ele><time>2026-04-09T15:51:14.999Z</time></trkpt><trkpt lat="39.56889443708017" lon="-3.92820895728302"><ele>864.5999999999999</ele><time>2026-04-09T15:51:15.999Z</time></trkpt><trkpt lat="39.56896345636175" lon="-3.9281331533935147"><ele>866.1999999999999</ele><time>2026-04-09T15:51:16.999Z</time></trkpt><trkpt lat="39.569058849424415" lon="-3.9280350882901094"><ele>867.8</ele><time>2026-04-09T15:51:17.999Z</time></trkpt><trkpt lat="39.56912915244829" lon="-3.9279646825480437"><ele>869.4</ele><time>2026-04-09T15:51:18.999Z</time></trkpt><trkpt lat="39.569199344213615" lon="-3.927886412879753"><ele>871.0</ele><time>2026-04-09T15:51:19.999Z</time></trkpt><trkpt lat="39.56927139408565" lon="-3.9278026713331804"><ele>871.0</ele><time>2026-04-09T15:51:20.999Z</time></trkpt><trkpt lat="39.56934674922176" lon="-3.9277262817370135"><ele>870.9999999999999</ele><time>2026-04-09T15:51:21.999Z</time></trkpt><trkpt lat="39.56942655971463" lon="-3.927666637233925"><ele>870.9999999999999</ele><time>2026-04-09T15:51:22.999Z</time></trkpt><trkpt lat="39.56950493432075" lon="-3.927605024416823"><ele>871.0</ele><time>2026-04-09T15:51:23.999Z</time></trkpt><trkpt lat="39.56957510676278" lon="-3.9275317048206078"><ele>871.0</ele><time>2026-04-09T15:51:24.998Z</time></trkpt><trkpt lat="39.56965613239965" lon="-3.9274820177453598"><ele>871.9999999999999</ele><time>2026-04-09T15:51:25.998Z</time></trkpt><trkpt lat="39.56973474047413" lon="-3.9274689827873206"><ele>873.0</ele><time>2026-04-09T15:51:26.998Z</time></trkpt><trkpt lat="39.56980772775496" lon="-3.927456766808018"><ele>874.0</ele><time>2026-04-09T15:51:27.998Z</time></trkpt><trkpt lat="39.56988339096785" lon="-3.927457837498342"><ele>875.0</ele><time>2026-04-09T15:51:28.998Z</time></trkpt><trkpt lat="39.569968541082694" lon="-3.9274588942817017"><ele>875.9999999999999</ele><time>2026-04-09T15:51:29.998Z</time></trkpt><trkpt lat="39.5700505753473" lon="-3.927419526813331"><ele>877.0</ele><time>2026-04-09T15:51:30.998Z</time></trkpt><trkpt lat="39.57014810436013" lon="-3.927391024704484"><ele>877.0</ele><time>2026-04-09T15:51:32.998Z</time></trkpt><trkpt lat="39.57029971009455" lon="-3.9273608494822585"><ele>877.0</ele><time>2026-04-09T15:51:34.998Z</time></trkpt><trkpt lat="39.570363998815715" lon="-3.9273357220558873"><ele>877.0</ele><time>2026-04-09T15:51:35.998Z</time></trkpt><trkpt lat="39.57046536768472" lon="-3.9273122431341423"><ele>877.0</ele><time>2026-04-09T15:51:36.998Z</time></trkpt><trkpt lat="39.57053415436861" lon="-3.9273128515161853"><ele>877.0</ele><time>2026-04-09T15:51:37.998Z</time></trkpt><trkpt lat="39.570597203352975" lon="-3.927277265963181"><ele>877.9999999999999</ele><time>2026-04-09T15:51:38.998Z</time></trkpt><trkpt lat="39.57066387636535" lon="-3.927249638562518"><ele>879.0</ele><time>2026-04-09T15:51:39.998Z</time></trkpt><trkpt lat="39.57073057953527" lon="-3.9272061934518168"><ele>880.0</ele><time>2026-04-09T15:51:40.998Z</time></trkpt><trkpt lat="39.57079163159276" lon="-3.9271496804306354"><ele>881.0</ele><time>2026-04-09T15:51:41.998Z</time></trkpt><trkpt lat="39.5708529689695" lon="-3.9270817586455085"><ele>881.9999999999999</ele><time>2026-04-09T15:51:42.998Z</time></trkpt><trkpt lat="39.57091546558319" lon="-3.9270126999064225"><ele>883.0</ele><time>2026-04-09T15:51:43.998Z</time></trkpt><trkpt lat="39.57097927379799" lon="-3.926946451631122"><ele>882.9999999999999</ele><time>2026-04-09T15:51:44.998Z</time></trkpt><trkpt lat="39.57106229697089" lon="-3.926876679519563"><ele>883.0</ele><time>2026-04-09T15:51:45.998Z</time></trkpt><trkpt lat="39.57114831360778" lon="-3.9268346380094274"><ele>883.0</ele><time>2026-04-09T15:51:46.998Z</time></trkpt><trkpt lat="39.571210176014255" lon="-3.9268032598798333"><ele>883.0</ele><time>2026-04-09T15:51:47.998Z</time></trkpt><trkpt lat="39.571281999690996" lon="-3.926766829306364"><ele>882.9999999999999</ele><time>2026-04-09T15:51:48.998Z</time></trkpt><trkpt lat="39.57137681787741" lon="-3.926718735408651"><ele>883.0</ele><time>2026-04-09T15:51:50.998Z</time></trkpt><trkpt lat="39.57149114173647" lon="-3.9269661311283164"><ele>884.1666666666666</ele><time>2026-04-09T15:51:51.998Z</time></trkpt><trkpt lat="39.571554401298044" lon="-3.9270141345414196"><ele>885.3333333333333</ele><time>2026-04-09T15:51:52.998Z</time></trkpt><trkpt lat="39.571626800872174" lon="-3.9270641363266146"><ele>886.5</ele><time>2026-04-09T15:51:53.998Z</time></trkpt><trkpt lat="39.57170142122089" lon="-3.9270842298736666"><ele>887.6666666666667</ele><time>2026-04-09T15:51:56.998Z</time></trkpt><trkpt lat="39.571785595356985" lon="-3.9270584431457047"><ele>888.8333333333334</ele><time>2026-04-09T15:51:59.998Z</time></trkpt><trkpt lat="39.571890550285936" lon="-3.9269962380084"><ele>890.0</ele><time>2026-04-09T15:52:01.998Z</time></trkpt><trkpt lat="39.57198883671347" lon="-3.9269532128613087"><ele>892.8</ele><time>2026-04-09T15:52:03.998Z</time></trkpt><trkpt lat="39.57207072634681" lon="-3.926881252399128"><ele>895.6</ele><time>2026-04-09T15:52:05.998Z</time></trkpt><trkpt lat="39.57212642621159" lon="-3.9268421947193235"><ele>898.4000000000001</ele><time>2026-04-09T15:52:06.998Z</time></trkpt><trkpt lat="39.57223779649239" lon="-3.9267899720635966"><ele>901.2</ele><time>2026-04-09T15:52:08.997Z</time></trkpt><trkpt lat="39.57233532207644" lon="-3.9267285645904955"><ele>904.0</ele><time>2026-04-09T15:52:10.997Z</time></trkpt><trkpt lat="39.57242213284491" lon="-3.9266417543661993"><ele>903.9999999999999</ele><time>2026-04-09T15:52:13Z</time></trkpt><trkpt lat="39.5724951100607" lon="-3.9265879879321237"><ele>904.0</ele><time>2026-04-09T15:52:15Z</time></trkpt><trkpt lat="39.572584747333316" lon="-3.9265524407075083"><ele>904.0</ele><time>2026-04-09T15:52:17Z</time></trkpt><trkpt lat="39.57265212021451" lon="-3.9265285816683506"><ele>904.0</ele><time>2026-04-09T15:52:19Z</time></trkpt><trkpt lat="39.572751434695995" lon="-3.9264842556705184"><ele>903.9999999999999</ele><time>2026-04-09T15:52:22Z</time></trkpt><trkpt lat="39.5726784985933" lon="-3.9264724659043675"><ele>904.0</ele><time>2026-04-09T15:53:47.998Z</time></trkpt><trkpt lat="39.572743854494746" lon="-3.926464089882026"><ele>903.9999999999999</ele><time>2026-04-09T15:55:13.999Z</time></trkpt><trkpt lat="39.57279694420149" lon="-3.9264096885172948"><ele>904.0</ele><time>2026-04-09T15:55:15.999Z</time></trkpt><trkpt lat="39.572869002748206" lon="-3.926330878457213"><ele>904.0</ele><time>2026-04-09T15:55:17.999Z</time></trkpt><trkpt lat="39.57297784094516" lon="-3.9262793999767056"><ele>904.0</ele><time>2026-04-09T15:55:20.999Z</time></trkpt><trkpt lat="39.57303840800977" lon="-3.9261963293972015"><ele>903.9999999999999</ele><time>2026-04-09T15:55:22.999Z</time></trkpt><trkpt lat="39.57299976212589" lon="-3.9262635923017024"><ele>904.0</ele><time>2026-04-09T15:55:41.998Z</time></trkpt><trkpt lat="39.572933645487566" lon="-3.926305068782039"><ele>907.1666666666666</ele><time>2026-04-09T15:55:46.998Z</time></trkpt><trkpt lat="39.57292856284165" lon="-3.9262174223442203"><ele>910.3333333333333</ele><time>2026-04-09T15:56:15.998Z</time></trkpt><trkpt lat="39.573014899563525" lon="-3.9261819160303117"><ele>913.5</ele><time>2026-04-09T15:57:05.999Z</time></trkpt><trkpt lat="39.57307204291422" lon="-3.9260934491040036"><ele>916.6666666666667</ele><time>2026-04-09T15:57:56.998Z</time></trkpt><trkpt lat="39.57310727694373" lon="-3.9259997386936223"><ele>919.8333333333334</ele><time>2026-04-09T15:57:58.998Z</time></trkpt><trkpt lat="39.573169655799774" lon="-3.925947107852192"><ele>923.0</ele><time>2026-04-09T15:58:00.998Z</time></trkpt><trkpt lat="39.57326542048097" lon="-3.925904174663505"><ele>923.6666666666667</ele><time>2026-04-09T15:58:02.998Z</time></trkpt><trkpt lat="39.57333216475749" lon="-3.9258804209277534"><ele>924.3333333333334</ele><time>2026-04-09T15:59:15.999Z</time></trkpt><trkpt lat="39.57339223259433" lon="-3.9258063861314625"><ele>925.0</ele><time>2026-04-09T15:59:17.999Z</time></trkpt><trkpt lat="39.57348532679478" lon="-3.925738561776803"><ele>925.6666666666667</ele><time>2026-04-09T15:59:19.999Z</time></trkpt><trkpt lat="39.57355606774329" lon="-3.9256711122525614"><ele>926.3333333333334</ele><time>2026-04-09T15:59:21.999Z</time></trkpt><trkpt lat="39.57361726291297" lon="-3.925644825524767"><ele>927.0</ele><time>2026-04-09T15:59:23.999Z</time></trkpt><trkpt lat="39.573685952022515" lon="-3.925594079453992"><ele>930.4000000000001</ele><time>2026-04-09T15:59:25.999Z</time></trkpt><trkpt lat="39.57376793266516" lon="-3.9255783658192"><ele>933.8000000000001</ele><time>2026-04-09T15:59:27.999Z</time></trkpt><trkpt lat="39.57386842006505" lon="-3.925623251081878"><ele>937.2</ele><time>2026-04-09T15:59:29.999Z</time></trkpt><trkpt lat="39.57395373012111" lon="-3.9256448660807433"><ele>940.6</ele><time>2026-04-09T15:59:31.999Z</time></trkpt><trkpt lat="39.57404919026747" lon="-3.9256316372109064"><ele>944.0</ele><time>2026-04-09T15:59:35.999Z</time></trkpt><trkpt lat="39.574143355919595" lon="-3.925619907518832"><ele>944.0</ele><time>2026-04-09T15:59:37.999Z</time></trkpt><trkpt lat="39.57423525914772" lon="-3.9255557939750223"><ele>944.0000000000001</ele><time>2026-04-09T15:59:39.999Z</time></trkpt><trkpt lat="39.57428746860241" lon="-3.9254848557759763"><ele>944.0000000000001</ele><time>2026-04-09T15:59:41.999Z</time></trkpt><trkpt lat="39.57435061093886" lon="-3.9254355648093053"><ele>944.0</ele><time>2026-04-09T15:59:44.999Z</time></trkpt><trkpt lat="39.574413475253884" lon="-3.925333183042366"><ele>944.0</ele><time>2026-04-09T15:59:45.999Z</time></trkpt><trkpt lat="39.57448398955839" lon="-3.9252156725857965"><ele>947.2</ele><time>2026-04-09T15:59:47.998Z</time></trkpt><trkpt lat="39.57455628827647" lon="-3.9251568593381894"><ele>950.4000000000001</ele><time>2026-04-09T15:59:49.998Z</time></trkpt><trkpt lat="39.574657242061754" lon="-3.925099456129826"><ele>953.6</ele><time>2026-04-09T15:59:51.998Z</time></trkpt><trkpt lat="39.57474246149175" lon="-3.9250097434450284"><ele>956.8</ele><time>2026-04-09T15:59:53.998Z</time></trkpt><trkpt lat="39.574821144172624" lon="-3.924923005429159"><ele>960.0</ele><time>2026-04-09T15:59:55.998Z</time></trkpt><trkpt lat="39.57489337737588" lon="-3.9248806416135933"><ele>960.0</ele><time>2026-04-09T15:59:57.998Z</time></trkpt><trkpt lat="39.57494503859001" lon="-3.924813826993397"><ele>960.0</ele><time>2026-04-09T15:59:59.998Z</time></trkpt><trkpt lat="39.57499361750666" lon="-3.9247323046443294"><ele>960.0</ele><time>2026-04-09T16:00:01.998Z</time></trkpt><trkpt lat="39.575089335996516" lon="-3.924655591689322"><ele>960.0</ele><time>2026-04-09T16:00:03.998Z</time></trkpt><trkpt lat="39.57518319596169" lon="-3.924623120731969"><ele>960.0</ele><time>2026-04-09T16:00:05.998Z</time></trkpt><trkpt lat="39.575270248657475" lon="-3.92457206646947"><ele>960.0</ele><time>2026-04-09T16:00:08.998Z</time></trkpt><trkpt lat="39.57533809776336" lon="-3.9245074995633478"><ele>960.0</ele><time>2026-04-09T16:00:10.998Z</time></trkpt><trkpt lat="39.57542284284402" lon="-3.924418782552273"><ele>960.0</ele><time>2026-04-09T16:00:13.998Z</time></trkpt><trkpt lat="39.57549550372276" lon="-3.9243318306963144"><ele>960.0</ele><time>2026-04-09T16:00:15.998Z</time></trkpt><trkpt lat="39.57554650537291" lon="-3.9242595166461163"><ele>960.0</ele><time>2026-04-09T16:00:17.998Z</time></trkpt><trkpt lat="39.57561880058569" lon="-3.9241657544782864"><ele>962.5</ele><time>2026-04-09T16:00:19.998Z</time></trkpt><trkpt lat="39.57566274526342" lon="-3.924095101964831"><ele>965.0</ele><time>2026-04-09T16:00:21.998Z</time></trkpt><trkpt lat="39.57572811815518" lon="-3.9240262724601735"><ele>967.5</ele><time>2026-04-09T16:00:23.998Z</time></trkpt><trkpt lat="39.57577712879123" lon="-3.923973430043111"><ele>970.0</ele><time>2026-04-09T16:00:25.998Z</time></trkpt><trkpt lat="39.57582638067504" lon="-3.923907549205945"><ele>972.5</ele><time>2026-04-09T16:00:27.998Z</time></trkpt><trkpt lat="39.57585650132695" lon="-3.9238000940213476"><ele>975.0</ele><time>2026-04-09T16:00:29.998Z</time></trkpt><trkpt lat="39.575912115456255" lon="-3.923675052517374"><ele>975.0</ele><time>2026-04-09T16:00:31.998Z</time></trkpt><trkpt lat="39.575929694045534" lon="-3.923562655714022"><ele>975.0</ele><time>2026-04-09T16:00:33.997Z</time></trkpt><trkpt lat="39.575970614677644" lon="-3.923470988006819"><ele>975.0</ele><time>2026-04-09T16:00:36Z</time></trkpt><trkpt lat="39.575997027943835" lon="-3.923390893546554"><ele>975.0</ele><time>2026-04-09T16:00:38Z</time></trkpt><trkpt lat="39.576065911288204" lon="-3.923323428041567"><ele>975.0</ele><time>2026-04-09T16:00:40Z</time></trkpt><trkpt lat="39.57611234257953" lon="-3.9232269360943404"><ele>975.0</ele><time>2026-04-09T16:00:42Z</time></trkpt><trkpt lat="39.57615577592196" lon="-3.9231082913748816"><ele>979.0</ele><time>2026-04-09T16:00:44Z</time></trkpt><trkpt lat="39.576199909813724" lon="-3.9230495922005826"><ele>983.0</ele><time>2026-04-09T16:00:45Z</time></trkpt><trkpt lat="39.576233634736255" lon="-3.9229655081198422"><ele>987.0</ele><time>2026-04-09T16:00:47Z</time></trkpt><trkpt lat="39.57626796555608" lon="-3.922867668042356"><ele>991.0</ele><time>2026-04-09T16:00:49Z</time></trkpt><trkpt lat="39.57632294660429" lon="-3.922782001833071"><ele>995.0</ele><time>2026-04-09T16:00:51Z</time></trkpt><trkpt lat="39.57637157358154" lon="-3.922702014511468"><ele>999.0</ele><time>2026-04-09T16:00:53Z</time></trkpt><trkpt lat="39.57647475360379" lon="-3.9226619478239537"><ele>999.0</ele><time>2026-04-09T16:00:56Z</time></trkpt><trkpt lat="39.576554763578486" lon="-3.922583550440164"><ele>999.0000000000001</ele><time>2026-04-09T16:00:58Z</time></trkpt><trkpt lat="39.576633027876355" lon="-3.9225220175631854"><ele>999.0000000000001</ele><time>2026-04-09T16:01:00Z</time></trkpt><trkpt lat="39.57670818017434" lon="-3.9224594106097768"><ele>999.0</ele><time>2026-04-09T16:01:02Z</time></trkpt><trkpt lat="39.57679148970209" lon="-3.922395391055647"><ele>999.0</ele><time>2026-04-09T16:01:04Z</time></trkpt><trkpt lat="39.576882637586266" lon="-3.9223398752780327"><ele>997.3333333333334</ele><time>2026-04-09T16:01:06Z</time></trkpt><trkpt lat="39.576969226408245" lon="-3.9222978971821316"><ele>995.6666666666667</ele><time>2026-04-09T16:01:08Z</time></trkpt><trkpt lat="39.577040825633205" lon="-3.9221935231385228"><ele>994.0</ele><time>2026-04-09T16:01:10Z</time></trkpt><trkpt lat="39.57710049495717" lon="-3.9222514451172743"><ele>992.3333333333334</ele><time>2026-04-09T16:01:11.999Z</time></trkpt><trkpt lat="39.577167079328746" lon="-3.9222536207454586"><ele>990.6666666666667</ele><time>2026-04-09T16:01:13.999Z</time></trkpt><trkpt lat="39.57722671950357" lon="-3.9222155153545772"><ele>989.0</ele><time>2026-04-09T16:01:15.999Z</time></trkpt><trkpt lat="39.57731843848172" lon="-3.9221812650982124"><ele>993.4000000000001</ele><time>2026-04-09T16:01:36.999Z</time></trkpt><trkpt lat="39.57741151624092" lon="-3.9221143371653264"><ele>997.8000000000001</ele><time>2026-04-09T16:01:38.999Z</time></trkpt><trkpt lat="39.57748625663482" lon="-3.922052362993039"><ele>1002.1999999999999</ele><time>2026-04-09T16:01:41.999Z</time></trkpt><trkpt lat="39.577559575134" lon="-3.922000950460568"><ele>1006.5999999999999</ele><time>2026-04-09T16:01:43.999Z</time></trkpt><trkpt lat="39.57765395501358" lon="-3.9219249656701693"><ele>1011.0</ele><time>2026-04-09T16:01:45.999Z</time></trkpt><trkpt lat="39.577724135556984" lon="-3.9219043192562615"><ele>1010.9999999999999</ele><time>2026-04-09T16:01:50.999Z</time></trkpt><trkpt lat="39.57779310874253" lon="-3.921902904739078"><ele>1011.0</ele><time>2026-04-09T16:03:33.999Z</time></trkpt><trkpt lat="39.57787353666123" lon="-3.921924347366828"><ele>1010.9999999999999</ele><time>2026-04-09T16:03:36.999Z</time></trkpt><trkpt lat="39.577939444789436" lon="-3.921944181448133"><ele>1010.9999999999999</ele><time>2026-04-09T16:03:38.999Z</time></trkpt><trkpt lat="39.577990148802925" lon="-3.921999367680099"><ele>1011.0</ele><time>2026-04-09T16:03:41.999Z</time></trkpt><trkpt lat="39.57805441132195" lon="-3.92203254253452"><ele>1010.9999999999999</ele><time>2026-04-09T16:03:44.999Z</time></trkpt><trkpt lat="39.57812185183022" lon="-3.922057229572166"><ele>1010.9999999999999</ele><time>2026-04-09T16:05:09Z</time></trkpt><trkpt lat="39.57819588018967" lon="-3.9220153565717966"><ele>1013.1666666666666</ele><time>2026-04-09T16:05:11Z</time></trkpt><trkpt lat="39.57828958691723" lon="-3.921963151251611"><ele>1015.3333333333333</ele><time>2026-04-09T16:05:15Z</time></trkpt><trkpt lat="39.57835891449059" lon="-3.9219786311350813"><ele>1017.5</ele><time>2026-04-09T16:05:16Z</time></trkpt><trkpt lat="39.578417976743346" lon="-3.9219242586260825"><ele>1019.6666666666666</ele><time>2026-04-09T16:05:17Z</time></trkpt><trkpt lat="39.57851069548037" lon="-3.9219686124024236"><ele>1021.8333333333333</ele><time>2026-04-09T16:05:19Z</time></trkpt><trkpt lat="39.57860409605211" lon="-3.921961833303331"><ele>1024.0</ele><time>2026-04-09T16:05:21Z</time></trkpt><trkpt lat="39.57857726710546" lon="-3.9217712944915077"><ele>1023.0</ele><time>2026-04-09T16:05:22Z</time></trkpt><trkpt lat="39.578579839408576" lon="-3.921642538089783"><ele>1022.0</ele><time>2026-04-09T16:05:23.999Z</time></trkpt><trkpt lat="39.57857376394968" lon="-3.921504415120825"><ele>1021.0</ele><time>2026-04-09T16:05:25.999Z</time></trkpt><trkpt lat="39.57856539438526" lon="-3.9213720761738107"><ele>1020.0</ele><time>2026-04-09T16:05:27.999Z</time></trkpt><trkpt lat="39.57855344000042" lon="-3.921181461361714"><ele>1020.0</ele><time>2026-04-09T16:05:29.999Z</time></trkpt><trkpt lat="39.578555835544876" lon="-3.9210657382808876"><ele>1020.0</ele><time>2026-04-09T16:05:30.999Z</time></trkpt><trkpt lat="39.57858689030174" lon="-3.9208908972779764"><ele>1020.0</ele><time>2026-04-09T16:05:32.999Z</time></trkpt><trkpt lat="39.57858387556548" lon="-3.9207650833791265"><ele>1020.0</ele><time>2026-04-09T16:05:33.999Z</time></trkpt><trkpt lat="39.578593764540045" lon="-3.9206679693417046"><ele>1020.0</ele><time>2026-04-09T16:05:34.999Z</time></trkpt><trkpt lat="39.57859859474306" lon="-3.9205828292324636"><ele>1021.1666666666666</ele><time>2026-04-09T16:05:35.999Z</time></trkpt><trkpt lat="39.578601078989614" lon="-3.920475979221656"><ele>1022.3333333333333</ele><time>2026-04-09T16:05:36.999Z</time></trkpt><trkpt lat="39.57860135356752" lon="-3.9203657553551494"><ele>1023.5</ele><time>2026-04-09T16:05:37.999Z</time></trkpt><trkpt lat="39.5786159049579" lon="-3.9202439279708714"><ele>1024.6666666666665</ele><time>2026-04-09T16:05:38.999Z</time></trkpt><trkpt lat="39.5786023840894" lon="-3.920137472190098"><ele>1025.8333333333333</ele><time>2026-04-09T16:05:39.999Z</time></trkpt><trkpt lat="39.57860344451109" lon="-3.920032723325568"><ele>1027.0</ele><time>2026-04-09T16:05:40.999Z</time></trkpt><trkpt lat="39.57860444489017" lon="-3.919933905538733"><ele>1027.5</ele><time>2026-04-09T16:05:41.999Z</time></trkpt><trkpt lat="39.57860565448024" lon="-3.9198144218776254"><ele>1028.0</ele><time>2026-04-09T16:05:42.999Z</time></trkpt><trkpt lat="39.57860288301865" lon="-3.9197125645925164"><ele>1028.5</ele><time>2026-04-09T16:05:43.999Z</time></trkpt><trkpt lat="39.57860594967385" lon="-3.9195884298494006"><ele>1029.0</ele><time>2026-04-09T16:05:44.999Z</time></trkpt><trkpt lat="39.57860598673704" lon="-3.91949022132955"><ele>1029.5</ele><time>2026-04-09T16:05:45.999Z</time></trkpt><trkpt lat="39.57861734127026" lon="-3.9193634998176186"><ele>1030.0</ele><time>2026-04-09T16:05:46.999Z</time></trkpt><trkpt lat="39.57859752277198" lon="-3.9192553595542168"><ele>1031.0</ele><time>2026-04-09T16:05:47.999Z</time></trkpt><trkpt lat="39.57859442286506" lon="-3.9191701710943603"><ele>1032.0</ele><time>2026-04-09T16:05:48.999Z</time></trkpt><trkpt lat="39.57859768901858" lon="-3.919040940365264"><ele>1033.0</ele><time>2026-04-09T16:05:49.999Z</time></trkpt><trkpt lat="39.578617890516995" lon="-3.9189138508262222"><ele>1034.0</ele><time>2026-04-09T16:05:50.999Z</time></trkpt><trkpt lat="39.5786081406467" lon="-3.918754917909752"><ele>1035.0</ele><time>2026-04-09T16:05:51.999Z</time></trkpt><trkpt lat="39.578616229001305" lon="-3.918634984976978"><ele>1035.0</ele><time>2026-04-09T16:05:52.999Z</time></trkpt><trkpt lat="39.57862227452768" lon="-3.9184972163411134"><ele>1035.0</ele><time>2026-04-09T16:05:53.999Z</time></trkpt><trkpt lat="39.57860355135421" lon="-3.9183616432024246"><ele>1035.0</ele><time>2026-04-09T16:05:54.999Z</time></trkpt><trkpt lat="39.5785896670942" lon="-3.9182471669749974"><ele>1035.0</ele><time>2026-04-09T16:05:55.999Z</time></trkpt><trkpt lat="39.57858948061531" lon="-3.9181083880076057"><ele>1035.0</ele><time>2026-04-09T16:05:56.999Z</time></trkpt><trkpt lat="39.57858285262468" lon="-3.917988445690472"><ele>1036.2</ele><time>2026-04-09T16:05:57.999Z</time></trkpt><trkpt lat="39.57855400618389" lon="-3.9178685955446033"><ele>1037.4</ele><time>2026-04-09T16:05:58.999Z</time></trkpt><trkpt lat="39.578536457762425" lon="-3.9177481563554983"><ele>1038.6</ele><time>2026-04-09T16:05:59.999Z</time></trkpt><trkpt lat="39.578518347463934" lon="-3.9176234290552667"><ele>1039.8</ele><time>2026-04-09T16:06:00.999Z</time></trkpt><trkpt lat="39.57850258023539" lon="-3.9175148384688168"><ele>1041.0</ele><time>2026-04-09T16:06:01.999Z</time></trkpt><trkpt lat="39.578476438277356" lon="-3.9173299284267653"><ele>1042.3999999999999</ele><time>2026-04-09T16:06:03.999Z</time></trkpt><trkpt lat="39.57846855636743" lon="-3.9172294761780075"><ele>1043.8</ele><time>2026-04-09T16:06:04.999Z</time></trkpt><trkpt lat="39.578456717395746" lon="-3.917097825818186"><ele>1045.1999999999998</ele><time>2026-04-09T16:06:05.999Z</time></trkpt><trkpt lat="39.57846174376268" lon="-3.9169888751938333"><ele>1046.6</ele><time>2026-04-09T16:06:06.999Z</time></trkpt><trkpt lat="39.57846313917708" lon="-3.9168800159068202"><ele>1048.0</ele><time>2026-04-09T16:06:07.999Z</time></trkpt><trkpt lat="39.578515917577725" lon="-3.9167575165415416"><ele>1048.25</ele><time>2026-04-09T16:06:08.998Z</time></trkpt><trkpt lat="39.57856032007146" lon="-3.9166377411182505"><ele>1048.5</ele><time>2026-04-09T16:06:09.998Z</time></trkpt><trkpt lat="39.578618189205784" lon="-3.9164757488805435"><ele>1048.75</ele><time>2026-04-09T16:06:10.998Z</time></trkpt><trkpt lat="39.57866092776491" lon="-3.9163423740625354"><ele>1049.0</ele><time>2026-04-09T16:06:11.998Z</time></trkpt><trkpt lat="39.57869672423817" lon="-3.9162162143896113"><ele>1049.0</ele><time>2026-04-09T16:06:12.998Z</time></trkpt><trkpt lat="39.57871896044699" lon="-3.916114579364402"><ele>1049.0</ele><time>2026-04-09T16:06:13.998Z</time></trkpt><trkpt lat="39.57873325367811" lon="-3.916017086667284"><ele>1049.0</ele><time>2026-04-09T16:06:14.998Z</time></trkpt><trkpt lat="39.57873124008795" lon="-3.9159196187715404"><ele>1049.0</ele><time>2026-04-09T16:06:15.998Z</time></trkpt><trkpt lat="39.578710878350336" lon="-3.9158381540894007"><ele>1049.0</ele><time>2026-04-09T16:06:16.998Z</time></trkpt><trkpt lat="39.57867562108812" lon="-3.9157457451586377"><ele>1049.0</ele><time>2026-04-09T16:06:17.998Z</time></trkpt><trkpt lat="39.578645675646406" lon="-3.915670654623109"><ele>1049.0</ele><time>2026-04-09T16:06:18.998Z</time></trkpt><trkpt lat="39.578601873320515" lon="-3.9155942737923057"><ele>1051.6000000000001</ele><time>2026-04-09T16:06:19.998Z</time></trkpt><trkpt lat="39.57853482396816" lon="-3.915436923762497"><ele>1054.2</ele><time>2026-04-09T16:06:21.998Z</time></trkpt><trkpt lat="39.578475094972944" lon="-3.9155200718043566"><ele>1056.8000000000002</ele><time>2026-04-09T16:06:36.998Z</time></trkpt><trkpt lat="39.57846114116645" lon="-3.9154156302183334"><ele>1059.4</ele><time>2026-04-09T16:07:32.999Z</time></trkpt><trkpt lat="39.57844049599101" lon="-3.915314420983943"><ele>1062.0</ele><time>2026-04-09T16:07:34.999Z</time></trkpt><trkpt lat="39.57838110621119" lon="-3.915251766385576"><ele>1062.0</ele><time>2026-04-09T16:07:35.999Z</time></trkpt><trkpt lat="39.578279920150656" lon="-3.9151134090439457"><ele>1062.0</ele><time>2026-04-09T16:07:37.999Z</time></trkpt><trkpt lat="39.57827040042326" lon="-3.914987214054905"><ele>1062.0</ele><time>2026-04-09T16:07:38.999Z</time></trkpt><trkpt lat="39.57826914008995" lon="-3.9148854155819732"><ele>1062.0</ele><time>2026-04-09T16:07:39.999Z</time></trkpt><trkpt lat="39.578296847365294" lon="-3.9147282639490473"><ele>1062.0</ele><time>2026-04-09T16:07:41.999Z</time></trkpt><trkpt lat="39.57838668599428" lon="-3.914666216567189"><ele>1062.0</ele><time>2026-04-09T16:07:42.999Z</time></trkpt><trkpt lat="39.57842295417673" lon="-3.9145507237651853"><ele>1062.0</ele><time>2026-04-09T16:07:43.999Z</time></trkpt><trkpt lat="39.578396902494525" lon="-3.9144497563889953"><ele>1062.0</ele><time>2026-04-09T16:07:44.999Z</time></trkpt><trkpt lat="39.578368046017694" lon="-3.914261931147159"><ele>1062.0</ele><time>2026-04-09T16:07:46.999Z</time></trkpt><trkpt lat="39.57835375777594" lon="-3.9141546225121693"><ele>1062.0</ele><time>2026-04-09T16:07:47.999Z</time></trkpt><trkpt lat="39.5783388039562" lon="-3.914042885201909"><ele>1062.0</ele><time>2026-04-09T16:07:48.999Z</time></trkpt><trkpt lat="39.578324871293134" lon="-3.9139361490108477"><ele>1062.0</ele><time>2026-04-09T16:07:49.999Z</time></trkpt><trkpt lat="39.57831389330436" lon="-3.9138488696598945"><ele>1062.0</ele><time>2026-04-09T16:07:50.999Z</time></trkpt><trkpt lat="39.57829844731816" lon="-3.91372606798918"><ele>1062.0</ele><time>2026-04-09T16:07:51.999Z</time></trkpt><trkpt lat="39.57828656731801" lon="-3.9136236921458685"><ele>1062.0</ele><time>2026-04-09T16:07:52.999Z</time></trkpt><trkpt lat="39.578275006516385" lon="-3.9135149895234562"><ele>1062.0</ele><time>2026-04-09T16:07:53.999Z</time></trkpt><trkpt lat="39.5782623465203" lon="-3.913423807759816"><ele>1062.1666666666667</ele><time>2026-04-09T16:07:54.999Z</time></trkpt><trkpt lat="39.57825121688674" lon="-3.9133382013789135"><ele>1062.3333333333333</ele><time>2026-04-09T16:07:55.999Z</time></trkpt><trkpt lat="39.578238616180286" lon="-3.913247219168172"><ele>1062.5</ele><time>2026-04-09T16:07:56.999Z</time></trkpt><trkpt lat="39.57822569350107" lon="-3.9131541280009037"><ele>1062.6666666666665</ele><time>2026-04-09T16:07:57.999Z</time></trkpt><trkpt lat="39.57821189866877" lon="-3.9130547540536145"><ele>1062.8333333333333</ele><time>2026-04-09T16:07:58.999Z</time></trkpt><trkpt lat="39.57819918408704" lon="-3.9129668860339324"><ele>1063.0</ele><time>2026-04-09T16:07:59.999Z</time></trkpt><trkpt lat="39.57817345422825" lon="-3.9128337067446184"><ele>1063.0</ele><time>2026-04-09T16:08:01.999Z</time></trkpt><trkpt lat="39.57812632767575" lon="-3.9126656109729248"><ele>1063.0</ele><time>2026-04-09T16:08:03.999Z</time></trkpt><trkpt lat="39.578106871215226" lon="-3.912514387107583"><ele>1063.0</ele><time>2026-04-09T16:08:05.999Z</time></trkpt><trkpt lat="39.5781034554536" lon="-3.912422722165893"><ele>1063.0</ele><time>2026-04-09T16:08:06.999Z</time></trkpt><trkpt lat="39.578105344137896" lon="-3.9123375803348135"><ele>1063.0</ele><time>2026-04-09T16:08:07.999Z</time></trkpt><trkpt lat="39.578101489091445" lon="-3.912235748799608"><ele>1063.0</ele><time>2026-04-09T16:08:08.999Z</time></trkpt><trkpt lat="39.57809073961944" lon="-3.9121358415803495"><ele>1063.0</ele><time>2026-04-09T16:08:09.999Z</time></trkpt><trkpt lat="39.57808385362962" lon="-3.912032699640542"><ele>1063.0</ele><time>2026-04-09T16:08:10.999Z</time></trkpt><trkpt lat="39.57808403075725" lon="-3.911909392272092"><ele>1063.0</ele><time>2026-04-09T16:08:11.999Z</time></trkpt><trkpt lat="39.57808945816925" lon="-3.9117878939025896"><ele>1063.0</ele><time>2026-04-09T16:08:12.999Z</time></trkpt><trkpt lat="39.578098919574664" lon="-3.911664461190743"><ele>1063.0</ele><time>2026-04-09T16:08:13.998Z</time></trkpt><trkpt lat="39.57811188803846" lon="-3.9115541205034376"><ele>1062.0</ele><time>2026-04-09T16:08:14.998Z</time></trkpt><trkpt lat="39.57812495546721" lon="-3.9114193118442344"><ele>1061.0</ele><time>2026-04-09T16:08:15.998Z</time></trkpt><trkpt lat="39.578125440056" lon="-3.911283883950687"><ele>1060.0</ele><time>2026-04-09T16:08:16.998Z</time></trkpt><trkpt lat="39.578126739933076" lon="-3.911162067678403"><ele>1059.0</ele><time>2026-04-09T16:08:17.998Z</time></trkpt><trkpt lat="39.57813238416999" lon="-3.9110367743059835"><ele>1058.0</ele><time>2026-04-09T16:08:18.998Z</time></trkpt><trkpt lat="39.57814350232114" lon="-3.9109052671263784"><ele>1056.6</ele><time>2026-04-09T16:08:19.998Z</time></trkpt><trkpt lat="39.57816083884428" lon="-3.910781535350834"><ele>1055.1999999999998</ele><time>2026-04-09T16:08:20.998Z</time></trkpt><trkpt lat="39.578190081341845" lon="-3.9106597393838474"><ele>1053.8</ele><time>2026-04-09T16:08:21.998Z</time></trkpt><trkpt lat="39.578209916191334" lon="-3.9105346959623177"><ele>1052.3999999999999</ele><time>2026-04-09T16:08:22.998Z</time></trkpt><trkpt lat="39.578224303449865" lon="-3.9103935780863104"><ele>1051.0</ele><time>2026-04-09T16:08:23.998Z</time></trkpt><trkpt lat="39.57823711058348" lon="-3.910278168375097"><ele>1051.0</ele><time>2026-04-09T16:08:24.998Z</time></trkpt><trkpt lat="39.57821876926632" lon="-3.910143803048933"><ele>1051.0</ele><time>2026-04-09T16:08:25.998Z</time></trkpt><trkpt lat="39.57821559476329" lon="-3.909998759917826"><ele>1051.0</ele><time>2026-04-09T16:08:26.998Z</time></trkpt><trkpt lat="39.57820792062459" lon="-3.9098566521056264"><ele>1051.0</ele><time>2026-04-09T16:08:27.998Z</time></trkpt><trkpt lat="39.57819111442596" lon="-3.9097251187619064"><ele>1051.0</ele><time>2026-04-09T16:08:28.998Z</time></trkpt><trkpt lat="39.57818732614842" lon="-3.9095984599122144"><ele>1050.0</ele><time>2026-04-09T16:08:29.998Z</time></trkpt><trkpt lat="39.5781851982296" lon="-3.9094829439614824"><ele>1049.0</ele><time>2026-04-09T16:08:30.998Z</time></trkpt><trkpt lat="39.578180509216814" lon="-3.909354755307587"><ele>1048.0</ele><time>2026-04-09T16:08:31.998Z</time></trkpt><trkpt lat="39.57817046253273" lon="-3.90921161244315"><ele>1047.0</ele><time>2026-04-09T16:08:32.998Z</time></trkpt><trkpt lat="39.578159409754846" lon="-3.909087978297431"><ele>1046.0</ele><time>2026-04-09T16:08:33.998Z</time></trkpt><trkpt lat="39.578146357076044" lon="-3.908941974260794"><ele>1045.8</ele><time>2026-04-09T16:08:34.998Z</time></trkpt><trkpt lat="39.57813623999241" lon="-3.908828806679995"><ele>1045.6</ele><time>2026-04-09T16:08:35.998Z</time></trkpt><trkpt lat="39.57812337090878" lon="-3.9086901474895943"><ele>1045.4</ele><time>2026-04-09T16:08:36.998Z</time></trkpt><trkpt lat="39.57811368664465" lon="-3.9085554307067856"><ele>1045.2</ele><time>2026-04-09T16:08:37.998Z</time></trkpt><trkpt lat="39.57810151743629" lon="-3.908417372469131"><ele>1045.0</ele><time>2026-04-09T16:08:38.998Z</time></trkpt><trkpt lat="39.57810114705805" lon="-3.9082699307096114"><ele>1045.0</ele><time>2026-04-09T16:08:39.998Z</time></trkpt><trkpt lat="39.57810407635235" lon="-3.908155078735075"><ele>1045.0</ele><time>2026-04-09T16:08:40.998Z</time></trkpt><trkpt lat="39.57811823839066" lon="-3.9080410107017647"><ele>1045.0</ele><time>2026-04-09T16:08:41.998Z</time></trkpt><trkpt lat="39.578111708157266" lon="-3.9079495797627826"><ele>1045.0</ele><time>2026-04-09T16:08:42.998Z</time></trkpt><trkpt lat="39.5781226500332" lon="-3.9078599265191882"><ele>1045.0</ele><time>2026-04-09T16:08:43.998Z</time></trkpt><trkpt lat="39.578142236578564" lon="-3.9076909945333043"><ele>1045.5</ele><time>2026-04-09T16:08:45.998Z</time></trkpt><trkpt lat="39.57815510660889" lon="-3.907565780543431"><ele>1046.0</ele><time>2026-04-09T16:08:46.998Z</time></trkpt><trkpt lat="39.57815468612225" lon="-3.9074419034446155"><ele>1046.5</ele><time>2026-04-09T16:08:47.998Z</time></trkpt><trkpt lat="39.578165160787705" lon="-3.907355606563395"><ele>1047.0</ele><time>2026-04-09T16:08:48.998Z</time></trkpt><trkpt lat="39.57819116934901" lon="-3.907272441569651"><ele>1047.5</ele><time>2026-04-09T16:08:49.998Z</time></trkpt><trkpt lat="39.57823827800968" lon="-3.9072127830785486"><ele>1048.0</ele><time>2026-04-09T16:08:50.998Z</time></trkpt><trkpt lat="39.578294047361844" lon="-3.9071303940146396"><ele>1048.0</ele><time>2026-04-09T16:08:51.998Z</time></trkpt><trkpt lat="39.578350152350545" lon="-3.907065069348543"><ele>1048.0</ele><time>2026-04-09T16:08:52.998Z</time></trkpt><trkpt lat="39.57840777589793" lon="-3.907006817879641"><ele>1048.0</ele><time>2026-04-09T16:08:53.998Z</time></trkpt><trkpt lat="39.57844869945133" lon="-3.906914875480244"><ele>1048.0</ele><time>2026-04-09T16:08:54.998Z</time></trkpt><trkpt lat="39.57845422724109" lon="-3.906776340175533"><ele>1048.0</ele><time>2026-04-09T16:08:55.998Z</time></trkpt><trkpt lat="39.57851090085888" lon="-3.906696433158784"><ele>1048.0</ele><time>2026-04-09T16:08:56.998Z</time></trkpt><trkpt lat="39.57857642290022" lon="-3.9066040455726667"><ele>1047.5</ele><time>2026-04-09T16:08:57.997Z</time></trkpt><trkpt lat="39.57864023598207" lon="-3.9065140696613514"><ele>1047.0</ele><time>2026-04-09T16:08:58.997Z</time></trkpt><trkpt lat="39.57869871246132" lon="-3.906431621836301"><ele>1046.5</ele><time>2026-04-09T16:09:00Z</time></trkpt><trkpt lat="39.578713360044304" lon="-3.9063293252454243"><ele>1046.0</ele><time>2026-04-09T16:09:02Z</time></trkpt><trkpt lat="39.5787488922002" lon="-3.9062405009667267"><ele>1045.5</ele><time>2026-04-09T16:09:03Z</time></trkpt><trkpt lat="39.578669708814175" lon="-3.9063179656303304"><ele>1045.0</ele><time>2026-04-09T16:09:04Z</time></trkpt><trkpt lat="39.57867371886968" lon="-3.90622118127671"><ele>1045.0</ele><time>2026-04-09T16:09:05Z</time></trkpt><trkpt lat="39.57867655931472" lon="-3.906139439066276"><ele>1045.0</ele><time>2026-04-09T16:09:06Z</time></trkpt><trkpt lat="39.57867604136622" lon="-3.9060519068954562"><ele>1045.0</ele><time>2026-04-09T16:09:07Z</time></trkpt><trkpt lat="39.57867551865559" lon="-3.9059635683716705"><ele>1045.0</ele><time>2026-04-09T16:09:08Z</time></trkpt><trkpt lat="39.57867114406357" lon="-3.905880370039156"><ele>1045.0</ele><time>2026-04-09T16:09:09Z</time></trkpt><trkpt lat="39.578659864192794" lon="-3.9057879734817633"><ele>1045.0</ele><time>2026-04-09T16:09:10Z</time></trkpt><trkpt lat="39.578632743143025" lon="-3.9056495712327157"><ele>1045.0</ele><time>2026-04-09T16:09:12Z</time></trkpt><trkpt lat="39.578575073035196" lon="-3.9055669301595977"><ele>1039.0</ele><time>2026-04-09T16:09:14Z</time></trkpt><trkpt lat="39.579031254989495" lon="-3.9051858308043146"><ele>1038.2</ele><time>2026-04-09T16:09:15Z</time></trkpt><trkpt lat="39.57905679801457" lon="-3.905055849662471"><ele>1037.4</ele><time>2026-04-09T16:09:16Z</time></trkpt><trkpt lat="39.579061226123336" lon="-3.9049511571571096"><ele>1036.6</ele><time>2026-04-09T16:09:17Z</time></trkpt><trkpt lat="39.57905599184432" lon="-3.904844237152323"><ele>1035.8</ele><time>2026-04-09T16:09:18Z</time></trkpt><trkpt lat="39.5790313776236" lon="-3.9047238484239406"><ele>1035.0</ele><time>2026-04-09T16:09:19Z</time></trkpt><trkpt lat="39.57903538626503" lon="-3.9046069648929524"><ele>1035.0</ele><time>2026-04-09T16:09:20Z</time></trkpt><trkpt lat="39.579025010228854" lon="-3.904502476943335"><ele>1035.0</ele><time>2026-04-09T16:09:21Z</time></trkpt><trkpt lat="39.57902677736127" lon="-3.9043909059875204"><ele>1035.0</ele><time>2026-04-09T16:09:22Z</time></trkpt><trkpt lat="39.57903472313278" lon="-3.9042640694718713"><ele>1035.0</ele><time>2026-04-09T16:09:23Z</time></trkpt><trkpt lat="39.57904001269622" lon="-3.904143578048945"><ele>1035.0</ele><time>2026-04-09T16:09:24Z</time></trkpt><trkpt lat="39.579043431652764" lon="-3.9040092803876036"><ele>1033.8</ele><time>2026-04-09T16:09:25Z</time></trkpt><trkpt lat="39.579050460385915" lon="-3.903870493132453"><ele>1032.6</ele><time>2026-04-09T16:09:26Z</time></trkpt><trkpt lat="39.57905541979029" lon="-3.9037409683168622"><ele>1031.4</ele><time>2026-04-09T16:09:27Z</time></trkpt><trkpt lat="39.57906953525195" lon="-3.903615161881475"><ele>1030.2</ele><time>2026-04-09T16:09:28Z</time></trkpt><trkpt lat="39.579077982274484" lon="-3.903486424868699"><ele>1029.0</ele><time>2026-04-09T16:09:29Z</time></trkpt><trkpt lat="39.579083594616236" lon="-3.9033449356382413"><ele>1027.6000000000001</ele><time>2026-04-09T16:09:30Z</time></trkpt><trkpt lat="39.57908960264814" lon="-3.9032052989794517"><ele>1026.2</ele><time>2026-04-09T16:09:31Z</time></trkpt><trkpt lat="39.57908326200508" lon="-3.9030766657368154"><ele>1024.8000000000002</ele><time>2026-04-09T16:09:32Z</time></trkpt><trkpt lat="39.57907298514812" lon="-3.9029339406059536"><ele>1023.4000000000001</ele><time>2026-04-09T16:09:33Z</time></trkpt><trkpt lat="39.57907241536612" lon="-3.9027970850017724"><ele>1022.0</ele><time>2026-04-09T16:09:34Z</time></trkpt><trkpt lat="39.579073675703235" lon="-3.902684029412719"><ele>1021.6</ele><time>2026-04-09T16:09:34.999Z</time></trkpt><trkpt lat="39.57907509673089" lon="-3.902556837785468"><ele>1021.2</ele><time>2026-04-09T16:09:35.999Z</time></trkpt><trkpt lat="39.57907113123957" lon="-3.90242561890776"><ele>1020.8</ele><time>2026-04-09T16:09:36.999Z</time></trkpt><trkpt lat="39.57909639106728" lon="-3.9022863147617084"><ele>1020.4</ele><time>2026-04-09T16:09:37.999Z</time></trkpt><trkpt lat="39.57909276560672" lon="-3.9021583768109984"><ele>1020.0</ele><time>2026-04-09T16:09:38.999Z</time></trkpt><trkpt lat="39.57910169062825" lon="-3.9020088391256795"><ele>1020.0</ele><time>2026-04-09T16:09:39.999Z</time></trkpt><trkpt lat="39.57909966943156" lon="-3.901857793461906"><ele>1020.0</ele><time>2026-04-09T16:09:40.999Z</time></trkpt><trkpt lat="39.57909563329255" lon="-3.9017198162239954"><ele>1020.0</ele><time>2026-04-09T16:09:41.999Z</time></trkpt><trkpt lat="39.57910813614786" lon="-3.901584463053828"><ele>1020.0</ele><time>2026-04-09T16:09:42.999Z</time></trkpt><trkpt lat="39.57910730767455" lon="-3.9014371948549695"><ele>1020.0</ele><time>2026-04-09T16:09:43.999Z</time></trkpt><trkpt lat="39.57910020196421" lon="-3.901293069009033"><ele>1020.6</ele><time>2026-04-09T16:09:44.999Z</time></trkpt><trkpt lat="39.57907637080535" lon="-3.901171563771643"><ele>1021.2</ele><time>2026-04-09T16:09:45.999Z</time></trkpt><trkpt lat="39.57903770289027" lon="-3.9010217576105073"><ele>1021.8</ele><time>2026-04-09T16:09:46.999Z</time></trkpt><trkpt lat="39.57901577298423" lon="-3.9008939199919492"><ele>1022.4</ele><time>2026-04-09T16:09:47.999Z</time></trkpt><trkpt lat="39.57900227006344" lon="-3.9007653902177344"><ele>1023.0</ele><time>2026-04-09T16:09:48.999Z</time></trkpt><trkpt lat="39.578975963342565" lon="-3.9006399030634777"><ele>1024.4</ele><time>2026-04-09T16:09:49.999Z</time></trkpt><trkpt lat="39.57895515100016" lon="-3.9005052056644285"><ele>1025.8</ele><time>2026-04-09T16:09:50.999Z</time></trkpt><trkpt lat="39.578935841926565" lon="-3.9003843709909765"><ele>1027.2</ele><time>2026-04-09T16:09:51.999Z</time></trkpt><trkpt lat="39.57891946498668" lon="-3.9002430123219365"><ele>1028.6</ele><time>2026-04-09T16:09:52.999Z</time></trkpt><trkpt lat="39.57888216094451" lon="-3.9001232963186085"><ele>1030.0</ele><time>2026-04-09T16:09:53.999Z</time></trkpt><trkpt lat="39.578838249433545" lon="-3.900012580905255"><ele>1031.6</ele><time>2026-04-09T16:09:54.999Z</time></trkpt><trkpt lat="39.57879853393479" lon="-3.899889790200083"><ele>1033.2</ele><time>2026-04-09T16:09:55.999Z</time></trkpt><trkpt lat="39.57878066710998" lon="-3.899777338505665"><ele>1034.8</ele><time>2026-04-09T16:09:56.999Z</time></trkpt><trkpt lat="39.57876148991071" lon="-3.8996687251733317"><ele>1036.4</ele><time>2026-04-09T16:09:57.999Z</time></trkpt><trkpt lat="39.57875291229254" lon="-3.899542675516188"><ele>1038.0</ele><time>2026-04-09T16:09:58.999Z</time></trkpt><trkpt lat="39.578737422287254" lon="-3.8994144669163724"><ele>1038.0</ele><time>2026-04-09T16:09:59.999Z</time></trkpt><trkpt lat="39.57871850940307" lon="-3.8992737259805557"><ele>1038.0</ele><time>2026-04-09T16:10:00.999Z</time></trkpt><trkpt lat="39.57868647569103" lon="-3.899165529555416"><ele>1038.0</ele><time>2026-04-09T16:10:01.999Z</time></trkpt><trkpt lat="39.57865876068451" lon="-3.8990665685306594"><ele>1038.0</ele><time>2026-04-09T16:10:02.999Z</time></trkpt><trkpt lat="39.57863519317407" lon="-3.898990072025133"><ele>1038.0</ele><time>2026-04-09T16:10:03.999Z</time></trkpt><trkpt lat="39.57862578750812" lon="-3.8989014660878296"><ele>1038.0</ele><time>2026-04-09T16:10:04.999Z</time></trkpt><trkpt lat="39.57862632101864" lon="-3.8987977256293953"><ele>1035.5</ele><time>2026-04-09T16:10:05.999Z</time></trkpt><trkpt lat="39.57863034143002" lon="-3.8986912543516317"><ele>1033.0</ele><time>2026-04-09T16:10:06.999Z</time></trkpt><trkpt lat="39.57862945513777" lon="-3.898587208235012"><ele>1030.5</ele><time>2026-04-09T16:10:07.999Z</time></trkpt><trkpt lat="39.57862280081025" lon="-3.8984788042072003"><ele>1028.0</ele><time>2026-04-09T16:10:08.999Z</time></trkpt><trkpt lat="39.57862080442243" lon="-3.898381661132702"><ele>1025.5</ele><time>2026-04-09T16:10:09.999Z</time></trkpt><trkpt lat="39.578610196031946" lon="-3.898294016297724"><ele>1023.0</ele><time>2026-04-09T16:10:10.999Z</time></trkpt><trkpt lat="39.57861543741021" lon="-3.898192042249464"><ele>1022.8</ele><time>2026-04-09T16:10:11.999Z</time></trkpt><trkpt lat="39.57861351945943" lon="-3.8980837860250057"><ele>1022.5999999999999</ele><time>2026-04-09T16:10:12.999Z</time></trkpt><trkpt lat="39.57859797192921" lon="-3.8979072474618763"><ele>1022.4000000000001</ele><time>2026-04-09T16:10:14.999Z</time></trkpt><trkpt lat="39.57859833723261" lon="-3.8977709025577005"><ele>1022.2</ele><time>2026-04-09T16:10:15.999Z</time></trkpt><trkpt lat="39.578608690045925" lon="-3.897619784941152"><ele>1022.0</ele><time>2026-04-09T16:10:16.999Z</time></trkpt><trkpt lat="39.5786324776858" lon="-3.897497990191592"><ele>1020.5000000000001</ele><time>2026-04-09T16:10:17.999Z</time></trkpt><trkpt lat="39.578651704148484" lon="-3.8973853399065628"><ele>1019.0</ele><time>2026-04-09T16:10:18.999Z</time></trkpt><trkpt lat="39.57866749546693" lon="-3.897281730840223"><ele>1017.5</ele><time>2026-04-09T16:10:19.998Z</time></trkpt><trkpt lat="39.578679276090334" lon="-3.8971887233556193"><ele>1016.0</ele><time>2026-04-09T16:10:20.998Z</time></trkpt><trkpt lat="39.57867463452077" lon="-3.8970943666574085"><ele>1014.5000000000001</ele><time>2026-04-09T16:10:21.998Z</time></trkpt><trkpt lat="39.57866325825276" lon="-3.8969856150367765"><ele>1013.0</ele><time>2026-04-09T16:10:22.998Z</time></trkpt><trkpt lat="39.57863705939049" lon="-3.8968591478406336"><ele>1014.2</ele><time>2026-04-09T16:10:23.998Z</time></trkpt><trkpt lat="39.578639018053494" lon="-3.8967287297294995"><ele>1015.4</ele><time>2026-04-09T16:10:24.998Z</time></trkpt><trkpt lat="39.57863969013518" lon="-3.8966042387202493"><ele>1016.6000000000001</ele><time>2026-04-09T16:10:25.998Z</time></trkpt><trkpt lat="39.5786447842219" lon="-3.8964725975492014"><ele>1017.8000000000001</ele><time>2026-04-09T16:10:26.998Z</time></trkpt><trkpt lat="39.57866229344129" lon="-3.896350910065198"><ele>1019.0</ele><time>2026-04-09T16:10:27.998Z</time></trkpt><trkpt lat="39.578685262935984" lon="-3.896244106023339"><ele>1019.0</ele><time>2026-04-09T16:10:28.998Z</time></trkpt><trkpt lat="39.57871675626141" lon="-3.8961413066590382"><ele>1019.0000000000001</ele><time>2026-04-09T16:10:29.998Z</time></trkpt><trkpt lat="39.57877557210568" lon="-3.896031124312208"><ele>1019.0000000000001</ele><time>2026-04-09T16:10:30.998Z</time></trkpt><trkpt lat="39.57882428616154" lon="-3.89592175571558"><ele>1019.0</ele><time>2026-04-09T16:10:31.998Z</time></trkpt><trkpt lat="39.57887673172521" lon="-3.8958072268361743"><ele>1019.0</ele><time>2026-04-09T16:10:32.998Z</time></trkpt><trkpt lat="39.57891663216582" lon="-3.8957091002571005"><ele>1018.5000000000001</ele><time>2026-04-09T16:10:33.998Z</time></trkpt><trkpt lat="39.578962237655695" lon="-3.8956188236048623"><ele>1018.0</ele><time>2026-04-09T16:10:34.998Z</time></trkpt><trkpt lat="39.579001725804396" lon="-3.895542183081133"><ele>1017.5</ele><time>2026-04-09T16:10:35.998Z</time></trkpt><trkpt lat="39.57905102768923" lon="-3.8954588391178926"><ele>1017.0</ele><time>2026-04-09T16:10:36.998Z</time></trkpt><trkpt lat="39.579090495198095" lon="-3.895367976268635"><ele>1016.5000000000001</ele><time>2026-04-09T16:10:37.998Z</time></trkpt><trkpt lat="39.57912780503151" lon="-3.8952659558592493"><ele>1016.0</ele><time>2026-04-09T16:10:38.998Z</time></trkpt><trkpt lat="39.579167191220556" lon="-3.895140382178808"><ele>1015.5000000000001</ele><time>2026-04-09T16:10:39.998Z</time></trkpt><trkpt lat="39.57918812845067" lon="-3.895046403415101"><ele>1015.0</ele><time>2026-04-09T16:10:40.998Z</time></trkpt><trkpt lat="39.579217568603916" lon="-3.8949364310390093"><ele>1014.5</ele><time>2026-04-09T16:10:41.998Z</time></trkpt><trkpt lat="39.57924697638522" lon="-3.894840901779382"><ele>1014.0</ele><time>2026-04-09T16:10:42.998Z</time></trkpt><trkpt lat="39.5792779012223" lon="-3.8947352333578324"><ele>1013.5000000000001</ele><time>2026-04-09T16:10:43.998Z</time></trkpt><trkpt lat="39.579303520069836" lon="-3.894639243734613"><ele>1013.0</ele><time>2026-04-09T16:10:44.998Z</time></trkpt><trkpt lat="39.57932680453774" lon="-3.8945466410897787"><ele>1013.0</ele><time>2026-04-09T16:10:45.998Z</time></trkpt><trkpt lat="39.57935580023769" lon="-3.8944686555766186"><ele>1013.0000000000001</ele><time>2026-04-09T16:10:46.998Z</time></trkpt><trkpt lat="39.57937592519702" lon="-3.8943865854798063"><ele>1013.0</ele><time>2026-04-09T16:10:47.998Z</time></trkpt><trkpt lat="39.579407161721235" lon="-3.894295594874178"><ele>1013.0</ele><time>2026-04-09T16:10:48.998Z</time></trkpt><trkpt lat="39.57944367732126" lon="-3.8942185592339413"><ele>1013.0000000000001</ele><time>2026-04-09T16:10:49.998Z</time></trkpt><trkpt lat="39.579527752954746" lon="-3.89416628355242"><ele>1013.0</ele><time>2026-04-09T16:10:51.998Z</time></trkpt><trkpt lat="39.57958282660391" lon="-3.8941149941939535"><ele>1013.0</ele><time>2026-04-09T16:10:54.998Z</time></trkpt><trkpt lat="39.579669080577084" lon="-3.8940623000502392"><ele>1012.6666666666667</ele><time>2026-04-09T16:12:35.998Z</time></trkpt><trkpt lat="39.5797006256767" lon="-3.893953808368822"><ele>1012.3333333333334</ele><time>2026-04-09T16:12:37.998Z</time></trkpt><trkpt lat="39.579792306332266" lon="-3.8939550185918885"><ele>1012.0</ele><time>2026-04-09T16:12:40.998Z</time></trkpt><trkpt lat="39.57985997619159" lon="-3.893990989338946"><ele>1011.6666666666667</ele><time>2026-04-09T16:12:43.998Z</time></trkpt><trkpt lat="39.57992838580485" lon="-3.8939095588782635"><ele>1011.3333333333334</ele><time>2026-04-09T16:12:46.998Z</time></trkpt><trkpt lat="39.579996053478006" lon="-3.8939280420328815"><ele>1011.0</ele><time>2026-04-09T16:12:48.998Z</time></trkpt><trkpt lat="39.58006400639502" lon="-3.8939542439259793"><ele>1011.0</ele><time>2026-04-09T16:12:50.998Z</time></trkpt><trkpt lat="39.58014893936616" lon="-3.893983211775143"><ele>1011.0</ele><time>2026-04-09T16:12:53.998Z</time></trkpt><trkpt lat="39.58019956245369" lon="-3.893930058718179"><ele>1011.0</ele><time>2026-04-09T16:13:04.998Z</time></trkpt><trkpt lat="39.58018985314071" lon="-3.8938420582408813"><ele>1011.0</ele><time>2026-04-09T16:13:18Z</time></trkpt><trkpt lat="39.58023130231032" lon="-3.893755370664462"><ele>1011.0</ele><time>2026-04-09T16:13:20Z</time></trkpt><trkpt lat="39.58026772343944" lon="-3.89366490383813"><ele>1011.0</ele><time>2026-04-09T16:13:22Z</time></trkpt><trkpt lat="39.580298659234145" lon="-3.8935195223215815"><ele>1009.1999999999999</ele><time>2026-04-09T16:13:24Z</time></trkpt><trkpt lat="39.58031728119535" lon="-3.8933915504287286"><ele>1007.3999999999999</ele><time>2026-04-09T16:13:26Z</time></trkpt><trkpt lat="39.580359567603765" lon="-3.8932763957831487"><ele>1005.6</ele><time>2026-04-09T16:13:28Z</time></trkpt><trkpt lat="39.58039824890965" lon="-3.8931433914072833"><ele>1003.8</ele><time>2026-04-09T16:13:30Z</time></trkpt><trkpt lat="39.58047489795114" lon="-3.8930008815926325"><ele>1002.0</ele><time>2026-04-09T16:13:32Z</time></trkpt><trkpt lat="39.580495927448105" lon="-3.8929219241244777"><ele>1002.0</ele><time>2026-04-09T16:13:34Z</time></trkpt><trkpt lat="39.58054908029463" lon="-3.8927689655356454"><ele>1002.0</ele><time>2026-04-09T16:13:36Z</time></trkpt><trkpt lat="39.58057894138947" lon="-3.892691107114598"><ele>1002.0</ele><time>2026-04-09T16:13:37Z</time></trkpt><trkpt lat="39.58060289214151" lon="-3.8926082346688804"><ele>1002.0</ele><time>2026-04-09T16:13:39Z</time></trkpt><trkpt lat="39.58064252256736" lon="-3.8924728409082263"><ele>1002.0</ele><time>2026-04-09T16:13:41Z</time></trkpt><trkpt lat="39.58067001403251" lon="-3.892335386989425"><ele>1001.8333333333334</ele><time>2026-04-09T16:13:43Z</time></trkpt><trkpt lat="39.58068701225421" lon="-3.892244449525393"><ele>1001.6666666666667</ele><time>2026-04-09T16:13:45Z</time></trkpt><trkpt lat="39.58067788927782" lon="-3.892142109510829"><ele>1001.5</ele><time>2026-04-09T16:13:46.999Z</time></trkpt><trkpt lat="39.580660131747734" lon="-3.892051678799243"><ele>1001.3333333333334</ele><time>2026-04-09T16:13:48.999Z</time></trkpt><trkpt lat="39.58067952417567" lon="-3.891934176270616"><ele>1001.1666666666667</ele><time>2026-04-09T16:13:50.999Z</time></trkpt><trkpt lat="39.58067713974919" lon="-3.891831870940008"><ele>1001.0</ele><time>2026-04-09T16:13:52.999Z</time></trkpt><trkpt lat="39.580689453994836" lon="-3.8917277340571923"><ele>1000.5999999999999</ele><time>2026-04-09T16:13:54.999Z</time></trkpt><trkpt lat="39.580719684409516" lon="-3.891636387146449"><ele>1000.1999999999999</ele><time>2026-04-09T16:13:56.999Z</time></trkpt><trkpt lat="39.5807065919492" lon="-3.891526364653886"><ele>999.8000000000001</ele><time>2026-04-09T16:13:58.999Z</time></trkpt><trkpt lat="39.580742991383026" lon="-3.891394823409666"><ele>999.4000000000001</ele><time>2026-04-09T16:14:00.999Z</time></trkpt><trkpt lat="39.58074424478822" lon="-3.891310251822704"><ele>999.0</ele><time>2026-04-09T16:14:02.999Z</time></trkpt><trkpt lat="39.58075444765488" lon="-3.8911525807236615"><ele>999.0</ele><time>2026-04-09T16:14:05.999Z</time></trkpt><trkpt lat="39.58077246885776" lon="-3.891063194366782"><ele>999.0</ele><time>2026-04-09T16:14:06.999Z</time></trkpt><trkpt lat="39.58075739805239" lon="-3.8909584616586614"><ele>999.0</ele><time>2026-04-09T16:14:08.999Z</time></trkpt><trkpt lat="39.58078201601996" lon="-3.8908564843270588"><ele>999.0</ele><time>2026-04-09T16:14:10.999Z</time></trkpt><trkpt lat="39.58080442601619" lon="-3.8907473250313367"><ele>999.0</ele><time>2026-04-09T16:14:12.999Z</time></trkpt><trkpt lat="39.58082175321344" lon="-3.8906467751204636"><ele>999.0</ele><time>2026-04-09T16:14:14.999Z</time></trkpt><trkpt lat="39.58085473676949" lon="-3.890555512092977"><ele>998.6666666666666</ele><time>2026-04-09T16:14:16.999Z</time></trkpt><trkpt lat="39.58086092343305" lon="-3.8904417348752207"><ele>998.3333333333333</ele><time>2026-04-09T16:14:18.999Z</time></trkpt><trkpt lat="39.580891366957395" lon="-3.890321929549186"><ele>998.0</ele><time>2026-04-09T16:14:20.999Z</time></trkpt><trkpt lat="39.58091619890429" lon="-3.8902459440102"><ele>997.6666666666666</ele><time>2026-04-09T16:14:21.999Z</time></trkpt><trkpt lat="39.580928472517364" lon="-3.8901657603446513"><ele>997.3333333333333</ele><time>2026-04-09T16:14:22.999Z</time></trkpt><trkpt lat="39.58095572756546" lon="-3.890029661787845"><ele>997.0</ele><time>2026-04-09T16:14:24.999Z</time></trkpt><trkpt lat="39.581000902946094" lon="-3.8899223538451437"><ele>996.9999999999999</ele><time>2026-04-09T16:14:26.999Z</time></trkpt><trkpt lat="39.58102633755761" lon="-3.8898340175242505"><ele>997.0</ele><time>2026-04-09T16:14:28.999Z</time></trkpt><trkpt lat="39.58105397166235" lon="-3.8897036834159398"><ele>997.0</ele><time>2026-04-09T16:14:32.998Z</time></trkpt><trkpt lat="39.58110526983279" lon="-3.889625314302473"><ele>997.0</ele><time>2026-04-09T16:14:34.998Z</time></trkpt><trkpt lat="39.58116367729708" lon="-3.8895756624424997"><ele>996.9999999999999</ele><time>2026-04-09T16:14:38.998Z</time></trkpt><trkpt lat="39.58119893277128" lon="-3.8894991785658277"><ele>997.0</ele><time>2026-04-09T16:14:40.998Z</time></trkpt><trkpt lat="39.58127962664243" lon="-3.889444056441997"><ele>998.1666666666666</ele><time>2026-04-09T16:14:43.998Z</time></trkpt><trkpt lat="39.58134433947519" lon="-3.8893839531549346"><ele>999.3333333333333</ele><time>2026-04-09T16:14:45.998Z</time></trkpt><trkpt lat="39.58134956742117" lon="-3.88926950648533"><ele>1000.5</ele><time>2026-04-09T16:14:48.998Z</time></trkpt><trkpt lat="39.581335388297006" lon="-3.8891671183526144"><ele>1001.6666666666667</ele><time>2026-04-09T16:14:50.998Z</time></trkpt><trkpt lat="39.58133652227284" lon="-3.8890419271760965"><ele>1002.8333333333334</ele><time>2026-04-09T16:14:52.998Z</time></trkpt><trkpt lat="39.581350455021195" lon="-3.8889193033887"><ele>1004.0</ele><time>2026-04-09T16:14:54.998Z</time></trkpt><trkpt lat="39.581385889120334" lon="-3.888817584629555"><ele>1004.1666666666667</ele><time>2026-04-09T16:14:55.998Z</time></trkpt><trkpt lat="39.58142723878268" lon="-3.888722137651202"><ele>1004.3333333333334</ele><time>2026-04-09T16:14:57.998Z</time></trkpt><trkpt lat="39.58148995483384" lon="-3.8886641831263287"><ele>1004.5</ele><time>2026-04-09T16:14:59.998Z</time></trkpt><trkpt lat="39.58154518658637" lon="-3.8885373800513543"><ele>1004.6666666666667</ele><time>2026-04-09T16:15:01.998Z</time></trkpt><trkpt lat="39.58159542974867" lon="-3.8884592449377013"><ele>1004.8333333333334</ele><time>2026-04-09T16:15:03.998Z</time></trkpt><trkpt lat="39.58166221700369" lon="-3.888407981412575"><ele>1005.0</ele><time>2026-04-09T16:15:07.998Z</time></trkpt><trkpt lat="39.58167436950387" lon="-3.888319945156274"><ele>1005.0</ele><time>2026-04-09T16:15:08.998Z</time></trkpt><trkpt lat="39.58170109937581" lon="-3.888181635213683"><ele>1005.0</ele><time>2026-04-09T16:15:10.998Z</time></trkpt><trkpt lat="39.58170944847962" lon="-3.88807620707836"><ele>1005.0</ele><time>2026-04-09T16:15:13.998Z</time></trkpt><trkpt lat="39.581754792399096" lon="-3.887989684880488"><ele>1005.0</ele><time>2026-04-09T16:15:16.997Z</time></trkpt><trkpt lat="39.58182667311735" lon="-3.8878641849461077"><ele>1005.0</ele><time>2026-04-09T16:15:20Z</time></trkpt><trkpt lat="39.58186966300501" lon="-3.887799241759846"><ele>1005.0</ele><time>2026-04-09T16:15:21Z</time></trkpt><trkpt lat="39.58189474730685" lon="-3.887709135827671"><ele>1005.0</ele><time>2026-04-09T16:15:23Z</time></trkpt><trkpt lat="39.58191770228816" lon="-3.8876206544663736"><ele>1005.0</ele><time>2026-04-09T16:15:26Z</time></trkpt><trkpt lat="39.58200952833025" lon="-3.8876437843778113"><ele>1005.0</ele><time>2026-04-09T16:15:29Z</time></trkpt><trkpt lat="39.582025317025824" lon="-3.887539924991758"><ele>1005.0</ele><time>2026-04-09T16:15:32Z</time></trkpt><trkpt lat="39.5820320241115" lon="-3.887449912208257"><ele>1005.0</ele><time>2026-04-09T16:15:34Z</time></trkpt><trkpt lat="39.582054200025745" lon="-3.8873597549253445"><ele>1005.1666666666666</ele><time>2026-04-09T16:15:35Z</time></trkpt><trkpt lat="39.58211028687441" lon="-3.8872841918890906"><ele>1005.3333333333333</ele><time>2026-04-09T16:15:40Z</time></trkpt><trkpt lat="39.58215812467424" lon="-3.8871897183535524"><ele>1005.5</ele><time>2026-04-09T16:15:41Z</time></trkpt><trkpt lat="39.58221911246058" lon="-3.8870925891059813"><ele>1005.6666666666666</ele><time>2026-04-09T16:15:42Z</time></trkpt><trkpt lat="39.58224149018824" lon="-3.8869846233592775"><ele>1005.8333333333333</ele><time>2026-04-09T16:15:44Z</time></trkpt><trkpt lat="39.582273793614135" lon="-3.8868851685105765"><ele>1006.0</ele><time>2026-04-09T16:15:46Z</time></trkpt><trkpt lat="39.58222171646292" lon="-3.886778846994653"><ele>1007.4</ele><time>2026-04-09T16:15:48Z</time></trkpt><trkpt lat="39.58215637050289" lon="-3.88667412338875"><ele>1008.8</ele><time>2026-04-09T16:15:50Z</time></trkpt><trkpt lat="39.58220417358696" lon="-3.8865713924016925"><ele>1010.1999999999999</ele><time>2026-04-09T16:15:53Z</time></trkpt><trkpt lat="39.58225974252028" lon="-3.886483868986712"><ele>1011.5999999999999</ele><time>2026-04-09T16:15:55Z</time></trkpt><trkpt lat="39.58231240550526" lon="-3.8864048063207473"><ele>1013.0</ele><time>2026-04-09T16:15:57.999Z</time></trkpt><trkpt lat="39.58235801145589" lon="-3.886309946879088"><ele>1013.0000000000001</ele><time>2026-04-09T16:15:59.999Z</time></trkpt><trkpt lat="39.58236607300752" lon="-3.8862032020321524"><ele>1013.0</ele><time>2026-04-09T16:16:02.999Z</time></trkpt><trkpt lat="39.58238566436897" lon="-3.8861071882256595"><ele>1013.0</ele><time>2026-04-09T16:16:04.999Z</time></trkpt><trkpt lat="39.58237264920066" lon="-3.8859774851539157"><ele>1013.0</ele><time>2026-04-09T16:16:06.999Z</time></trkpt><trkpt lat="39.582396969139744" lon="-3.8858487741298804"><ele>1013.0000000000001</ele><time>2026-04-09T16:16:08.999Z</time></trkpt><trkpt lat="39.58243354168715" lon="-3.885765938466505"><ele>1013.0</ele><time>2026-04-09T16:16:10.999Z</time></trkpt><trkpt lat="39.58243248810188" lon="-3.8856605367680794"><ele>1013.5000000000001</ele><time>2026-04-09T16:16:12.999Z</time></trkpt><trkpt lat="39.58249270906155" lon="-3.8855806299921416"><ele>1014.0</ele><time>2026-04-09T16:16:15.999Z</time></trkpt><trkpt lat="39.58252495591075" lon="-3.8854648580035698"><ele>1014.5</ele><time>2026-04-09T16:16:18.999Z</time></trkpt><trkpt lat="39.58253210777519" lon="-3.88536507804855"><ele>1015.0</ele><time>2026-04-09T16:16:22.999Z</time></trkpt><trkpt lat="39.582564355226594" lon="-3.88529184763467"><ele>1015.5000000000001</ele><time>2026-04-09T16:16:25.999Z</time></trkpt><trkpt lat="39.58258277696725" lon="-3.885189572218439"><ele>1016.0</ele><time>2026-04-09T16:16:27.999Z</time></trkpt><trkpt lat="39.582611027999135" lon="-3.885115652421486"><ele>1015.8571428571429</ele><time>2026-04-09T16:16:30.999Z</time></trkpt><trkpt lat="39.58264613680244" lon="-3.8850339706704604"><ele>1015.7142857142857</ele><time>2026-04-09T16:16:32.999Z</time></trkpt><trkpt lat="39.58269005979949" lon="-3.884950656766859"><ele>1015.5714285714286</ele><time>2026-04-09T16:16:34.999Z</time></trkpt><trkpt lat="39.582723127415996" lon="-3.884859188839256"><ele>1015.4285714285714</ele><time>2026-04-09T16:16:35.999Z</time></trkpt><trkpt lat="39.58275072342895" lon="-3.8847603676132354"><ele>1015.2857142857142</ele><time>2026-04-09T16:16:38.999Z</time></trkpt><trkpt lat="39.58279059131727" lon="-3.884693379820794"><ele>1015.1428571428571</ele><time>2026-04-09T16:16:40.998Z</time></trkpt><trkpt lat="39.58284813997551" lon="-3.884650452356009"><ele>1015.0</ele><time>2026-04-09T16:16:42.998Z</time></trkpt><trkpt lat="39.58288853863933" lon="-3.884559745283778"><ele>1015.0</ele><time>2026-04-09T16:16:45.998Z</time></trkpt><trkpt lat="39.582936828852674" lon="-3.8844970195561954"><ele>1015.0</ele><time>2026-04-09T16:16:47.998Z</time></trkpt><trkpt lat="39.58298968656069" lon="-3.8844355390993552"><ele>1015.0</ele><time>2026-04-09T16:16:48.998Z</time></trkpt><trkpt lat="39.58302365128158" lon="-3.8843364663774778"><ele>1015.0</ele><time>2026-04-09T16:16:51.998Z</time></trkpt><trkpt lat="39.58306847478956" lon="-3.8842587766552064"><ele>1015.0</ele><time>2026-04-09T16:16:54.998Z</time></trkpt><trkpt lat="39.583095416105614" lon="-3.884158029590016"><ele>1015.0</ele><time>2026-04-09T16:16:57.998Z</time></trkpt><trkpt lat="39.58312953219085" lon="-3.8840841118602465"><ele>1015.0</ele><time>2026-04-09T16:17:00.998Z</time></trkpt><trkpt lat="39.583190664044174" lon="-3.884016551953404"><ele>1016.1666666666666</ele><time>2026-04-09T16:17:03.998Z</time></trkpt><trkpt lat="39.58321045157703" lon="-3.883908777340034"><ele>1017.3333333333333</ele><time>2026-04-09T16:17:06.998Z</time></trkpt><trkpt lat="39.58326299463461" lon="-3.883822727482504"><ele>1018.5</ele><time>2026-04-09T16:17:09.998Z</time></trkpt><trkpt lat="39.58334088653026" lon="-3.8837242418705684"><ele>1019.6666666666667</ele><time>2026-04-09T16:17:13.998Z</time></trkpt><trkpt lat="39.58340479880122" lon="-3.883740807915941"><ele>1020.8333333333334</ele><time>2026-04-09T16:17:15.998Z</time></trkpt><trkpt lat="39.583471777974" lon="-3.883641223323315"><ele>1022.0</ele><time>2026-04-09T16:17:18.998Z</time></trkpt><trkpt lat="39.58355288271033" lon="-3.883624762749252"><ele>1022.0</ele><time>2026-04-09T16:17:21.998Z</time></trkpt><trkpt lat="39.58362615503387" lon="-3.8834904711291443"><ele>1022.0</ele><time>2026-04-09T16:17:25Z</time></trkpt><trkpt lat="39.583745210597826" lon="-3.8833897526126426"><ele>1022.0</ele><time>2026-04-09T16:17:26Z</time></trkpt><trkpt lat="39.58377473694687" lon="-3.8833084918951783"><ele>1022.0</ele><time>2026-04-09T16:17:29Z</time></trkpt><trkpt lat="39.58380551953828" lon="-3.8832133748749142"><ele>1022.0</ele><time>2026-04-09T16:17:31Z</time></trkpt><trkpt lat="39.58388155141979" lon="-3.883234647291747"><ele>1022.0000000000001</ele><time>2026-04-09T16:17:34Z</time></trkpt><trkpt lat="39.583928714017674" lon="-3.883133219669219"><ele>1022.0</ele><time>2026-04-09T16:17:37Z</time></trkpt><trkpt lat="39.584001454822904" lon="-3.8830357011751744"><ele>1022.0</ele><time>2026-04-09T16:17:39Z</time></trkpt><trkpt lat="39.58408876580036" lon="-3.8829623409517784"><ele>1022.0</ele><time>2026-04-09T16:17:41Z</time></trkpt><trkpt lat="39.58413264904172" lon="-3.8828998012487452"><ele>1022.0000000000001</ele><time>2026-04-09T16:17:45Z</time></trkpt><trkpt lat="39.58419315268382" lon="-3.882826720856604"><ele>1022.0</ele><time>2026-04-09T16:17:48Z</time></trkpt><trkpt lat="39.58428411847495" lon="-3.8828140964938687"><ele>1022.0000000000001</ele><time>2026-04-09T16:17:51Z</time></trkpt><trkpt lat="39.58438078847373" lon="-3.8827537204555096"><ele>1022.0</ele><time>2026-04-09T16:17:53Z</time></trkpt><trkpt lat="39.584438978563256" lon="-3.8826634179712074"><ele>1022.0</ele><time>2026-04-09T16:17:55Z</time></trkpt><trkpt lat="39.58445286627757" lon="-3.882545085430532"><ele>1022.0</ele><time>2026-04-09T16:17:57Z</time></trkpt><trkpt lat="39.58449320367388" lon="-3.882443278463921"><ele>1022.0000000000001</ele><time>2026-04-09T16:17:59Z</time></trkpt><trkpt lat="39.5845399470376" lon="-3.8823798635960856"><ele>1022.0</ele><time>2026-04-09T16:18:01.999Z</time></trkpt><trkpt lat="39.58461238941019" lon="-3.8822359373776276"><ele>1022.1666666666667</ele><time>2026-04-09T16:18:04.999Z</time></trkpt><trkpt lat="39.58469403221418" lon="-3.882116559149387"><ele>1022.3333333333334</ele><time>2026-04-09T16:18:06.999Z</time></trkpt><trkpt lat="39.58471697169046" lon="-3.882032027443065"><ele>1022.5</ele><time>2026-04-09T16:18:09.999Z</time></trkpt><trkpt lat="39.58468621102598" lon="-3.8819463363195523"><ele>1022.6666666666667</ele><time>2026-04-09T16:18:12.999Z</time></trkpt><trkpt lat="39.58474540678853" lon="-3.88186688874777"><ele>1022.8333333333334</ele><time>2026-04-09T16:18:14.999Z</time></trkpt><trkpt lat="39.584804972977985" lon="-3.8818309640108746"><ele>1023.0</ele><time>2026-04-09T16:18:16.999Z</time></trkpt><trkpt lat="39.584845705451976" lon="-3.88174674716166"><ele>1023.0</ele><time>2026-04-09T16:18:18.999Z</time></trkpt><trkpt lat="39.58486276486849" lon="-3.8816446553986594"><ele>1023.0</ele><time>2026-04-09T16:18:20.999Z</time></trkpt><trkpt lat="39.5849101401948" lon="-3.881542707677869"><ele>1023.0</ele><time>2026-04-09T16:18:22.999Z</time></trkpt><trkpt lat="39.58495885476756" lon="-3.881474135046083"><ele>1023.0</ele><time>2026-04-09T16:18:24.999Z</time></trkpt><trkpt lat="39.585060933498994" lon="-3.881339938255779"><ele>1023.0</ele><time>2026-04-09T16:18:27.999Z</time></trkpt><trkpt lat="39.5851216521899" lon="-3.8812580989540097"><ele>1023.0</ele><time>2026-04-09T16:18:29.999Z</time></trkpt><trkpt lat="39.58514749842637" lon="-3.8811593024171147"><ele>1023.0</ele><time>2026-04-09T16:18:31.999Z</time></trkpt><trkpt lat="39.58515784354451" lon="-3.881044813720226"><ele>1023.0</ele><time>2026-04-09T16:18:34.999Z</time></trkpt><trkpt lat="39.58509594605167" lon="-3.880981923990522"><ele>1023.0</ele><time>2026-04-09T16:18:36.999Z</time></trkpt><trkpt lat="39.58500212492918" lon="-3.880911563706314"><ele>1023.0</ele><time>2026-04-09T16:18:38.999Z</time></trkpt><trkpt lat="39.58493469311561" lon="-3.88083848050438"><ele>1023.0</ele><time>2026-04-09T16:18:39.999Z</time></trkpt><trkpt lat="39.584878984597246" lon="-3.8807753024942793"><ele>1021.0</ele><time>2026-04-09T16:18:40.999Z</time></trkpt><trkpt lat="39.584834441950896" lon="-3.880711838190235"><ele>1019.0</ele><time>2026-04-09T16:18:42.999Z</time></trkpt><trkpt lat="39.584924096903094" lon="-3.880693133976987"><ele>1017.0</ele><time>2026-04-09T16:18:46.998Z</time></trkpt><trkpt lat="39.58498996212143" lon="-3.8806868832057826"><ele>1015.0</ele><time>2026-04-09T16:18:48.998Z</time></trkpt><trkpt lat="39.58507652075008" lon="-3.8806547786227026"><ele>1013.0</ele><time>2026-04-09T16:18:52.998Z</time></trkpt><trkpt lat="39.58516818930546" lon="-3.880587145985291"><ele>1011.0</ele><time>2026-04-09T16:18:55.998Z</time></trkpt><trkpt lat="39.58522380787909" lon="-3.8805255926410323"><ele>1011.0</ele><time>2026-04-09T16:18:56.998Z</time></trkpt><trkpt lat="39.585302170235465" lon="-3.8804645543832605"><ele>1011.0</ele><time>2026-04-09T16:18:58.998Z</time></trkpt><trkpt lat="39.585309363132716" lon="-3.8803717854448663"><ele>1011.0</ele><time>2026-04-09T16:19:00.998Z</time></trkpt><trkpt lat="39.5853867678088" lon="-3.8803180386821756"><ele>1011.0</ele><time>2026-04-09T16:19:03.998Z</time></trkpt><trkpt lat="39.58544870062421" lon="-3.880243220814005"><ele>1011.0</ele><time>2026-04-09T16:19:05.998Z</time></trkpt><trkpt lat="39.58555041231328" lon="-3.880178080903835"><ele>1011.0</ele><time>2026-04-09T16:19:07.998Z</time></trkpt><trkpt lat="39.58564411841377" lon="-3.880098628502402"><ele>1008.1666666666666</ele><time>2026-04-09T16:19:09.998Z</time></trkpt><trkpt lat="39.58571478536673" lon="-3.880077757751217"><ele>1005.3333333333333</ele><time>2026-04-09T16:19:10.998Z</time></trkpt><trkpt lat="39.58580460610225" lon="-3.8800190312157623"><ele>1002.5</ele><time>2026-04-09T16:19:12.998Z</time></trkpt><trkpt lat="39.585886683721064" lon="-3.879957266435261"><ele>999.6666666666666</ele><time>2026-04-09T16:19:14.998Z</time></trkpt><trkpt lat="39.58593319000068" lon="-3.879898162792121"><ele>996.8333333333333</ele><time>2026-04-09T16:19:16.998Z</time></trkpt><trkpt lat="39.58597361101956" lon="-3.8798309154244115"><ele>994.0</ele><time>2026-04-09T16:19:18.998Z</time></trkpt><trkpt lat="39.58604521720474" lon="-3.879788773601773"><ele>994.0</ele><time>2026-04-09T16:19:20.998Z</time></trkpt><trkpt lat="39.58610828792724" lon="-3.879760301911801"><ele>994.0</ele><time>2026-04-09T16:19:21.998Z</time></trkpt><trkpt lat="39.586178107993575" lon="-3.879718868304132"><ele>994.0</ele><time>2026-04-09T16:19:22.998Z</time></trkpt><trkpt lat="39.586239360085216" lon="-3.8796684385383173"><ele>994.0</ele><time>2026-04-09T16:19:23.998Z</time></trkpt><trkpt lat="39.58629262287692" lon="-3.87961820656769"><ele>994.0</ele><time>2026-04-09T16:19:24.998Z</time></trkpt><trkpt lat="39.58635090218248" lon="-3.8795730019505794"><ele>994.0</ele><time>2026-04-09T16:19:25.998Z</time></trkpt><trkpt lat="39.58642444265611" lon="-3.8795553011656905"><ele>994.0</ele><time>2026-04-09T16:19:27.998Z</time></trkpt><trkpt lat="39.586473740085744" lon="-3.879479339058031"><ele>994.8333333333333</ele><time>2026-04-09T16:19:30Z</time></trkpt><trkpt lat="39.58655859275012" lon="-3.879446866711228"><ele>995.6666666666666</ele><time>2026-04-09T16:19:32Z</time></trkpt><trkpt lat="39.58662258381706" lon="-3.8793526355271846"><ele>996.5</ele><time>2026-04-09T16:19:34Z</time></trkpt><trkpt lat="39.58668437786325" lon="-3.879292668669755"><ele>997.3333333333333</ele><time>2026-04-09T16:19:35Z</time></trkpt><trkpt lat="39.58674705863115" lon="-3.8792230908296825"><ele>998.1666666666666</ele><time>2026-04-09T16:19:36Z</time></trkpt><trkpt lat="39.586797657742025" lon="-3.8791547650278835"><ele>999.0</ele><time>2026-04-09T16:19:37Z</time></trkpt><trkpt lat="39.58684421339144" lon="-3.8790956598004"><ele>997.4000000000001</ele><time>2026-04-09T16:19:39Z</time></trkpt><trkpt lat="39.586934031797924" lon="-3.879011050965586"><ele>995.8000000000001</ele><time>2026-04-09T16:19:42Z</time></trkpt><trkpt lat="39.58699060891044" lon="-3.878944774940522"><ele>994.1999999999999</ele><time>2026-04-09T16:19:43Z</time></trkpt><trkpt lat="39.58704985379332" lon="-3.8788509448611026"><ele>992.5999999999999</ele><time>2026-04-09T16:19:45Z</time></trkpt><trkpt lat="39.58712238230123" lon="-3.8787762925895524"><ele>991.0</ele><time>2026-04-09T16:19:48Z</time></trkpt><trkpt lat="39.5871963957311" lon="-3.8786775525785866"><ele>990.9999999999999</ele><time>2026-04-09T16:19:51Z</time></trkpt><trkpt lat="39.58723307293387" lon="-3.878593769290185"><ele>991.0</ele><time>2026-04-09T16:19:52Z</time></trkpt><trkpt lat="39.58728159707975" lon="-3.8784957389253094"><ele>991.0</ele><time>2026-04-09T16:19:54Z</time></trkpt><trkpt lat="39.587331504219996" lon="-3.878429540135313"><ele>991.0</ele><time>2026-04-09T16:19:55Z</time></trkpt><trkpt lat="39.58730874709817" lon="-3.878352561077203"><ele>990.9999999999999</ele><time>2026-04-09T16:19:58Z</time></trkpt><trkpt lat="39.58734695382597" lon="-3.878280543319886"><ele>991.0</ele><time>2026-04-09T16:19:59Z</time></trkpt><trkpt lat="39.587434133295055" lon="-3.878174536786886"><ele>990.4</ele><time>2026-04-09T16:20:01Z</time></trkpt><trkpt lat="39.58753168701864" lon="-3.8780562902772164"><ele>989.8</ele><time>2026-04-09T16:20:03Z</time></trkpt><trkpt lat="39.58762573352732" lon="-3.877988200223921"><ele>989.1999999999999</ele><time>2026-04-09T16:20:05Z</time></trkpt><trkpt lat="39.58770759502793" lon="-3.8779001792759393"><ele>988.5999999999999</ele><time>2026-04-09T16:20:07Z</time></trkpt><trkpt lat="39.58778215848948" lon="-3.877810386223893"><ele>988.0</ele><time>2026-04-09T16:20:10.999Z</time></trkpt><trkpt lat="39.58786234712983" lon="-3.8777364315934246"><ele>988.0</ele><time>2026-04-09T16:20:12.999Z</time></trkpt><trkpt lat="39.58792556494055" lon="-3.877665002141069"><ele>988.0</ele><time>2026-04-09T16:20:14.999Z</time></trkpt><trkpt lat="39.58796591673075" lon="-3.8775815027336065"><ele>988.0</ele><time>2026-04-09T16:20:17.999Z</time></trkpt><trkpt lat="39.58802273365464" lon="-3.877506363394415"><ele>988.0</ele><time>2026-04-09T16:20:18.999Z</time></trkpt><trkpt lat="39.588145559301594" lon="-3.87743466900751"><ele>988.0</ele><time>2026-04-09T16:20:22.999Z</time></trkpt><trkpt lat="39.588213794486094" lon="-3.8773666809899696"><ele>986.5999999999999</ele><time>2026-04-09T16:20:25.999Z</time></trkpt><trkpt lat="39.58827268436219" lon="-3.8772905931080475"><ele>985.1999999999999</ele><time>2026-04-09T16:20:29.999Z</time></trkpt><trkpt lat="39.58833150638244" lon="-3.8772447817738107"><ele>983.8</ele><time>2026-04-09T16:20:31.999Z</time></trkpt><trkpt lat="39.588424137227356" lon="-3.8771067181014667"><ele>982.4</ele><time>2026-04-09T16:20:33.999Z</time></trkpt><trkpt lat="39.58843408341272" lon="-3.8769888151160217"><ele>981.0</ele><time>2026-04-09T16:20:35.999Z</time></trkpt><trkpt lat="39.58851591615915" lon="-3.876940875235731"><ele>981.0</ele><time>2026-04-09T16:20:37.999Z</time></trkpt><trkpt lat="39.58858100136301" lon="-3.8769281063886876"><ele>981.0</ele><time>2026-04-09T16:20:39.999Z</time></trkpt><trkpt lat="39.58864897202953" lon="-3.8768835286896235"><ele>981.0</ele><time>2026-04-09T16:20:41.999Z</time></trkpt><trkpt lat="39.58870371321168" lon="-3.876826494027213"><ele>981.0</ele><time>2026-04-09T16:20:43.999Z</time></trkpt><trkpt lat="39.588783527258094" lon="-3.876753254415448"><ele>981.0</ele><time>2026-04-09T16:20:46.999Z</time></trkpt><trkpt lat="39.58888614195116" lon="-3.8767026251779755"><ele>981.0</ele><time>2026-04-09T16:20:48.999Z</time></trkpt><trkpt lat="39.58895801147245" lon="-3.876589987828528"><ele>982.0</ele><time>2026-04-09T16:20:50.999Z</time></trkpt><trkpt lat="39.58902796592443" lon="-3.87647325074435"><ele>983.0</ele><time>2026-04-09T16:20:52.999Z</time></trkpt><trkpt lat="39.58903235395823" lon="-3.876382198085057"><ele>984.0</ele><time>2026-04-09T16:20:54.998Z</time></trkpt><trkpt lat="39.58906905446152" lon="-3.876284807267935"><ele>985.0</ele><time>2026-04-09T16:20:56.998Z</time></trkpt><trkpt lat="39.589119896594" lon="-3.876164622343077"><ele>986.0</ele><time>2026-04-09T16:21:00.998Z</time></trkpt><trkpt lat="39.58907079879076" lon="-3.876095708946894"><ele>987.0</ele><time>2026-04-09T16:22:32.999Z</time></trkpt><trkpt lat="39.58899168918848" lon="-3.876059630461786"><ele>987.0</ele><time>2026-04-09T16:22:35.999Z</time></trkpt><trkpt lat="39.5889070907314" lon="-3.8760460924352347"><ele>987.0</ele><time>2026-04-09T16:22:38.999Z</time></trkpt><trkpt lat="39.58882981424911" lon="-3.876118576612018"><ele>987.0</ele><time>2026-04-09T16:22:41.999Z</time></trkpt><trkpt lat="39.588749317120154" lon="-3.8761232978984057"><ele>987.0</ele><time>2026-04-09T16:22:45.999Z</time></trkpt><trkpt lat="39.58867675831458" lon="-3.876153680396579"><ele>987.0</ele><time>2026-04-09T16:22:48.999Z</time></trkpt><trkpt lat="39.58861645115452" lon="-3.8762175064270528"><ele>987.0</ele><time>2026-04-09T16:22:50.999Z</time></trkpt><trkpt lat="39.588576299198344" lon="-3.8763027011487736"><ele>984.6666666666666</ele><time>2026-04-09T16:22:53.998Z</time></trkpt><trkpt lat="39.58852194082732" lon="-3.876413687172273"><ele>982.3333333333333</ele><time>2026-04-09T16:22:56.998Z</time></trkpt><trkpt lat="39.58845965048229" lon="-3.876507067165407"><ele>980.0</ele><time>2026-04-09T16:23:01.998Z</time></trkpt><trkpt lat="39.588456998582764" lon="-3.8764251286745415"><ele>977.6666666666666</ele><time>2026-04-09T16:23:28.998Z</time></trkpt><trkpt lat="39.58851872161281" lon="-3.8764084092929547"><ele>975.3333333333333</ele><time>2026-04-09T16:23:47Z</time></trkpt><trkpt lat="39.58857985689205" lon="-3.8763494441974737"><ele>973.0</ele><time>2026-04-09T16:23:49Z</time></trkpt><trkpt lat="39.588608585550325" lon="-3.8762576772145354"><ele>972.9999999999999</ele><time>2026-04-09T16:23:51Z</time></trkpt><trkpt lat="39.58866097083591" lon="-3.8761440006903074"><ele>973.0</ele><time>2026-04-09T16:23:53Z</time></trkpt><trkpt lat="39.58873304888137" lon="-3.876114484972463"><ele>973.0</ele><time>2026-04-09T16:23:55Z</time></trkpt><trkpt lat="39.58880919000369" lon="-3.876101520157889"><ele>973.0</ele><time>2026-04-09T16:23:57Z</time></trkpt><trkpt lat="39.5888745877595" lon="-3.876080663920972"><ele>972.9999999999999</ele><time>2026-04-09T16:24:01Z</time></trkpt><trkpt lat="39.5889370510091" lon="-3.876018903367436"><ele>973.0</ele><time>2026-04-09T16:24:05Z</time></trkpt><trkpt lat="39.58899758564962" lon="-3.8760868080706605"><ele>975.0</ele><time>2026-04-09T16:24:08Z</time></trkpt><trkpt lat="39.589064469324036" lon="-3.8761140970983585"><ele>977.0</ele><time>2026-04-09T16:24:11Z</time></trkpt><trkpt lat="39.58909047957499" lon="-3.87599061597504"><ele>979.0</ele><time>2026-04-09T16:24:14Z</time></trkpt><trkpt lat="39.58914038854915" lon="-3.8759403582111194"><ele>981.0</ele><time>2026-04-09T16:24:16Z</time></trkpt><trkpt lat="39.589198281996595" lon="-3.875866781221441"><ele>983.0</ele><time>2026-04-09T16:24:16.999Z</time></trkpt><trkpt lat="39.58924819317484" lon="-3.8758038853052597"><ele>985.0</ele><time>2026-04-09T16:24:17.999Z</time></trkpt><trkpt lat="39.589304788051045" lon="-3.8757590148987138"><ele>987.0</ele><time>2026-04-09T16:24:18.999Z</time></trkpt><trkpt lat="39.58936781729564" lon="-3.875715958961761"><ele>986.8333333333334</ele><time>2026-04-09T16:24:19.999Z</time></trkpt><trkpt lat="39.5894216570919" lon="-3.8756535130536305"><ele>986.6666666666667</ele><time>2026-04-09T16:24:20.999Z</time></trkpt><trkpt lat="39.589485828293256" lon="-3.8755920398367913"><ele>986.5</ele><time>2026-04-09T16:24:21.999Z</time></trkpt><trkpt lat="39.58955024964576" lon="-3.8755467409068527"><ele>986.3333333333334</ele><time>2026-04-09T16:24:22.999Z</time></trkpt><trkpt lat="39.589606707741616" lon="-3.875466776269533"><ele>986.1666666666667</ele><time>2026-04-09T16:24:24.999Z</time></trkpt><trkpt lat="39.58960015510245" lon="-3.875329383689007"><ele>986.0</ele><time>2026-04-09T16:24:26.999Z</time></trkpt><trkpt lat="39.589598025678605" lon="-3.875238996407376"><ele>986.5</ele><time>2026-04-09T16:24:28.999Z</time></trkpt><trkpt lat="39.58959332106179" lon="-3.875083030659964"><ele>987.0</ele><time>2026-04-09T16:24:29.999Z</time></trkpt><trkpt lat="39.58958238123858" lon="-3.8749963596517905"><ele>987.5</ele><time>2026-04-09T16:24:30.999Z</time></trkpt><trkpt lat="39.58954624391061" lon="-3.8749156605685537"><ele>988.0</ele><time>2026-04-09T16:24:32.999Z</time></trkpt><trkpt lat="39.58937483187593" lon="-3.875046858928556"><ele>987.9999999999999</ele><time>2026-04-09T16:24:48.999Z</time></trkpt><trkpt lat="39.58931482358796" lon="-3.8751064094490717"><ele>988.0</ele><time>2026-04-09T16:24:50.999Z</time></trkpt><trkpt lat="39.58923954277541" lon="-3.87506595890323"><ele>988.0</ele><time>2026-04-09T16:24:52.999Z</time></trkpt><trkpt lat="39.5891633808971" lon="-3.8750607335351273"><ele>988.0</ele><time>2026-04-09T16:24:55.999Z</time></trkpt><trkpt lat="39.5890920197748" lon="-3.8749734137027287"><ele>987.9999999999999</ele><time>2026-04-09T16:24:58.999Z</time></trkpt><trkpt lat="39.58909300916021" lon="-3.874887745924437"><ele>988.0</ele><time>2026-04-09T16:25:04.998Z</time></trkpt><trkpt lat="39.58914020390024" lon="-3.8747854029885764"><ele>987.9999999999999</ele><time>2026-04-09T16:25:10.998Z</time></trkpt><trkpt lat="39.58913870787172" lon="-3.874697115787373"><ele>988.0</ele><time>2026-04-09T16:25:12.998Z</time></trkpt><trkpt lat="39.58912900824676" lon="-3.8745803906543506"><ele>988.0</ele><time>2026-04-09T16:25:15.998Z</time></trkpt><trkpt lat="39.5890731875585" lon="-3.874454647911507"><ele>988.0</ele><time>2026-04-09T16:25:19.998Z</time></trkpt><trkpt lat="39.58905971745741" lon="-3.8743475819393844"><ele>987.9999999999999</ele><time>2026-04-09T16:25:22.998Z</time></trkpt><trkpt lat="39.58904171733533" lon="-3.8742442481024737"><ele>988.0</ele><time>2026-04-09T16:25:25.998Z</time></trkpt><trkpt lat="39.589067385278746" lon="-3.8741442801975796"><ele>986.6666666666666</ele><time>2026-04-09T16:25:28.998Z</time></trkpt><trkpt lat="39.589102359364865" lon="-3.8740349093635036"><ele>985.3333333333333</ele><time>2026-04-09T16:25:38.998Z</time></trkpt><trkpt lat="39.589052029866174" lon="-3.8739573057880903"><ele>984.0</ele><time>2026-04-09T16:25:44.998Z</time></trkpt><trkpt lat="39.589051544428806" lon="-3.873854016191966"><ele>982.6666666666667</ele><time>2026-04-09T16:25:46.998Z</time></trkpt><trkpt lat="39.58902497661042" lon="-3.8737633548722457"><ele>981.3333333333334</ele><time>2026-04-09T16:25:49Z</time></trkpt><trkpt lat="39.589012669837416" lon="-3.8736330605855067"><ele>980.0</ele><time>2026-04-09T16:25:51Z</time></trkpt><trkpt lat="39.58900887046638" lon="-3.8735421481325356"><ele>979.0000000000001</ele><time>2026-04-09T16:25:53Z</time></trkpt><trkpt lat="39.589011568818826" lon="-3.873413014832921"><ele>978.0</ele><time>2026-04-09T16:25:55Z</time></trkpt><trkpt lat="39.589023840227995" lon="-3.873311742972188"><ele>977.0</ele><time>2026-04-09T16:25:57Z</time></trkpt><trkpt lat="39.58900181048433" lon="-3.8732350333884944"><ele>976.0</ele><time>2026-04-09T16:25:58Z</time></trkpt><trkpt lat="39.5889459823493" lon="-3.873117121177125"><ele>975.0000000000001</ele><time>2026-04-09T16:26:00Z</time></trkpt><trkpt lat="39.58889386428607" lon="-3.8730438979791613"><ele>974.0</ele><time>2026-04-09T16:26:02Z</time></trkpt><trkpt lat="39.58886493053083" lon="-3.8729483092475485"><ele>974.0000000000001</ele><time>2026-04-09T16:26:04Z</time></trkpt><trkpt lat="39.58883510610148" lon="-3.872857847814354"><ele>974.0</ele><time>2026-04-09T16:26:06Z</time></trkpt><trkpt lat="39.58881586181011" lon="-3.8727516305704635"><ele>974.0</ele><time>2026-04-09T16:26:08Z</time></trkpt><trkpt lat="39.588776683343504" lon="-3.8726430157220864"><ele>974.0</ele><time>2026-04-09T16:26:10Z</time></trkpt><trkpt lat="39.58876209937916" lon="-3.8725588170933487"><ele>974.0000000000001</ele><time>2026-04-09T16:26:13Z</time></trkpt><trkpt lat="39.588770893552734" lon="-3.8724692732715007"><ele>974.0</ele><time>2026-04-09T16:26:16Z</time></trkpt><trkpt lat="39.58880114621473" lon="-3.8723827542042577"><ele>972.6666666666667</ele><time>2026-04-09T16:26:18Z</time></trkpt><trkpt lat="39.58880315621879" lon="-3.872283886882227"><ele>971.3333333333334</ele><time>2026-04-09T16:26:22Z</time></trkpt><trkpt lat="39.588828473566295" lon="-3.8721882295107855"><ele>970.0</ele><time>2026-04-09T16:26:42.999Z</time></trkpt><trkpt lat="39.58875367707271" lon="-3.8721161783337896"><ele>968.6666666666667</ele><time>2026-04-09T16:28:40.999Z</time></trkpt><trkpt lat="39.5886837464089" lon="-3.8720370473013457"><ele>967.3333333333334</ele><time>2026-04-09T16:28:43.999Z</time></trkpt><trkpt lat="39.58869678941912" lon="-3.8719519174710886"><ele>966.0</ele><time>2026-04-09T16:28:47.999Z</time></trkpt><trkpt lat="39.58874408642342" lon="-3.871882015805058"><ele>966.0</ele><time>2026-04-09T16:28:49.999Z</time></trkpt><trkpt lat="39.58878884095307" lon="-3.871806386820389"><ele>966.0</ele><time>2026-04-09T16:28:52.999Z</time></trkpt><trkpt lat="39.58872918683456" lon="-3.871757893650549"><ele>966.0</ele><time>2026-04-09T16:29:39.998Z</time></trkpt><trkpt lat="39.58865795279235" lon="-3.871728949523858"><ele>966.0</ele><time>2026-04-09T16:29:43.998Z</time></trkpt><trkpt lat="39.58860708375465" lon="-3.8716784125035435"><ele>966.0</ele><time>2026-04-09T16:29:45.998Z</time></trkpt><trkpt lat="39.58856511798736" lon="-3.871584242066047"><ele>966.0</ele><time>2026-04-09T16:29:47.998Z</time></trkpt><trkpt lat="39.588541181333675" lon="-3.87148296310879"><ele>966.0</ele><time>2026-04-09T16:29:49.998Z</time></trkpt><trkpt lat="39.58847663945058" lon="-3.8713613167025676"><ele>959.0</ele><time>2026-04-09T16:29:51.998Z</time></trkpt><trkpt lat="39.58841442715462" lon="-3.87121914037443"><ele>951.9999999999999</ele><time>2026-04-09T16:29:53.998Z</time></trkpt><trkpt lat="39.58836913923136" lon="-3.871105485636919"><ele>944.9999999999999</ele><time>2026-04-09T16:29:54.998Z</time></trkpt><trkpt lat="39.58832765053179" lon="-3.8709770288124297"><ele>938.0</ele><time>2026-04-09T16:29:55.998Z</time></trkpt><trkpt lat="39.58829662100287" lon="-3.8708558032563603"><ele>931.0</ele><time>2026-04-09T16:29:56.998Z</time></trkpt><trkpt lat="39.58826375442785" lon="-3.8707441935850992"><ele>928.1999999999999</ele><time>2026-04-09T16:29:57.998Z</time></trkpt><trkpt lat="39.58821827794357" lon="-3.870637729218028"><ele>925.3999999999999</ele><time>2026-04-09T16:29:58.998Z</time></trkpt><trkpt lat="39.588162144910044" lon="-3.870534723408156"><ele>922.6</ele><time>2026-04-09T16:30:00Z</time></trkpt><trkpt lat="39.58809477758151" lon="-3.8704540520766657"><ele>919.8</ele><time>2026-04-09T16:30:01Z</time></trkpt><trkpt lat="39.588024379235605" lon="-3.870336177297147"><ele>917.0</ele><time>2026-04-09T16:30:02Z</time></trkpt><trkpt lat="39.58794041684914" lon="-3.8702122822549003"><ele>914.5</ele><time>2026-04-09T16:30:03Z</time></trkpt><trkpt lat="39.587835723186664" lon="-3.870083907171595"><ele>912.0</ele><time>2026-04-09T16:30:04Z</time></trkpt><trkpt lat="39.58773104112207" lon="-3.8699607090275063"><ele>909.5</ele><time>2026-04-09T16:30:05Z</time></trkpt><trkpt lat="39.58763538906309" lon="-3.86984502138104"><ele>907.0</ele><time>2026-04-09T16:30:06Z</time></trkpt><trkpt lat="39.58755748128445" lon="-3.8697550311634945"><ele>907.0</ele><time>2026-04-09T16:30:07Z</time></trkpt><trkpt lat="39.58750395956384" lon="-3.8696923995709844"><ele>907.0</ele><time>2026-04-09T16:30:08Z</time></trkpt><trkpt lat="39.587374028723616" lon="-3.8696690130561064"><ele>907.0</ele><time>2026-04-09T16:30:10Z</time></trkpt><trkpt lat="39.587298434184156" lon="-3.869678364250821"><ele>907.0</ele><time>2026-04-09T16:30:11Z</time></trkpt><trkpt lat="39.587201116857294" lon="-3.869747834719481"><ele>907.0</ele><time>2026-04-09T16:30:13Z</time></trkpt><trkpt lat="39.58715718520922" lon="-3.869813074130465"><ele>906.9999999999999</ele><time>2026-04-09T16:30:14Z</time></trkpt><trkpt lat="39.58709013524114" lon="-3.8698973119154343"><ele>907.0</ele><time>2026-04-09T16:30:15Z</time></trkpt><trkpt lat="39.58703464824314" lon="-3.870012884212225"><ele>907.0</ele><time>2026-04-09T16:30:16Z</time></trkpt><trkpt lat="39.58698166586549" lon="-3.8700639316294754"><ele>907.0</ele><time>2026-04-09T16:30:17Z</time></trkpt><trkpt lat="39.586928361522645" lon="-3.870124221259761"><ele>906.9999999999999</ele><time>2026-04-09T16:30:19Z</time></trkpt><trkpt lat="39.58698724837948" lon="-3.8700300989316903"><ele>907.0</ele><time>2026-04-09T16:31:27.998Z</time></trkpt><trkpt lat="39.58704894201416" lon="-3.869962364508916"><ele>906.9999999999999</ele><time>2026-04-09T16:31:29.998Z</time></trkpt><trkpt lat="39.58710171286251" lon="-3.869917033105823"><ele>907.0</ele><time>2026-04-09T16:31:33.998Z</time></trkpt><trkpt lat="39.58715285304522" lon="-3.869851620604814"><ele>907.0</ele><time>2026-04-09T16:31:39.998Z</time></trkpt><trkpt lat="39.5872185383103" lon="-3.8697765347416"><ele>907.0</ele><time>2026-04-09T16:31:42.998Z</time></trkpt><trkpt lat="39.58727168574699" lon="-3.8697214493656302"><ele>906.9999999999999</ele><time>2026-04-09T16:31:43.998Z</time></trkpt><trkpt lat="39.587327354630105" lon="-3.869611252439965"><ele>907.0</ele><time>2026-04-09T16:31:45.998Z</time></trkpt><trkpt lat="39.587313992435696" lon="-3.8694596505540164"><ele>907.0</ele><time>2026-04-09T16:31:47.998Z</time></trkpt><trkpt lat="39.58733683207271" lon="-3.8693080397813753"><ele>907.0</ele><time>2026-04-09T16:31:49.998Z</time></trkpt><trkpt lat="39.58738738366699" lon="-3.869257664058257"><ele>907.0</ele><time>2026-04-09T16:31:50.998Z</time></trkpt><trkpt lat="39.5874814501679" lon="-3.8691966977859136"><ele>907.0</ele><time>2026-04-09T16:31:52.998Z</time></trkpt><trkpt lat="39.58754306800668" lon="-3.869101953954502"><ele>907.0</ele><time>2026-04-09T16:31:54.998Z</time></trkpt><trkpt lat="39.58752387310152" lon="-3.8689855540843276"><ele>905.1666666666666</ele><time>2026-04-09T16:31:56.998Z</time></trkpt><trkpt lat="39.58746991891524" lon="-3.868898550426295"><ele>903.3333333333333</ele><time>2026-04-09T16:31:58.998Z</time></trkpt><trkpt lat="39.587431193795176" lon="-3.8688201336392916"><ele>901.5</ele><time>2026-04-09T16:32:00.998Z</time></trkpt><trkpt lat="39.58745121293838" lon="-3.868735733012728"><ele>899.6666666666667</ele><time>2026-04-09T16:32:02.998Z</time></trkpt><trkpt lat="39.587546107105936" lon="-3.868733514508926"><ele>897.8333333333334</ele><time>2026-04-09T16:32:04.998Z</time></trkpt><trkpt lat="39.58764431789485" lon="-3.8687171738053103"><ele>896.0</ele><time>2026-04-09T16:32:07Z</time></trkpt><trkpt lat="39.58764678804226" lon="-3.868567238804344"><ele>896.0</ele><time>2026-04-09T16:32:09Z</time></trkpt><trkpt lat="39.58758225199182" lon="-3.8684627967354825"><ele>895.9999999999999</ele><time>2026-04-09T16:32:11Z</time></trkpt><trkpt lat="39.58753316637471" lon="-3.8683351188580066"><ele>895.9999999999999</ele><time>2026-04-09T16:32:13Z</time></trkpt><trkpt lat="39.58750262480154" lon="-3.8682179210385077"><ele>896.0</ele><time>2026-04-09T16:32:15Z</time></trkpt><trkpt lat="39.58753899728814" lon="-3.8681380335647306"><ele>896.0</ele><time>2026-04-09T16:32:17Z</time></trkpt><trkpt lat="39.58762083912253" lon="-3.8681419649979043"><ele>893.0000000000001</ele><time>2026-04-09T16:32:19Z</time></trkpt><trkpt lat="39.587698660350945" lon="-3.86815314564818"><ele>890.0</ele><time>2026-04-09T16:32:20Z</time></trkpt><trkpt lat="39.58777826730077" lon="-3.868183484491121"><ele>887.0</ele><time>2026-04-09T16:32:21Z</time></trkpt><trkpt lat="39.58786926379206" lon="-3.86820040059471"><ele>884.0</ele><time>2026-04-09T16:32:23Z</time></trkpt><trkpt lat="39.5878596584595" lon="-3.8680628824934904"><ele>881.0000000000001</ele><time>2026-04-09T16:32:25Z</time></trkpt><trkpt lat="39.58782683411364" lon="-3.8679670902726704"><ele>878.0</ele><time>2026-04-09T16:32:26Z</time></trkpt><trkpt lat="39.58775803836297" lon="-3.867889754688441"><ele>878.0000000000001</ele><time>2026-04-09T16:32:27Z</time></trkpt><trkpt lat="39.58769334065537" lon="-3.867850449924267"><ele>878.0</ele><time>2026-04-09T16:32:28Z</time></trkpt><trkpt lat="39.587661697727384" lon="-3.8677675589414515"><ele>878.0</ele><time>2026-04-09T16:32:30Z</time></trkpt><trkpt lat="39.58772532094236" lon="-3.8677214949354197"><ele>878.0</ele><time>2026-04-09T16:32:32Z</time></trkpt><trkpt lat="39.587838572947575" lon="-3.867726807759274"><ele>878.0000000000001</ele><time>2026-04-09T16:32:34Z</time></trkpt><trkpt lat="39.587893555567156" lon="-3.867782733331092"><ele>878.0</ele><time>2026-04-09T16:32:35Z</time></trkpt><trkpt lat="39.58794957116157" lon="-3.867847687955262"><ele>877.3333333333334</ele><time>2026-04-09T16:32:36Z</time></trkpt><trkpt lat="39.58801286292759" lon="-3.8679148199346294"><ele>876.6666666666667</ele><time>2026-04-09T16:32:37Z</time></trkpt><trkpt lat="39.5880825923792" lon="-3.8679558305350388"><ele>876.0</ele><time>2026-04-09T16:32:38Z</time></trkpt><trkpt lat="39.588148336483506" lon="-3.8679636911316204"><ele>875.3333333333333</ele><time>2026-04-09T16:32:39Z</time></trkpt><trkpt lat="39.58821562294004" lon="-3.8679520105758907"><ele>874.6666666666666</ele><time>2026-04-09T16:32:40Z</time></trkpt><trkpt lat="39.58827894837861" lon="-3.8679147864851102"><ele>874.0</ele><time>2026-04-09T16:32:41Z</time></trkpt><trkpt lat="39.58836978085059" lon="-3.867819366932985"><ele>874.0</ele><time>2026-04-09T16:32:43Z</time></trkpt><trkpt lat="39.588440307200806" lon="-3.8678643474829775"><ele>874.0000000000001</ele><time>2026-04-09T16:32:57.999Z</time></trkpt><trkpt lat="39.58845062978466" lon="-3.867949970984518"><ele>874.0000000000001</ele><time>2026-04-09T16:32:58.999Z</time></trkpt><trkpt lat="39.588402833207496" lon="-3.8680826555884247"><ele>874.0</ele><time>2026-04-09T16:33:00.999Z</time></trkpt><trkpt lat="39.588380508372786" lon="-3.868213963361599"><ele>874.0</ele><time>2026-04-09T16:33:02.999Z</time></trkpt><trkpt lat="39.58835914601334" lon="-3.8683410444372623"><ele>875.8333333333333</ele><time>2026-04-09T16:33:04.999Z</time></trkpt><trkpt lat="39.588304063335016" lon="-3.868453787320311"><ele>877.6666666666666</ele><time>2026-04-09T16:33:06.999Z</time></trkpt><trkpt lat="39.58832101745126" lon="-3.868573573469585"><ele>879.5</ele><time>2026-04-09T16:33:08.999Z</time></trkpt><trkpt lat="39.58830520391871" lon="-3.868656899186083"><ele>881.3333333333333</ele><time>2026-04-09T16:33:10.999Z</time></trkpt><trkpt lat="39.58823841430109" lon="-3.868687556319438"><ele>883.1666666666666</ele><time>2026-04-09T16:33:12.999Z</time></trkpt><trkpt lat="39.58814916603025" lon="-3.8686808781213196"><ele>885.0</ele><time>2026-04-09T16:33:14.999Z</time></trkpt><trkpt lat="39.588101460203575" lon="-3.8687397323440735"><ele>885.0</ele><time>2026-04-09T16:33:39.998Z</time></trkpt><trkpt lat="39.58805173600489" lon="-3.8688046355302648"><ele>885.0</ele><time>2026-04-09T16:33:43.998Z</time></trkpt><trkpt lat="39.58799178465542" lon="-3.8688967956733697"><ele>885.0</ele><time>2026-04-09T16:33:46.998Z</time></trkpt><trkpt lat="39.58793571608543" lon="-3.8689483552724773"><ele>885.0</ele><time>2026-04-09T16:33:48.998Z</time></trkpt><trkpt lat="39.58788266045875" lon="-3.8690433144388603"><ele>885.0</ele><time>2026-04-09T16:33:50.998Z</time></trkpt><trkpt lat="39.58783075629041" lon="-3.869091349474761"><ele>885.0</ele><time>2026-04-09T16:33:53.998Z</time></trkpt><trkpt lat="39.58778432216006" lon="-3.8691634054934996"><ele>887.2</ele><time>2026-04-09T16:33:55.998Z</time></trkpt><trkpt lat="39.587695891856306" lon="-3.8692479486855063"><ele>889.4</ele><time>2026-04-09T16:33:57.998Z</time></trkpt><trkpt lat="39.587644411891304" lon="-3.869345519125092"><ele>891.5999999999999</ele><time>2026-04-09T16:33:59.998Z</time></trkpt><trkpt lat="39.58757261140233" lon="-3.869429829420403"><ele>893.8</ele><time>2026-04-09T16:34:01.998Z</time></trkpt><trkpt lat="39.587542368470494" lon="-3.869526476794399"><ele>896.0</ele><time>2026-04-09T16:34:03.998Z</time></trkpt><trkpt lat="39.587557915051825" lon="-3.86963169847562"><ele>897.0000000000001</ele><time>2026-04-09T16:34:05.998Z</time></trkpt><trkpt lat="39.58751612114997" lon="-3.8697065435645257"><ele>898.0</ele><time>2026-04-09T16:34:09.998Z</time></trkpt><trkpt lat="39.58759473467613" lon="-3.869759096300189"><ele>899.0</ele><time>2026-04-09T16:34:13Z</time></trkpt><trkpt lat="39.587680794558615" lon="-3.869854041391342"><ele>900.0</ele><time>2026-04-09T16:34:14Z</time></trkpt><trkpt lat="39.58776902862905" lon="-3.8698725657104087"><ele>901.0000000000001</ele><time>2026-04-09T16:34:15Z</time></trkpt><trkpt lat="39.58785406183745" lon="-3.8698902381946585"><ele>902.0</ele><time>2026-04-09T16:34:16Z</time></trkpt><trkpt lat="39.587950460211154" lon="-3.8699126455984687"><ele>902.0</ele><time>2026-04-09T16:34:17Z</time></trkpt><trkpt lat="39.58804057655412" lon="-3.869937968280958"><ele>902.0</ele><time>2026-04-09T16:34:18Z</time></trkpt><trkpt lat="39.58812686734789" lon="-3.869964647981984"><ele>902.0</ele><time>2026-04-09T16:34:19Z</time></trkpt><trkpt lat="39.588214399062615" lon="-3.8699973034522785"><ele>902.0</ele><time>2026-04-09T16:34:20Z</time></trkpt><trkpt lat="39.5883143589503" lon="-3.8700190408808672"><ele>902.0</ele><time>2026-04-09T16:34:21Z</time></trkpt><trkpt lat="39.58839689194722" lon="-3.870032047997375"><ele>902.0000000000001</ele><time>2026-04-09T16:34:22Z</time></trkpt><trkpt lat="39.588491226427344" lon="-3.87005341743229"><ele>902.0</ele><time>2026-04-09T16:34:23Z</time></trkpt><trkpt lat="39.58857368269853" lon="-3.8700852390909697"><ele>902.0</ele><time>2026-04-09T16:34:24Z</time></trkpt><trkpt lat="39.588649075217354" lon="-3.870105868930378"><ele>902.0</ele><time>2026-04-09T16:34:25Z</time></trkpt><trkpt lat="39.58872225749634" lon="-3.8701094301090793"><ele>902.0000000000001</ele><time>2026-04-09T16:34:26Z</time></trkpt><trkpt lat="39.58881180307332" lon="-3.870067605894639"><ele>902.0</ele><time>2026-04-09T16:34:27Z</time></trkpt><trkpt lat="39.588943847342726" lon="-3.8699794499275355"><ele>905.25</ele><time>2026-04-09T16:34:28Z</time></trkpt><trkpt lat="39.5890633154499" lon="-3.869902817221322"><ele>908.5</ele><time>2026-04-09T16:34:29Z</time></trkpt><trkpt lat="39.589174083834905" lon="-3.869810374652353"><ele>911.75</ele><time>2026-04-09T16:34:30Z</time></trkpt><trkpt lat="39.58928471356684" lon="-3.8696817020493928"><ele>915.0</ele><time>2026-04-09T16:34:31Z</time></trkpt><trkpt lat="39.58938232461369" lon="-3.869546344850946"><ele>915.0</ele><time>2026-04-09T16:34:32Z</time></trkpt><trkpt lat="39.58943831673626" lon="-3.8693590389180113"><ele>915.0</ele><time>2026-04-09T16:34:33Z</time></trkpt><trkpt lat="39.58946273892809" lon="-3.869152999627396"><ele>915.0</ele><time>2026-04-09T16:34:34Z</time></trkpt><trkpt lat="39.58946491229184" lon="-3.8689990751935275"><ele>915.0</ele><time>2026-04-09T16:34:35Z</time></trkpt><trkpt lat="39.5894791443515" lon="-3.868801510780667"><ele>910.0</ele><time>2026-04-09T16:34:36Z</time></trkpt><trkpt lat="39.58945665755539" lon="-3.8685763178764954"><ele>905.0</ele><time>2026-04-09T16:34:37Z</time></trkpt><trkpt lat="39.589446280229346" lon="-3.8683778108204767"><ele>900.0</ele><time>2026-04-09T16:34:38Z</time></trkpt><trkpt lat="39.58941856669866" lon="-3.868202222151855"><ele>897.75</ele><time>2026-04-09T16:34:39Z</time></trkpt><trkpt lat="39.58940169780336" lon="-3.868019481039954"><ele>895.5</ele><time>2026-04-09T16:34:40Z</time></trkpt><trkpt lat="39.58938817374491" lon="-3.8678430621342987"><ele>893.25</ele><time>2026-04-09T16:34:41Z</time></trkpt><trkpt lat="39.58937144462638" lon="-3.867687876980182"><ele>891.0</ele><time>2026-04-09T16:34:42Z</time></trkpt><trkpt lat="39.58936033778475" lon="-3.8675380804459656"><ele>889.75</ele><time>2026-04-09T16:34:43Z</time></trkpt><trkpt lat="39.58936342587298" lon="-3.8673875713346253"><ele>888.5</ele><time>2026-04-09T16:34:44Z</time></trkpt><trkpt lat="39.58937086842996" lon="-3.8672531594226722"><ele>887.25</ele><time>2026-04-09T16:34:45Z</time></trkpt><trkpt lat="39.58940480018871" lon="-3.8670813136408406"><ele>886.0</ele><time>2026-04-09T16:34:46Z</time></trkpt><trkpt lat="39.58943537674354" lon="-3.866920106431727"><ele>885.5999999999999</ele><time>2026-04-09T16:34:47Z</time></trkpt><trkpt lat="39.58944561931167" lon="-3.8667578108410336"><ele>885.1999999999999</ele><time>2026-04-09T16:34:48Z</time></trkpt><trkpt lat="39.58945761644886" lon="-3.866608235855058"><ele>884.8000000000001</ele><time>2026-04-09T16:34:48.999Z</time></trkpt><trkpt lat="39.58946757159966" lon="-3.8664676808899516"><ele>884.4000000000001</ele><time>2026-04-09T16:34:49.999Z</time></trkpt><trkpt lat="39.58946545461561" lon="-3.8663560127780476"><ele>884.0</ele><time>2026-04-09T16:34:50.999Z</time></trkpt><trkpt lat="39.589460119669525" lon="-3.8662668139790375"><ele>884.0</ele><time>2026-04-09T16:34:51.999Z</time></trkpt><trkpt lat="39.5894925070004" lon="-3.8661957110384413"><ele>884.0000000000001</ele><time>2026-04-09T16:34:54.999Z</time></trkpt><trkpt lat="39.589566512918104" lon="-3.866155201196311"><ele>884.0000000000001</ele><time>2026-04-09T16:34:56.999Z</time></trkpt><trkpt lat="39.58968732494691" lon="-3.866080957250398"><ele>884.0</ele><time>2026-04-09T16:34:58.999Z</time></trkpt><trkpt lat="39.58976149215707" lon="-3.866022887290694"><ele>884.0</ele><time>2026-04-09T16:34:59.999Z</time></trkpt><trkpt lat="39.58984940841761" lon="-3.8660085927070176"><ele>885.5000000000001</ele><time>2026-04-09T16:35:00.999Z</time></trkpt><trkpt lat="39.58993393067762" lon="-3.8659847268783656"><ele>887.0</ele><time>2026-04-09T16:35:01.999Z</time></trkpt><trkpt lat="39.59001707759858" lon="-3.865960084097332"><ele>888.5</ele><time>2026-04-09T16:35:02.999Z</time></trkpt><trkpt lat="39.590083981601474" lon="-3.8659449870805425"><ele>890.0</ele><time>2026-04-09T16:35:03.999Z</time></trkpt><trkpt lat="39.59017058835715" lon="-3.8659284914654157"><ele>891.5000000000001</ele><time>2026-04-09T16:35:06.999Z</time></trkpt><trkpt lat="39.5902451834074" lon="-3.86584278047334"><ele>893.0</ele><time>2026-04-09T16:35:08.999Z</time></trkpt><trkpt lat="39.59034277331267" lon="-3.8657660206998274"><ele>895.8</ele><time>2026-04-09T16:35:10.999Z</time></trkpt><trkpt lat="39.590427844461864" lon="-3.8656672131817795"><ele>898.5999999999999</ele><time>2026-04-09T16:35:12.999Z</time></trkpt><trkpt lat="39.59046012499116" lon="-3.865547973202154"><ele>901.4000000000001</ele><time>2026-04-09T16:35:14.999Z</time></trkpt><trkpt lat="39.590480394130545" lon="-3.865412613939041"><ele>904.2</ele><time>2026-04-09T16:35:16.999Z</time></trkpt><trkpt lat="39.59054453549699" lon="-3.86532343859862"><ele>907.0</ele><time>2026-04-09T16:35:18.999Z</time></trkpt><trkpt lat="39.590574794402166" lon="-3.8652010990655596"><ele>907.0000000000001</ele><time>2026-04-09T16:35:20.999Z</time></trkpt><trkpt lat="39.59060102330436" lon="-3.865123954095836"><ele>907.0</ele><time>2026-04-09T16:35:21.999Z</time></trkpt><trkpt lat="39.590624593103016" lon="-3.865047241803373"><ele>907.0000000000001</ele><time>2026-04-09T16:35:22.999Z</time></trkpt><trkpt lat="39.59065499451099" lon="-3.8649487245818137"><ele>907.0000000000001</ele><time>2026-04-09T16:35:25.999Z</time></trkpt><trkpt lat="39.59071405638929" lon="-3.864916144506181"><ele>907.0</ele><time>2026-04-09T16:35:28.999Z</time></trkpt><trkpt lat="39.590771050393826" lon="-3.8648205866798357"><ele>907.0000000000001</ele><time>2026-04-09T16:35:31.999Z</time></trkpt><trkpt lat="39.59083477873167" lon="-3.864796539430235"><ele>907.0000000000001</ele><time>2026-04-09T16:35:34.998Z</time></trkpt><trkpt lat="39.59088661712953" lon="-3.864748411192386"><ele>905.9999999999999</ele><time>2026-04-09T16:35:36.998Z</time></trkpt><trkpt lat="39.590972256743505" lon="-3.8646504793293834"><ele>905.0</ele><time>2026-04-09T16:35:38.998Z</time></trkpt><trkpt lat="39.59106912956387" lon="-3.8646481317146812"><ele>904.0</ele><time>2026-04-09T16:35:40.998Z</time></trkpt><trkpt lat="39.59114519156361" lon="-3.8646223705087266"><ele>903.0</ele><time>2026-04-09T16:35:42.998Z</time></trkpt><trkpt lat="39.59117552877772" lon="-3.8645320025283554"><ele>901.9999999999999</ele><time>2026-04-09T16:36:56.999Z</time></trkpt><trkpt lat="39.591103834599686" lon="-3.864485635368795"><ele>901.0</ele><time>2026-04-09T16:36:59.999Z</time></trkpt><trkpt lat="39.59102205892496" lon="-3.8645013124589993"><ele>901.0</ele><time>2026-04-09T16:37:01.999Z</time></trkpt><trkpt lat="39.590950203086834" lon="-3.864410622356538"><ele>900.9999999999999</ele><time>2026-04-09T16:37:03.999Z</time></trkpt><trkpt lat="39.59087194525786" lon="-3.8643391487680856"><ele>900.9999999999999</ele><time>2026-04-09T16:37:04.999Z</time></trkpt><trkpt lat="39.59079913904521" lon="-3.8642687115885472"><ele>901.0</ele><time>2026-04-09T16:37:05.999Z</time></trkpt><trkpt lat="39.59073985879177" lon="-3.8642239933460196"><ele>901.0</ele><time>2026-04-09T16:37:06.999Z</time></trkpt><trkpt lat="39.59067003716395" lon="-3.8641166237041893"><ele>900.1666666666666</ele><time>2026-04-09T16:37:08.999Z</time></trkpt><trkpt lat="39.5906646710612" lon="-3.86399868572447"><ele>899.3333333333333</ele><time>2026-04-09T16:37:10.999Z</time></trkpt><trkpt lat="39.59069638244466" lon="-3.86387784037422"><ele>898.5</ele><time>2026-04-09T16:37:12.999Z</time></trkpt><trkpt lat="39.59072733368494" lon="-3.863770435412112"><ele>897.6666666666667</ele><time>2026-04-09T16:37:14.999Z</time></trkpt><trkpt lat="39.590787942762205" lon="-3.8637282905132913"><ele>896.8333333333334</ele><time>2026-04-09T16:37:16.999Z</time></trkpt><trkpt lat="39.590764058601614" lon="-3.863627236713583"><ele>896.0</ele><time>2026-04-09T16:37:20.999Z</time></trkpt><trkpt lat="39.59071638009445" lon="-3.863509859356277"><ele>894.75</ele><time>2026-04-09T16:37:23.999Z</time></trkpt><trkpt lat="39.59082248753982" lon="-3.8633410596225897"><ele>893.5</ele><time>2026-04-09T16:37:24.999Z</time></trkpt><trkpt lat="39.590772106852114" lon="-3.8632370188227516"><ele>892.25</ele><time>2026-04-09T16:37:26.999Z</time></trkpt><trkpt lat="39.59073761164523" lon="-3.8631295640045553"><ele>891.0</ele><time>2026-04-09T16:37:28.999Z</time></trkpt><trkpt lat="39.590673239488105" lon="-3.8629542963050265"><ele>891.0</ele><time>2026-04-09T16:37:30.999Z</time></trkpt><trkpt lat="39.590663952384915" lon="-3.862829552251553"><ele>890.9999999999999</ele><time>2026-04-09T16:37:31.999Z</time></trkpt><trkpt lat="39.59067039150847" lon="-3.862697230797318"><ele>890.9999999999999</ele><time>2026-04-09T16:37:32.999Z</time></trkpt><trkpt lat="39.590681188334344" lon="-3.8625901895809545"><ele>891.0</ele><time>2026-04-09T16:37:33.999Z</time></trkpt><trkpt lat="39.59068703906139" lon="-3.8624732641727624"><ele>891.0</ele><time>2026-04-09T16:37:34.999Z</time></trkpt><trkpt lat="39.590658836096544" lon="-3.8623413385155168"><ele>889.5999999999999</ele><time>2026-04-09T16:37:35.999Z</time></trkpt><trkpt lat="39.590661770431346" lon="-3.8622180443415144"><ele>888.1999999999999</ele><time>2026-04-09T16:37:36.999Z</time></trkpt><trkpt lat="39.59065080982317" lon="-3.8621228007292276"><ele>886.8000000000001</ele><time>2026-04-09T16:37:37.998Z</time></trkpt><trkpt lat="39.59063125427875" lon="-3.862012758975759"><ele>885.4000000000001</ele><time>2026-04-09T16:37:38.998Z</time></trkpt><trkpt lat="39.59060823602812" lon="-3.861884119027266"><ele>884.0</ele><time>2026-04-09T16:37:39.998Z</time></trkpt><trkpt lat="39.590591220961166" lon="-3.861753282220902"><ele>883.5000000000001</ele><time>2026-04-09T16:37:40.998Z</time></trkpt><trkpt lat="39.59058727997603" lon="-3.8616390677657857"><ele>883.0</ele><time>2026-04-09T16:37:41.998Z</time></trkpt><trkpt lat="39.590564989731696" lon="-3.861544368590532"><ele>882.5</ele><time>2026-04-09T16:37:42.998Z</time></trkpt><trkpt lat="39.59052964765199" lon="-3.861399877705841"><ele>882.0</ele><time>2026-04-09T16:37:44.998Z</time></trkpt><trkpt lat="39.590496522964656" lon="-3.861318013623774"><ele>881.5000000000001</ele><time>2026-04-09T16:37:45.998Z</time></trkpt><trkpt lat="39.59045906161266" lon="-3.8612308639688044"><ele>881.0</ele><time>2026-04-09T16:37:46.998Z</time></trkpt><trkpt lat="39.59057338525969" lon="-3.861061957662382"><ele>881.0000000000001</ele><time>2026-04-09T16:37:47.998Z</time></trkpt><trkpt lat="39.59059655510077" lon="-3.860967426844037"><ele>881.0</ele><time>2026-04-09T16:37:48.998Z</time></trkpt><trkpt lat="39.59062106849132" lon="-3.8608596794801135"><ele>881.0</ele><time>2026-04-09T16:37:49.998Z</time></trkpt><trkpt lat="39.5906417739193" lon="-3.8607478588918034"><ele>881.0</ele><time>2026-04-09T16:37:50.998Z</time></trkpt><trkpt lat="39.59066411043722" lon="-3.8606227516385223"><ele>881.0000000000001</ele><time>2026-04-09T16:37:51.998Z</time></trkpt><trkpt lat="39.59068624945064" lon="-3.860498750607444"><ele>881.0</ele><time>2026-04-09T16:37:52.998Z</time></trkpt><trkpt lat="39.59071195959704" lon="-3.8603703682506203"><ele>881.0</ele><time>2026-04-09T16:37:53.998Z</time></trkpt><trkpt lat="39.590739540515465" lon="-3.860250867424827"><ele>880.9999999999999</ele><time>2026-04-09T16:37:54.998Z</time></trkpt><trkpt lat="39.59078239268341" lon="-3.86013760803986"><ele>880.9999999999999</ele><time>2026-04-09T16:37:55.998Z</time></trkpt><trkpt lat="39.59084223229791" lon="-3.8600268030126155"><ele>881.0</ele><time>2026-04-09T16:37:56.998Z</time></trkpt><trkpt lat="39.59089628149885" lon="-3.8599199729576315"><ele>881.0</ele><time>2026-04-09T16:37:57.998Z</time></trkpt><trkpt lat="39.59093753375178" lon="-3.859828515388631"><ele>881.0000000000001</ele><time>2026-04-09T16:37:58.998Z</time></trkpt><trkpt lat="39.5910480634876" lon="-3.859803054210361"><ele>881.0</ele><time>2026-04-09T16:37:59.998Z</time></trkpt><trkpt lat="39.591103839466406" lon="-3.859738414835543"><ele>881.0</ele><time>2026-04-09T16:38:00.998Z</time></trkpt><trkpt lat="39.59116572780607" lon="-3.8596634283248905"><ele>881.0</ele><time>2026-04-09T16:38:01.998Z</time></trkpt><trkpt lat="39.59120749555226" lon="-3.8595704221310423"><ele>881.0000000000001</ele><time>2026-04-09T16:38:02.998Z</time></trkpt><trkpt lat="39.591233412805" lon="-3.859479944322291"><ele>881.0</ele><time>2026-04-09T16:38:03.998Z</time></trkpt><trkpt lat="39.59124225067183" lon="-3.8593830780841376"><ele>880.6666666666667</ele><time>2026-04-09T16:38:04.998Z</time></trkpt><trkpt lat="39.59124428574559" lon="-3.8592813082104587"><ele>880.3333333333334</ele><time>2026-04-09T16:38:05.998Z</time></trkpt><trkpt lat="39.59123419247413" lon="-3.859188753029867"><ele>880.0</ele><time>2026-04-09T16:38:06.998Z</time></trkpt><trkpt lat="39.59122285311225" lon="-3.859094359647875"><ele>879.6666666666667</ele><time>2026-04-09T16:38:07.998Z</time></trkpt><trkpt lat="39.591153190407944" lon="-3.8590840443035277"><ele>879.3333333333334</ele><time>2026-04-09T16:38:08.998Z</time></trkpt><trkpt lat="39.59109355498443" lon="-3.8590152177573156"><ele>879.0</ele><time>2026-04-09T16:38:10.998Z</time></trkpt><trkpt lat="39.591089221321496" lon="-3.8588655077984595"><ele>879.0</ele><time>2026-04-09T16:38:12.998Z</time></trkpt><trkpt lat="39.59109426412912" lon="-3.8587744462815086"><ele>879.0000000000001</ele><time>2026-04-09T16:38:14.998Z</time></trkpt><trkpt lat="39.59110015343651" lon="-3.858668098844448"><ele>879.0000000000001</ele><time>2026-04-09T16:38:16.998Z</time></trkpt><trkpt lat="39.59110539939671" lon="-3.8585733688982304"><ele>879.0</ele><time>2026-04-09T16:38:19.998Z</time></trkpt><trkpt lat="39.59126206608447" lon="-3.858483072314107"><ele>879.0</ele><time>2026-04-09T16:38:22.997Z</time></trkpt><trkpt lat="39.59128838036901" lon="-3.8584081038840305"><ele>879.0</ele><time>2026-04-09T16:38:25Z</time></trkpt><trkpt lat="39.59133403184217" lon="-3.8583387367258366"><ele>879.0000000000001</ele><time>2026-04-09T16:38:29Z</time></trkpt><trkpt lat="39.59129071157731" lon="-3.858455227237925"><ele>879.0000000000001</ele><time>2026-04-09T16:46:14.998Z</time></trkpt><trkpt lat="39.59123259482398" lon="-3.8585447660413252"><ele>879.0</ele><time>2026-04-09T16:46:16.998Z</time></trkpt><trkpt lat="39.591185699211124" lon="-3.8586734169050945"><ele>879.0</ele><time>2026-04-09T16:46:18.998Z</time></trkpt><trkpt lat="39.59114196132015" lon="-3.8587814634037154"><ele>879.4000000000001</ele><time>2026-04-09T16:46:20.998Z</time></trkpt><trkpt lat="39.591114027478085" lon="-3.858927294091548"><ele>879.8000000000001</ele><time>2026-04-09T16:46:23.998Z</time></trkpt><trkpt lat="39.5911064107566" lon="-3.8590908706000837"><ele>880.1999999999999</ele><time>2026-04-09T16:46:25.998Z</time></trkpt><trkpt lat="39.59109523620797" lon="-3.8592010816530493"><ele>880.5999999999999</ele><time>2026-04-09T16:46:26.998Z</time></trkpt><trkpt lat="39.59108583095397" lon="-3.859305436266689"><ele>881.0</ele><time>2026-04-09T16:46:27.998Z</time></trkpt><trkpt lat="39.59108339412976" lon="-3.8593990797909092"><ele>881.0</ele><time>2026-04-09T16:46:28.998Z</time></trkpt><trkpt lat="39.59106214606459" lon="-3.8595620716264905"><ele>880.9999999999999</ele><time>2026-04-09T16:46:30.998Z</time></trkpt><trkpt lat="39.591041624530185" lon="-3.8596800627345003"><ele>880.9999999999999</ele><time>2026-04-09T16:46:32.998Z</time></trkpt><trkpt lat="39.59099896720073" lon="-3.8597880143533194"><ele>881.0</ele><time>2026-04-09T16:46:34.998Z</time></trkpt><trkpt lat="39.590956757936056" lon="-3.8598689413018437"><ele>881.0</ele><time>2026-04-09T16:46:36.998Z</time></trkpt><trkpt lat="39.59090389239815" lon="-3.8599717945998697"><ele>881.0000000000001</ele><time>2026-04-09T16:46:39.998Z</time></trkpt><trkpt lat="39.5908579908067" lon="-3.8600610990783375"><ele>881.0</ele><time>2026-04-09T16:46:42.998Z</time></trkpt><trkpt lat="39.590812599688604" lon="-3.860158685365169"><ele>881.0</ele><time>2026-04-09T16:46:44.998Z</time></trkpt><trkpt lat="39.59077766676702" lon="-3.8602442496790816"><ele>881.0</ele><time>2026-04-09T16:46:46.998Z</time></trkpt><trkpt lat="39.590729354678025" lon="-3.860323601881228"><ele>881.0000000000001</ele><time>2026-04-09T16:46:49Z</time></trkpt><trkpt lat="39.590721338428395" lon="-3.860410169765813"><ele>881.0</ele><time>2026-04-09T16:46:51Z</time></trkpt><trkpt lat="39.590699271988306" lon="-3.860549509276159"><ele>881.0000000000001</ele><time>2026-04-09T16:46:54Z</time></trkpt><trkpt lat="39.59068750192798" lon="-3.8606521071251283"><ele>881.0</ele><time>2026-04-09T16:46:56Z</time></trkpt><trkpt lat="39.590667607500166" lon="-3.8607569367982393"><ele>881.0</ele><time>2026-04-09T16:46:58Z</time></trkpt><trkpt lat="39.59063413638028" lon="-3.860853001768242"><ele>881.0</ele><time>2026-04-09T16:47:01Z</time></trkpt><trkpt lat="39.59062871918859" lon="-3.860946702606208"><ele>881.0000000000001</ele><time>2026-04-09T16:47:04Z</time></trkpt><trkpt lat="39.59060380378839" lon="-3.861028258653986"><ele>881.0</ele><time>2026-04-09T16:47:08Z</time></trkpt><trkpt lat="39.59057288265791" lon="-3.8611433901414993"><ele>881.0</ele><time>2026-04-09T16:47:10Z</time></trkpt><trkpt lat="39.590558907920276" lon="-3.861250916609276"><ele>880.9999999999999</ele><time>2026-04-09T16:47:12Z</time></trkpt><trkpt lat="39.59060117319933" lon="-3.8613456742223704"><ele>880.9999999999999</ele><time>2026-04-09T16:47:14Z</time></trkpt><trkpt lat="39.590650662718346" lon="-3.8614953155085137"><ele>881.0</ele><time>2026-04-09T16:47:16Z</time></trkpt><trkpt lat="39.590666863653425" lon="-3.8615845442191863"><ele>881.0</ele><time>2026-04-09T16:47:18Z</time></trkpt><trkpt lat="39.59088393053722" lon="-3.861622118258682"><ele>881.0000000000001</ele><time>2026-04-09T16:47:22Z</time></trkpt><trkpt lat="39.59093474649509" lon="-3.8616740192196484"><ele>881.0</ele><time>2026-04-09T16:47:25.999Z</time></trkpt><trkpt lat="39.5909774201877" lon="-3.861757823290183"><ele>881.0</ele><time>2026-04-09T16:47:28.999Z</time></trkpt><trkpt lat="39.59103900388317" lon="-3.861843212471344"><ele>881.0</ele><time>2026-04-09T16:47:31.999Z</time></trkpt><trkpt lat="39.59107901558836" lon="-3.8619075406425982"><ele>881.0000000000001</ele><time>2026-04-09T16:47:33.999Z</time></trkpt><trkpt lat="39.5910179981528" lon="-3.861849805541956"><ele>881.0</ele><time>2026-04-09T16:48:56Z</time></trkpt><trkpt lat="39.59095608837633" lon="-3.861761486717616"><ele>881.0</ele><time>2026-04-09T16:48:57Z</time></trkpt><trkpt lat="39.59090498158941" lon="-3.861644571329666"><ele>880.9999999999999</ele><time>2026-04-09T16:48:58Z</time></trkpt><trkpt lat="39.59084974589695" lon="-3.861526512572588"><ele>880.9999999999999</ele><time>2026-04-09T16:48:59Z</time></trkpt><trkpt lat="39.59075541910809" lon="-3.861487997018464"><ele>881.0</ele><time>2026-04-09T16:49:01Z</time></trkpt><trkpt lat="39.5906849698831" lon="-3.8614853542678964"><ele>881.0</ele><time>2026-04-09T16:49:02Z</time></trkpt><trkpt lat="39.59063355057014" lon="-3.861383820217289"><ele>881.0</ele><time>2026-04-09T16:49:04Z</time></trkpt><trkpt lat="39.59051870380062" lon="-3.8613703793318876"><ele>881.0</ele><time>2026-04-09T16:49:05Z</time></trkpt><trkpt lat="39.59025979490967" lon="-3.8612108813068873"><ele>881.0</ele><time>2026-04-09T16:49:12Z</time></trkpt><trkpt lat="39.59059486103179" lon="-3.861580608199602"><ele>881.0</ele><time>2026-04-09T16:49:13Z</time></trkpt><trkpt lat="39.590630953188004" lon="-3.8616796473576547"><ele>880.9999999999999</ele><time>2026-04-09T16:49:14Z</time></trkpt><trkpt lat="39.59064756771207" lon="-3.861789319361263"><ele>880.9999999999999</ele><time>2026-04-09T16:49:15Z</time></trkpt><trkpt lat="39.590652223753615" lon="-3.861922138245191"><ele>881.0</ele><time>2026-04-09T16:49:16Z</time></trkpt><trkpt lat="39.590664342724004" lon="-3.8620547569888806"><ele>881.0</ele><time>2026-04-09T16:49:17Z</time></trkpt><trkpt lat="39.59067990338252" lon="-3.862178802572365"><ele>881.5000000000001</ele><time>2026-04-09T16:49:18Z</time></trkpt><trkpt lat="39.59069433302937" lon="-3.8622924471214053"><ele>882.0</ele><time>2026-04-09T16:49:19Z</time></trkpt><trkpt lat="39.590712173925105" lon="-3.8623893368301694"><ele>882.5</ele><time>2026-04-09T16:49:20Z</time></trkpt><trkpt lat="39.59072855021016" lon="-3.8625271231913656"><ele>883.0</ele><time>2026-04-09T16:49:22Z</time></trkpt><trkpt lat="39.59072926669605" lon="-3.862673373344178"><ele>883.5000000000001</ele><time>2026-04-09T16:49:24Z</time></trkpt><trkpt lat="39.590702696844225" lon="-3.8627477165383954"><ele>884.0</ele><time>2026-04-09T16:49:25Z</time></trkpt><trkpt lat="39.5906764132109" lon="-3.8628424174092397"><ele>885.1666666666667</ele><time>2026-04-09T16:49:26Z</time></trkpt><trkpt lat="39.5906697725316" lon="-3.862976652176942"><ele>886.3333333333334</ele><time>2026-04-09T16:49:27Z</time></trkpt><trkpt lat="39.590687673937744" lon="-3.8630719334748274"><ele>887.5</ele><time>2026-04-09T16:49:28Z</time></trkpt><trkpt lat="39.59069886216518" lon="-3.8632213857027526"><ele>888.6666666666667</ele><time>2026-04-09T16:49:31.999Z</time></trkpt><trkpt lat="39.59070975030114" lon="-3.8633186376082542"><ele>889.8333333333334</ele><time>2026-04-09T16:49:32.999Z</time></trkpt><trkpt lat="39.59071656038037" lon="-3.863402534340027"><ele>891.0</ele><time>2026-04-09T16:49:33.999Z</time></trkpt><trkpt lat="39.59073291376109" lon="-3.863511756566872"><ele>891.8333333333334</ele><time>2026-04-09T16:49:36.999Z</time></trkpt><trkpt lat="39.59076984446902" lon="-3.863643133033578"><ele>892.6666666666667</ele><time>2026-04-09T16:49:38.999Z</time></trkpt><trkpt lat="39.59081247305522" lon="-3.863723487121368"><ele>893.5</ele><time>2026-04-09T16:49:40.999Z</time></trkpt><trkpt lat="39.590757501806856" lon="-3.8637764754061013"><ele>894.3333333333334</ele><time>2026-04-09T16:49:42.999Z</time></trkpt><trkpt lat="39.59070274770512" lon="-3.8638551285562057"><ele>895.1666666666667</ele><time>2026-04-09T16:49:43.999Z</time></trkpt><trkpt lat="39.590666281701495" lon="-3.863946571202101"><ele>896.0</ele><time>2026-04-09T16:49:44.999Z</time></trkpt><trkpt lat="39.59065948372007" lon="-3.8640371810455436"><ele>896.0000000000001</ele><time>2026-04-09T16:49:45.999Z</time></trkpt><trkpt lat="39.590699669310645" lon="-3.864157007870899"><ele>896.0</ele><time>2026-04-09T16:49:47.999Z</time></trkpt><trkpt lat="39.5907464913807" lon="-3.864267247668681"><ele>896.0</ele><time>2026-04-09T16:49:49.999Z</time></trkpt><trkpt lat="39.59076176152164" lon="-3.8643697716498666"><ele>896.0</ele><time>2026-04-09T16:49:51.999Z</time></trkpt><trkpt lat="39.5908189949156" lon="-3.8644474846680996"><ele>896.0000000000001</ele><time>2026-04-09T16:49:53.999Z</time></trkpt><trkpt lat="39.5908685267916" lon="-3.864499314326268"><ele>896.0</ele><time>2026-04-09T16:49:54.999Z</time></trkpt><trkpt lat="39.59096057155719" lon="-3.8645531262572743"><ele>897.0</ele><time>2026-04-09T16:49:56.999Z</time></trkpt><trkpt lat="39.591024838511" lon="-3.86448851408529"><ele>897.9999999999999</ele><time>2026-04-09T16:49:58.999Z</time></trkpt><trkpt lat="39.591190853311716" lon="-3.864542394510607"><ele>898.9999999999999</ele><time>2026-04-09T16:50:02.999Z</time></trkpt><trkpt lat="39.5912579778831" lon="-3.8645799896117996"><ele>900.0</ele><time>2026-04-09T16:50:03.999Z</time></trkpt><trkpt lat="39.591319136263614" lon="-3.864656352979615"><ele>901.0</ele><time>2026-04-09T16:50:05.999Z</time></trkpt><trkpt lat="39.59137659315361" lon="-3.864712286089132"><ele>904.4</ele><time>2026-04-09T16:50:06.999Z</time></trkpt><trkpt lat="39.591426337779566" lon="-3.864779984684469"><ele>907.8</ele><time>2026-04-09T16:50:07.999Z</time></trkpt><trkpt lat="39.591481380959436" lon="-3.864828249309762"><ele>911.1999999999999</ele><time>2026-04-09T16:50:08.999Z</time></trkpt><trkpt lat="39.59155403326888" lon="-3.864866934610097"><ele>914.5999999999999</ele><time>2026-04-09T16:50:09.999Z</time></trkpt><trkpt lat="39.591763846763286" lon="-3.8648458825643286"><ele>918.0</ele><time>2026-04-09T16:50:15.998Z</time></trkpt><trkpt lat="39.59182172669904" lon="-3.8648967364886047"><ele>918.0</ele><time>2026-04-09T16:50:17.998Z</time></trkpt><trkpt lat="39.59197552851586" lon="-3.8649206243318663"><ele>918.0</ele><time>2026-04-09T16:50:23.998Z</time></trkpt><trkpt lat="39.59210749104723" lon="-3.864915714213246"><ele>918.0</ele><time>2026-04-09T16:50:27.998Z</time></trkpt><trkpt lat="39.59217072544078" lon="-3.864892194271799"><ele>918.0</ele><time>2026-04-09T16:50:30.998Z</time></trkpt><trkpt lat="39.59233861603592" lon="-3.8648897471081622"><ele>920.0</ele><time>2026-04-09T16:50:37.998Z</time></trkpt><trkpt lat="39.59241574739581" lon="-3.864879352838123"><ele>922.0</ele><time>2026-04-09T16:50:41.998Z</time></trkpt><trkpt lat="39.59250268693412" lon="-3.8648739659036013"><ele>924.0</ele><time>2026-04-09T16:50:44.998Z</time></trkpt><trkpt lat="39.59257276729614" lon="-3.8648632408657084"><ele>926.0</ele><time>2026-04-09T16:50:47.998Z</time></trkpt><trkpt lat="39.59265888535207" lon="-3.8648452006962897"><ele>928.0</ele><time>2026-04-09T16:50:49.998Z</time></trkpt><trkpt lat="39.59273339068209" lon="-3.8648206906242293"><ele>930.0</ele><time>2026-04-09T16:50:53.998Z</time></trkpt><trkpt lat="39.5928028987227" lon="-3.864812130806906"><ele>932.5714285714286</ele><time>2026-04-09T16:51:00Z</time></trkpt><trkpt lat="39.592867710112984" lon="-3.86478704977314"><ele>935.1428571428571</ele><time>2026-04-09T16:51:04Z</time></trkpt><trkpt lat="39.592931223000015" lon="-3.8647764739423884"><ele>937.7142857142857</ele><time>2026-04-09T16:51:07Z</time></trkpt><trkpt lat="39.592987798796" lon="-3.864731621602977"><ele>940.2857142857142</ele><time>2026-04-09T16:51:09Z</time></trkpt><trkpt lat="39.59305420827119" lon="-3.864660485343102"><ele>942.8571428571429</ele><time>2026-04-09T16:51:12Z</time></trkpt><trkpt lat="39.593117447171274" lon="-3.86460997878093"><ele>945.4285714285713</ele><time>2026-04-09T16:51:15Z</time></trkpt><trkpt lat="39.593183707302146" lon="-3.864566239219631"><ele>947.9999999999999</ele><time>2026-04-09T16:51:17Z</time></trkpt><trkpt lat="39.59325499738708" lon="-3.8645144947286414"><ele>948.0</ele><time>2026-04-09T16:51:20Z</time></trkpt><trkpt lat="39.59332346869764" lon="-3.864475069562014"><ele>948.0</ele><time>2026-04-09T16:51:23Z</time></trkpt><trkpt lat="39.59340045121947" lon="-3.864441527918519"><ele>948.0</ele><time>2026-04-09T16:51:26Z</time></trkpt><trkpt lat="39.59348148019275" lon="-3.864389660572188"><ele>948.0</ele><time>2026-04-09T16:51:29Z</time></trkpt><trkpt lat="39.59354370611833" lon="-3.8643548753777144"><ele>948.0</ele><time>2026-04-09T16:51:32Z</time></trkpt><trkpt lat="39.59361013981037" lon="-3.864297692827698"><ele>948.0</ele><time>2026-04-09T16:51:35.999Z</time></trkpt><trkpt lat="39.59369538992883" lon="-3.86428605296947"><ele>948.4</ele><time>2026-04-09T16:51:38.999Z</time></trkpt><trkpt lat="39.593769834747825" lon="-3.864231954294913"><ele>948.8</ele><time>2026-04-09T16:51:41.999Z</time></trkpt><trkpt lat="39.593903015286436" lon="-3.864143723645523"><ele>949.2</ele><time>2026-04-09T16:51:43.999Z</time></trkpt><trkpt lat="39.59399108393126" lon="-3.8641038203189058"><ele>949.6</ele><time>2026-04-09T16:51:45.999Z</time></trkpt><trkpt lat="39.59405083557623" lon="-3.864074260949466"><ele>950.0</ele><time>2026-04-09T16:51:48.999Z</time></trkpt><trkpt lat="39.59409913403912" lon="-3.8640192167657523"><ele>950.0</ele><time>2026-04-09T16:51:50.999Z</time></trkpt><trkpt lat="39.59417662152252" lon="-3.86393022042624"><ele>950.0</ele><time>2026-04-09T16:51:52.999Z</time></trkpt><trkpt lat="39.59426132401715" lon="-3.8638676134748304"><ele>950.0</ele><time>2026-04-09T16:52:34.998Z</time></trkpt><trkpt lat="39.59435123148938" lon="-3.8638556009040923"><ele>950.0</ele><time>2026-04-09T16:52:36.998Z</time></trkpt><trkpt lat="39.59444178409508" lon="-3.8638065444587837"><ele>950.0</ele><time>2026-04-09T16:52:39.998Z</time></trkpt><trkpt lat="39.59451405125845" lon="-3.863792423725846"><ele>950.5000000000001</ele><time>2026-04-09T16:52:43.998Z</time></trkpt><trkpt lat="39.59457466140132" lon="-3.8637240176321836"><ele>951.0</ele><time>2026-04-09T16:52:45.998Z</time></trkpt><trkpt lat="39.59461014775612" lon="-3.863655680011079"><ele>951.5</ele><time>2026-04-09T16:52:46.998Z</time></trkpt><trkpt lat="39.59465009842238" lon="-3.863579659142684"><ele>952.0</ele><time>2026-04-09T16:52:47.998Z</time></trkpt><trkpt lat="39.594705481293424" lon="-3.8635211359964186"><ele>952.5000000000001</ele><time>2026-04-09T16:52:48.998Z</time></trkpt><trkpt lat="39.59479618645993" lon="-3.863476034354857"><ele>953.0</ele><time>2026-04-09T16:52:50.998Z</time></trkpt><trkpt lat="39.59487192070399" lon="-3.8634459239626278"><ele>953.0000000000001</ele><time>2026-04-09T16:52:53.998Z</time></trkpt><trkpt lat="39.59494769536609" lon="-3.863400131578686"><ele>953.0</ele><time>2026-04-09T16:52:55.998Z</time></trkpt><trkpt lat="39.59502128455348" lon="-3.863379482193927"><ele>953.0</ele><time>2026-04-09T16:52:57.998Z</time></trkpt><trkpt lat="39.59514329946363" lon="-3.8633541355641694"><ele>953.0</ele><time>2026-04-09T16:53:01.997Z</time></trkpt><trkpt lat="39.595200219559324" lon="-3.8633043115861434"><ele>953.0000000000001</ele><time>2026-04-09T16:53:03.997Z</time></trkpt><trkpt lat="39.595274567370836" lon="-3.8632634378226403"><ele>953.0</ele><time>2026-04-09T16:53:06Z</time></trkpt><trkpt lat="39.595380667232355" lon="-3.863285705881314"><ele>954.0000000000001</ele><time>2026-04-09T16:53:08Z</time></trkpt><trkpt lat="39.59548171190927" lon="-3.8632950499669128"><ele>955.0</ele><time>2026-04-09T16:53:10Z</time></trkpt><trkpt lat="39.595546260605204" lon="-3.8632757568063587"><ele>956.0</ele><time>2026-04-09T16:53:13Z</time></trkpt><trkpt lat="39.59560563512467" lon="-3.8633059761612123"><ele>957.0</ele><time>2026-04-09T16:53:16Z</time></trkpt><trkpt lat="39.595599179206566" lon="-3.8634189177717677"><ele>958.0000000000001</ele><time>2026-04-09T16:53:18Z</time></trkpt><trkpt lat="39.5955361484064" lon="-3.863459208441679"><ele>959.0</ele><time>2026-04-09T16:53:20Z</time></trkpt><trkpt lat="39.595450584962194" lon="-3.8634163269728448"><ele>959.0</ele><time>2026-04-09T16:53:23Z</time></trkpt><trkpt lat="39.59557711623753" lon="-3.863366417670573"><ele>959.0000000000001</ele><time>2026-04-09T16:55:33Z</time></trkpt><trkpt lat="39.59560962243722" lon="-3.863245134925398"><ele>959.0000000000001</ele><time>2026-04-09T16:55:37Z</time></trkpt><trkpt lat="39.595599700889316" lon="-3.8631488709952473"><ele>959.0</ele><time>2026-04-09T16:55:39Z</time></trkpt><trkpt lat="39.59559464313227" lon="-3.863043487536"><ele>959.0</ele><time>2026-04-09T16:55:42Z</time></trkpt><trkpt lat="39.595604695187745" lon="-3.862956117019333"><ele>959.0000000000001</ele><time>2026-04-09T16:55:44Z</time></trkpt><trkpt lat="39.59565365130631" lon="-3.8628811923937123"><ele>959.0</ele><time>2026-04-09T16:55:45.999Z</time></trkpt><trkpt lat="39.595728117723645" lon="-3.8628474481985395"><ele>959.0</ele><time>2026-04-09T16:55:51.999Z</time></trkpt><trkpt lat="39.59580368142446" lon="-3.8628220440791887"><ele>959.0</ele><time>2026-04-09T16:55:54.999Z</time></trkpt><trkpt lat="39.59584136223679" lon="-3.8627336113239954"><ele>959.0000000000001</ele><time>2026-04-09T16:55:57.999Z</time></trkpt><trkpt lat="39.595910124445055" lon="-3.8626930182874633"><ele>959.0</ele><time>2026-04-09T16:56:01.999Z</time></trkpt><trkpt lat="39.59595876836391" lon="-3.8626331776156104"><ele>959.1428571428571</ele><time>2026-04-09T16:57:46Z</time></trkpt><trkpt lat="39.59599563859048" lon="-3.8625610755379856"><ele>959.2857142857142</ele><time>2026-04-09T16:57:49Z</time></trkpt><trkpt lat="39.59597842269272" lon="-3.8624697601393088"><ele>959.4285714285714</ele><time>2026-04-09T16:57:52Z</time></trkpt><trkpt lat="39.595979854434624" lon="-3.862355759665213"><ele>959.5714285714286</ele><time>2026-04-09T16:57:54Z</time></trkpt><trkpt lat="39.5960457686111" lon="-3.862288502027777"><ele>959.7142857142857</ele><time>2026-04-09T16:57:56.999Z</time></trkpt><trkpt lat="39.59611355252024" lon="-3.8622804031160674"><ele>959.8571428571429</ele><time>2026-04-09T16:57:58.999Z</time></trkpt><trkpt lat="39.59615840316965" lon="-3.8622188552496333"><ele>960.0</ele><time>2026-04-09T16:58:00.999Z</time></trkpt><trkpt lat="39.59621396361166" lon="-3.8621528582808926"><ele>958.5</ele><time>2026-04-09T16:58:02.999Z</time></trkpt><trkpt lat="39.59625128399168" lon="-3.8620234996004883"><ele>957.0</ele><time>2026-04-09T16:58:04.999Z</time></trkpt><trkpt lat="39.59628513858908" lon="-3.8619468986863676"><ele>955.5</ele><time>2026-04-09T16:58:06.999Z</time></trkpt><trkpt lat="39.59636151432555" lon="-3.8619171477426217"><ele>954.0</ele><time>2026-04-09T16:58:09.999Z</time></trkpt><trkpt lat="39.596403675548274" lon="-3.8618479269019943"><ele>952.5</ele><time>2026-04-09T16:58:11.999Z</time></trkpt><trkpt lat="39.596432913890986" lon="-3.8617629342719577"><ele>951.0</ele><time>2026-04-09T16:58:14.999Z</time></trkpt><trkpt lat="39.59652307386844" lon="-3.8616593369110643"><ele>951.0</ele><time>2026-04-09T16:58:17.999Z</time></trkpt><trkpt lat="39.59656789717617" lon="-3.8615974156238733"><ele>951.0</ele><time>2026-04-09T16:58:18.999Z</time></trkpt><trkpt lat="39.59661168134176" lon="-3.861478987804154"><ele>951.0</ele><time>2026-04-09T16:58:20.999Z</time></trkpt><trkpt lat="39.59662970666451" lon="-3.8613612210905885"><ele>951.0</ele><time>2026-04-09T16:58:22.999Z</time></trkpt><trkpt lat="39.5966844051782" lon="-3.861295342726972"><ele>951.0</ele><time>2026-04-09T16:58:25.999Z</time></trkpt><trkpt lat="39.5967338679723" lon="-3.861231413207067"><ele>951.0</ele><time>2026-04-09T16:58:27.999Z</time></trkpt><trkpt lat="39.596783329647714" lon="-3.8611433906086163"><ele>951.0</ele><time>2026-04-09T16:58:30.999Z</time></trkpt><trkpt lat="39.596877787230426" lon="-3.861007654899183"><ele>950.9999999999999</ele><time>2026-04-09T16:58:32.999Z</time></trkpt><trkpt lat="39.59695259524886" lon="-3.8609003342652617"><ele>950.9999999999999</ele><time>2026-04-09T16:58:34.999Z</time></trkpt><trkpt lat="39.59699748460049" lon="-3.8607877923586895"><ele>951.0</ele><time>2026-04-09T16:58:36.999Z</time></trkpt><trkpt lat="39.59703331021271" lon="-3.860718702193202"><ele>951.0</ele><time>2026-04-09T16:58:39.998Z</time></trkpt><trkpt lat="39.59709196232185" lon="-3.8606424839313265"><ele>948.5</ele><time>2026-04-09T16:58:42.998Z</time></trkpt><trkpt lat="39.59709903033553" lon="-3.860555335846551"><ele>946.0</ele><time>2026-04-09T16:58:44.998Z</time></trkpt><trkpt lat="39.5971250238074" lon="-3.86043952571033"><ele>943.5</ele><time>2026-04-09T16:58:47.998Z</time></trkpt><trkpt lat="39.59717648987647" lon="-3.8603565051507966"><ele>941.0</ele><time>2026-04-09T16:58:48.998Z</time></trkpt><trkpt lat="39.59722033793897" lon="-3.8602685069284632"><ele>938.5</ele><time>2026-04-09T16:58:49.998Z</time></trkpt><trkpt lat="39.59723825680124" lon="-3.860123691826576"><ele>936.0</ele><time>2026-04-09T16:58:51.998Z</time></trkpt><trkpt lat="39.597340245430175" lon="-3.8599789288395687"><ele>935.8</ele><time>2026-04-09T16:58:53.998Z</time></trkpt><trkpt lat="39.5974363346704" lon="-3.859912004058253"><ele>935.5999999999999</ele><time>2026-04-09T16:58:54.998Z</time></trkpt><trkpt lat="39.597515026587374" lon="-3.859833155327917"><ele>935.4</ele><time>2026-04-09T16:58:55.998Z</time></trkpt><trkpt lat="39.597599855368344" lon="-3.85977446358302"><ele>935.2</ele><time>2026-04-09T16:58:56.998Z</time></trkpt><trkpt lat="39.59767454246461" lon="-3.8597013859084623"><ele>935.0</ele><time>2026-04-09T16:58:57.998Z</time></trkpt><trkpt lat="39.59773518033751" lon="-3.859642919865082"><ele>935.0000000000001</ele><time>2026-04-09T16:58:58.998Z</time></trkpt><trkpt lat="39.597804408833596" lon="-3.8595699705542463"><ele>935.0</ele><time>2026-04-09T16:58:59.998Z</time></trkpt><trkpt lat="39.59787316187119" lon="-3.8595034714671694"><ele>935.0</ele><time>2026-04-09T16:59:00.998Z</time></trkpt><trkpt lat="39.597944829543586" lon="-3.8594421445199223"><ele>935.0</ele><time>2026-04-09T16:59:01.998Z</time></trkpt><trkpt lat="39.59801769477507" lon="-3.8594255394455024"><ele>935.0000000000001</ele><time>2026-04-09T16:59:02.998Z</time></trkpt><trkpt lat="39.5980858897354" lon="-3.8594174725344486"><ele>935.0</ele><time>2026-04-09T16:59:03.998Z</time></trkpt><trkpt lat="39.598162765452265" lon="-3.85950236577971"><ele>933.0</ele><time>2026-04-09T16:59:05.998Z</time></trkpt><trkpt lat="39.59820693021227" lon="-3.859580664713912"><ele>931.0</ele><time>2026-04-09T16:59:08.998Z</time></trkpt><trkpt lat="39.598455605776046" lon="-3.859487325700487"><ele>929.0</ele><time>2026-04-09T16:59:18.998Z</time></trkpt><trkpt lat="39.59847011088444" lon="-3.859396984203135"><ele>927.0</ele><time>2026-04-09T16:59:21.998Z</time></trkpt><trkpt lat="39.59851773900404" lon="-3.8593153036581995"><ele>927.0</ele><time>2026-04-09T16:59:24Z</time></trkpt><trkpt lat="39.59858698846328" lon="-3.8592750217579748"><ele>927.0</ele><time>2026-04-09T16:59:27Z</time></trkpt><trkpt lat="39.59866099973349" lon="-3.8593237045254623"><ele>927.0</ele><time>2026-04-09T16:59:29Z</time></trkpt><trkpt lat="39.598750658048225" lon="-3.85937625121275"><ele>927.0</ele><time>2026-04-09T16:59:31Z</time></trkpt><trkpt lat="39.5988434860798" lon="-3.8594162635468834"><ele>927.0</ele><time>2026-04-09T16:59:34Z</time></trkpt><trkpt lat="39.59892896587611" lon="-3.859417278750439"><ele>927.0</ele><time>2026-04-09T16:59:37Z</time></trkpt><trkpt lat="39.599106580586536" lon="-3.859411749398136"><ele>924.7142857142856</ele><time>2026-04-09T16:59:39Z</time></trkpt><trkpt lat="39.599176613355496" lon="-3.859431830332357"><ele>922.4285714285713</ele><time>2026-04-09T16:59:40Z</time></trkpt><trkpt lat="39.59924271658431" lon="-3.8594333293239917"><ele>920.1428571428571</ele><time>2026-04-09T16:59:41Z</time></trkpt><trkpt lat="39.599312316194144" lon="-3.8594455370419625"><ele>917.8571428571428</ele><time>2026-04-09T16:59:42Z</time></trkpt><trkpt lat="39.5993780144322" lon="-3.8594442876884325"><ele>915.5714285714284</ele><time>2026-04-09T16:59:43Z</time></trkpt><trkpt lat="39.599447413940595" lon="-3.859423933027994"><ele>913.2857142857143</ele><time>2026-04-09T16:59:44Z</time></trkpt><trkpt lat="39.59951908726701" lon="-3.8593881694605083"><ele>911.0</ele><time>2026-04-09T16:59:45Z</time></trkpt><trkpt lat="39.59959752504829" lon="-3.859370970428583"><ele>909.0</ele><time>2026-04-09T16:59:46Z</time></trkpt><trkpt lat="39.599670791000456" lon="-3.8593831352721106"><ele>907.0</ele><time>2026-04-09T16:59:47Z</time></trkpt><trkpt lat="39.59973296776574" lon="-3.8593683850841036"><ele>905.0</ele><time>2026-04-09T16:59:48Z</time></trkpt><trkpt lat="39.59979865667672" lon="-3.859337222839986"><ele>903.0</ele><time>2026-04-09T16:59:49Z</time></trkpt><trkpt lat="39.59987595441098" lon="-3.8593169605988327"><ele>901.0</ele><time>2026-04-09T16:59:50Z</time></trkpt><trkpt lat="39.599955245800615" lon="-3.85930007948233"><ele>899.0</ele><time>2026-04-09T16:59:51Z</time></trkpt><trkpt lat="39.60002765666255" lon="-3.859311234958806"><ele>897.0</ele><time>2026-04-09T16:59:52Z</time></trkpt><trkpt lat="39.60015448348888" lon="-3.8592978232161714"><ele>898.2</ele><time>2026-04-09T16:59:54Z</time></trkpt><trkpt lat="39.60022567712773" lon="-3.8592705404263747"><ele>899.4000000000001</ele><time>2026-04-09T16:59:55Z</time></trkpt><trkpt lat="39.600309207495755" lon="-3.859230686304265"><ele>900.5999999999999</ele><time>2026-04-09T16:59:56Z</time></trkpt><trkpt lat="39.60040597600183" lon="-3.8591924264290953"><ele>901.8</ele><time>2026-04-09T16:59:57Z</time></trkpt><trkpt lat="39.60048980283875" lon="-3.859176762552402"><ele>903.0</ele><time>2026-04-09T16:59:58Z</time></trkpt><trkpt lat="39.600598358546634" lon="-3.8591168406757825"><ele>903.0</ele><time>2026-04-09T17:00:00Z</time></trkpt><trkpt lat="39.60068564756309" lon="-3.8590864538463943"><ele>903.0</ele><time>2026-04-09T17:00:01Z</time></trkpt><trkpt lat="39.600751568203826" lon="-3.8590521271729656"><ele>903.0</ele><time>2026-04-09T17:00:01.999Z</time></trkpt><trkpt lat="39.60082399312476" lon="-3.859016467464912"><ele>903.0</ele><time>2026-04-09T17:00:02.999Z</time></trkpt><trkpt lat="39.60091090414375" lon="-3.8589705439258415"><ele>903.0</ele><time>2026-04-09T17:00:03.999Z</time></trkpt><trkpt lat="39.600986906174796" lon="-3.8589258492016962"><ele>903.0</ele><time>2026-04-09T17:00:04.999Z</time></trkpt><trkpt lat="39.601041140615074" lon="-3.85887023083063"><ele>903.0</ele><time>2026-04-09T17:00:05.999Z</time></trkpt><trkpt lat="39.60111815642883" lon="-3.8587853105208194"><ele>903.0</ele><time>2026-04-09T17:00:06.999Z</time></trkpt><trkpt lat="39.601188259496205" lon="-3.858699930646176"><ele>903.0</ele><time>2026-04-09T17:00:07.999Z</time></trkpt><trkpt lat="39.601259067822774" lon="-3.8586205044450455"><ele>903.0</ele><time>2026-04-09T17:00:08.999Z</time></trkpt><trkpt lat="39.60131356488879" lon="-3.8585523448776784"><ele>903.0</ele><time>2026-04-09T17:00:09.999Z</time></trkpt><trkpt lat="39.60137088608326" lon="-3.8584785936281087"><ele>903.0</ele><time>2026-04-09T17:00:10.999Z</time></trkpt><trkpt lat="39.60143135291803" lon="-3.858384887003308"><ele>902.0</ele><time>2026-04-09T17:00:11.999Z</time></trkpt><trkpt lat="39.60148021016049" lon="-3.8582921850215803"><ele>901.0</ele><time>2026-04-09T17:00:12.999Z</time></trkpt><trkpt lat="39.60152804595391" lon="-3.858232917867499"><ele>900.0</ele><time>2026-04-09T17:00:13.999Z</time></trkpt><trkpt lat="39.601585323259734" lon="-3.858163319428105"><ele>899.0</ele><time>2026-04-09T17:00:14.999Z</time></trkpt><trkpt lat="39.60163200276965" lon="-3.858102018420083"><ele>898.0</ele><time>2026-04-09T17:00:15.999Z</time></trkpt><trkpt lat="39.60168573805609" lon="-3.8580594311318945"><ele>897.0</ele><time>2026-04-09T17:00:16.999Z</time></trkpt><trkpt lat="39.60175126110998" lon="-3.858014509194539"><ele>896.0</ele><time>2026-04-09T17:00:17.999Z</time></trkpt><trkpt lat="39.601814207114344" lon="-3.8579762000252313"><ele>896.0</ele><time>2026-04-09T17:00:18.999Z</time></trkpt><trkpt lat="39.60187288715421" lon="-3.857944494289903"><ele>895.9999999999999</ele><time>2026-04-09T17:00:19.999Z</time></trkpt><trkpt lat="39.60198803534571" lon="-3.857920422310756"><ele>895.9999999999999</ele><time>2026-04-09T17:00:21.999Z</time></trkpt><trkpt lat="39.60209705224809" lon="-3.8578675840790013"><ele>896.0</ele><time>2026-04-09T17:00:23.999Z</time></trkpt><trkpt lat="39.602170754598184" lon="-3.8578345475851488"><ele>896.0</ele><time>2026-04-09T17:00:24.999Z</time></trkpt><trkpt lat="39.602249102436936" lon="-3.8578064445504463"><ele>893.5000000000001</ele><time>2026-04-09T17:00:25.999Z</time></trkpt><trkpt lat="39.60231037824851" lon="-3.857776339185373"><ele>891.0</ele><time>2026-04-09T17:00:26.999Z</time></trkpt><trkpt lat="39.602364382616486" lon="-3.8577334674309154"><ele>888.5</ele><time>2026-04-09T17:00:27.999Z</time></trkpt><trkpt lat="39.60244479200091" lon="-3.8576878600224545"><ele>886.0</ele><time>2026-04-09T17:00:28.999Z</time></trkpt><trkpt lat="39.60252657086174" lon="-3.8576610059955665"><ele>883.5000000000001</ele><time>2026-04-09T17:00:29.999Z</time></trkpt><trkpt lat="39.60260412024236" lon="-3.857652356281214"><ele>881.0</ele><time>2026-04-09T17:00:30.999Z</time></trkpt><trkpt lat="39.60268053112721" lon="-3.8576324835645037"><ele>881.6666666666667</ele><time>2026-04-09T17:00:31.999Z</time></trkpt><trkpt lat="39.60275035473672" lon="-3.8575999061239665"><ele>882.3333333333334</ele><time>2026-04-09T17:00:32.999Z</time></trkpt><trkpt lat="39.60281925887804" lon="-3.8575673000873265"><ele>883.0</ele><time>2026-04-09T17:00:33.999Z</time></trkpt><trkpt lat="39.602884696784955" lon="-3.8575648068831545"><ele>883.6666666666667</ele><time>2026-04-09T17:00:34.999Z</time></trkpt><trkpt lat="39.60296185683066" lon="-3.8575824414988986"><ele>884.3333333333334</ele><time>2026-04-09T17:00:35.999Z</time></trkpt><trkpt lat="39.60304780892984" lon="-3.8576156804867883"><ele>885.0</ele><time>2026-04-09T17:00:36.999Z</time></trkpt><trkpt lat="39.603128080447014" lon="-3.857659193159957"><ele>882.5</ele><time>2026-04-09T17:00:37.999Z</time></trkpt><trkpt lat="39.60319554314373" lon="-3.8577043291444215"><ele>880.0</ele><time>2026-04-09T17:00:38.999Z</time></trkpt><trkpt lat="39.603263500739494" lon="-3.857736555472529"><ele>877.5</ele><time>2026-04-09T17:00:39.999Z</time></trkpt><trkpt lat="39.60334251496146" lon="-3.857766794535266"><ele>875.0</ele><time>2026-04-09T17:00:40.999Z</time></trkpt><trkpt lat="39.60342037577669" lon="-3.8577793851162983"><ele>872.5</ele><time>2026-04-09T17:00:41.999Z</time></trkpt><trkpt lat="39.60349255322946" lon="-3.8577792677610345"><ele>870.0</ele><time>2026-04-09T17:00:42.999Z</time></trkpt><trkpt lat="39.60362755833697" lon="-3.857766268717741"><ele>870.2</ele><time>2026-04-09T17:00:44.999Z</time></trkpt><trkpt lat="39.60371423806286" lon="-3.8577336005869616"><ele>870.4</ele><time>2026-04-09T17:00:45.999Z</time></trkpt><trkpt lat="39.60380163761202" lon="-3.8576903890920033"><ele>870.5999999999999</ele><time>2026-04-09T17:00:46.998Z</time></trkpt><trkpt lat="39.60389804582144" lon="-3.8576431732886705"><ele>870.8</ele><time>2026-04-09T17:00:47.998Z</time></trkpt><trkpt lat="39.603991700055765" lon="-3.8575876460472713"><ele>871.0</ele><time>2026-04-09T17:00:48.998Z</time></trkpt><trkpt lat="39.60406276922154" lon="-3.857528405080473"><ele>870.9999999999999</ele><time>2026-04-09T17:00:49.998Z</time></trkpt><trkpt lat="39.60412819887172" lon="-3.8574567380086284"><ele>871.0</ele><time>2026-04-09T17:00:50.998Z</time></trkpt><trkpt lat="39.60419048141018" lon="-3.8573679570133743"><ele>871.0</ele><time>2026-04-09T17:00:51.998Z</time></trkpt><trkpt lat="39.60425047247754" lon="-3.8572826491333183"><ele>871.0</ele><time>2026-04-09T17:00:52.998Z</time></trkpt><trkpt lat="39.604293852740035" lon="-3.857213097614565"><ele>870.9999999999999</ele><time>2026-04-09T17:00:53.998Z</time></trkpt><trkpt lat="39.60433684228396" lon="-3.8571361704612874"><ele>871.0</ele><time>2026-04-09T17:00:54.998Z</time></trkpt><trkpt lat="39.604385585611055" lon="-3.8570377376151193"><ele>871.0</ele><time>2026-04-09T17:00:55.998Z</time></trkpt><trkpt lat="39.60442939767536" lon="-3.8569415529651487"><ele>870.9999999999999</ele><time>2026-04-09T17:00:56.998Z</time></trkpt><trkpt lat="39.60446366797667" lon="-3.8568485679999647"><ele>870.9999999999999</ele><time>2026-04-09T17:00:57.998Z</time></trkpt><trkpt lat="39.60449116874842" lon="-3.856744594499962"><ele>871.0</ele><time>2026-04-09T17:00:58.998Z</time></trkpt><trkpt lat="39.604518439289265" lon="-3.8566560460066976"><ele>871.0</ele><time>2026-04-09T17:00:59.998Z</time></trkpt><trkpt lat="39.60456179652167" lon="-3.856481186008834"><ele>867.1999999999999</ele><time>2026-04-09T17:01:01.998Z</time></trkpt><trkpt lat="39.60456978582817" lon="-3.856378598081517"><ele>863.3999999999999</ele><time>2026-04-09T17:01:02.998Z</time></trkpt><trkpt lat="39.60457184077975" lon="-3.8562670600209965"><ele>859.6</ele><time>2026-04-09T17:01:03.998Z</time></trkpt><trkpt lat="39.60457392582317" lon="-3.856166823470695"><ele>855.8</ele><time>2026-04-09T17:01:04.998Z</time></trkpt><trkpt lat="39.60457558462586" lon="-3.855985470167128"><ele>852.0</ele><time>2026-04-09T17:01:06.998Z</time></trkpt><trkpt lat="39.60456594533385" lon="-3.8558008087383766"><ele>852.0</ele><time>2026-04-09T17:01:08.998Z</time></trkpt><trkpt lat="39.60454734685251" lon="-3.8556867907826198"><ele>852.0</ele><time>2026-04-09T17:01:09.998Z</time></trkpt><trkpt lat="39.60453852216726" lon="-3.855565254146634"><ele>852.0</ele><time>2026-04-09T17:01:10.998Z</time></trkpt><trkpt lat="39.604545320671434" lon="-3.855448599803196"><ele>852.0</ele><time>2026-04-09T17:01:11.998Z</time></trkpt><trkpt lat="39.60455511939992" lon="-3.8553142041124846"><ele>852.0</ele><time>2026-04-09T17:01:12.998Z</time></trkpt><trkpt lat="39.60456924630028" lon="-3.8551974547566092"><ele>852.0</ele><time>2026-04-09T17:01:13.998Z</time></trkpt><trkpt lat="39.60458291689718" lon="-3.8550894727009513"><ele>852.0</ele><time>2026-04-09T17:01:14.998Z</time></trkpt><trkpt lat="39.60461180993089" lon="-3.854969797981059"><ele>852.0</ele><time>2026-04-09T17:01:16.998Z</time></trkpt><trkpt lat="39.60467826250927" lon="-3.8549242689571592"><ele>852.0</ele><time>2026-04-09T17:01:19.998Z</time></trkpt><trkpt lat="39.60472274786045" lon="-3.8549834646258065"><ele>852.0</ele><time>2026-04-09T17:01:43Z</time></trkpt><trkpt lat="39.6047711595086" lon="-3.8550927124981986"><ele>852.0</ele><time>2026-04-09T17:01:45Z</time></trkpt><trkpt lat="39.60481269123969" lon="-3.8552350330824336"><ele>852.0</ele><time>2026-04-09T17:01:47Z</time></trkpt><trkpt lat="39.60486117222347" lon="-3.8553592610490384"><ele>852.0</ele><time>2026-04-09T17:01:49Z</time></trkpt><trkpt lat="39.60490580152008" lon="-3.855426916658335"><ele>852.0</ele><time>2026-04-09T17:01:50Z</time></trkpt><trkpt lat="39.60496041172054" lon="-3.8555034953933673"><ele>852.0</ele><time>2026-04-09T17:01:51Z</time></trkpt><trkpt lat="39.60500720026549" lon="-3.8555886300789304"><ele>852.0</ele><time>2026-04-09T17:01:52Z</time></trkpt><trkpt lat="39.60506604007279" lon="-3.8556784441034098"><ele>852.0</ele><time>2026-04-09T17:01:53Z</time></trkpt><trkpt lat="39.60514307593626" lon="-3.855757977248948"><ele>852.0</ele><time>2026-04-09T17:01:54Z</time></trkpt><trkpt lat="39.60520587479698" lon="-3.855868114310347"><ele>852.0</ele><time>2026-04-09T17:01:55Z</time></trkpt><trkpt lat="39.6052823008807" lon="-3.8559480948711533"><ele>852.0</ele><time>2026-04-09T17:01:56Z</time></trkpt><trkpt lat="39.60535448649455" lon="-3.8560580275071006"><ele>852.0</ele><time>2026-04-09T17:01:57Z</time></trkpt><trkpt lat="39.605415407498214" lon="-3.8561651618928217"><ele>852.0</ele><time>2026-04-09T17:01:58Z</time></trkpt><trkpt lat="39.60547304073941" lon="-3.8562793611485566"><ele>849.2</ele><time>2026-04-09T17:01:59Z</time></trkpt><trkpt lat="39.60553118466587" lon="-3.8564022853690294"><ele>846.4000000000001</ele><time>2026-04-09T17:02:00Z</time></trkpt><trkpt lat="39.605585294094055" lon="-3.856531905688467"><ele>843.5999999999999</ele><time>2026-04-09T17:02:01Z</time></trkpt><trkpt lat="39.60561553264055" lon="-3.856649391666553"><ele>840.8</ele><time>2026-04-09T17:02:02Z</time></trkpt><trkpt lat="39.605651037161984" lon="-3.856754133306746"><ele>838.0</ele><time>2026-04-09T17:02:03Z</time></trkpt><trkpt lat="39.60567745751982" lon="-3.856861081902383"><ele>837.2</ele><time>2026-04-09T17:02:04Z</time></trkpt><trkpt lat="39.60570174459929" lon="-3.856970594233456"><ele>836.4</ele><time>2026-04-09T17:02:05Z</time></trkpt><trkpt lat="39.605738455671585" lon="-3.857128837597558"><ele>835.6</ele><time>2026-04-09T17:02:05.999Z</time></trkpt><trkpt lat="39.60576250806766" lon="-3.8572351090372834"><ele>834.8000000000001</ele><time>2026-04-09T17:02:06.999Z</time></trkpt><trkpt lat="39.60578945749" lon="-3.857339836536006"><ele>834.0</ele><time>2026-04-09T17:02:07.999Z</time></trkpt><trkpt lat="39.605801382363445" lon="-3.8574356045034213"><ele>834.0</ele><time>2026-04-09T17:02:08.999Z</time></trkpt><trkpt lat="39.60583147482848" lon="-3.857553657364942"><ele>834.0</ele><time>2026-04-09T17:02:09.999Z</time></trkpt><trkpt lat="39.60585491063666" lon="-3.8576914164811167"><ele>834.0</ele><time>2026-04-09T17:02:10.999Z</time></trkpt><trkpt lat="39.60587392175233" lon="-3.8578385054175937"><ele>834.0</ele><time>2026-04-09T17:02:11.999Z</time></trkpt><trkpt lat="39.60586985057084" lon="-3.8579988830862244"><ele>834.0</ele><time>2026-04-09T17:02:12.999Z</time></trkpt><trkpt lat="39.60586703672294" lon="-3.8581540986981038"><ele>832.8000000000001</ele><time>2026-04-09T17:02:13.999Z</time></trkpt><trkpt lat="39.605852884863346" lon="-3.858311895008447"><ele>831.6</ele><time>2026-04-09T17:02:14.999Z</time></trkpt><trkpt lat="39.60584543399941" lon="-3.858423413280651"><ele>830.4</ele><time>2026-04-09T17:02:15.999Z</time></trkpt><trkpt lat="39.60583777919206" lon="-3.8585774452749804"><ele>829.2</ele><time>2026-04-09T17:02:16.999Z</time></trkpt><trkpt lat="39.605843831490965" lon="-3.8587264039899583"><ele>828.0</ele><time>2026-04-09T17:02:17.999Z</time></trkpt><trkpt lat="39.60583822051335" lon="-3.8588501364108647"><ele>827.0</ele><time>2026-04-09T17:02:18.999Z</time></trkpt><trkpt lat="39.60583272093486" lon="-3.858971412449736"><ele>826.0</ele><time>2026-04-09T17:02:19.999Z</time></trkpt><trkpt lat="39.60582878258063" lon="-3.8590858664788383"><ele>825.0</ele><time>2026-04-09T17:02:20.999Z</time></trkpt><trkpt lat="39.60581240646885" lon="-3.859195212039648"><ele>824.0</ele><time>2026-04-09T17:02:21.999Z</time></trkpt><trkpt lat="39.60581143322811" lon="-3.859301365550793"><ele>823.0</ele><time>2026-04-09T17:02:22.999Z</time></trkpt><trkpt lat="39.60581395148907" lon="-3.8594391828214607"><ele>821.75</ele><time>2026-04-09T17:02:23.999Z</time></trkpt><trkpt lat="39.60582090295341" lon="-3.859573990594927"><ele>820.5</ele><time>2026-04-09T17:02:24.999Z</time></trkpt><trkpt lat="39.6058397827348" lon="-3.859793440798255"><ele>819.25</ele><time>2026-04-09T17:02:26.999Z</time></trkpt><trkpt lat="39.60584352853228" lon="-3.8599516164248713"><ele>818.0</ele><time>2026-04-09T17:02:27.999Z</time></trkpt><trkpt lat="39.605843419982534" lon="-3.860062395910266"><ele>817.6666666666667</ele><time>2026-04-09T17:02:28.999Z</time></trkpt><trkpt lat="39.605839754561046" lon="-3.8601639819382467"><ele>817.3333333333334</ele><time>2026-04-09T17:02:29.999Z</time></trkpt><trkpt lat="39.60586360816279" lon="-3.8602542915781655"><ele>817.0</ele><time>2026-04-09T17:02:31.999Z</time></trkpt><trkpt lat="39.605964708288504" lon="-3.8603140598739962"><ele>816.6666666666667</ele><time>2026-04-09T17:02:33.999Z</time></trkpt><trkpt lat="39.60605029698575" lon="-3.8603463429815084"><ele>816.3333333333334</ele><time>2026-04-09T17:02:34.999Z</time></trkpt><trkpt lat="39.606113347665755" lon="-3.8603690886565354"><ele>816.0</ele><time>2026-04-09T17:02:35.999Z</time></trkpt><trkpt lat="39.60622197972543" lon="-3.8604352701006426"><ele>814.8</ele><time>2026-04-09T17:02:38.999Z</time></trkpt><trkpt lat="39.60633091035758" lon="-3.8604563811157457"><ele>813.5999999999999</ele><time>2026-04-09T17:02:39.999Z</time></trkpt><trkpt lat="39.60643179254337" lon="-3.86049901618564"><ele>812.4</ele><time>2026-04-09T17:02:40.999Z</time></trkpt><trkpt lat="39.606514377086675" lon="-3.8605339182545757"><ele>811.2</ele><time>2026-04-09T17:02:41.999Z</time></trkpt><trkpt lat="39.60659819335495" lon="-3.8605693408885333"><ele>810.0</ele><time>2026-04-09T17:02:42.999Z</time></trkpt><trkpt lat="39.60668476275425" lon="-3.860606130400729"><ele>810.0</ele><time>2026-04-09T17:02:43.999Z</time></trkpt><trkpt lat="39.6067779214217" lon="-3.8606463200917336"><ele>810.0</ele><time>2026-04-09T17:02:44.999Z</time></trkpt><trkpt lat="39.6068726597635" lon="-3.8606871912593705"><ele>810.0</ele><time>2026-04-09T17:02:45.999Z</time></trkpt><trkpt lat="39.60696181522771" lon="-3.8607256539215444"><ele>810.0</ele><time>2026-04-09T17:02:46.999Z</time></trkpt><trkpt lat="39.60705414231295" lon="-3.860765484856922"><ele>810.0</ele><time>2026-04-09T17:02:47.999Z</time></trkpt><trkpt lat="39.607145838955304" lon="-3.860805043807781"><ele>809.0</ele><time>2026-04-09T17:02:48.999Z</time></trkpt><trkpt lat="39.60723277691309" lon="-3.860842549811163"><ele>808.0</ele><time>2026-04-09T17:02:49.998Z</time></trkpt><trkpt lat="39.607318873011295" lon="-3.8608796926235405"><ele>807.0</ele><time>2026-04-09T17:02:50.998Z</time></trkpt><trkpt lat="39.60740096417959" lon="-3.8609151076701633"><ele>806.0</ele><time>2026-04-09T17:02:51.998Z</time></trkpt><trkpt lat="39.60747934361187" lon="-3.8609489214283057"><ele>805.0</ele><time>2026-04-09T17:02:52.998Z</time></trkpt><trkpt lat="39.60755387183456" lon="-3.8609810737285373"><ele>804.0</ele><time>2026-04-09T17:02:53.998Z</time></trkpt><trkpt lat="39.60761388491826" lon="-3.8610477283528923"><ele>804.0</ele><time>2026-04-09T17:02:54.998Z</time></trkpt><trkpt lat="39.60767928284926" lon="-3.861118194525805"><ele>804.0</ele><time>2026-04-09T17:02:55.998Z</time></trkpt><trkpt lat="39.60776248398159" lon="-3.86113381829046"><ele>804.0</ele><time>2026-04-09T17:02:56.998Z</time></trkpt><trkpt lat="39.6078472174503" lon="-3.861150064622166"><ele>804.0</ele><time>2026-04-09T17:02:57.998Z</time></trkpt><trkpt lat="39.60793437574514" lon="-3.8611672827701264"><ele>804.0</ele><time>2026-04-09T17:02:58.998Z</time></trkpt><trkpt lat="39.60800078807599" lon="-3.8612408804064304"><ele>804.0</ele><time>2026-04-09T17:02:59.998Z</time></trkpt><trkpt lat="39.608076190788104" lon="-3.861252392761203"><ele>803.0</ele><time>2026-04-09T17:03:00.998Z</time></trkpt><trkpt lat="39.60816976195715" lon="-3.861340521393881"><ele>802.0</ele><time>2026-04-09T17:03:01.998Z</time></trkpt><trkpt lat="39.60833714504587" lon="-3.8613920329637037"><ele>801.0</ele><time>2026-04-09T17:03:02.998Z</time></trkpt><trkpt lat="39.60852526642168" lon="-3.861525802219257"><ele>799.0</ele><time>2026-04-09T17:03:03.998Z</time></trkpt><trkpt lat="39.608741484115306" lon="-3.861676926302999"><ele>797.0</ele><time>2026-04-09T17:03:04.998Z</time></trkpt><trkpt lat="39.60898041547848" lon="-3.8618453056349735"><ele>796.5</ele><time>2026-04-09T17:03:05.998Z</time></trkpt><trkpt lat="39.60923353563675" lon="-3.8620251456995134"><ele>796.0</ele><time>2026-04-09T17:03:06.998Z</time></trkpt><trkpt lat="39.60949884156315" lon="-3.862216906990259"><ele>793.0</ele><time>2026-04-09T17:03:07.998Z</time></trkpt><trkpt lat="39.60958010936304" lon="-3.863130052394206"><ele>793.0</ele><time>2026-04-09T17:03:08.998Z</time></trkpt><trkpt lat="39.60987987245378" lon="-3.8633144209036963"><ele>793.0</ele><time>2026-04-09T17:03:09.998Z</time></trkpt><trkpt lat="39.61018315147978" lon="-3.8635182941808006"><ele>791.0</ele><time>2026-04-09T17:03:10.998Z</time></trkpt><trkpt lat="39.61048888838133" lon="-3.863716867765291"><ele>789.0</ele><time>2026-04-09T17:03:11.998Z</time></trkpt><trkpt lat="39.61079502105694" lon="-3.863923876585424"><ele>789.0</ele><time>2026-04-09T17:03:12.998Z</time></trkpt><trkpt lat="39.611080374005" lon="-3.8641240950241804"><ele>789.0</ele><time>2026-04-09T17:03:13.998Z</time></trkpt><trkpt lat="39.611335656437824" lon="-3.8643089154437025"><ele>788.0</ele><time>2026-04-09T17:03:14.998Z</time></trkpt><trkpt lat="39.61156115525084" lon="-3.864477886024037"><ele>787.0</ele><time>2026-04-09T17:03:15.998Z</time></trkpt><trkpt lat="39.611757956116534" lon="-3.864633713937518"><ele>787.0</ele><time>2026-04-09T17:03:16.998Z</time></trkpt><trkpt lat="39.611928063092705" lon="-3.864783991908426"><ele>787.0</ele><time>2026-04-09T17:03:17.998Z</time></trkpt><trkpt lat="39.61209480679481" lon="-3.86490898518604"><ele>787.0</ele><time>2026-04-09T17:03:18.998Z</time></trkpt><trkpt lat="39.61224880523333" lon="-3.864997093483546"><ele>787.0</ele><time>2026-04-09T17:03:19.998Z</time></trkpt><trkpt lat="39.612389763330924" lon="-3.8650801225303923"><ele>787.0</ele><time>2026-04-09T17:03:20.998Z</time></trkpt><trkpt lat="39.61252251289181" lon="-3.8651750288215463"><ele>787.0</ele><time>2026-04-09T17:03:21.998Z</time></trkpt><trkpt lat="39.612639099070336" lon="-3.865298493608241"><ele>787.0</ele><time>2026-04-09T17:03:22.998Z</time></trkpt><trkpt lat="39.612775358859004" lon="-3.8653932135532614"><ele>787.0</ele><time>2026-04-09T17:03:23.998Z</time></trkpt><trkpt lat="39.612914630393" lon="-3.865489091299371"><ele>787.0</ele><time>2026-04-09T17:03:24.998Z</time></trkpt><trkpt lat="39.61305281959512" lon="-3.8655825361583136"><ele>786.0</ele><time>2026-04-09T17:03:25.998Z</time></trkpt><trkpt lat="39.61319141586369" lon="-3.8656758830285636"><ele>785.0</ele><time>2026-04-09T17:03:26.998Z</time></trkpt><trkpt lat="39.61332353805599" lon="-3.8657645956212416"><ele>784.0</ele><time>2026-04-09T17:03:27.998Z</time></trkpt><trkpt lat="39.61345543501042" lon="-3.865853156980653"><ele>784.0</ele><time>2026-04-09T17:03:28.998Z</time></trkpt><trkpt lat="39.61359792799544" lon="-3.865948833001011"><ele>784.0</ele><time>2026-04-09T17:03:29.998Z</time></trkpt><trkpt lat="39.61374156930952" lon="-3.866045280106107"><ele>784.0</ele><time>2026-04-09T17:03:30.998Z</time></trkpt><trkpt lat="39.6138908776112" lon="-3.866145532119392"><ele>783.6666666666666</ele><time>2026-04-09T17:03:31.998Z</time></trkpt><trkpt lat="39.6140324876816" lon="-3.866240615394167"><ele>783.3333333333333</ele><time>2026-04-09T17:03:32.998Z</time></trkpt><trkpt lat="39.61417176300181" lon="-3.866334003934019"><ele>783.0</ele><time>2026-04-09T17:03:33.998Z</time></trkpt><trkpt lat="39.61430541563756" lon="-3.8664223346592532"><ele>783.0</ele><time>2026-04-09T17:03:34.997Z</time></trkpt><trkpt lat="39.61442082303094" lon="-3.866498607098132"><ele>783.0</ele><time>2026-04-09T17:03:36Z</time></trkpt><trkpt lat="39.61452276808363" lon="-3.8665664883701947"><ele>783.0</ele><time>2026-04-09T17:03:37Z</time></trkpt><trkpt lat="39.61464554472667" lon="-3.8666326534859303"><ele>783.0</ele><time>2026-04-09T17:03:38Z</time></trkpt><trkpt lat="39.614752167719914" lon="-3.8667140672108977"><ele>783.0</ele><time>2026-04-09T17:03:39Z</time></trkpt><trkpt lat="39.614865716011835" lon="-3.8668013020603635"><ele>783.0</ele><time>2026-04-09T17:03:40Z</time></trkpt><trkpt lat="39.614985444892284" lon="-3.86688450783044"><ele>783.0</ele><time>2026-04-09T17:03:41Z</time></trkpt><trkpt lat="39.61510626988609" lon="-3.8669844253764496"><ele>783.0</ele><time>2026-04-09T17:03:42Z</time></trkpt><trkpt lat="39.61523110430952" lon="-3.8670781040694395"><ele>782.3333333333333</ele><time>2026-04-09T17:03:43Z</time></trkpt><trkpt lat="39.61535496366597" lon="-3.8671618881920877"><ele>781.6666666666666</ele><time>2026-04-09T17:03:44Z</time></trkpt><trkpt lat="39.61548525285933" lon="-3.8672537046950897"><ele>781.0</ele><time>2026-04-09T17:03:45Z</time></trkpt><trkpt lat="39.615631047729906" lon="-3.8673562147494747"><ele>781.0</ele><time>2026-04-09T17:03:46Z</time></trkpt><trkpt lat="39.61576953624424" lon="-3.867438928415923"><ele>781.0</ele><time>2026-04-09T17:03:47Z</time></trkpt><trkpt lat="39.615908282357715" lon="-3.8675237151365076"><ele>781.0</ele><time>2026-04-09T17:03:48Z</time></trkpt><trkpt lat="39.61604500441959" lon="-3.867624479729928"><ele>780.3333333333333</ele><time>2026-04-09T17:03:49Z</time></trkpt><trkpt lat="39.6161812755255" lon="-3.8677211339494066"><ele>779.6666666666667</ele><time>2026-04-09T17:03:50Z</time></trkpt><trkpt lat="39.61632975009885" lon="-3.867813789883951"><ele>779.0</ele><time>2026-04-09T17:03:51Z</time></trkpt><trkpt lat="39.616473438829516" lon="-3.8679041399716065"><ele>779.0</ele><time>2026-04-09T17:03:52Z</time></trkpt><trkpt lat="39.616605285589145" lon="-3.867983916181366"><ele>779.0</ele><time>2026-04-09T17:03:53Z</time></trkpt><trkpt lat="39.61674060566872" lon="-3.8680665582195863"><ele>779.0</ele><time>2026-04-09T17:03:54Z</time></trkpt><trkpt lat="39.616874994289454" lon="-3.86814950893264"><ele>779.0</ele><time>2026-04-09T17:03:55Z</time></trkpt><trkpt lat="39.61700610095218" lon="-3.868235739062885"><ele>779.25</ele><time>2026-04-09T17:03:56Z</time></trkpt><trkpt lat="39.61713522251954" lon="-3.868325709650316"><ele>779.5</ele><time>2026-04-09T17:03:57Z</time></trkpt><trkpt lat="39.6172629432985" lon="-3.8684315775446687"><ele>779.75</ele><time>2026-04-09T17:03:58Z</time></trkpt><trkpt lat="39.61739190314773" lon="-3.8685194725413847"><ele>780.0</ele><time>2026-04-09T17:03:59Z</time></trkpt><trkpt lat="39.61751679337585" lon="-3.8686045940256735"><ele>780.0</ele><time>2026-04-09T17:04:00Z</time></trkpt><trkpt lat="39.61763637395935" lon="-3.8686848028607432"><ele>780.0</ele><time>2026-04-09T17:04:01Z</time></trkpt><trkpt lat="39.61775828563977" lon="-3.8687823748345074"><ele>780.0</ele><time>2026-04-09T17:04:02Z</time></trkpt><trkpt lat="39.61788780807515" lon="-3.8688755281726572"><ele>780.0</ele><time>2026-04-09T17:04:03Z</time></trkpt><trkpt lat="39.61802355855357" lon="-3.868960191236442"><ele>779.5</ele><time>2026-04-09T17:04:04Z</time></trkpt><trkpt lat="39.618167095333895" lon="-3.8690326674664233"><ele>779.0</ele><time>2026-04-09T17:04:05Z</time></trkpt><trkpt lat="39.61830544314257" lon="-3.8690912483663378"><ele>778.5</ele><time>2026-04-09T17:04:06Z</time></trkpt><trkpt lat="39.61843992550946" lon="-3.8691508303553004"><ele>778.0</ele><time>2026-04-09T17:04:07Z</time></trkpt><trkpt lat="39.618574547627375" lon="-3.869214661726376"><ele>777.5</ele><time>2026-04-09T17:04:08Z</time></trkpt><trkpt lat="39.618708169936625" lon="-3.8692825285261234"><ele>777.0</ele><time>2026-04-09T17:04:09Z</time></trkpt><trkpt lat="39.61885464357751" lon="-3.869350828167682"><ele>776.5</ele><time>2026-04-09T17:04:10Z</time></trkpt><trkpt lat="39.618983842337215" lon="-3.8694298276601966"><ele>776.0</ele><time>2026-04-09T17:04:11Z</time></trkpt><trkpt lat="39.619118491577794" lon="-3.8695052874059837"><ele>776.0</ele><time>2026-04-09T17:04:12Z</time></trkpt><trkpt lat="39.619251105330356" lon="-3.8695817386099343"><ele>776.0</ele><time>2026-04-09T17:04:12.999Z</time></trkpt><trkpt lat="39.61938537402431" lon="-3.869659143883346"><ele>776.0</ele><time>2026-04-09T17:04:13.999Z</time></trkpt><trkpt lat="39.61952432704608" lon="-3.869736982323781"><ele>776.0</ele><time>2026-04-09T17:04:14.999Z</time></trkpt><trkpt lat="39.61967165968917" lon="-3.8698090050887695"><ele>775.25</ele><time>2026-04-09T17:04:15.999Z</time></trkpt><trkpt lat="39.61981333425845" lon="-3.8698924584765297"><ele>774.5</ele><time>2026-04-09T17:04:16.999Z</time></trkpt><trkpt lat="39.61995220634073" lon="-3.8699677192613966"><ele>773.75</ele><time>2026-04-09T17:04:17.999Z</time></trkpt><trkpt lat="39.620084926987644" lon="-3.8700299270723306"><ele>773.0</ele><time>2026-04-09T17:04:18.999Z</time></trkpt><trkpt lat="39.620220057994636" lon="-3.870094926047575"><ele>773.25</ele><time>2026-04-09T17:04:19.999Z</time></trkpt><trkpt lat="39.620353478566756" lon="-3.870158100010907"><ele>773.5</ele><time>2026-04-09T17:04:20.999Z</time></trkpt><trkpt lat="39.620486283237305" lon="-3.870218336172047"><ele>773.75</ele><time>2026-04-09T17:04:21.999Z</time></trkpt><trkpt lat="39.62062432743859" lon="-3.8702696957358715"><ele>774.0</ele><time>2026-04-09T17:04:22.999Z</time></trkpt><trkpt lat="39.62076676096731" lon="-3.870321602507546"><ele>774.0</ele><time>2026-04-09T17:04:23.999Z</time></trkpt><trkpt lat="39.62089835780008" lon="-3.870365049875528"><ele>774.0</ele><time>2026-04-09T17:04:24.999Z</time></trkpt><trkpt lat="39.621032249299425" lon="-3.8704162320195428"><ele>774.0</ele><time>2026-04-09T17:04:25.999Z</time></trkpt><trkpt lat="39.621166501373864" lon="-3.870464142566331"><ele>774.0</ele><time>2026-04-09T17:04:26.999Z</time></trkpt><trkpt lat="39.62130260598558" lon="-3.870525781303043"><ele>773.5</ele><time>2026-04-09T17:04:27.999Z</time></trkpt><trkpt lat="39.62144522812375" lon="-3.870580039034378"><ele>773.0</ele><time>2026-04-09T17:04:28.999Z</time></trkpt><trkpt lat="39.6215811487547" lon="-3.870624340410176"><ele>772.5</ele><time>2026-04-09T17:04:29.999Z</time></trkpt><trkpt lat="39.621696755877274" lon="-3.870650112321472"><ele>772.0</ele><time>2026-04-09T17:04:30.999Z</time></trkpt><trkpt lat="39.62180845853776" lon="-3.870663183066119"><ele>772.0</ele><time>2026-04-09T17:04:31.999Z</time></trkpt><trkpt lat="39.621928139460145" lon="-3.8706680009280325"><ele>772.0</ele><time>2026-04-09T17:04:32.999Z</time></trkpt><trkpt lat="39.622051541557965" lon="-3.8706627029526444"><ele>772.0</ele><time>2026-04-09T17:04:33.999Z</time></trkpt><trkpt lat="39.62216910927837" lon="-3.8706514533484357"><ele>772.0</ele><time>2026-04-09T17:04:34.999Z</time></trkpt><trkpt lat="39.622270580849595" lon="-3.870643055096867"><ele>771.8</ele><time>2026-04-09T17:04:35.999Z</time></trkpt><trkpt lat="39.62236664122929" lon="-3.8706314467149774"><ele>771.6</ele><time>2026-04-09T17:04:36.999Z</time></trkpt><trkpt lat="39.62247295285631" lon="-3.870617053339957"><ele>771.4</ele><time>2026-04-09T17:04:37.999Z</time></trkpt><trkpt lat="39.62258843030562" lon="-3.8705923242288827"><ele>771.1999999999999</ele><time>2026-04-09T17:04:38.999Z</time></trkpt><trkpt lat="39.62269412415106" lon="-3.8705712450271723"><ele>771.0</ele><time>2026-04-09T17:04:39.999Z</time></trkpt><trkpt lat="39.6227837746539" lon="-3.8705509288900286"><ele>771.0</ele><time>2026-04-09T17:04:40.999Z</time></trkpt><trkpt lat="39.622868692283944" lon="-3.870533948935888"><ele>771.0</ele><time>2026-04-09T17:04:41.999Z</time></trkpt><trkpt lat="39.62295375430552" lon="-3.8705174186730424"><ele>771.0</ele><time>2026-04-09T17:04:42.999Z</time></trkpt><trkpt lat="39.62304858688625" lon="-3.870493490032398"><ele>771.0</ele><time>2026-04-09T17:04:43.999Z</time></trkpt><trkpt lat="39.62314166662439" lon="-3.8704692035889283"><ele>771.0</ele><time>2026-04-09T17:04:44.999Z</time></trkpt><trkpt lat="39.6232360830357" lon="-3.8704559716263978"><ele>771.0</ele><time>2026-04-09T17:04:45.999Z</time></trkpt><trkpt lat="39.62333947418797" lon="-3.8704379590686813"><ele>771.0</ele><time>2026-04-09T17:04:46.999Z</time></trkpt><trkpt lat="39.62344286591207" lon="-3.870420415426525"><ele>771.0</ele><time>2026-04-09T17:04:47.999Z</time></trkpt><trkpt lat="39.6235545347342" lon="-3.8703990689903915"><ele>771.0</ele><time>2026-04-09T17:04:48.999Z</time></trkpt><trkpt lat="39.62366777626699" lon="-3.8703775321137246"><ele>771.0</ele><time>2026-04-09T17:04:49.999Z</time></trkpt><trkpt lat="39.6237717905706" lon="-3.870359229930893"><ele>770.4</ele><time>2026-04-09T17:04:50.999Z</time></trkpt><trkpt lat="39.62386212228269" lon="-3.8703427909901067"><ele>769.8</ele><time>2026-04-09T17:04:51.999Z</time></trkpt><trkpt lat="39.623965649818565" lon="-3.8703229981266487"><ele>769.1999999999999</ele><time>2026-04-09T17:04:52.999Z</time></trkpt><trkpt lat="39.62408121141391" lon="-3.8702957756714844"><ele>768.5999999999999</ele><time>2026-04-09T17:04:53.999Z</time></trkpt><trkpt lat="39.6242017651361" lon="-3.8702678009914324"><ele>768.0</ele><time>2026-04-09T17:04:54.999Z</time></trkpt><trkpt lat="39.62431745390143" lon="-3.8702433324152334"><ele>768.0</ele><time>2026-04-09T17:04:55.999Z</time></trkpt><trkpt lat="39.62442950779831" lon="-3.870224000631151"><ele>768.0</ele><time>2026-04-09T17:04:56.999Z</time></trkpt><trkpt lat="39.62454628944213" lon="-3.8702017463020075"><ele>768.0</ele><time>2026-04-09T17:04:57.999Z</time></trkpt><trkpt lat="39.624664590893964" lon="-3.870180710779898"><ele>768.0</ele><time>2026-04-09T17:04:58.998Z</time></trkpt><trkpt lat="39.62478160932149" lon="-3.870155501012496"><ele>767.75</ele><time>2026-04-09T17:04:59.998Z</time></trkpt><trkpt lat="39.62490110192789" lon="-3.870125373166445"><ele>767.5</ele><time>2026-04-09T17:05:00.998Z</time></trkpt><trkpt lat="39.6250137134988" lon="-3.8700919888714673"><ele>767.25</ele><time>2026-04-09T17:05:01.998Z</time></trkpt><trkpt lat="39.625120942594776" lon="-3.87006411447458"><ele>767.0</ele><time>2026-04-09T17:05:02.998Z</time></trkpt><trkpt lat="39.62525710909645" lon="-3.8700244876427203"><ele>767.0</ele><time>2026-04-09T17:05:03.998Z</time></trkpt><trkpt lat="39.625366226644395" lon="-3.8700106525136673"><ele>767.0</ele><time>2026-04-09T17:05:04.998Z</time></trkpt><trkpt lat="39.62549135976771" lon="-3.8699820771472226"><ele>767.0</ele><time>2026-04-09T17:05:05.998Z</time></trkpt><trkpt lat="39.625623947680964" lon="-3.8699572350879947"><ele>767.0</ele><time>2026-04-09T17:05:06.998Z</time></trkpt><trkpt lat="39.6257501983135" lon="-3.869937713309078"><ele>767.0</ele><time>2026-04-09T17:05:07.998Z</time></trkpt><trkpt lat="39.625858812878256" lon="-3.869928191003339"><ele>767.0</ele><time>2026-04-09T17:05:08.998Z</time></trkpt><trkpt lat="39.62595758256836" lon="-3.8699191446964605"><ele>767.0</ele><time>2026-04-09T17:05:09.998Z</time></trkpt><trkpt lat="39.626039268847165" lon="-3.8699114431862105"><ele>767.0</ele><time>2026-04-09T17:05:10.998Z</time></trkpt><trkpt lat="39.62612186859213" lon="-3.8698982225332093"><ele>767.0</ele><time>2026-04-09T17:05:11.998Z</time></trkpt><trkpt lat="39.62622779477574" lon="-3.869887269513469"><ele>767.0</ele><time>2026-04-09T17:05:12.998Z</time></trkpt><trkpt lat="39.62634140419521" lon="-3.86987886179408"><ele>767.0</ele><time>2026-04-09T17:05:13.998Z</time></trkpt><trkpt lat="39.626444433093454" lon="-3.8698764811496065"><ele>767.0</ele><time>2026-04-09T17:05:14.998Z</time></trkpt><trkpt lat="39.626553860821744" lon="-3.8698718307547972"><ele>767.0</ele><time>2026-04-09T17:05:15.998Z</time></trkpt><trkpt lat="39.62668498970711" lon="-3.869876567839134"><ele>767.0</ele><time>2026-04-09T17:05:16.998Z</time></trkpt><trkpt lat="39.62682110583499" lon="-3.8698554059343127"><ele>767.0</ele><time>2026-04-09T17:05:17.998Z</time></trkpt><trkpt lat="39.626945325051224" lon="-3.869872856781622"><ele>767.0</ele><time>2026-04-09T17:05:18.998Z</time></trkpt><trkpt lat="39.62705218412153" lon="-3.869862395976143"><ele>767.0</ele><time>2026-04-09T17:05:19.998Z</time></trkpt><trkpt lat="39.6271486321969" lon="-3.869858415648036"><ele>766.8</ele><time>2026-04-09T17:05:20.998Z</time></trkpt><trkpt lat="39.627250423850114" lon="-3.8698541554426718"><ele>766.6</ele><time>2026-04-09T17:05:21.998Z</time></trkpt><trkpt lat="39.62737109625782" lon="-3.869858288263246"><ele>766.4</ele><time>2026-04-09T17:05:22.998Z</time></trkpt><trkpt lat="39.6274888024188" lon="-3.869874788942216"><ele>766.1999999999999</ele><time>2026-04-09T17:05:23.998Z</time></trkpt><trkpt lat="39.62759554204463" lon="-3.8698849783798903"><ele>766.0</ele><time>2026-04-09T17:05:24.998Z</time></trkpt><trkpt lat="39.62769399161543" lon="-3.8698912375929915"><ele>766.0</ele><time>2026-04-09T17:05:25.998Z</time></trkpt><trkpt lat="39.6277857244772" lon="-3.869912525468986"><ele>766.0</ele><time>2026-04-09T17:05:26.998Z</time></trkpt><trkpt lat="39.62788793818353" lon="-3.8699561219586687"><ele>766.0</ele><time>2026-04-09T17:05:27.998Z</time></trkpt><trkpt lat="39.62797073749551" lon="-3.8699946871903124"><ele>766.0</ele><time>2026-04-09T17:05:28.998Z</time></trkpt><trkpt lat="39.62808501586038" lon="-3.8700424128812307"><ele>766.0</ele><time>2026-04-09T17:05:29.998Z</time></trkpt><trkpt lat="39.62820397269591" lon="-3.870105068884961"><ele>765.0</ele><time>2026-04-09T17:05:30.998Z</time></trkpt><trkpt lat="39.62832815008559" lon="-3.8701598882765165"><ele>764.0</ele><time>2026-04-09T17:05:31.998Z</time></trkpt><trkpt lat="39.628441842050535" lon="-3.8702238745148545"><ele>763.0</ele><time>2026-04-09T17:05:32.998Z</time></trkpt><trkpt lat="39.62856007848257" lon="-3.870283647916716"><ele>762.0</ele><time>2026-04-09T17:05:33.998Z</time></trkpt><trkpt lat="39.62868795960728" lon="-3.8703332255353655"><ele>761.6</ele><time>2026-04-09T17:05:34.998Z</time></trkpt><trkpt lat="39.628793888186145" lon="-3.870381227774792"><ele>761.2</ele><time>2026-04-09T17:05:35.998Z</time></trkpt><trkpt lat="39.62888137656896" lon="-3.8704376786285137"><ele>760.8</ele><time>2026-04-09T17:05:36.998Z</time></trkpt><trkpt lat="39.62895439628632" lon="-3.870516880939124"><ele>760.4</ele><time>2026-04-09T17:05:37.998Z</time></trkpt><trkpt lat="39.62904389033639" lon="-3.870603060133419"><ele>760.0</ele><time>2026-04-09T17:05:38.998Z</time></trkpt><trkpt lat="39.629132726255676" lon="-3.8706564805934343"><ele>760.0</ele><time>2026-04-09T17:05:39.998Z</time></trkpt><trkpt lat="39.629212939431625" lon="-3.870646021170245"><ele>760.0</ele><time>2026-04-09T17:05:40.998Z</time></trkpt><trkpt lat="39.629282669330536" lon="-3.8706337021336785"><ele>760.0</ele><time>2026-04-09T17:05:42Z</time></trkpt><trkpt lat="39.62935717245764" lon="-3.870610429876028"><ele>760.0</ele><time>2026-04-09T17:05:43Z</time></trkpt><trkpt lat="39.62942069504659" lon="-3.8705815068297533"><ele>760.0</ele><time>2026-04-09T17:05:44Z</time></trkpt><trkpt lat="39.62959070722295" lon="-3.870434011751768"><ele>760.4</ele><time>2026-04-09T17:05:49Z</time></trkpt><trkpt lat="39.62966097855309" lon="-3.870349671727869"><ele>760.8</ele><time>2026-04-09T17:05:50Z</time></trkpt><trkpt lat="39.62975106344168" lon="-3.870256298091601"><ele>761.2</ele><time>2026-04-09T17:05:51Z</time></trkpt><trkpt lat="39.62985096387737" lon="-3.8701723900142486"><ele>761.6</ele><time>2026-04-09T17:05:52Z</time></trkpt><trkpt lat="39.62994941665856" lon="-3.870123996911484"><ele>762.0</ele><time>2026-04-09T17:05:53Z</time></trkpt><trkpt lat="39.630054838273146" lon="-3.8700996373595675"><ele>762.0</ele><time>2026-04-09T17:05:54Z</time></trkpt><trkpt lat="39.63017735061347" lon="-3.870099604143526"><ele>762.0</ele><time>2026-04-09T17:05:55Z</time></trkpt><trkpt lat="39.63029607610062" lon="-3.870118249570832"><ele>762.0</ele><time>2026-04-09T17:05:56Z</time></trkpt><trkpt lat="39.630403273933815" lon="-3.8701263160191584"><ele>762.0</ele><time>2026-04-09T17:05:57Z</time></trkpt><trkpt lat="39.63051321778876" lon="-3.8701198589855466"><ele>761.75</ele><time>2026-04-09T17:05:58Z</time></trkpt><trkpt lat="39.630642472536046" lon="-3.870098579595308"><ele>761.5</ele><time>2026-04-09T17:05:59Z</time></trkpt><trkpt lat="39.630767044362806" lon="-3.8701021092562504"><ele>761.25</ele><time>2026-04-09T17:06:00Z</time></trkpt><trkpt lat="39.63086862598166" lon="-3.870120603409126"><ele>761.0</ele><time>2026-04-09T17:06:01Z</time></trkpt><trkpt lat="39.63096247457377" lon="-3.8701191337981564"><ele>761.4</ele><time>2026-04-09T17:06:02Z</time></trkpt><trkpt lat="39.63105738548949" lon="-3.8701084759137068"><ele>761.8</ele><time>2026-04-09T17:06:03Z</time></trkpt><trkpt lat="39.631165210696054" lon="-3.870107121794813"><ele>762.1999999999999</ele><time>2026-04-09T17:06:04Z</time></trkpt><trkpt lat="39.63127520802792" lon="-3.870107315789166"><ele>762.5999999999999</ele><time>2026-04-09T17:06:05Z</time></trkpt><trkpt lat="39.63137079211578" lon="-3.8701138693070316"><ele>763.0</ele><time>2026-04-09T17:06:06Z</time></trkpt><trkpt lat="39.63144896835996" lon="-3.8701102214266547"><ele>763.5999999999999</ele><time>2026-04-09T17:06:07Z</time></trkpt><trkpt lat="39.63152143947759" lon="-3.870114349036428"><ele>764.1999999999999</ele><time>2026-04-09T17:06:08Z</time></trkpt><trkpt lat="39.6316058131054" lon="-3.8701149173647407"><ele>764.8</ele><time>2026-04-09T17:06:09Z</time></trkpt><trkpt lat="39.631706720736226" lon="-3.8701189507393052"><ele>765.4</ele><time>2026-04-09T17:06:10Z</time></trkpt><trkpt lat="39.63181634930404" lon="-3.8701246108466694"><ele>766.0</ele><time>2026-04-09T17:06:11Z</time></trkpt><trkpt lat="39.63191490091617" lon="-3.8701274716597496"><ele>765.8</ele><time>2026-04-09T17:06:12Z</time></trkpt><trkpt lat="39.63199838534674" lon="-3.8701388828519545"><ele>765.5999999999999</ele><time>2026-04-09T17:06:12.999Z</time></trkpt><trkpt lat="39.63209167037102" lon="-3.870151041892526"><ele>765.4</ele><time>2026-04-09T17:06:13.999Z</time></trkpt><trkpt lat="39.632191652627746" lon="-3.8701687758984993"><ele>765.2</ele><time>2026-04-09T17:06:14.999Z</time></trkpt><trkpt lat="39.632299531662945" lon="-3.8701809032619665"><ele>765.0</ele><time>2026-04-09T17:06:15.999Z</time></trkpt><trkpt lat="39.63241304380813" lon="-3.87020359619829"><ele>765.0</ele><time>2026-04-09T17:06:16.999Z</time></trkpt><trkpt lat="39.63253265277165" lon="-3.8702347503383185"><ele>765.0</ele><time>2026-04-09T17:06:17.999Z</time></trkpt><trkpt lat="39.632660049283366" lon="-3.870268787825604"><ele>765.0</ele><time>2026-04-09T17:06:18.999Z</time></trkpt><trkpt lat="39.632791466335505" lon="-3.870303209898206"><ele>765.0</ele><time>2026-04-09T17:06:19.999Z</time></trkpt><trkpt lat="39.632921291956094" lon="-3.8703362586624817"><ele>764.5</ele><time>2026-04-09T17:06:20.999Z</time></trkpt><trkpt lat="39.63304312908491" lon="-3.8703650670609284"><ele>764.0</ele><time>2026-04-09T17:06:21.999Z</time></trkpt><trkpt lat="39.63318592333898" lon="-3.8703919289689646"><ele>763.5</ele><time>2026-04-09T17:06:22.999Z</time></trkpt><trkpt lat="39.63333830834898" lon="-3.870421412191774"><ele>763.0</ele><time>2026-04-09T17:06:23.999Z</time></trkpt><trkpt lat="39.63349295449611" lon="-3.8704426955683466"><ele>762.3333333333334</ele><time>2026-04-09T17:06:24.999Z</time></trkpt><trkpt lat="39.63365428348198" lon="-3.8704561940254183"><ele>761.6666666666666</ele><time>2026-04-09T17:06:25.999Z</time></trkpt><trkpt lat="39.633816599641364" lon="-3.8704762749469266"><ele>761.0</ele><time>2026-04-09T17:06:26.999Z</time></trkpt><trkpt lat="39.6339726474732" lon="-3.870488671922961"><ele>761.0</ele><time>2026-04-09T17:06:27.999Z</time></trkpt><trkpt lat="39.63411452604983" lon="-3.8704965144967067"><ele>761.0</ele><time>2026-04-09T17:06:28.999Z</time></trkpt><trkpt lat="39.634254013224805" lon="-3.87051031555094"><ele>761.0</ele><time>2026-04-09T17:06:29.999Z</time></trkpt><trkpt lat="39.63438923936328" lon="-3.8705251536737535"><ele>761.0</ele><time>2026-04-09T17:06:30.999Z</time></trkpt><trkpt lat="39.63450941600272" lon="-3.870536113722856"><ele>761.6666666666666</ele><time>2026-04-09T17:06:31.999Z</time></trkpt><trkpt lat="39.634613027193964" lon="-3.8705537616489094"><ele>762.3333333333333</ele><time>2026-04-09T17:06:32.999Z</time></trkpt><trkpt lat="39.634704784952945" lon="-3.8705666221296684"><ele>763.0</ele><time>2026-04-09T17:06:33.999Z</time></trkpt><trkpt lat="39.63478733102447" lon="-3.870580180664423"><ele>763.6666666666666</ele><time>2026-04-09T17:06:34.999Z</time></trkpt><trkpt lat="39.63486682414821" lon="-3.8705906655292104"><ele>764.3333333333334</ele><time>2026-04-09T17:06:35.999Z</time></trkpt><trkpt lat="39.63493261927213" lon="-3.8706050663678067"><ele>765.0</ele><time>2026-04-09T17:06:36.999Z</time></trkpt><trkpt lat="39.635021860122215" lon="-3.870607596970853"><ele>765.0</ele><time>2026-04-09T17:06:37.999Z</time></trkpt><trkpt lat="39.63511329187041" lon="-3.8706175086857546"><ele>765.0</ele><time>2026-04-09T17:06:38.999Z</time></trkpt><trkpt lat="39.63521543897564" lon="-3.870625713704832"><ele>765.0</ele><time>2026-04-09T17:06:39.999Z</time></trkpt><trkpt lat="39.635349110698435" lon="-3.870635439797437"><ele>765.0</ele><time>2026-04-09T17:06:40.999Z</time></trkpt><trkpt lat="39.63551456972348" lon="-3.8706504615838373"><ele>765.3333333333334</ele><time>2026-04-09T17:06:41.999Z</time></trkpt><trkpt lat="39.635706067373164" lon="-3.870667130557133"><ele>765.6666666666667</ele><time>2026-04-09T17:06:42.999Z</time></trkpt><trkpt lat="39.6359105547869" lon="-3.8706834666464407"><ele>766.0</ele><time>2026-04-09T17:06:43.999Z</time></trkpt><trkpt lat="39.636095039057444" lon="-3.8706867712978816"><ele>765.6666666666667</ele><time>2026-04-09T17:06:44.999Z</time></trkpt><trkpt lat="39.63626704632512" lon="-3.8706746036828483"><ele>765.3333333333334</ele><time>2026-04-09T17:06:45.999Z</time></trkpt><trkpt lat="39.63644765701996" lon="-3.8706866847499555"><ele>765.0</ele><time>2026-04-09T17:06:46.999Z</time></trkpt><trkpt lat="39.636659627215266" lon="-3.870726021208868"><ele>765.0</ele><time>2026-04-09T17:06:47.999Z</time></trkpt><trkpt lat="39.636873604504416" lon="-3.870739938937288"><ele>765.0</ele><time>2026-04-09T17:06:48.999Z</time></trkpt><trkpt lat="39.63708949042329" lon="-3.870776026872509"><ele>765.0</ele><time>2026-04-09T17:06:49.999Z</time></trkpt><trkpt lat="39.637303054231246" lon="-3.8708084150874824"><ele>763.6666666666666</ele><time>2026-04-09T17:06:50.999Z</time></trkpt><trkpt lat="39.63751854564673" lon="-3.870840709607287"><ele>762.3333333333333</ele><time>2026-04-09T17:06:51.999Z</time></trkpt><trkpt lat="39.63773176889972" lon="-3.8708786454012336"><ele>761.0</ele><time>2026-04-09T17:06:52.999Z</time></trkpt><trkpt lat="39.63792475998036" lon="-3.8709178523951797"><ele>759.6666666666666</ele><time>2026-04-09T17:06:53.999Z</time></trkpt><trkpt lat="39.63813095268843" lon="-3.870956776590672"><ele>758.3333333333334</ele><time>2026-04-09T17:06:54.999Z</time></trkpt><trkpt lat="39.63834095991918" lon="-3.8709976411151645"><ele>757.0</ele><time>2026-04-09T17:06:55.998Z</time></trkpt><trkpt lat="39.638564875756245" lon="-3.871027243611333"><ele>756.0</ele><time>2026-04-09T17:06:56.998Z</time></trkpt><trkpt lat="39.63879101714157" lon="-3.8710548612024547"><ele>755.0</ele><time>2026-04-09T17:06:57.998Z</time></trkpt><trkpt lat="39.63899529927149" lon="-3.8710892097048695"><ele>754.0</ele><time>2026-04-09T17:06:58.998Z</time></trkpt><trkpt lat="39.63917993199208" lon="-3.8711284396967875"><ele>754.0</ele><time>2026-04-09T17:06:59.998Z</time></trkpt><trkpt lat="39.639369533440735" lon="-3.8711777808211547"><ele>754.0</ele><time>2026-04-09T17:07:00.998Z</time></trkpt><trkpt lat="39.63957017040087" lon="-3.8712257948810205"><ele>754.0</ele><time>2026-04-09T17:07:01.998Z</time></trkpt><trkpt lat="39.63977335279078" lon="-3.871279672671644"><ele>753.3333333333334</ele><time>2026-04-09T17:07:02.998Z</time></trkpt><trkpt lat="39.63998015181907" lon="-3.8713384780135236"><ele>752.6666666666666</ele><time>2026-04-09T17:07:03.998Z</time></trkpt><trkpt lat="39.64016774583276" lon="-3.871407336972888"><ele>752.0</ele><time>2026-04-09T17:07:04.998Z</time></trkpt><trkpt lat="39.640346033867864" lon="-3.8714430650719516"><ele>751.0</ele><time>2026-04-09T17:07:05.998Z</time></trkpt><trkpt lat="39.640531528332744" lon="-3.871521336376289"><ele>750.0</ele><time>2026-04-09T17:07:06.998Z</time></trkpt><trkpt lat="39.64071404526814" lon="-3.8715696586161013"><ele>749.0</ele><time>2026-04-09T17:07:07.998Z</time></trkpt><trkpt lat="39.64090094721455" lon="-3.871644248067911"><ele>749.0</ele><time>2026-04-09T17:07:08.998Z</time></trkpt><trkpt lat="39.64108757984897" lon="-3.871708168903753"><ele>749.0</ele><time>2026-04-09T17:07:09.998Z</time></trkpt><trkpt lat="39.641260071436236" lon="-3.871768862378377"><ele>749.0</ele><time>2026-04-09T17:07:10.998Z</time></trkpt><trkpt lat="39.64142830512711" lon="-3.8718280576576274"><ele>749.6666666666666</ele><time>2026-04-09T17:07:11.998Z</time></trkpt><trkpt lat="39.64160144537821" lon="-3.8718862832156136"><ele>750.3333333333334</ele><time>2026-04-09T17:07:12.998Z</time></trkpt><trkpt lat="39.64176257152961" lon="-3.8719395049391925"><ele>751.0</ele><time>2026-04-09T17:07:13.998Z</time></trkpt><trkpt lat="39.64190915759679" lon="-3.871966901697967"><ele>751.25</ele><time>2026-04-09T17:07:14.998Z</time></trkpt><trkpt lat="39.64203496103725" lon="-3.8719958410128203"><ele>751.5</ele><time>2026-04-09T17:07:15.998Z</time></trkpt><trkpt lat="39.642150319496245" lon="-3.8720484916356117"><ele>751.75</ele><time>2026-04-09T17:07:16.998Z</time></trkpt><trkpt lat="39.64229079210764" lon="-3.872111525405545"><ele>752.0</ele><time>2026-04-09T17:07:17.998Z</time></trkpt><trkpt lat="39.64244334979504" lon="-3.8721739765920877"><ele>752.0</ele><time>2026-04-09T17:07:18.998Z</time></trkpt><trkpt lat="39.64259936518276" lon="-3.8722291449192694"><ele>752.0</ele><time>2026-04-09T17:07:19.998Z</time></trkpt><trkpt lat="39.64272435719681" lon="-3.8722784168732325"><ele>752.0</ele><time>2026-04-09T17:07:20.998Z</time></trkpt><trkpt lat="39.64285049075673" lon="-3.872330975551995"><ele>752.0</ele><time>2026-04-09T17:07:21.998Z</time></trkpt><trkpt lat="39.64295392209826" lon="-3.8723835980377554"><ele>751.25</ele><time>2026-04-09T17:07:22.998Z</time></trkpt><trkpt lat="39.64305046980926" lon="-3.872410357191192"><ele>750.5</ele><time>2026-04-09T17:07:23.998Z</time></trkpt><trkpt lat="39.64318007514077" lon="-3.8724473303777365"><ele>749.75</ele><time>2026-04-09T17:07:24.998Z</time></trkpt><trkpt lat="39.64332340150756" lon="-3.8724969827874083"><ele>749.0</ele><time>2026-04-09T17:07:25.998Z</time></trkpt><trkpt lat="39.64344884971859" lon="-3.872558296032653"><ele>749.0</ele><time>2026-04-09T17:07:26.998Z</time></trkpt><trkpt lat="39.6435792587459" lon="-3.872624190281097"><ele>749.0</ele><time>2026-04-09T17:07:27.998Z</time></trkpt><trkpt lat="39.643696556002155" lon="-3.872694328316786"><ele>749.0</ele><time>2026-04-09T17:07:28.998Z</time></trkpt><trkpt lat="39.64380908240703" lon="-3.8727633354235675"><ele>749.0</ele><time>2026-04-09T17:07:29.998Z</time></trkpt><trkpt lat="39.6439359198813" lon="-3.872843082192242"><ele>749.0</ele><time>2026-04-09T17:07:30.998Z</time></trkpt><trkpt lat="39.644070501080485" lon="-3.8729203943370427"><ele>749.0</ele><time>2026-04-09T17:07:31.998Z</time></trkpt><trkpt lat="39.644174709536586" lon="-3.872973239898503"><ele>749.0</ele><time>2026-04-09T17:07:32.998Z</time></trkpt><trkpt lat="39.644285835758794" lon="-3.873033126275845"><ele>749.0</ele><time>2026-04-09T17:07:33.998Z</time></trkpt><trkpt lat="39.64440230884403" lon="-3.87309117666665"><ele>748.6</ele><time>2026-04-09T17:07:34.998Z</time></trkpt><trkpt lat="39.64450896748665" lon="-3.8731460042072534"><ele>748.2</ele><time>2026-04-09T17:07:35.998Z</time></trkpt><trkpt lat="39.6446030851961" lon="-3.8731980615735746"><ele>747.8000000000001</ele><time>2026-04-09T17:07:36.998Z</time></trkpt><trkpt lat="39.644685109806645" lon="-3.8732508853956555"><ele>747.4000000000001</ele><time>2026-04-09T17:07:37.998Z</time></trkpt><trkpt lat="39.6447749809112" lon="-3.8732944886298086"><ele>747.0</ele><time>2026-04-09T17:07:38.998Z</time></trkpt><trkpt lat="39.644875905526156" lon="-3.8733501188418047"><ele>747.0</ele><time>2026-04-09T17:07:39.997Z</time></trkpt><trkpt lat="39.64497493965436" lon="-3.8734063325597963"><ele>747.0</ele><time>2026-04-09T17:07:40.997Z</time></trkpt><trkpt lat="39.64507785518959" lon="-3.873466254729192"><ele>747.0</ele><time>2026-04-09T17:07:41.997Z</time></trkpt><trkpt lat="39.64519800483788" lon="-3.873547874087901"><ele>747.0</ele><time>2026-04-09T17:07:42.997Z</time></trkpt><trkpt lat="39.64533835942874" lon="-3.8735792606528023"><ele>746.75</ele><time>2026-04-09T17:07:43.997Z</time></trkpt><trkpt lat="39.645466116819875" lon="-3.8736611765980995"><ele>746.5</ele><time>2026-04-09T17:07:44.997Z</time></trkpt><trkpt lat="39.6455959958055" lon="-3.8737180053097204"><ele>746.25</ele><time>2026-04-09T17:07:45.997Z</time></trkpt><trkpt lat="39.64571362793746" lon="-3.8737652120814228"><ele>746.0</ele><time>2026-04-09T17:07:46.997Z</time></trkpt><trkpt lat="39.64581041195856" lon="-3.8738047250275103"><ele>746.0</ele><time>2026-04-09T17:07:48Z</time></trkpt><trkpt lat="39.64589522431235" lon="-3.87383937059959"><ele>746.0</ele><time>2026-04-09T17:07:49Z</time></trkpt><trkpt lat="39.645983414386436" lon="-3.8739045241579526"><ele>746.0</ele><time>2026-04-09T17:07:50Z</time></trkpt><trkpt lat="39.64606718477508" lon="-3.8739678005793725"><ele>746.0</ele><time>2026-04-09T17:07:51Z</time></trkpt><trkpt lat="39.64614341825941" lon="-3.8740096821682264"><ele>746.0</ele><time>2026-04-09T17:07:52Z</time></trkpt><trkpt lat="39.64621474582858" lon="-3.8740473944951117"><ele>746.0</ele><time>2026-04-09T17:07:53Z</time></trkpt><trkpt lat="39.64634680687164" lon="-3.8741178814478237"><ele>746.1666666666666</ele><time>2026-04-09T17:07:55Z</time></trkpt><trkpt lat="39.646426642195955" lon="-3.874133382502207"><ele>746.3333333333333</ele><time>2026-04-09T17:07:56Z</time></trkpt><trkpt lat="39.64651484270273" lon="-3.8741854582287485"><ele>746.5</ele><time>2026-04-09T17:07:58Z</time></trkpt><trkpt lat="39.646590030695215" lon="-3.8743118091074713"><ele>746.6666666666666</ele><time>2026-04-09T17:08:04Z</time></trkpt><trkpt lat="39.646578385311194" lon="-3.874405059258266"><ele>746.8333333333334</ele><time>2026-04-09T17:08:05Z</time></trkpt><trkpt lat="39.646560881308446" lon="-3.874487620393189"><ele>747.0</ele><time>2026-04-09T17:08:06Z</time></trkpt><trkpt lat="39.646539972141376" lon="-3.8745732546989458"><ele>747.2</ele><time>2026-04-09T17:08:07Z</time></trkpt><trkpt lat="39.64647392783003" lon="-3.87476094699255"><ele>747.4000000000001</ele><time>2026-04-09T17:08:09Z</time></trkpt><trkpt lat="39.64644191064114" lon="-3.874890808440541"><ele>747.5999999999999</ele><time>2026-04-09T17:08:10Z</time></trkpt><trkpt lat="39.64644071444514" lon="-3.8749982484059364"><ele>747.8</ele><time>2026-04-09T17:08:11Z</time></trkpt><trkpt lat="39.64644963623988" lon="-3.8750793765041904"><ele>748.0</ele><time>2026-04-09T17:08:12Z</time></trkpt><trkpt lat="39.6464459765992" lon="-3.875271892778582"><ele>748.0</ele><time>2026-04-09T17:08:14Z</time></trkpt><trkpt lat="39.646440147688516" lon="-3.8754031732553695"><ele>748.0</ele><time>2026-04-09T17:08:15Z</time></trkpt><trkpt lat="39.64643091673708" lon="-3.8755412894722143"><ele>748.0</ele><time>2026-04-09T17:08:16Z</time></trkpt><trkpt lat="39.6464188080105" lon="-3.8756777536862383"><ele>748.0</ele><time>2026-04-09T17:08:17Z</time></trkpt><trkpt lat="39.64639727870975" lon="-3.8758197637821366"><ele>748.0</ele><time>2026-04-09T17:08:18Z</time></trkpt><trkpt lat="39.646383516446434" lon="-3.875954316106918"><ele>748.0</ele><time>2026-04-09T17:08:19Z</time></trkpt><trkpt lat="39.64637566244387" lon="-3.876088733472284"><ele>748.0</ele><time>2026-04-09T17:08:20Z</time></trkpt><trkpt lat="39.646377864691146" lon="-3.87623460101255"><ele>748.0</ele><time>2026-04-09T17:08:21Z</time></trkpt><trkpt lat="39.646386050110515" lon="-3.876375816875235"><ele>748.0</ele><time>2026-04-09T17:08:22Z</time></trkpt><trkpt lat="39.64641103822129" lon="-3.8765033569015617"><ele>748.0</ele><time>2026-04-09T17:08:22.999Z</time></trkpt><trkpt lat="39.64645270357048" lon="-3.8766209445363367"><ele>748.0</ele><time>2026-04-09T17:08:23.999Z</time></trkpt><trkpt lat="39.64649846424329" lon="-3.876746862427363"><ele>748.0</ele><time>2026-04-09T17:08:24.999Z</time></trkpt><trkpt lat="39.646541819521566" lon="-3.876881515276236"><ele>748.0</ele><time>2026-04-09T17:08:25.999Z</time></trkpt><trkpt lat="39.646596179958905" lon="-3.877021823824799"><ele>748.0</ele><time>2026-04-09T17:08:26.999Z</time></trkpt><trkpt lat="39.64666482395721" lon="-3.8771832504379087"><ele>748.0</ele><time>2026-04-09T17:08:27.999Z</time></trkpt><trkpt lat="39.64671644882168" lon="-3.8773138748397677"><ele>748.0</ele><time>2026-04-09T17:08:28.999Z</time></trkpt><trkpt lat="39.6467623779991" lon="-3.877411253463156"><ele>748.0</ele><time>2026-04-09T17:08:29.999Z</time></trkpt><trkpt lat="39.64679259046457" lon="-3.877491043470375"><ele>748.0</ele><time>2026-04-09T17:08:30.999Z</time></trkpt><trkpt lat="39.64683511389288" lon="-3.877597036197222"><ele>748.0</ele><time>2026-04-09T17:08:32.999Z</time></trkpt><trkpt lat="39.64684874718611" lon="-3.8776908887974364"><ele>748.0</ele><time>2026-04-09T17:08:33.999Z</time></trkpt><trkpt lat="39.64694044559646" lon="-3.8777645332806125"><ele>748.0</ele><time>2026-04-09T17:08:34.999Z</time></trkpt><trkpt lat="39.64699678246258" lon="-3.877837870088525"><ele>748.0</ele><time>2026-04-09T17:08:35.999Z</time></trkpt><trkpt lat="39.64703630039683" lon="-3.877903693022844"><ele>748.0</ele><time>2026-04-09T17:08:36.999Z</time></trkpt><trkpt lat="39.64701439876933" lon="-3.8780495396813532"><ele>748.0</ele><time>2026-04-09T17:08:38.999Z</time></trkpt><trkpt lat="39.64698915966406" lon="-3.8781654283434666"><ele>748.0</ele><time>2026-04-09T17:08:39.999Z</time></trkpt><trkpt lat="39.646965101096455" lon="-3.878261772010173"><ele>748.0</ele><time>2026-04-09T17:08:40.999Z</time></trkpt><trkpt lat="39.646952046067874" lon="-3.8783598603712126"><ele>748.4</ele><time>2026-04-09T17:08:41.999Z</time></trkpt><trkpt lat="39.646939094485376" lon="-3.8784655975592734"><ele>748.8</ele><time>2026-04-09T17:08:42.999Z</time></trkpt><trkpt lat="39.64693246141137" lon="-3.8785806818383444"><ele>749.2</ele><time>2026-04-09T17:08:43.999Z</time></trkpt><trkpt lat="39.64692758302774" lon="-3.8787151888897875"><ele>749.6</ele><time>2026-04-09T17:08:44.999Z</time></trkpt><trkpt lat="39.64691855374908" lon="-3.8788595193916184"><ele>750.0</ele><time>2026-04-09T17:08:45.999Z</time></trkpt><trkpt lat="39.646907728411634" lon="-3.879010289604428"><ele>750.0</ele><time>2026-04-09T17:08:46.999Z</time></trkpt><trkpt lat="39.64690079857678" lon="-3.8791662926232306"><ele>750.0</ele><time>2026-04-09T17:08:47.999Z</time></trkpt><trkpt lat="39.64690911890643" lon="-3.8793193489575484"><ele>750.0</ele><time>2026-04-09T17:08:48.999Z</time></trkpt><trkpt lat="39.64693109348303" lon="-3.8794480297308054"><ele>750.0</ele><time>2026-04-09T17:08:49.999Z</time></trkpt><trkpt lat="39.646958463696336" lon="-3.8795746486139233"><ele>750.0</ele><time>2026-04-09T17:08:50.999Z</time></trkpt><trkpt lat="39.64698863549416" lon="-3.8796985391920535"><ele>750.0</ele><time>2026-04-09T17:08:51.999Z</time></trkpt><trkpt lat="39.64703040701655" lon="-3.8798032941516016"><ele>750.0</ele><time>2026-04-09T17:08:52.999Z</time></trkpt><trkpt lat="39.64708222475315" lon="-3.879888248765714"><ele>750.0</ele><time>2026-04-09T17:08:53.999Z</time></trkpt><trkpt lat="39.64713777585024" lon="-3.879987976833524"><ele>750.0</ele><time>2026-04-09T17:08:54.999Z</time></trkpt><trkpt lat="39.647223079573145" lon="-3.8801400567160993"><ele>750.0</ele><time>2026-04-09T17:08:55.999Z</time></trkpt><trkpt lat="39.64732172339346" lon="-3.8803104965332404"><ele>750.2</ele><time>2026-04-09T17:08:56.999Z</time></trkpt><trkpt lat="39.64738864271539" lon="-3.88045757056401"><ele>750.4</ele><time>2026-04-09T17:08:57.999Z</time></trkpt><trkpt lat="39.64744900711362" lon="-3.880572813564933"><ele>750.5999999999999</ele><time>2026-04-09T17:08:58.999Z</time></trkpt><trkpt lat="39.64750939841" lon="-3.8806785086012714"><ele>750.8</ele><time>2026-04-09T17:08:59.999Z</time></trkpt><trkpt lat="39.647551518789506" lon="-3.8807794565576206"><ele>751.0</ele><time>2026-04-09T17:09:00.999Z</time></trkpt><trkpt lat="39.64760246222037" lon="-3.8808915996105324"><ele>750.8</ele><time>2026-04-09T17:09:02.999Z</time></trkpt><trkpt lat="39.6476435868651" lon="-3.8809712690941622"><ele>750.5999999999999</ele><time>2026-04-09T17:09:04.999Z</time></trkpt><trkpt lat="39.647676944097235" lon="-3.88106959409515"><ele>750.4</ele><time>2026-04-09T17:09:05.999Z</time></trkpt><trkpt lat="39.64772033708437" lon="-3.8812133477066206"><ele>750.2</ele><time>2026-04-09T17:09:06.999Z</time></trkpt><trkpt lat="39.64775074797858" lon="-3.88134155044904"><ele>750.0</ele><time>2026-04-09T17:09:07.999Z</time></trkpt><trkpt lat="39.647759211842065" lon="-3.8814587650521917"><ele>750.0</ele><time>2026-04-09T17:09:08.998Z</time></trkpt><trkpt lat="39.64786477183669" lon="-3.881544753687787"><ele>750.0</ele><time>2026-04-09T17:09:09.998Z</time></trkpt><trkpt lat="39.64789381491738" lon="-3.8816694601259383"><ele>750.0</ele><time>2026-04-09T17:09:10.998Z</time></trkpt><trkpt lat="39.64793356324355" lon="-3.8818015163035335"><ele>750.0</ele><time>2026-04-09T17:09:11.998Z</time></trkpt><trkpt lat="39.64797381139039" lon="-3.881946616326506"><ele>750.5</ele><time>2026-04-09T17:09:12.998Z</time></trkpt><trkpt lat="39.648038084652214" lon="-3.882081340125231"><ele>751.0</ele><time>2026-04-09T17:09:13.998Z</time></trkpt><trkpt lat="39.64809037783741" lon="-3.882220632848928"><ele>751.5</ele><time>2026-04-09T17:09:14.998Z</time></trkpt><trkpt lat="39.648138623452354" lon="-3.882361815360075"><ele>752.0</ele><time>2026-04-09T17:09:15.998Z</time></trkpt><trkpt lat="39.648206532526466" lon="-3.8825055079847655"><ele>752.5</ele><time>2026-04-09T17:09:16.998Z</time></trkpt><trkpt lat="39.64823717127617" lon="-3.8826496932931627"><ele>753.0</ele><time>2026-04-09T17:09:17.998Z</time></trkpt><trkpt lat="39.64829756176932" lon="-3.8827907405473914"><ele>753.5</ele><time>2026-04-09T17:09:18.998Z</time></trkpt><trkpt lat="39.64832290267078" lon="-3.882964122606355"><ele>754.0</ele><time>2026-04-09T17:09:19.998Z</time></trkpt><trkpt lat="39.648361643675635" lon="-3.883130837544608"><ele>754.0</ele><time>2026-04-09T17:09:20.998Z</time></trkpt><trkpt lat="39.64840655689289" lon="-3.8832889532454598"><ele>754.0</ele><time>2026-04-09T17:09:21.998Z</time></trkpt><trkpt lat="39.648424925468504" lon="-3.883487273414118"><ele>754.0</ele><time>2026-04-09T17:09:22.998Z</time></trkpt><trkpt lat="39.64844808002346" lon="-3.8836419698689477"><ele>754.0</ele><time>2026-04-09T17:09:23.998Z</time></trkpt><trkpt lat="39.6484823412794" lon="-3.883820857037313"><ele>754.0</ele><time>2026-04-09T17:09:24.998Z</time></trkpt><trkpt lat="39.64851088836185" lon="-3.884009953951025"><ele>754.0</ele><time>2026-04-09T17:09:25.998Z</time></trkpt><trkpt lat="39.648553485930265" lon="-3.8841887113284472"><ele>754.0</ele><time>2026-04-09T17:09:26.998Z</time></trkpt><trkpt lat="39.648591455065656" lon="-3.884379420975044"><ele>754.0</ele><time>2026-04-09T17:09:27.998Z</time></trkpt><trkpt lat="39.64862818633553" lon="-3.8845501946035466"><ele>754.2</ele><time>2026-04-09T17:09:28.998Z</time></trkpt><trkpt lat="39.648661378730445" lon="-3.884656346475564"><ele>754.4000000000001</ele><time>2026-04-09T17:09:29.998Z</time></trkpt><trkpt lat="39.64866584955238" lon="-3.8847849658409865"><ele>754.6</ele><time>2026-04-09T17:09:30.998Z</time></trkpt><trkpt lat="39.64869150857863" lon="-3.8849390359918465"><ele>754.8</ele><time>2026-04-09T17:09:31.998Z</time></trkpt><trkpt lat="39.64873623992575" lon="-3.8851073947121963"><ele>755.0</ele><time>2026-04-09T17:09:32.998Z</time></trkpt><trkpt lat="39.64876509210706" lon="-3.885271989323234"><ele>755.6</ele><time>2026-04-09T17:09:33.998Z</time></trkpt><trkpt lat="39.648798419719974" lon="-3.8854214777127187"><ele>756.2</ele><time>2026-04-09T17:09:34.998Z</time></trkpt><trkpt lat="39.64882998182171" lon="-3.885552442858901"><ele>756.8</ele><time>2026-04-09T17:09:35.998Z</time></trkpt><trkpt lat="39.64886455750088" lon="-3.8856763866122686"><ele>757.4</ele><time>2026-04-09T17:09:36.998Z</time></trkpt><trkpt lat="39.648910947806485" lon="-3.8858167635317953"><ele>758.0</ele><time>2026-04-09T17:09:37.998Z</time></trkpt><trkpt lat="39.648962761428734" lon="-3.8859661735956292"><ele>758.25</ele><time>2026-04-09T17:09:38.998Z</time></trkpt><trkpt lat="39.64901758806432" lon="-3.8861236181029795"><ele>758.5</ele><time>2026-04-09T17:09:39.998Z</time></trkpt><trkpt lat="39.649079885126234" lon="-3.8862960751772753"><ele>758.75</ele><time>2026-04-09T17:09:40.998Z</time></trkpt><trkpt lat="39.64911908020073" lon="-3.886443480294826"><ele>759.0</ele><time>2026-04-09T17:09:41.998Z</time></trkpt><trkpt lat="39.64914671673086" lon="-3.8865985147255793"><ele>759.0</ele><time>2026-04-09T17:09:42.998Z</time></trkpt><trkpt lat="39.649184360811155" lon="-3.8867517416778354"><ele>759.0</ele><time>2026-04-09T17:09:43.998Z</time></trkpt><trkpt lat="39.6492185731734" lon="-3.8869036041582277"><ele>759.0</ele><time>2026-04-09T17:09:44.998Z</time></trkpt><trkpt lat="39.64922124894894" lon="-3.8870414763336663"><ele>759.0</ele><time>2026-04-09T17:09:45.998Z</time></trkpt><trkpt lat="39.64923836021174" lon="-3.887172772374265"><ele>759.25</ele><time>2026-04-09T17:09:46.998Z</time></trkpt><trkpt lat="39.649237939061315" lon="-3.887344402295052"><ele>759.5</ele><time>2026-04-09T17:09:47.998Z</time></trkpt><trkpt lat="39.649246619542964" lon="-3.8875026313120244"><ele>759.75</ele><time>2026-04-09T17:09:48.998Z</time></trkpt><trkpt lat="39.649258350553524" lon="-3.8876351866973895"><ele>760.0</ele><time>2026-04-09T17:09:49.998Z</time></trkpt><trkpt lat="39.64927428823423" lon="-3.8877601079327344"><ele>760.0</ele><time>2026-04-09T17:09:50.998Z</time></trkpt><trkpt lat="39.64929729514628" lon="-3.887891654314749"><ele>760.0</ele><time>2026-04-09T17:09:51.998Z</time></trkpt><trkpt lat="39.64933909478843" lon="-3.8880540167964774"><ele>760.0</ele><time>2026-04-09T17:09:52.998Z</time></trkpt><trkpt lat="39.6493947943547" lon="-3.8881860316136607"><ele>760.0</ele><time>2026-04-09T17:09:54Z</time></trkpt><trkpt lat="39.649432390789414" lon="-3.888312501252717"><ele>760.25</ele><time>2026-04-09T17:09:55Z</time></trkpt><trkpt lat="39.64949732842772" lon="-3.888444020739617"><ele>760.5</ele><time>2026-04-09T17:09:56Z</time></trkpt><trkpt lat="39.649550053976824" lon="-3.888604530366854"><ele>760.75</ele><time>2026-04-09T17:09:57Z</time></trkpt><trkpt lat="39.64962796417856" lon="-3.888732592392957"><ele>761.0</ele><time>2026-04-09T17:09:58Z</time></trkpt><trkpt lat="39.64968332013214" lon="-3.888846668482737"><ele>761.0</ele><time>2026-04-09T17:09:59Z</time></trkpt><trkpt lat="39.64973922016675" lon="-3.8889615333724117"><ele>761.0</ele><time>2026-04-09T17:10:00Z</time></trkpt><trkpt lat="39.64979715488878" lon="-3.8890775426104067"><ele>761.0</ele><time>2026-04-09T17:10:01Z</time></trkpt><trkpt lat="39.64985139531105" lon="-3.8892024765990563"><ele>761.0</ele><time>2026-04-09T17:10:02Z</time></trkpt><trkpt lat="39.64988029499416" lon="-3.8893192276137656"><ele>761.0</ele><time>2026-04-09T17:10:03Z</time></trkpt><trkpt lat="39.64989944306485" lon="-3.8894185413865854"><ele>761.3333333333333</ele><time>2026-04-09T17:10:04Z</time></trkpt><trkpt lat="39.649930426289615" lon="-3.88953887020558"><ele>761.6666666666666</ele><time>2026-04-09T17:10:05Z</time></trkpt><trkpt lat="39.64996513134237" lon="-3.8896466568934205"><ele>762.0</ele><time>2026-04-09T17:10:06Z</time></trkpt><trkpt lat="39.64999072264572" lon="-3.889726836594809"><ele>762.3333333333334</ele><time>2026-04-09T17:10:07Z</time></trkpt><trkpt lat="39.65002671332157" lon="-3.889823067608793"><ele>762.6666666666667</ele><time>2026-04-09T17:10:08Z</time></trkpt><trkpt lat="39.65005377360046" lon="-3.88992817605108"><ele>763.0</ele><time>2026-04-09T17:10:09Z</time></trkpt><trkpt lat="39.65007579580451" lon="-3.890015254569494"><ele>763.0</ele><time>2026-04-09T17:10:10Z</time></trkpt><trkpt lat="39.65010169937674" lon="-3.890109956530538"><ele>763.0</ele><time>2026-04-09T17:10:11Z</time></trkpt><trkpt lat="39.650145255542434" lon="-3.890259297870192"><ele>763.0</ele><time>2026-04-09T17:10:13Z</time></trkpt><trkpt lat="39.65018363244607" lon="-3.890401086409671"><ele>763.0</ele><time>2026-04-09T17:10:15Z</time></trkpt><trkpt lat="39.65021484629722" lon="-3.8905201324285943"><ele>763.0</ele><time>2026-04-09T17:10:17Z</time></trkpt><trkpt lat="39.65024992993989" lon="-3.8906491611937084"><ele>763.0</ele><time>2026-04-09T17:10:19Z</time></trkpt><trkpt lat="39.650268385168104" lon="-3.890728324479194"><ele>763.0</ele><time>2026-04-09T17:10:21Z</time></trkpt><trkpt lat="39.65029523660418" lon="-3.8908325660779512"><ele>763.0</ele><time>2026-04-09T17:10:23Z</time></trkpt><trkpt lat="39.65031497710026" lon="-3.8909120276136138"><ele>763.0</ele><time>2026-04-09T17:10:25Z</time></trkpt><trkpt lat="39.65037447200911" lon="-3.8909503794220623"><ele>763.0</ele><time>2026-04-09T17:11:13.999Z</time></trkpt><trkpt lat="39.650383281888026" lon="-3.891055927893966"><ele>763.0</ele><time>2026-04-09T17:11:16.998Z</time></trkpt><trkpt lat="39.650370540145616" lon="-3.891140547368672"><ele>763.0</ele><time>2026-04-09T17:11:18.998Z</time></trkpt><trkpt lat="39.65035008145295" lon="-3.891282438903447"><ele>762.6666666666667</ele><time>2026-04-09T17:11:20.998Z</time></trkpt><trkpt lat="39.6503431154864" lon="-3.891371173460754"><ele>762.3333333333334</ele><time>2026-04-09T17:11:21.998Z</time></trkpt><trkpt lat="39.65034809937434" lon="-3.891468899129021"><ele>762.0</ele><time>2026-04-09T17:11:22.998Z</time></trkpt><trkpt lat="39.65034970447724" lon="-3.8915754068044834"><ele>761.6666666666666</ele><time>2026-04-09T17:11:23.998Z</time></trkpt><trkpt lat="39.650387812091864" lon="-3.891671119650422"><ele>761.3333333333333</ele><time>2026-04-09T17:11:24.998Z</time></trkpt><trkpt lat="39.6504263386353" lon="-3.891790620461616"><ele>761.0</ele><time>2026-04-09T17:11:25.998Z</time></trkpt><trkpt lat="39.650473144944556" lon="-3.891937266807564"><ele>761.0</ele><time>2026-04-09T17:11:26.998Z</time></trkpt><trkpt lat="39.650534395216695" lon="-3.892103605328735"><ele>761.0</ele><time>2026-04-09T17:11:27.998Z</time></trkpt><trkpt lat="39.65057065038595" lon="-3.892285523589088"><ele>761.0</ele><time>2026-04-09T17:11:28.998Z</time></trkpt><trkpt lat="39.65056309429533" lon="-3.8924725933223616"><ele>761.0</ele><time>2026-04-09T17:11:29.998Z</time></trkpt><trkpt lat="39.65059353659046" lon="-3.892645105901214"><ele>760.8</ele><time>2026-04-09T17:11:30.998Z</time></trkpt><trkpt lat="39.65065315300343" lon="-3.892770624706582"><ele>760.5999999999999</ele><time>2026-04-09T17:11:31.998Z</time></trkpt><trkpt lat="39.650702966673826" lon="-3.892858997959052"><ele>760.4</ele><time>2026-04-09T17:11:32.998Z</time></trkpt><trkpt lat="39.65071907622648" lon="-3.892959096608388"><ele>760.2</ele><time>2026-04-09T17:11:33.998Z</time></trkpt><trkpt lat="39.65074693093792" lon="-3.893094440083993"><ele>760.0</ele><time>2026-04-09T17:11:34.998Z</time></trkpt><trkpt lat="39.65074438266514" lon="-3.893262737084453"><ele>759.5</ele><time>2026-04-09T17:11:35.998Z</time></trkpt><trkpt lat="39.650736976506295" lon="-3.893429757643451"><ele>759.0</ele><time>2026-04-09T17:11:36.998Z</time></trkpt><trkpt lat="39.65072504569968" lon="-3.893605799590994"><ele>758.5</ele><time>2026-04-09T17:11:37.998Z</time></trkpt><trkpt lat="39.65071805971056" lon="-3.893796421923997"><ele>758.0</ele><time>2026-04-09T17:11:38.998Z</time></trkpt><trkpt lat="39.650713419056515" lon="-3.893990749426918"><ele>758.0</ele><time>2026-04-09T17:11:39.998Z</time></trkpt><trkpt lat="39.65070608836755" lon="-3.894159878479747"><ele>758.0</ele><time>2026-04-09T17:11:40.998Z</time></trkpt><trkpt lat="39.65069816921281" lon="-3.8943317151703702"><ele>758.0</ele><time>2026-04-09T17:11:41.998Z</time></trkpt><trkpt lat="39.65069223445244" lon="-3.8944994992905912"><ele>758.0</ele><time>2026-04-09T17:11:42.998Z</time></trkpt><trkpt lat="39.65069341215874" lon="-3.8946659066860443"><ele>758.0</ele><time>2026-04-09T17:11:43.998Z</time></trkpt><trkpt lat="39.65069705613039" lon="-3.894842537952832"><ele>758.0</ele><time>2026-04-09T17:11:44.998Z</time></trkpt><trkpt lat="39.65070356962567" lon="-3.8950279475184666"><ele>758.0</ele><time>2026-04-09T17:11:45.998Z</time></trkpt><trkpt lat="39.65071063011378" lon="-3.8951915748834147"><ele>758.0</ele><time>2026-04-09T17:11:46.998Z</time></trkpt><trkpt lat="39.6507204548206" lon="-3.895353177304854"><ele>758.75</ele><time>2026-04-09T17:11:47.998Z</time></trkpt><trkpt lat="39.65072627138226" lon="-3.8955175523748458"><ele>759.5</ele><time>2026-04-09T17:11:48.998Z</time></trkpt><trkpt lat="39.65073395934026" lon="-3.895679733460203"><ele>760.25</ele><time>2026-04-09T17:11:49.998Z</time></trkpt><trkpt lat="39.65074245816583" lon="-3.895845875766875"><ele>761.0</ele><time>2026-04-09T17:11:50.998Z</time></trkpt><trkpt lat="39.65075012618138" lon="-3.896011894051742"><ele>761.0</ele><time>2026-04-09T17:11:51.998Z</time></trkpt><trkpt lat="39.65076049053923" lon="-3.896175636774344"><ele>761.0</ele><time>2026-04-09T17:11:52.998Z</time></trkpt><trkpt lat="39.65077120800788" lon="-3.896333468572364"><ele>761.0</ele><time>2026-04-09T17:11:53.998Z</time></trkpt><trkpt lat="39.65077807083796" lon="-3.896500388361036"><ele>761.0</ele><time>2026-04-09T17:11:54.998Z</time></trkpt><trkpt lat="39.65078632883378" lon="-3.8966694571753853"><ele>761.25</ele><time>2026-04-09T17:11:55.998Z</time></trkpt><trkpt lat="39.65079698587513" lon="-3.896835517043147"><ele>761.5</ele><time>2026-04-09T17:11:56.998Z</time></trkpt><trkpt lat="39.65080046022013" lon="-3.8969892120986995"><ele>761.75</ele><time>2026-04-09T17:11:57.998Z</time></trkpt><trkpt lat="39.65081178472553" lon="-3.8971581875747505"><ele>762.0</ele><time>2026-04-09T17:11:58.998Z</time></trkpt><trkpt lat="39.65083968587751" lon="-3.897321385846657"><ele>762.0</ele><time>2026-04-09T17:12:00Z</time></trkpt><trkpt lat="39.65083656396303" lon="-3.8974872739239017"><ele>762.0</ele><time>2026-04-09T17:12:01Z</time></trkpt><trkpt lat="39.65083909035901" lon="-3.8976388002580995"><ele>762.0</ele><time>2026-04-09T17:12:02Z</time></trkpt><trkpt lat="39.65082866861649" lon="-3.897770099596103"><ele>762.0</ele><time>2026-04-09T17:12:03Z</time></trkpt><trkpt lat="39.650814828943595" lon="-3.8979154475401754"><ele>761.75</ele><time>2026-04-09T17:12:04Z</time></trkpt><trkpt lat="39.65080702907073" lon="-3.8980866829039145"><ele>761.5</ele><time>2026-04-09T17:12:05Z</time></trkpt><trkpt lat="39.650811957682535" lon="-3.898248819357517"><ele>761.25</ele><time>2026-04-09T17:12:06Z</time></trkpt><trkpt lat="39.650796707645576" lon="-3.89844937897947"><ele>761.0</ele><time>2026-04-09T17:12:07Z</time></trkpt><trkpt lat="39.650777016735034" lon="-3.898606248306372"><ele>761.0</ele><time>2026-04-09T17:12:08Z</time></trkpt><trkpt lat="39.650755321272825" lon="-3.8987080671660377"><ele>761.0</ele><time>2026-04-09T17:12:09Z</time></trkpt><trkpt lat="39.650718759008235" lon="-3.8988191093145903"><ele>761.0</ele><time>2026-04-09T17:12:10Z</time></trkpt><trkpt lat="39.65064676698377" lon="-3.898910611011411"><ele>761.0</ele><time>2026-04-09T17:12:11Z</time></trkpt><trkpt lat="39.65054446968801" lon="-3.8989806294005778"><ele>761.0</ele><time>2026-04-09T17:12:12Z</time></trkpt><trkpt lat="39.650435975395176" lon="-3.89905243322187"><ele>761.0</ele><time>2026-04-09T17:12:13Z</time></trkpt><trkpt lat="39.650337523450354" lon="-3.899145385494552"><ele>761.0</ele><time>2026-04-09T17:12:14Z</time></trkpt><trkpt lat="39.65023710221336" lon="-3.8992882040407753"><ele>761.0</ele><time>2026-04-09T17:12:15Z</time></trkpt><trkpt lat="39.65015897157422" lon="-3.89944837446441"><ele>761.0</ele><time>2026-04-09T17:12:16Z</time></trkpt><trkpt lat="39.65011449505491" lon="-3.899610233332371"><ele>761.0</ele><time>2026-04-09T17:12:17Z</time></trkpt><trkpt lat="39.65013185888344" lon="-3.8997750854430158"><ele>761.0</ele><time>2026-04-09T17:12:18Z</time></trkpt><trkpt lat="39.65016726798787" lon="-3.8999294117712213"><ele>761.0</ele><time>2026-04-09T17:12:19Z</time></trkpt><trkpt lat="39.650204574124444" lon="-3.90008663573135"><ele>761.0</ele><time>2026-04-09T17:12:20Z</time></trkpt><trkpt lat="39.65029830852809" lon="-3.900226926224019"><ele>761.0</ele><time>2026-04-09T17:12:21Z</time></trkpt><trkpt lat="39.650398499519675" lon="-3.900367343736096"><ele>761.0</ele><time>2026-04-09T17:12:22Z</time></trkpt><trkpt lat="39.65048767121481" lon="-3.9005196916402998"><ele>761.0</ele><time>2026-04-09T17:12:23Z</time></trkpt><trkpt lat="39.650565554024205" lon="-3.900662748111993"><ele>761.0</ele><time>2026-04-09T17:12:24Z</time></trkpt><trkpt lat="39.65061106619858" lon="-3.9008399760922803"><ele>761.3333333333333</ele><time>2026-04-09T17:12:25Z</time></trkpt><trkpt lat="39.650655036737795" lon="-3.901031681054239"><ele>761.6666666666666</ele><time>2026-04-09T17:12:26Z</time></trkpt><trkpt lat="39.650688587901726" lon="-3.901232057073245"><ele>762.0</ele><time>2026-04-09T17:12:27Z</time></trkpt><trkpt lat="39.65070520737673" lon="-3.901447711589945"><ele>762.0</ele><time>2026-04-09T17:12:28Z</time></trkpt><trkpt lat="39.65072866084792" lon="-3.9016805517473796"><ele>762.0</ele><time>2026-04-09T17:12:29Z</time></trkpt><trkpt lat="39.65075125917997" lon="-3.9018822696827447"><ele>762.0</ele><time>2026-04-09T17:12:30Z</time></trkpt><trkpt lat="39.65075253401629" lon="-3.902087063696294"><ele>762.0</ele><time>2026-04-09T17:12:31Z</time></trkpt><trkpt lat="39.65077734191169" lon="-3.90229080631228"><ele>762.0</ele><time>2026-04-09T17:12:32Z</time></trkpt><trkpt lat="39.650784725809494" lon="-3.9024610520677996"><ele>762.0</ele><time>2026-04-09T17:12:33Z</time></trkpt><trkpt lat="39.65079335424605" lon="-3.902614051262744"><ele>762.0</ele><time>2026-04-09T17:12:34Z</time></trkpt><trkpt lat="39.650787726114885" lon="-3.902746685099472"><ele>762.6666666666666</ele><time>2026-04-09T17:12:35Z</time></trkpt><trkpt lat="39.65078832320791" lon="-3.9028592687772976"><ele>763.3333333333334</ele><time>2026-04-09T17:12:35.999Z</time></trkpt><trkpt lat="39.65079405451022" lon="-3.902946543579782"><ele>764.0</ele><time>2026-04-09T17:12:36.999Z</time></trkpt><trkpt lat="39.65079612371166" lon="-3.903069711952343"><ele>764.6666666666667</ele><time>2026-04-09T17:12:38.999Z</time></trkpt><trkpt lat="39.650800348703115" lon="-3.9031636542376655"><ele>765.3333333333334</ele><time>2026-04-09T17:12:41.999Z</time></trkpt><trkpt lat="39.65071977657078" lon="-3.903221498533436"><ele>766.0</ele><time>2026-04-09T17:16:44.998Z</time></trkpt><trkpt lat="39.650835871064054" lon="-3.903199682575587"><ele>766.0</ele><time>2026-04-09T17:17:10.998Z</time></trkpt><trkpt lat="39.65083121212911" lon="-3.9030937419788363"><ele>766.0</ele><time>2026-04-09T17:22:01.999Z</time></trkpt><trkpt lat="39.650829643501496" lon="-3.9030067159842616"><ele>766.0</ele><time>2026-04-09T17:22:02.999Z</time></trkpt><trkpt lat="39.65083310138617" lon="-3.9029015797109934"><ele>766.0</ele><time>2026-04-09T17:22:03.999Z</time></trkpt><trkpt lat="39.65082278766095" lon="-3.9027970129559058"><ele>766.0</ele><time>2026-04-09T17:22:04.999Z</time></trkpt><trkpt lat="39.65074924920732" lon="-3.902699247316418"><ele>766.0</ele><time>2026-04-09T17:22:05.999Z</time></trkpt><trkpt lat="39.65074162427561" lon="-3.9025674980708573"><ele>765.0</ele><time>2026-04-09T17:22:06.999Z</time></trkpt><trkpt lat="39.65073446365237" lon="-3.902421710358384"><ele>764.0</ele><time>2026-04-09T17:22:07.999Z</time></trkpt><trkpt lat="39.65072797742745" lon="-3.902282611767207"><ele>763.0</ele><time>2026-04-09T17:22:08.999Z</time></trkpt><trkpt lat="39.650720415347834" lon="-3.902114972883885"><ele>762.0</ele><time>2026-04-09T17:22:09.999Z</time></trkpt><trkpt lat="39.65071276526323" lon="-3.9019453829259723"><ele>762.0</ele><time>2026-04-09T17:22:10.999Z</time></trkpt><trkpt lat="39.650718380977594" lon="-3.90175852362687"><ele>762.0</ele><time>2026-04-09T17:22:11.999Z</time></trkpt><trkpt lat="39.65070514156576" lon="-3.9015761937046904"><ele>762.0</ele><time>2026-04-09T17:22:12.999Z</time></trkpt><trkpt lat="39.65069008380531" lon="-3.9013969191230964"><ele>762.0</ele><time>2026-04-09T17:22:13.999Z</time></trkpt><trkpt lat="39.65065846038717" lon="-3.9012053229884733"><ele>762.0</ele><time>2026-04-09T17:22:14.999Z</time></trkpt><trkpt lat="39.65062514607304" lon="-3.9010053498547785"><ele>762.0</ele><time>2026-04-09T17:22:15.999Z</time></trkpt><trkpt lat="39.650577651861894" lon="-3.9008154193644744"><ele>762.0</ele><time>2026-04-09T17:22:16.999Z</time></trkpt><trkpt lat="39.65052529566343" lon="-3.9006501468758503"><ele>762.0</ele><time>2026-04-09T17:22:17.999Z</time></trkpt><trkpt lat="39.65046819841451" lon="-3.9005188401997857"><ele>761.8</ele><time>2026-04-09T17:22:18.999Z</time></trkpt><trkpt lat="39.65038998106753" lon="-3.9004190878869203"><ele>761.6</ele><time>2026-04-09T17:22:19.999Z</time></trkpt><trkpt lat="39.650325830397236" lon="-3.900328655943902"><ele>761.4</ele><time>2026-04-09T17:22:20.999Z</time></trkpt><trkpt lat="39.650261698156896" lon="-3.9002325927789805"><ele>761.1999999999999</ele><time>2026-04-09T17:22:21.999Z</time></trkpt><trkpt lat="39.650201393513846" lon="-3.9001261215019323"><ele>761.0</ele><time>2026-04-09T17:22:22.999Z</time></trkpt><trkpt lat="39.650147719164465" lon="-3.8999925918875644"><ele>761.75</ele><time>2026-04-09T17:22:23.999Z</time></trkpt><trkpt lat="39.6501139672302" lon="-3.899851952601032"><ele>762.5</ele><time>2026-04-09T17:22:24.999Z</time></trkpt><trkpt lat="39.65009366110532" lon="-3.8997021424386364"><ele>763.25</ele><time>2026-04-09T17:22:25.999Z</time></trkpt><trkpt lat="39.65009792820075" lon="-3.8995566058555466"><ele>764.0</ele><time>2026-04-09T17:22:26.999Z</time></trkpt><trkpt lat="39.650132491916786" lon="-3.8994080063193213"><ele>764.0</ele><time>2026-04-09T17:22:27.999Z</time></trkpt><trkpt lat="39.65019726733025" lon="-3.899285364996171"><ele>764.0</ele><time>2026-04-09T17:22:29Z</time></trkpt><trkpt lat="39.65026135563323" lon="-3.8991855974823832"><ele>764.0</ele><time>2026-04-09T17:22:30Z</time></trkpt><trkpt lat="39.650341567442055" lon="-3.899097430456141"><ele>764.0</ele><time>2026-04-09T17:22:31Z</time></trkpt><trkpt lat="39.650430228890386" lon="-3.899014922228955"><ele>764.0</ele><time>2026-04-09T17:22:32Z</time></trkpt><trkpt lat="39.65052810232174" lon="-3.898965885998337"><ele>763.5</ele><time>2026-04-09T17:22:33Z</time></trkpt><trkpt lat="39.65061637159923" lon="-3.8988911496756256"><ele>763.0</ele><time>2026-04-09T17:22:34Z</time></trkpt><trkpt lat="39.65067013604294" lon="-3.898810814628289"><ele>762.5</ele><time>2026-04-09T17:22:35Z</time></trkpt><trkpt lat="39.650712786063615" lon="-3.898740805024092"><ele>762.0</ele><time>2026-04-09T17:22:36Z</time></trkpt><trkpt lat="39.65074191925587" lon="-3.898664020611054"><ele>761.5</ele><time>2026-04-09T17:22:37Z</time></trkpt><trkpt lat="39.650752519369625" lon="-3.898563152847263"><ele>761.0</ele><time>2026-04-09T17:22:38Z</time></trkpt><trkpt lat="39.65076317352563" lon="-3.898459540681471"><ele>761.5999999999999</ele><time>2026-04-09T17:22:39Z</time></trkpt><trkpt lat="39.65077078573309" lon="-3.898359244661902"><ele>762.2</ele><time>2026-04-09T17:22:40Z</time></trkpt><trkpt lat="39.6507791785666" lon="-3.8982354711688996"><ele>762.8</ele><time>2026-04-09T17:22:41Z</time></trkpt><trkpt lat="39.65078268828464" lon="-3.898094127735114"><ele>763.4000000000001</ele><time>2026-04-09T17:22:42Z</time></trkpt><trkpt lat="39.650789678182136" lon="-3.8979445882877726"><ele>764.0</ele><time>2026-04-09T17:22:43Z</time></trkpt><trkpt lat="39.65079790343394" lon="-3.8977887802076094"><ele>764.0</ele><time>2026-04-09T17:22:44Z</time></trkpt><trkpt lat="39.65080582505691" lon="-3.8976387237529644"><ele>764.0</ele><time>2026-04-09T17:22:45Z</time></trkpt><trkpt lat="39.65081303036006" lon="-3.8974794995359114"><ele>764.0</ele><time>2026-04-09T17:22:46Z</time></trkpt><trkpt lat="39.650805422136145" lon="-3.8973094082923017"><ele>764.0</ele><time>2026-04-09T17:22:47Z</time></trkpt><trkpt lat="39.65079332022194" lon="-3.8971586046707865"><ele>763.5</ele><time>2026-04-09T17:22:48Z</time></trkpt><trkpt lat="39.65077816935844" lon="-3.8969862734922938"><ele>763.0</ele><time>2026-04-09T17:22:49Z</time></trkpt><trkpt lat="39.65076786084198" lon="-3.896814908718107"><ele>762.5</ele><time>2026-04-09T17:22:50Z</time></trkpt><trkpt lat="39.65075822993175" lon="-3.8966302385733966"><ele>762.0</ele><time>2026-04-09T17:22:51Z</time></trkpt><trkpt lat="39.650764709611536" lon="-3.8964526341049166"><ele>761.6666666666666</ele><time>2026-04-09T17:22:52Z</time></trkpt><trkpt lat="39.650753455665615" lon="-3.89623930699616"><ele>761.3333333333333</ele><time>2026-04-09T17:22:53Z</time></trkpt><trkpt lat="39.650744821434685" lon="-3.896054216966592"><ele>761.0</ele><time>2026-04-09T17:22:54Z</time></trkpt><trkpt lat="39.650733527657245" lon="-3.895838005447483"><ele>761.0</ele><time>2026-04-09T17:22:55Z</time></trkpt><trkpt lat="39.65072171185159" lon="-3.8956243732290035"><ele>761.0</ele><time>2026-04-09T17:22:56Z</time></trkpt><trkpt lat="39.65071223269375" lon="-3.8954226128598197"><ele>761.0</ele><time>2026-04-09T17:22:57Z</time></trkpt><trkpt lat="39.65068744857767" lon="-3.8952158728363178"><ele>760.0</ele><time>2026-04-09T17:22:58Z</time></trkpt><trkpt lat="39.65067639779577" lon="-3.8950133338438317"><ele>759.0</ele><time>2026-04-09T17:22:59Z</time></trkpt><trkpt lat="39.6506705164561" lon="-3.8948096310970874"><ele>758.0</ele><time>2026-04-09T17:23:00Z</time></trkpt><trkpt lat="39.65066767884774" lon="-3.894619968924356"><ele>758.0</ele><time>2026-04-09T17:23:01Z</time></trkpt><trkpt lat="39.65066473952485" lon="-3.8944162199039867"><ele>758.0</ele><time>2026-04-09T17:23:02Z</time></trkpt><trkpt lat="39.65066897026697" lon="-3.8942099636848075"><ele>758.0</ele><time>2026-04-09T17:23:03Z</time></trkpt><trkpt lat="39.65068477773056" lon="-3.893990642258769"><ele>758.0</ele><time>2026-04-09T17:23:04Z</time></trkpt><trkpt lat="39.65069234244296" lon="-3.8937910144985097"><ele>758.0</ele><time>2026-04-09T17:23:05Z</time></trkpt><trkpt lat="39.65069573952205" lon="-3.893590476254975"><ele>758.0</ele><time>2026-04-09T17:23:06Z</time></trkpt><trkpt lat="39.65069573952204" lon="-3.8933882092641245"><ele>758.5</ele><time>2026-04-09T17:23:07Z</time></trkpt><trkpt lat="39.650696695204026" lon="-3.893189727652023"><ele>759.0</ele><time>2026-04-09T17:23:08Z</time></trkpt><trkpt lat="39.650692138284356" lon="-3.893019159896366"><ele>759.5</ele><time>2026-04-09T17:23:09Z</time></trkpt><trkpt lat="39.65066864453877" lon="-3.8928650013423085"><ele>760.0</ele><time>2026-04-09T17:23:10Z</time></trkpt><trkpt lat="39.65062476008067" lon="-3.892735883789361"><ele>760.0</ele><time>2026-04-09T17:23:11Z</time></trkpt><trkpt lat="39.65054748124403" lon="-3.892608570251076"><ele>760.0</ele><time>2026-04-09T17:23:12Z</time></trkpt><trkpt lat="39.65053751051638" lon="-3.8924220365129636"><ele>760.0</ele><time>2026-04-09T17:23:13Z</time></trkpt><trkpt lat="39.65051519773264" lon="-3.8922524215339793"><ele>760.0</ele><time>2026-04-09T17:23:14Z</time></trkpt><trkpt lat="39.65048220151238" lon="-3.892092410537661"><ele>760.0</ele><time>2026-04-09T17:23:15Z</time></trkpt><trkpt lat="39.650433726484636" lon="-3.8919256922473386"><ele>760.0</ele><time>2026-04-09T17:23:16Z</time></trkpt><trkpt lat="39.65037890924347" lon="-3.891755487085317"><ele>760.0</ele><time>2026-04-09T17:23:17Z</time></trkpt><trkpt lat="39.65032310388846" lon="-3.8915800669544325"><ele>760.0</ele><time>2026-04-09T17:23:18Z</time></trkpt><trkpt lat="39.65027490355879" lon="-3.8914169363201565"><ele>760.0</ele><time>2026-04-09T17:23:19Z</time></trkpt><trkpt lat="39.65033511005843" lon="-3.8912339876761743"><ele>760.0</ele><time>2026-04-09T17:23:20Z</time></trkpt><trkpt lat="39.650350782999276" lon="-3.891092947929561"><ele>760.0</ele><time>2026-04-09T17:23:21Z</time></trkpt><trkpt lat="39.65036410659119" lon="-3.890949965032242"><ele>760.0</ele><time>2026-04-09T17:23:22Z</time></trkpt><trkpt lat="39.65035286528664" lon="-3.890818443746402"><ele>760.75</ele><time>2026-04-09T17:23:23Z</time></trkpt><trkpt lat="39.65021787167237" lon="-3.8907285529098328"><ele>761.5</ele><time>2026-04-09T17:23:24Z</time></trkpt><trkpt lat="39.65017583583564" lon="-3.890576624933022"><ele>762.25</ele><time>2026-04-09T17:23:25Z</time></trkpt><trkpt lat="39.65013270678856" lon="-3.8904197730614705"><ele>763.0</ele><time>2026-04-09T17:23:26Z</time></trkpt><trkpt lat="39.65008656640239" lon="-3.890256296568462"><ele>763.0</ele><time>2026-04-09T17:23:27Z</time></trkpt><trkpt lat="39.65004043877393" lon="-3.890092854054576"><ele>763.0</ele><time>2026-04-09T17:23:28Z</time></trkpt><trkpt lat="39.649992396227596" lon="-3.889922626529375"><ele>763.0</ele><time>2026-04-09T17:23:29Z</time></trkpt><trkpt lat="39.64994541011718" lon="-3.889757025849563"><ele>763.0</ele><time>2026-04-09T17:23:30Z</time></trkpt><trkpt lat="39.649898980353775" lon="-3.889595679050751"><ele>763.0</ele><time>2026-04-09T17:23:31Z</time></trkpt><trkpt lat="39.64985489688407" lon="-3.8894424857694854"><ele>763.0</ele><time>2026-04-09T17:23:32Z</time></trkpt><trkpt lat="39.649807814854974" lon="-3.88928953977608"><ele>763.0</ele><time>2026-04-09T17:23:33Z</time></trkpt><trkpt lat="39.64975389589179" lon="-3.8891194225531738"><ele>763.0</ele><time>2026-04-09T17:23:34Z</time></trkpt><trkpt lat="39.649697629196396" lon="-3.888977573872609"><ele>762.5</ele><time>2026-04-09T17:23:35Z</time></trkpt><trkpt lat="39.64963109999435" lon="-3.8888326773006274"><ele>762.0</ele><time>2026-04-09T17:23:36Z</time></trkpt><trkpt lat="39.64956184407008" lon="-3.8886773941626838"><ele>761.5</ele><time>2026-04-09T17:23:37Z</time></trkpt><trkpt lat="39.64948908107701" lon="-3.8885124632958785"><ele>761.0</ele><time>2026-04-09T17:23:38Z</time></trkpt><trkpt lat="39.64941876389393" lon="-3.888347375383267"><ele>760.6666666666666</ele><time>2026-04-09T17:23:39Z</time></trkpt><trkpt lat="39.64934929854967" lon="-3.8881670069765364"><ele>760.3333333333334</ele><time>2026-04-09T17:23:40Z</time></trkpt><trkpt lat="39.64927982858051" lon="-3.8879722659548226"><ele>760.0</ele><time>2026-04-09T17:23:41Z</time></trkpt><trkpt lat="39.649219619366164" lon="-3.8877818992247004"><ele>760.3333333333334</ele><time>2026-04-09T17:23:42Z</time></trkpt><trkpt lat="39.649200847683105" lon="-3.8875870769472147"><ele>760.6666666666666</ele><time>2026-04-09T17:23:43Z</time></trkpt><trkpt lat="39.649182289010476" lon="-3.887378495695534"><ele>761.0</ele><time>2026-04-09T17:23:44Z</time></trkpt><trkpt lat="39.649174722682815" lon="-3.8871968577192444"><ele>761.0</ele><time>2026-04-09T17:23:45Z</time></trkpt><trkpt lat="39.64917112258027" lon="-3.8870321002873474"><ele>761.0</ele><time>2026-04-09T17:23:46Z</time></trkpt><trkpt lat="39.64915894194063" lon="-3.88688632681738"><ele>761.0</ele><time>2026-04-09T17:23:47Z</time></trkpt><trkpt lat="39.64913278013356" lon="-3.8867287057828115"><ele>761.0</ele><time>2026-04-09T17:23:48Z</time></trkpt><trkpt lat="39.64910293945345" lon="-3.8865659853287"><ele>760.5</ele><time>2026-04-09T17:23:49Z</time></trkpt><trkpt lat="39.649068108705166" lon="-3.886402319790991"><ele>760.0</ele><time>2026-04-09T17:23:50Z</time></trkpt><trkpt lat="39.649025424696774" lon="-3.8862432890600953"><ele>759.5</ele><time>2026-04-09T17:23:51Z</time></trkpt><trkpt lat="39.64897671144818" lon="-3.8860932346981234"><ele>759.0</ele><time>2026-04-09T17:23:52Z</time></trkpt><trkpt lat="39.648923065644" lon="-3.885942055646229"><ele>758.75</ele><time>2026-04-09T17:23:53Z</time></trkpt><trkpt lat="39.64886734610907" lon="-3.8857913946524114"><ele>758.5</ele><time>2026-04-09T17:23:54Z</time></trkpt><trkpt lat="39.64881258803387" lon="-3.8856356077825454"><ele>758.25</ele><time>2026-04-09T17:23:55Z</time></trkpt><trkpt lat="39.6487606236189" lon="-3.8854797919786535"><ele>758.0</ele><time>2026-04-09T17:23:56Z</time></trkpt><trkpt lat="39.64871547171331" lon="-3.88531949889314"><ele>758.0</ele><time>2026-04-09T17:23:57Z</time></trkpt><trkpt lat="39.648678799161374" lon="-3.8851510871487624"><ele>758.0</ele><time>2026-04-09T17:23:58Z</time></trkpt><trkpt lat="39.64864801830254" lon="-3.8849826108690153"><ele>758.0</ele><time>2026-04-09T17:23:59Z</time></trkpt><trkpt lat="39.648620416566786" lon="-3.8848192038392293"><ele>758.0</ele><time>2026-04-09T17:24:00Z</time></trkpt><trkpt lat="39.64859495590913" lon="-3.884666020787932"><ele>757.2</ele><time>2026-04-09T17:24:01Z</time></trkpt><trkpt lat="39.64857105632787" lon="-3.8845303983558104"><ele>756.4</ele><time>2026-04-09T17:24:02Z</time></trkpt><trkpt lat="39.64854771171855" lon="-3.8843984674677445"><ele>755.6</ele><time>2026-04-09T17:24:03Z</time></trkpt><trkpt lat="39.64852345750539" lon="-3.8842613960246313"><ele>754.8000000000001</ele><time>2026-04-09T17:24:04Z</time></trkpt><trkpt lat="39.6484976261939" lon="-3.884115411647343"><ele>754.0</ele><time>2026-04-09T17:24:05Z</time></trkpt><trkpt lat="39.648481216256435" lon="-3.884022671694201"><ele>753.6666666666667</ele><time>2026-04-09T17:24:06Z</time></trkpt><trkpt lat="39.648476277969536" lon="-3.8839133938449746"><ele>753.3333333333334</ele><time>2026-04-09T17:24:07Z</time></trkpt><trkpt lat="39.648447948673315" lon="-3.88383466169491"><ele>753.0</ele><time>2026-04-09T17:24:08Z</time></trkpt><trkpt lat="39.64877691192975" lon="-3.8837123294302045"><ele>753.8</ele><time>2026-04-09T17:24:12Z</time></trkpt><trkpt lat="39.648874904031956" lon="-3.8837053740715572"><ele>754.5999999999999</ele><time>2026-04-09T17:24:13Z</time></trkpt><trkpt lat="39.64897546569573" lon="-3.883705914962806"><ele>755.4000000000001</ele><time>2026-04-09T17:24:14Z</time></trkpt><trkpt lat="39.649076786935254" lon="-3.8836988179614655"><ele>756.2</ele><time>2026-04-09T17:24:15Z</time></trkpt><trkpt lat="39.649183175239564" lon="-3.8836904483026484"><ele>757.0</ele><time>2026-04-09T17:24:16Z</time></trkpt><trkpt lat="39.64928850903766" lon="-3.883679684598951"><ele>757.0</ele><time>2026-04-09T17:24:17Z</time></trkpt><trkpt lat="39.64939984916618" lon="-3.883673214371115"><ele>757.0</ele><time>2026-04-09T17:24:18Z</time></trkpt><trkpt lat="39.64949379448667" lon="-3.8836636410881757"><ele>757.0</ele><time>2026-04-09T17:24:19Z</time></trkpt><trkpt lat="39.64958110476883" lon="-3.8836572859497642"><ele>757.0</ele><time>2026-04-09T17:24:20Z</time></trkpt><trkpt lat="39.649657113834834" lon="-3.8836539514088675"><ele>757.0</ele><time>2026-04-09T17:24:21Z</time></trkpt><trkpt lat="39.64975279004924" lon="-3.8836537713325865"><ele>756.6</ele><time>2026-04-09T17:24:23Z</time></trkpt><trkpt lat="39.64980132800283" lon="-3.88355442092948"><ele>756.2</ele><time>2026-04-09T17:24:33Z</time></trkpt><trkpt lat="39.64976345014057" lon="-3.883466487966801"><ele>755.8</ele><time>2026-04-09T17:24:34Z</time></trkpt><trkpt lat="39.649687743490134" lon="-3.883370331367857"><ele>755.4</ele><time>2026-04-09T17:24:35.002Z</time></trkpt><trkpt lat="39.64964658228962" lon="-3.88321779840918"><ele>755.0</ele><time>2026-04-09T17:24:36.002Z</time></trkpt><trkpt lat="39.64960217148252" lon="-3.883056791821188"><ele>755.0</ele><time>2026-04-09T17:24:37.002Z</time></trkpt><trkpt lat="39.64955295461181" lon="-3.882878361319322"><ele>755.0</ele><time>2026-04-09T17:24:38.002Z</time></trkpt><trkpt lat="39.649492106186145" lon="-3.882657761884397"><ele>755.0</ele><time>2026-04-09T17:24:39.002Z</time></trkpt><trkpt lat="39.64942258195399" lon="-3.88240362519061"><ele>754.6666666666666</ele><time>2026-04-09T17:24:40.002Z</time></trkpt><trkpt lat="39.64934703547201" lon="-3.8821384965658696"><ele>754.3333333333334</ele><time>2026-04-09T17:24:41.002Z</time></trkpt><trkpt lat="39.64926427945042" lon="-3.8818835269960914"><ele>754.0</ele><time>2026-04-09T17:24:42.002Z</time></trkpt><trkpt lat="39.649163826969776" lon="-3.881637316004328"><ele>753.3333333333334</ele><time>2026-04-09T17:24:43.002Z</time></trkpt><trkpt lat="39.649065594038376" lon="-3.881418734274866"><ele>752.6666666666666</ele><time>2026-04-09T17:24:44.002Z</time></trkpt><trkpt lat="39.64896619252123" lon="-3.8811997166229086"><ele>752.0</ele><time>2026-04-09T17:24:45.002Z</time></trkpt><trkpt lat="39.64887095669252" lon="-3.8809922664361345"><ele>752.0</ele><time>2026-04-09T17:24:46.002Z</time></trkpt><trkpt lat="39.64877281651887" lon="-3.8807802901713138"><ele>752.0</ele><time>2026-04-09T17:24:47.002Z</time></trkpt><trkpt lat="39.64867866840437" lon="-3.8805751061242693"><ele>752.0</ele><time>2026-04-09T17:24:48.002Z</time></trkpt><trkpt lat="39.64859208557498" lon="-3.88038640077237"><ele>751.6666666666666</ele><time>2026-04-09T17:24:49.002Z</time></trkpt><trkpt lat="39.64850063779156" lon="-3.8801870834660774"><ele>751.3333333333334</ele><time>2026-04-09T17:24:50.001Z</time></trkpt><trkpt lat="39.64841781331754" lon="-3.88000656133248"><ele>751.0</ele><time>2026-04-09T17:24:51.001Z</time></trkpt><trkpt lat="39.64833414479266" lon="-3.8798224825295455"><ele>751.0</ele><time>2026-04-09T17:24:52.001Z</time></trkpt><trkpt lat="39.64825183960846" lon="-3.879639486423689"><ele>751.0</ele><time>2026-04-09T17:24:53.001Z</time></trkpt><trkpt lat="39.64817558922028" lon="-3.879471810341312"><ele>751.0</ele><time>2026-04-09T17:24:54.001Z</time></trkpt><trkpt lat="39.648099031551624" lon="-3.8793043989248788"><ele>750.75</ele><time>2026-04-09T17:24:55.001Z</time></trkpt><trkpt lat="39.64802357584333" lon="-3.879141697877145"><ele>750.5</ele><time>2026-04-09T17:24:56.001Z</time></trkpt><trkpt lat="39.647949669983674" lon="-3.878988487514322"><ele>750.25</ele><time>2026-04-09T17:24:57.001Z</time></trkpt><trkpt lat="39.64788568887711" lon="-3.8788549264290406"><ele>750.0</ele><time>2026-04-09T17:24:58.001Z</time></trkpt><trkpt lat="39.64782625809929" lon="-3.878730864241449"><ele>750.0</ele><time>2026-04-09T17:24:59.001Z</time></trkpt><trkpt lat="39.64777617062764" lon="-3.8786196574113156"><ele>750.0</ele><time>2026-04-09T17:25:00.001Z</time></trkpt><trkpt lat="39.647725052643054" lon="-3.878515459030299"><ele>750.0</ele><time>2026-04-09T17:25:01.001Z</time></trkpt><trkpt lat="39.64767832986981" lon="-3.87842568745369"><ele>750.0</ele><time>2026-04-09T17:25:02.001Z</time></trkpt><trkpt lat="39.647656474334234" lon="-3.878266040421481"><ele>750.0</ele><time>2026-04-09T17:25:04.001Z</time></trkpt><trkpt lat="39.647720845125306" lon="-3.8781458048512003"><ele>749.8</ele><time>2026-04-09T17:25:06.001Z</time></trkpt><trkpt lat="39.64778927661422" lon="-3.878119126453408"><ele>749.6</ele><time>2026-04-09T17:25:07.001Z</time></trkpt><trkpt lat="39.647883426281076" lon="-3.8781240656349616"><ele>749.4000000000001</ele><time>2026-04-09T17:25:09.001Z</time></trkpt><trkpt lat="39.647972416357085" lon="-3.8781411686935305"><ele>749.2</ele><time>2026-04-09T17:25:10.001Z</time></trkpt><trkpt lat="39.64808070203373" lon="-3.8781380749972425"><ele>749.0</ele><time>2026-04-09T17:25:11.001Z</time></trkpt><trkpt lat="39.64820394766617" lon="-3.8781245276666576"><ele>749.0</ele><time>2026-04-09T17:25:12.001Z</time></trkpt><trkpt lat="39.64832254874924" lon="-3.878103023233333"><ele>749.0</ele><time>2026-04-09T17:25:13.001Z</time></trkpt><trkpt lat="39.64843193347872" lon="-3.878062925951468"><ele>749.0</ele><time>2026-04-09T17:25:14.001Z</time></trkpt><trkpt lat="39.64853737919041" lon="-3.878007582537724"><ele>749.0</ele><time>2026-04-09T17:25:15.001Z</time></trkpt><trkpt lat="39.64863293885455" lon="-3.877944749286958"><ele>748.8000000000001</ele><time>2026-04-09T17:25:16.001Z</time></trkpt><trkpt lat="39.64871473256952" lon="-3.8778874283424742"><ele>748.6</ele><time>2026-04-09T17:25:17.001Z</time></trkpt><trkpt lat="39.64878588234635" lon="-3.8778497269491985"><ele>748.4</ele><time>2026-04-09T17:25:18.001Z</time></trkpt><trkpt lat="39.648861281619126" lon="-3.877786661967106"><ele>748.2</ele><time>2026-04-09T17:25:19.001Z</time></trkpt><trkpt lat="39.648945784058036" lon="-3.877726447532474"><ele>748.0</ele><time>2026-04-09T17:25:20.001Z</time></trkpt><trkpt lat="39.64904227774438" lon="-3.877681108535699"><ele>748.0</ele><time>2026-04-09T17:25:21.001Z</time></trkpt><trkpt lat="39.64913940350589" lon="-3.8776273925100644"><ele>748.0</ele><time>2026-04-09T17:25:22.001Z</time></trkpt><trkpt lat="39.64923250789771" lon="-3.877577823853757"><ele>748.0</ele><time>2026-04-09T17:25:23.001Z</time></trkpt><trkpt lat="39.649307482979" lon="-3.877535886107033"><ele>748.0</ele><time>2026-04-09T17:25:24.001Z</time></trkpt><trkpt lat="39.64939972809136" lon="-3.877449684574797"><ele>748.0</ele><time>2026-04-09T17:25:26.001Z</time></trkpt><trkpt lat="39.64938996681145" lon="-3.877536265722882"><ele>748.0</ele><time>2026-04-09T17:26:08Z</time></trkpt><trkpt lat="39.649381478225635" lon="-3.8776315802394974"><ele>748.0</ele><time>2026-04-09T17:27:02.001Z</time></trkpt><trkpt lat="39.64943719752256" lon="-3.8775630184007928"><ele>748.0</ele><time>2026-04-09T17:27:12.001Z</time></trkpt><trkpt lat="39.649356642791716" lon="-3.877596235104592"><ele>748.0</ele><time>2026-04-09T17:27:31Z</time></trkpt><trkpt lat="39.64941410859776" lon="-3.877537469643466"><ele>748.0</ele><time>2026-04-09T17:28:03Z</time></trkpt><trkpt lat="39.64937241753968" lon="-3.877462802113845"><ele>748.0</ele><time>2026-04-09T17:28:06Z</time></trkpt><trkpt lat="39.6492448018933" lon="-3.8776247754732944"><ele>748.0</ele><time>2026-04-09T17:29:50.999Z</time></trkpt><trkpt lat="39.64913375417473" lon="-3.877703782215814"><ele>748.0</ele><time>2026-04-09T17:29:51.999Z</time></trkpt><trkpt lat="39.64897232028769" lon="-3.877790410590791"><ele>748.0</ele><time>2026-04-09T17:29:52.999Z</time></trkpt><trkpt lat="39.64885088572797" lon="-3.877865318365253"><ele>748.0</ele><time>2026-04-09T17:29:53.999Z</time></trkpt><trkpt lat="39.64871986141869" lon="-3.8779385044261696"><ele>748.25</ele><time>2026-04-09T17:29:54.999Z</time></trkpt><trkpt lat="39.648605603512685" lon="-3.8780242518361647"><ele>748.5</ele><time>2026-04-09T17:29:55.999Z</time></trkpt><trkpt lat="39.64848154083431" lon="-3.87808984448576"><ele>748.75</ele><time>2026-04-09T17:29:56.999Z</time></trkpt><trkpt lat="39.64836062568823" lon="-3.8781350561437957"><ele>749.0</ele><time>2026-04-09T17:29:57.999Z</time></trkpt><trkpt lat="39.648263879414685" lon="-3.8781783471285487"><ele>749.0</ele><time>2026-04-09T17:29:58.999Z</time></trkpt><trkpt lat="39.648174567784864" lon="-3.8782308566871255"><ele>749.0</ele><time>2026-04-09T17:29:59.999Z</time></trkpt><trkpt lat="39.64810252054259" lon="-3.8782985673457864"><ele>749.0</ele><time>2026-04-09T17:30:00.999Z</time></trkpt><trkpt lat="39.64804386822289" lon="-3.8783646079959273"><ele>749.0</ele><time>2026-04-09T17:30:01.999Z</time></trkpt><trkpt lat="39.647970317742455" lon="-3.8784047677440605"><ele>749.0</ele><time>2026-04-09T17:30:02.999Z</time></trkpt><trkpt lat="39.64790148676961" lon="-3.8784035452568113"><ele>749.0</ele><time>2026-04-09T17:30:03.999Z</time></trkpt><trkpt lat="39.64780777009748" lon="-3.8784500305238816"><ele>749.2</ele><time>2026-04-09T17:30:05.999Z</time></trkpt><trkpt lat="39.64784709908752" lon="-3.878571300739331"><ele>749.4000000000001</ele><time>2026-04-09T17:30:10.999Z</time></trkpt><trkpt lat="39.64788434418641" lon="-3.8786565844127336"><ele>749.6</ele><time>2026-04-09T17:30:11.999Z</time></trkpt><trkpt lat="39.647938137489206" lon="-3.878743690089291"><ele>749.8</ele><time>2026-04-09T17:30:12.999Z</time></trkpt><trkpt lat="39.6479785285419" lon="-3.8788526663407543"><ele>750.0</ele><time>2026-04-09T17:30:13.999Z</time></trkpt><trkpt lat="39.64802990761584" lon="-3.8790015600547365"><ele>750.0</ele><time>2026-04-09T17:30:14.999Z</time></trkpt><trkpt lat="39.64809125049548" lon="-3.8791401116947846"><ele>750.0</ele><time>2026-04-09T17:30:15.999Z</time></trkpt><trkpt lat="39.64816402400272" lon="-3.879295158235856"><ele>750.0</ele><time>2026-04-09T17:30:16.999Z</time></trkpt><trkpt lat="39.64823581324136" lon="-3.87945166579363"><ele>750.0</ele><time>2026-04-09T17:30:17.999Z</time></trkpt><trkpt lat="39.64830960300104" lon="-3.8796155294260766"><ele>750.0</ele><time>2026-04-09T17:30:18.999Z</time></trkpt><trkpt lat="39.64838539088544" lon="-3.879790639700507"><ele>750.0</ele><time>2026-04-09T17:30:19.999Z</time></trkpt><trkpt lat="39.648467178000416" lon="-3.8799847474812914"><ele>750.0</ele><time>2026-04-09T17:30:20.999Z</time></trkpt><trkpt lat="39.64856171166842" lon="-3.880169529074622"><ele>750.6666666666666</ele><time>2026-04-09T17:30:21.999Z</time></trkpt><trkpt lat="39.64865875522332" lon="-3.880347076824939"><ele>751.3333333333333</ele><time>2026-04-09T17:30:22.999Z</time></trkpt><trkpt lat="39.648745194671456" lon="-3.8805342943683967"><ele>752.0</ele><time>2026-04-09T17:30:23.999Z</time></trkpt><trkpt lat="39.64882333480573" lon="-3.8807168997866848"><ele>752.0</ele><time>2026-04-09T17:30:24.999Z</time></trkpt><trkpt lat="39.64889736178386" lon="-3.8808949712723737"><ele>752.0</ele><time>2026-04-09T17:30:25.999Z</time></trkpt><trkpt lat="39.64898142221088" lon="-3.881071422567021"><ele>752.0</ele><time>2026-04-09T17:30:26.999Z</time></trkpt><trkpt lat="39.64906594260832" lon="-3.8812527836472057"><ele>752.0</ele><time>2026-04-09T17:30:27.999Z</time></trkpt><trkpt lat="39.649147277893825" lon="-3.881425148178041"><ele>752.0</ele><time>2026-04-09T17:30:28.999Z</time></trkpt><trkpt lat="39.64922837536377" lon="-3.8816076605426004"><ele>752.0</ele><time>2026-04-09T17:30:29.999Z</time></trkpt><trkpt lat="39.649304947938134" lon="-3.8817894895082805"><ele>752.6666666666666</ele><time>2026-04-09T17:30:30.999Z</time></trkpt><trkpt lat="39.64937798645384" lon="-3.881985223228412"><ele>753.3333333333334</ele><time>2026-04-09T17:30:31.999Z</time></trkpt><trkpt lat="39.64944996288485" lon="-3.882182719315378"><ele>754.0</ele><time>2026-04-09T17:30:32.999Z</time></trkpt><trkpt lat="39.64950263016447" lon="-3.882378967881452"><ele>754.3333333333334</ele><time>2026-04-09T17:30:33.999Z</time></trkpt><trkpt lat="39.649549669773165" lon="-3.882582655088257"><ele>754.6666666666666</ele><time>2026-04-09T17:30:34.999Z</time></trkpt><trkpt lat="39.6495995723357" lon="-3.882780250136708"><ele>755.0</ele><time>2026-04-09T17:30:35.999Z</time></trkpt><trkpt lat="39.649650139583315" lon="-3.8829804006058306"><ele>755.0</ele><time>2026-04-09T17:30:36.999Z</time></trkpt><trkpt lat="39.64970612714337" lon="-3.8831816248914697"><ele>755.0</ele><time>2026-04-09T17:30:37.999Z</time></trkpt><trkpt lat="39.64976085052812" lon="-3.8833784010252077"><ele>755.0</ele><time>2026-04-09T17:30:38.999Z</time></trkpt><trkpt lat="39.64981555693014" lon="-3.8835777630813237"><ele>755.0</ele><time>2026-04-09T17:30:39.999Z</time></trkpt><trkpt lat="39.649871918181525" lon="-3.8837811469823422"><ele>755.0</ele><time>2026-04-09T17:30:40.999Z</time></trkpt><trkpt lat="39.64992992840211" lon="-3.8839744638949814"><ele>755.0</ele><time>2026-04-09T17:30:41.999Z</time></trkpt><trkpt lat="39.64998483270957" lon="-3.8841720695430544"><ele>755.6666666666666</ele><time>2026-04-09T17:30:42.999Z</time></trkpt><trkpt lat="39.650038145630695" lon="-3.884380538243471"><ele>756.3333333333334</ele><time>2026-04-09T17:30:43.999Z</time></trkpt><trkpt lat="39.650092713377845" lon="-3.88456864052959"><ele>757.0</ele><time>2026-04-09T17:30:44.999Z</time></trkpt><trkpt lat="39.65013797707917" lon="-3.8847691859368707"><ele>757.0</ele><time>2026-04-09T17:30:45.999Z</time></trkpt><trkpt lat="39.65019267104842" lon="-3.8849523708998803"><ele>757.0</ele><time>2026-04-09T17:30:46.999Z</time></trkpt><trkpt lat="39.65024191391121" lon="-3.885142535205865"><ele>757.0</ele><time>2026-04-09T17:30:47.999Z</time></trkpt><trkpt lat="39.65029169958362" lon="-3.885325379227599"><ele>757.0</ele><time>2026-04-09T17:30:48.999Z</time></trkpt><trkpt lat="39.65034460753616" lon="-3.885509452018512"><ele>757.0</ele><time>2026-04-09T17:30:49.999Z</time></trkpt><trkpt lat="39.650400745981976" lon="-3.8856707885567157"><ele>757.0</ele><time>2026-04-09T17:30:50.999Z</time></trkpt><trkpt lat="39.650445876257116" lon="-3.8858167713624368"><ele>757.0</ele><time>2026-04-09T17:30:51.999Z</time></trkpt><trkpt lat="39.6504804533087" lon="-3.88594332806341"><ele>757.4000000000001</ele><time>2026-04-09T17:30:53Z</time></trkpt><trkpt lat="39.6505176405668" lon="-3.886064565131859"><ele>757.8000000000001</ele><time>2026-04-09T17:30:54Z</time></trkpt><trkpt lat="39.65055583819005" lon="-3.8861891252577303"><ele>758.2</ele><time>2026-04-09T17:30:55Z</time></trkpt><trkpt lat="39.65060472943136" lon="-3.886283744629579"><ele>758.6</ele><time>2026-04-09T17:30:56Z</time></trkpt><trkpt lat="39.65072774212482" lon="-3.886371038638885"><ele>759.0</ele><time>2026-04-09T17:30:58Z</time></trkpt><trkpt lat="39.650785409315084" lon="-3.8864259179063017"><ele>759.0</ele><time>2026-04-09T17:30:59Z</time></trkpt><trkpt lat="39.650821338844786" lon="-3.8864996440187314"><ele>759.0</ele><time>2026-04-09T17:31:00Z</time></trkpt><trkpt lat="39.6507848586472" lon="-3.8865854734114036"><ele>759.0</ele><time>2026-04-09T17:31:03Z</time></trkpt><trkpt lat="39.65084734160102" lon="-3.8865477771938703"><ele>759.0</ele><time>2026-04-09T17:31:47Z</time></trkpt><trkpt lat="39.65088121435811" lon="-3.8864705182797143"><ele>759.0</ele><time>2026-04-09T17:31:54Z</time></trkpt><trkpt lat="39.650922064881726" lon="-3.8863915808531404"><ele>759.0</ele><time>2026-04-09T17:31:57Z</time></trkpt><trkpt lat="39.65089730420651" lon="-3.886494662870263"><ele>759.0</ele><time>2026-04-09T17:32:28.999Z</time></trkpt><trkpt lat="39.65085399734447" lon="-3.8865745816693256"><ele>759.0</ele><time>2026-04-09T17:32:33.999Z</time></trkpt><trkpt lat="39.650777621978776" lon="-3.886591647207077"><ele>759.0</ele><time>2026-04-09T17:32:43.999Z</time></trkpt><trkpt lat="39.65071487402556" lon="-3.886580647390078"><ele>759.0</ele><time>2026-04-09T17:39:09.999Z</time></trkpt><trkpt lat="39.650782314144315" lon="-3.886571634130684"><ele>759.0</ele><time>2026-04-09T17:40:48.999Z</time></trkpt><trkpt lat="39.65084783867039" lon="-3.886669059429293"><ele>759.0</ele><time>2026-04-09T17:41:37Z</time></trkpt><trkpt lat="39.65086249675092" lon="-3.8867522973757516"><ele>759.0</ele><time>2026-04-09T17:41:38Z</time></trkpt><trkpt lat="39.65086719852093" lon="-3.8868411344251697"><ele>759.0</ele><time>2026-04-09T17:41:39Z</time></trkpt><trkpt lat="39.65086211664636" lon="-3.88692728491037"><ele>759.0</ele><time>2026-04-09T17:41:40Z</time></trkpt><trkpt lat="39.650851572769504" lon="-3.887048654460769"><ele>759.0</ele><time>2026-04-09T17:41:42Z</time></trkpt><trkpt lat="39.650816926031546" lon="-3.887144922049695"><ele>759.0</ele><time>2026-04-09T17:41:45Z</time></trkpt><trkpt lat="39.65081283413522" lon="-3.887233609218472"><ele>759.0</ele><time>2026-04-09T17:41:47Z</time></trkpt><trkpt lat="39.650820208187355" lon="-3.887324799733344"><ele>759.0</ele><time>2026-04-09T17:41:48Z</time></trkpt><trkpt lat="39.650845411292416" lon="-3.887418528940008"><ele>759.0</ele><time>2026-04-09T17:41:49Z</time></trkpt><trkpt lat="39.65088936202969" lon="-3.8875200010385047"><ele>759.2</ele><time>2026-04-09T17:41:50Z</time></trkpt><trkpt lat="39.65090973895447" lon="-3.887617685646262"><ele>759.4000000000001</ele><time>2026-04-09T17:41:51Z</time></trkpt><trkpt lat="39.650935191507344" lon="-3.8877331091465295"><ele>759.6</ele><time>2026-04-09T17:41:52Z</time></trkpt><trkpt lat="39.65095961825374" lon="-3.8878580234900255"><ele>759.8</ele><time>2026-04-09T17:41:53Z</time></trkpt><trkpt lat="39.65098759113379" lon="-3.8879921595815103"><ele>760.0</ele><time>2026-04-09T17:41:54Z</time></trkpt><trkpt lat="39.651014252343664" lon="-3.888109761182811"><ele>760.0</ele><time>2026-04-09T17:41:55Z</time></trkpt><trkpt lat="39.651044471004695" lon="-3.88823868522211"><ele>760.0</ele><time>2026-04-09T17:41:56Z</time></trkpt><trkpt lat="39.65104438986403" lon="-3.88834548572891"><ele>760.0</ele><time>2026-04-09T17:41:57Z</time></trkpt><trkpt lat="39.65101302101764" lon="-3.8884375861637483"><ele>760.0</ele><time>2026-04-09T17:41:58Z</time></trkpt><trkpt lat="39.65095256525745" lon="-3.8885163160008585"><ele>760.0</ele><time>2026-04-09T17:41:59Z</time></trkpt><trkpt lat="39.650899742300545" lon="-3.8885907278843668"><ele>760.0</ele><time>2026-04-09T17:42:00Z</time></trkpt><trkpt lat="39.65086211302114" lon="-3.888671128357017"><ele>760.3333333333334</ele><time>2026-04-09T17:42:01Z</time></trkpt><trkpt lat="39.65082323438129" lon="-3.888769763590181"><ele>760.6666666666667</ele><time>2026-04-09T17:42:02Z</time></trkpt><trkpt lat="39.650776097170976" lon="-3.8888679574835794"><ele>761.0</ele><time>2026-04-09T17:42:03Z</time></trkpt><trkpt lat="39.65072412538966" lon="-3.888969351951442"><ele>761.3333333333334</ele><time>2026-04-09T17:42:03.999Z</time></trkpt><trkpt lat="39.65068465125681" lon="-3.889071114647439"><ele>761.6666666666666</ele><time>2026-04-09T17:42:04.999Z</time></trkpt><trkpt lat="39.65062662787933" lon="-3.8891450587053606"><ele>762.0</ele><time>2026-04-09T17:42:05.999Z</time></trkpt><trkpt lat="39.65055243905836" lon="-3.889181021851721"><ele>762.0</ele><time>2026-04-09T17:42:06.999Z</time></trkpt><trkpt lat="39.65047847011443" lon="-3.889197622393316"><ele>762.0</ele><time>2026-04-09T17:42:07.999Z</time></trkpt><trkpt lat="39.65041734424382" lon="-3.889269022182717"><ele>762.0</ele><time>2026-04-09T17:42:09.999Z</time></trkpt><trkpt lat="39.65045497748817" lon="-3.8893397507658287"><ele>762.0</ele><time>2026-04-09T17:42:10.999Z</time></trkpt><trkpt lat="39.65047242021885" lon="-3.8894220309465104"><ele>762.0</ele><time>2026-04-09T17:42:11.999Z</time></trkpt><trkpt lat="39.650516057620784" lon="-3.889513955669627"><ele>762.0</ele><time>2026-04-09T17:42:12.999Z</time></trkpt><trkpt lat="39.65053706228354" lon="-3.889615857628217"><ele>762.0</ele><time>2026-04-09T17:42:13.999Z</time></trkpt><trkpt lat="39.6505587940793" lon="-3.889729782385729"><ele>762.0</ele><time>2026-04-09T17:42:14.999Z</time></trkpt><trkpt lat="39.65058485321572" lon="-3.8898321278493593"><ele>762.0</ele><time>2026-04-09T17:42:15.999Z</time></trkpt><trkpt lat="39.65061320378772" lon="-3.889929023452234"><ele>762.0</ele><time>2026-04-09T17:42:16.999Z</time></trkpt><trkpt lat="39.6506337187869" lon="-3.890029447961052"><ele>762.0</ele><time>2026-04-09T17:42:17.999Z</time></trkpt><trkpt lat="39.650656971442785" lon="-3.8901343790452034"><ele>762.0</ele><time>2026-04-09T17:42:18.999Z</time></trkpt><trkpt lat="39.65068216396392" lon="-3.890236438962071"><ele>762.1666666666666</ele><time>2026-04-09T17:42:19.999Z</time></trkpt><trkpt lat="39.65070755622442" lon="-3.8903318281036294"><ele>762.3333333333334</ele><time>2026-04-09T17:42:20.999Z</time></trkpt><trkpt lat="39.65075815969309" lon="-3.8904034725686003"><ele>762.5</ele><time>2026-04-09T17:42:21.999Z</time></trkpt><trkpt lat="39.6508223526765" lon="-3.8903050311982357"><ele>762.6666666666667</ele><time>2026-04-09T17:42:23.999Z</time></trkpt><trkpt lat="39.65089512999534" lon="-3.8902684353327253"><ele>762.8333333333334</ele><time>2026-04-09T17:42:24.999Z</time></trkpt><trkpt lat="39.65097574129336" lon="-3.8902279000230062"><ele>763.0</ele><time>2026-04-09T17:42:25.999Z</time></trkpt><trkpt lat="39.65105293556685" lon="-3.8901890829553705"><ele>763.0</ele><time>2026-04-09T17:42:26.999Z</time></trkpt><trkpt lat="39.651114426288366" lon="-3.8901581624561197"><ele>763.0</ele><time>2026-04-09T17:42:27.999Z</time></trkpt><trkpt lat="39.65105376798257" lon="-3.8900977318608425"><ele>763.0</ele><time>2026-04-09T17:42:29.999Z</time></trkpt><trkpt lat="39.65106336841701" lon="-3.8900016843140337"><ele>763.0</ele><time>2026-04-09T17:42:30.999Z</time></trkpt><trkpt lat="39.65103319855302" lon="-3.8899035417785677"><ele>763.0</ele><time>2026-04-09T17:42:31.999Z</time></trkpt><trkpt lat="39.6510078601807" lon="-3.8897949848215045"><ele>763.0</ele><time>2026-04-09T17:42:32.999Z</time></trkpt><trkpt lat="39.65098943853544" lon="-3.88969029148141"><ele>762.8333333333334</ele><time>2026-04-09T17:42:33.999Z</time></trkpt><trkpt lat="39.65097313573139" lon="-3.889610383732441"><ele>762.6666666666667</ele><time>2026-04-09T17:42:34.999Z</time></trkpt><trkpt lat="39.650923186546116" lon="-3.889503172928666"><ele>762.5</ele><time>2026-04-09T17:42:36.999Z</time></trkpt><trkpt lat="39.65085475856688" lon="-3.889533148191717"><ele>762.3333333333334</ele><time>2026-04-09T17:42:39.999Z</time></trkpt><trkpt lat="39.65085615154076" lon="-3.889635018898071"><ele>762.1666666666666</ele><time>2026-04-09T17:43:23.998Z</time></trkpt><trkpt lat="39.650898786476844" lon="-3.8897002681460173"><ele>762.0</ele><time>2026-04-09T17:44:35.999Z</time></trkpt><trkpt lat="39.65096452944008" lon="-3.8898251545552496"><ele>762.0</ele><time>2026-04-09T17:54:33Z</time></trkpt><trkpt lat="39.65101996981611" lon="-3.889777400857022"><ele>762.0</ele><time>2026-04-09T18:14:27.998Z</time></trkpt><trkpt lat="39.650942821833866" lon="-3.8896700589341213"><ele>762.0</ele><time>2026-04-09T18:14:38.998Z</time></trkpt></trkseg></trk></gpx>